<?xml version="1.0" encoding="UTF-8" standalone="no" ?>
<gpx xmlns="http://www.topografix.com/GPX/1/1" xmlns:xsi="http://www.w3.org/2001/XMLSchema-instance" xsi:schemaLocation="http://www.topografix.com/GPX/1/1 http://www.topografix.com/GPX/1/1/gpx.xsd" version="1.1" creator="VisuGPX - https://www.visugpx.com">
  <metadata>
    <name>Pierrefeu-Collobriéres-Grimaud-Plan de la Tour</name>
  </metadata>
  <trk>
    <name><![CDATA[Pierrefeu-Collobriéres-Grimaud-Plan de la Tour]]></name>
    <extensions>
      <line xmlns="http://www.topografix.com/GPX/gpx_style/0/2">
        <color>0000FF</color>
        <width>4</width>
      </line>
    </extensions>
    <trkseg>
      <trkpt lat="43.2278" lon="6.14298">
        <ele>99.5</ele>
        <time>2021-07-11T06:03:48Z</time>
      </trkpt>
      <trkpt lat="43.22779" lon="6.14305">
        <ele>99.5</ele>
        <time>2021-07-11T06:03:56Z</time>
      </trkpt>
      <trkpt lat="43.22777" lon="6.14315">
        <ele>99.4</ele>
        <time>2021-07-11T06:04:04Z</time>
      </trkpt>
      <trkpt lat="43.22777" lon="6.14317">
        <ele>99.4</ele>
        <time>2021-07-11T06:04:06Z</time>
      </trkpt>
      <trkpt lat="43.22779" lon="6.14327">
        <ele>99.2</ele>
        <time>2021-07-11T06:04:11Z</time>
      </trkpt>
      <trkpt lat="43.22791" lon="6.14336">
        <ele>99.1</ele>
        <time>2021-07-11T06:04:16Z</time>
      </trkpt>
      <trkpt lat="43.22826" lon="6.14362">
        <ele>98.6</ele>
        <time>2021-07-11T06:04:26Z</time>
      </trkpt>
      <trkpt lat="43.22841" lon="6.14387">
        <ele>97.9</ele>
        <time>2021-07-11T06:04:30Z</time>
      </trkpt>
      <trkpt lat="43.22856" lon="6.14428">
        <ele>96.9</ele>
        <time>2021-07-11T06:04:35Z</time>
      </trkpt>
      <trkpt lat="43.22859" lon="6.14437">
        <ele>96.6</ele>
        <time>2021-07-11T06:04:36Z</time>
      </trkpt>
      <trkpt lat="43.22862" lon="6.14447">
        <ele>96.4</ele>
        <time>2021-07-11T06:04:37Z</time>
      </trkpt>
      <trkpt lat="43.22869" lon="6.14465">
        <ele>95.9</ele>
        <time>2021-07-11T06:04:39Z</time>
      </trkpt>
      <trkpt lat="43.22872" lon="6.14474">
        <ele>95.6</ele>
        <time>2021-07-11T06:04:40Z</time>
      </trkpt>
      <trkpt lat="43.22876" lon="6.14483">
        <ele>95.3</ele>
        <time>2021-07-11T06:04:41Z</time>
      </trkpt>
      <trkpt lat="43.2288" lon="6.14491">
        <ele>95.1</ele>
        <time>2021-07-11T06:04:42Z</time>
      </trkpt>
      <trkpt lat="43.22888" lon="6.14508">
        <ele>94.5</ele>
        <time>2021-07-11T06:04:44Z</time>
      </trkpt>
      <trkpt lat="43.22897" lon="6.14525">
        <ele>93.8</ele>
        <time>2021-07-11T06:04:46Z</time>
      </trkpt>
      <trkpt lat="43.22912" lon="6.14549">
        <ele>92.9</ele>
        <time>2021-07-11T06:04:49Z</time>
      </trkpt>
      <trkpt lat="43.22918" lon="6.14557">
        <ele>92.6</ele>
        <time>2021-07-11T06:04:50Z</time>
      </trkpt>
      <trkpt lat="43.22924" lon="6.14565">
        <ele>92.2</ele>
        <time>2021-07-11T06:04:51Z</time>
      </trkpt>
      <trkpt lat="43.22931" lon="6.14573">
        <ele>91.9</ele>
        <time>2021-07-11T06:04:52Z</time>
      </trkpt>
      <trkpt lat="43.22958" lon="6.14608">
        <ele>90.1</ele>
        <time>2021-07-11T06:04:56Z</time>
      </trkpt>
      <trkpt lat="43.22982" lon="6.14652">
        <ele>88.3</ele>
        <time>2021-07-11T06:05:00Z</time>
      </trkpt>
      <trkpt lat="43.23002" lon="6.14701">
        <ele>86.5</ele>
        <time>2021-07-11T06:05:04Z</time>
      </trkpt>
      <trkpt lat="43.23012" lon="6.14724">
        <ele>85.6</ele>
        <time>2021-07-11T06:05:06Z</time>
      </trkpt>
      <trkpt lat="43.23031" lon="6.14772">
        <ele>83.9</ele>
        <time>2021-07-11T06:05:10Z</time>
      </trkpt>
      <trkpt lat="43.23063" lon="6.14847">
        <ele>81.3</ele>
        <time>2021-07-11T06:05:16Z</time>
      </trkpt>
      <trkpt lat="43.23094" lon="6.14921">
        <ele>79.4</ele>
        <time>2021-07-11T06:05:22Z</time>
      </trkpt>
      <trkpt lat="43.23105" lon="6.14943">
        <ele>79.1</ele>
        <time>2021-07-11T06:05:24Z</time>
      </trkpt>
      <trkpt lat="43.23115" lon="6.14966">
        <ele>78.9</ele>
        <time>2021-07-11T06:05:26Z</time>
      </trkpt>
      <trkpt lat="43.23119" lon="6.14978">
        <ele>78.9</ele>
        <time>2021-07-11T06:05:27Z</time>
      </trkpt>
      <trkpt lat="43.23122" lon="6.14989">
        <ele>78.9</ele>
        <time>2021-07-11T06:05:28Z</time>
      </trkpt>
      <trkpt lat="43.23133" lon="6.15021">
        <ele>78.8</ele>
        <time>2021-07-11T06:05:31Z</time>
      </trkpt>
      <trkpt lat="43.23146" lon="6.1505">
        <ele>78.4</ele>
        <time>2021-07-11T06:05:34Z</time>
      </trkpt>
      <trkpt lat="43.2315" lon="6.15061">
        <ele>78.2</ele>
        <time>2021-07-11T06:05:35Z</time>
      </trkpt>
      <trkpt lat="43.23153" lon="6.15072">
        <ele>78</ele>
        <time>2021-07-11T06:05:36Z</time>
      </trkpt>
      <trkpt lat="43.23159" lon="6.15105">
        <ele>77.6</ele>
        <time>2021-07-11T06:05:39Z</time>
      </trkpt>
      <trkpt lat="43.23165" lon="6.15148">
        <ele>77.3</ele>
        <time>2021-07-11T06:05:43Z</time>
      </trkpt>
      <trkpt lat="43.23168" lon="6.15181">
        <ele>77.3</ele>
        <time>2021-07-11T06:05:46Z</time>
      </trkpt>
      <trkpt lat="43.2318" lon="6.15256">
        <ele>77.1</ele>
        <time>2021-07-11T06:05:53Z</time>
      </trkpt>
      <trkpt lat="43.23185" lon="6.15288">
        <ele>76.8</ele>
        <time>2021-07-11T06:05:56Z</time>
      </trkpt>
      <trkpt lat="43.23198" lon="6.15361">
        <ele>76.4</ele>
        <time>2021-07-11T06:06:03Z</time>
      </trkpt>
      <trkpt lat="43.23203" lon="6.15392">
        <ele>76.3</ele>
        <time>2021-07-11T06:06:06Z</time>
      </trkpt>
      <trkpt lat="43.23216" lon="6.15471">
        <ele>76.4</ele>
        <time>2021-07-11T06:06:14Z</time>
      </trkpt>
      <trkpt lat="43.23218" lon="6.15491">
        <ele>76.5</ele>
        <time>2021-07-11T06:06:16Z</time>
      </trkpt>
      <trkpt lat="43.23223" lon="6.15569">
        <ele>77.5</ele>
        <time>2021-07-11T06:06:25Z</time>
      </trkpt>
      <trkpt lat="43.23224" lon="6.15577">
        <ele>77.6</ele>
        <time>2021-07-11T06:06:26Z</time>
      </trkpt>
      <trkpt lat="43.23229" lon="6.15655">
        <ele>78.8</ele>
        <time>2021-07-11T06:06:36Z</time>
      </trkpt>
      <trkpt lat="43.23241" lon="6.1573">
        <ele>79.6</ele>
        <time>2021-07-11T06:06:46Z</time>
      </trkpt>
      <trkpt lat="43.23262" lon="6.15804">
        <ele>79.7</ele>
        <time>2021-07-11T06:06:56Z</time>
      </trkpt>
      <trkpt lat="43.23288" lon="6.15878">
        <ele>80</ele>
        <time>2021-07-11T06:07:06Z</time>
      </trkpt>
      <trkpt lat="43.2331" lon="6.15947">
        <ele>80.5</ele>
        <time>2021-07-11T06:07:15Z</time>
      </trkpt>
      <trkpt lat="43.23312" lon="6.15955">
        <ele>80.6</ele>
        <time>2021-07-11T06:07:16Z</time>
      </trkpt>
      <trkpt lat="43.23332" lon="6.16026">
        <ele>81.4</ele>
        <time>2021-07-11T06:07:25Z</time>
      </trkpt>
      <trkpt lat="43.23333" lon="6.16034">
        <ele>81.4</ele>
        <time>2021-07-11T06:07:26Z</time>
      </trkpt>
      <trkpt lat="43.2334" lon="6.16066">
        <ele>81.8</ele>
        <time>2021-07-11T06:07:30Z</time>
      </trkpt>
      <trkpt lat="43.23351" lon="6.16116">
        <ele>82.2</ele>
        <time>2021-07-11T06:07:36Z</time>
      </trkpt>
      <trkpt lat="43.23364" lon="6.16189">
        <ele>82.7</ele>
        <time>2021-07-11T06:07:45Z</time>
      </trkpt>
      <trkpt lat="43.23366" lon="6.16197">
        <ele>82.7</ele>
        <time>2021-07-11T06:07:46Z</time>
      </trkpt>
      <trkpt lat="43.23375" lon="6.16272">
        <ele>82.4</ele>
        <time>2021-07-11T06:07:55Z</time>
      </trkpt>
      <trkpt lat="43.23375" lon="6.16281">
        <ele>82.3</ele>
        <time>2021-07-11T06:07:56Z</time>
      </trkpt>
      <trkpt lat="43.23386" lon="6.16357">
        <ele>80.3</ele>
        <time>2021-07-11T06:08:04Z</time>
      </trkpt>
      <trkpt lat="43.23391" lon="6.16379">
        <ele>79.6</ele>
        <time>2021-07-11T06:08:06Z</time>
      </trkpt>
      <trkpt lat="43.23403" lon="6.16457">
        <ele>77.5</ele>
        <time>2021-07-11T06:08:13Z</time>
      </trkpt>
      <trkpt lat="43.23409" lon="6.16491">
        <ele>76.6</ele>
        <time>2021-07-11T06:08:16Z</time>
      </trkpt>
      <trkpt lat="43.2342" lon="6.16574">
        <ele>74.8</ele>
        <time>2021-07-11T06:08:23Z</time>
      </trkpt>
      <trkpt lat="43.23421" lon="6.16609">
        <ele>74.4</ele>
        <time>2021-07-11T06:08:26Z</time>
      </trkpt>
      <trkpt lat="43.2342" lon="6.16686">
        <ele>74</ele>
        <time>2021-07-11T06:08:33Z</time>
      </trkpt>
      <trkpt lat="43.23418" lon="6.16718">
        <ele>73.7</ele>
        <time>2021-07-11T06:08:36Z</time>
      </trkpt>
      <trkpt lat="43.23405" lon="6.16792">
        <ele>73.1</ele>
        <time>2021-07-11T06:08:43Z</time>
      </trkpt>
      <trkpt lat="43.23397" lon="6.16822">
        <ele>73</ele>
        <time>2021-07-11T06:08:46Z</time>
      </trkpt>
      <trkpt lat="43.23373" lon="6.16898">
        <ele>73.2</ele>
        <time>2021-07-11T06:08:54Z</time>
      </trkpt>
      <trkpt lat="43.23365" lon="6.16915">
        <ele>73.4</ele>
        <time>2021-07-11T06:08:56Z</time>
      </trkpt>
      <trkpt lat="43.23347" lon="6.16953">
        <ele>73.7</ele>
        <time>2021-07-11T06:09:01Z</time>
      </trkpt>
      <trkpt lat="43.23325" lon="6.16987">
        <ele>74.1</ele>
        <time>2021-07-11T06:09:06Z</time>
      </trkpt>
      <trkpt lat="43.23283" lon="6.1704">
        <ele>74.6</ele>
        <time>2021-07-11T06:09:15Z</time>
      </trkpt>
      <trkpt lat="43.23278" lon="6.17046">
        <ele>74.7</ele>
        <time>2021-07-11T06:09:16Z</time>
      </trkpt>
      <trkpt lat="43.23252" lon="6.17101">
        <ele>75</ele>
        <time>2021-07-11T06:09:24Z</time>
      </trkpt>
      <trkpt lat="43.23245" lon="6.17116">
        <ele>75.1</ele>
        <time>2021-07-11T06:09:26Z</time>
      </trkpt>
      <trkpt lat="43.23228" lon="6.1716">
        <ele>75.4</ele>
        <time>2021-07-11T06:09:32Z</time>
      </trkpt>
      <trkpt lat="43.23226" lon="6.17167">
        <ele>75.5</ele>
        <time>2021-07-11T06:09:33Z</time>
      </trkpt>
      <trkpt lat="43.23222" lon="6.17183">
        <ele>75.5</ele>
        <time>2021-07-11T06:09:35Z</time>
      </trkpt>
      <trkpt lat="43.23222" lon="6.17191">
        <ele>75.5</ele>
        <time>2021-07-11T06:09:36Z</time>
      </trkpt>
      <trkpt lat="43.23222" lon="6.17221">
        <ele>75.3</ele>
        <time>2021-07-11T06:09:39Z</time>
      </trkpt>
      <trkpt lat="43.23229" lon="6.17295">
        <ele>74.4</ele>
        <time>2021-07-11T06:09:46Z</time>
      </trkpt>
      <trkpt lat="43.23234" lon="6.17336">
        <ele>74.2</ele>
        <time>2021-07-11T06:09:50Z</time>
      </trkpt>
      <trkpt lat="43.23239" lon="6.17375">
        <ele>74</ele>
        <time>2021-07-11T06:09:54Z</time>
      </trkpt>
      <trkpt lat="43.23242" lon="6.17393">
        <ele>74</ele>
        <time>2021-07-11T06:09:56Z</time>
      </trkpt>
      <trkpt lat="43.23252" lon="6.17469">
        <ele>73.8</ele>
        <time>2021-07-11T06:10:04Z</time>
      </trkpt>
      <trkpt lat="43.23253" lon="6.17489">
        <ele>73.8</ele>
        <time>2021-07-11T06:10:06Z</time>
      </trkpt>
      <trkpt lat="43.23251" lon="6.17564">
        <ele>73.7</ele>
        <time>2021-07-11T06:10:14Z</time>
      </trkpt>
      <trkpt lat="43.2325" lon="6.17582">
        <ele>73.8</ele>
        <time>2021-07-11T06:10:16Z</time>
      </trkpt>
      <trkpt lat="43.23243" lon="6.1766">
        <ele>74.4</ele>
        <time>2021-07-11T06:10:25Z</time>
      </trkpt>
      <trkpt lat="43.23243" lon="6.17669">
        <ele>74.4</ele>
        <time>2021-07-11T06:10:26Z</time>
      </trkpt>
      <trkpt lat="43.23243" lon="6.17749">
        <ele>74.2</ele>
        <time>2021-07-11T06:10:35Z</time>
      </trkpt>
      <trkpt lat="43.23243" lon="6.17758">
        <ele>74.2</ele>
        <time>2021-07-11T06:10:36Z</time>
      </trkpt>
      <trkpt lat="43.23243" lon="6.17839">
        <ele>74.5</ele>
        <time>2021-07-11T06:10:45Z</time>
      </trkpt>
      <trkpt lat="43.23243" lon="6.17848">
        <ele>74.5</ele>
        <time>2021-07-11T06:10:46Z</time>
      </trkpt>
      <trkpt lat="43.23229" lon="6.1792">
        <ele>75.3</ele>
        <time>2021-07-11T06:10:55Z</time>
      </trkpt>
      <trkpt lat="43.23227" lon="6.17927">
        <ele>75.4</ele>
        <time>2021-07-11T06:10:56Z</time>
      </trkpt>
      <trkpt lat="43.23199" lon="6.17992">
        <ele>76.6</ele>
        <time>2021-07-11T06:11:05Z</time>
      </trkpt>
      <trkpt lat="43.23197" lon="6.17999">
        <ele>76.8</ele>
        <time>2021-07-11T06:11:06Z</time>
      </trkpt>
      <trkpt lat="43.23183" lon="6.18043">
        <ele>77.3</ele>
        <time>2021-07-11T06:11:12Z</time>
      </trkpt>
      <trkpt lat="43.23174" lon="6.18075">
        <ele>77.7</ele>
        <time>2021-07-11T06:11:16Z</time>
      </trkpt>
      <trkpt lat="43.23159" lon="6.18138">
        <ele>78.3</ele>
        <time>2021-07-11T06:11:24Z</time>
      </trkpt>
      <trkpt lat="43.23156" lon="6.18154">
        <ele>78.3</ele>
        <time>2021-07-11T06:11:26Z</time>
      </trkpt>
      <trkpt lat="43.23152" lon="6.18186">
        <ele>78.5</ele>
        <time>2021-07-11T06:11:30Z</time>
      </trkpt>
      <trkpt lat="43.23151" lon="6.18202">
        <ele>78.6</ele>
        <time>2021-07-11T06:11:32Z</time>
      </trkpt>
      <trkpt lat="43.23155" lon="6.18235">
        <ele>78.7</ele>
        <time>2021-07-11T06:11:36Z</time>
      </trkpt>
      <trkpt lat="43.23182" lon="6.18304">
        <ele>78.6</ele>
        <time>2021-07-11T06:11:45Z</time>
      </trkpt>
      <trkpt lat="43.23185" lon="6.18311">
        <ele>78.6</ele>
        <time>2021-07-11T06:11:46Z</time>
      </trkpt>
      <trkpt lat="43.23205" lon="6.1838">
        <ele>78.5</ele>
        <time>2021-07-11T06:11:54Z</time>
      </trkpt>
      <trkpt lat="43.23209" lon="6.18398">
        <ele>78.5</ele>
        <time>2021-07-11T06:11:56Z</time>
      </trkpt>
      <trkpt lat="43.23221" lon="6.18476">
        <ele>78.7</ele>
        <time>2021-07-11T06:12:05Z</time>
      </trkpt>
      <trkpt lat="43.23221" lon="6.18485">
        <ele>78.8</ele>
        <time>2021-07-11T06:12:06Z</time>
      </trkpt>
      <trkpt lat="43.2323" lon="6.18564">
        <ele>78.8</ele>
        <time>2021-07-11T06:12:15Z</time>
      </trkpt>
      <trkpt lat="43.23232" lon="6.18572">
        <ele>78.8</ele>
        <time>2021-07-11T06:12:16Z</time>
      </trkpt>
      <trkpt lat="43.23257" lon="6.18645">
        <ele>79.6</ele>
        <time>2021-07-11T06:12:25Z</time>
      </trkpt>
      <trkpt lat="43.2326" lon="6.18652">
        <ele>79.7</ele>
        <time>2021-07-11T06:12:26Z</time>
      </trkpt>
      <trkpt lat="43.23287" lon="6.18721">
        <ele>79.9</ele>
        <time>2021-07-11T06:12:35Z</time>
      </trkpt>
      <trkpt lat="43.2329" lon="6.18729">
        <ele>79.9</ele>
        <time>2021-07-11T06:12:36Z</time>
      </trkpt>
      <trkpt lat="43.23313" lon="6.18776">
        <ele>79.8</ele>
        <time>2021-07-11T06:12:42Z</time>
      </trkpt>
      <trkpt lat="43.23324" lon="6.18808">
        <ele>79.8</ele>
        <time>2021-07-11T06:12:46Z</time>
      </trkpt>
      <trkpt lat="43.2334" lon="6.18874">
        <ele>79.9</ele>
        <time>2021-07-11T06:12:54Z</time>
      </trkpt>
      <trkpt lat="43.23341" lon="6.18891">
        <ele>79.7</ele>
        <time>2021-07-11T06:12:56Z</time>
      </trkpt>
      <trkpt lat="43.23354" lon="6.1897">
        <ele>80</ele>
        <time>2021-07-11T06:13:05Z</time>
      </trkpt>
      <trkpt lat="43.23355" lon="6.18979">
        <ele>80</ele>
        <time>2021-07-11T06:13:06Z</time>
      </trkpt>
      <trkpt lat="43.23353" lon="6.19057">
        <ele>80.8</ele>
        <time>2021-07-11T06:13:15Z</time>
      </trkpt>
      <trkpt lat="43.23352" lon="6.19066">
        <ele>81</ele>
        <time>2021-07-11T06:13:16Z</time>
      </trkpt>
      <trkpt lat="43.23344" lon="6.19144">
        <ele>83</ele>
        <time>2021-07-11T06:13:26Z</time>
      </trkpt>
      <trkpt lat="43.23325" lon="6.1922">
        <ele>83.8</ele>
        <time>2021-07-11T06:13:36Z</time>
      </trkpt>
      <trkpt lat="43.23314" lon="6.19297">
        <ele>84</ele>
        <time>2021-07-11T06:13:45Z</time>
      </trkpt>
      <trkpt lat="43.23314" lon="6.19306">
        <ele>84</ele>
        <time>2021-07-11T06:13:46Z</time>
      </trkpt>
      <trkpt lat="43.23313" lon="6.19388">
        <ele>84.9</ele>
        <time>2021-07-11T06:13:55Z</time>
      </trkpt>
      <trkpt lat="43.23313" lon="6.19397">
        <ele>85</ele>
        <time>2021-07-11T06:13:56Z</time>
      </trkpt>
      <trkpt lat="43.23313" lon="6.19441">
        <ele>85.2</ele>
        <time>2021-07-11T06:14:01Z</time>
      </trkpt>
      <trkpt lat="43.23317" lon="6.19485">
        <ele>85.5</ele>
        <time>2021-07-11T06:14:06Z</time>
      </trkpt>
      <trkpt lat="43.2332" lon="6.19537">
        <ele>86.3</ele>
        <time>2021-07-11T06:14:12Z</time>
      </trkpt>
      <trkpt lat="43.2332" lon="6.19571">
        <ele>86.8</ele>
        <time>2021-07-11T06:14:16Z</time>
      </trkpt>
      <trkpt lat="43.23311" lon="6.19647">
        <ele>87.7</ele>
        <time>2021-07-11T06:14:25Z</time>
      </trkpt>
      <trkpt lat="43.2331" lon="6.19656">
        <ele>87.8</ele>
        <time>2021-07-11T06:14:26Z</time>
      </trkpt>
      <trkpt lat="43.23294" lon="6.19732">
        <ele>88.1</ele>
        <time>2021-07-11T06:14:35Z</time>
      </trkpt>
      <trkpt lat="43.23292" lon="6.19741">
        <ele>87.9</ele>
        <time>2021-07-11T06:14:36Z</time>
      </trkpt>
      <trkpt lat="43.23278" lon="6.19814">
        <ele>86.8</ele>
        <time>2021-07-11T06:14:43Z</time>
      </trkpt>
      <trkpt lat="43.23272" lon="6.19846">
        <ele>86.5</ele>
        <time>2021-07-11T06:14:46Z</time>
      </trkpt>
      <trkpt lat="43.23264" lon="6.1992">
        <ele>86.2</ele>
        <time>2021-07-11T06:14:53Z</time>
      </trkpt>
      <trkpt lat="43.23263" lon="6.19951">
        <ele>86.1</ele>
        <time>2021-07-11T06:14:56Z</time>
      </trkpt>
      <trkpt lat="43.2326" lon="6.20029">
        <ele>86.4</ele>
        <time>2021-07-11T06:15:04Z</time>
      </trkpt>
      <trkpt lat="43.23259" lon="6.20039">
        <ele>86.4</ele>
        <time>2021-07-11T06:15:05Z</time>
      </trkpt>
      <trkpt lat="43.23259" lon="6.20048">
        <ele>86.5</ele>
        <time>2021-07-11T06:15:06Z</time>
      </trkpt>
      <trkpt lat="43.23262" lon="6.20123">
        <ele>87</ele>
        <time>2021-07-11T06:15:14Z</time>
      </trkpt>
      <trkpt lat="43.23265" lon="6.20142">
        <ele>87</ele>
        <time>2021-07-11T06:15:16Z</time>
      </trkpt>
      <trkpt lat="43.23282" lon="6.20214">
        <ele>87.2</ele>
        <time>2021-07-11T06:15:24Z</time>
      </trkpt>
      <trkpt lat="43.23286" lon="6.20231">
        <ele>87.4</ele>
        <time>2021-07-11T06:15:26Z</time>
      </trkpt>
      <trkpt lat="43.23303" lon="6.20309">
        <ele>87.7</ele>
        <time>2021-07-11T06:15:35Z</time>
      </trkpt>
      <trkpt lat="43.23305" lon="6.20318">
        <ele>87.7</ele>
        <time>2021-07-11T06:15:36Z</time>
      </trkpt>
      <trkpt lat="43.23322" lon="6.20395">
        <ele>88.2</ele>
        <time>2021-07-11T06:15:45Z</time>
      </trkpt>
      <trkpt lat="43.23324" lon="6.20403">
        <ele>88.2</ele>
        <time>2021-07-11T06:15:46Z</time>
      </trkpt>
      <trkpt lat="43.23337" lon="6.2048">
        <ele>89.3</ele>
        <time>2021-07-11T06:15:55Z</time>
      </trkpt>
      <trkpt lat="43.23338" lon="6.20488">
        <ele>89.4</ele>
        <time>2021-07-11T06:15:56Z</time>
      </trkpt>
      <trkpt lat="43.23346" lon="6.20564">
        <ele>91</ele>
        <time>2021-07-11T06:16:06Z</time>
      </trkpt>
      <trkpt lat="43.23352" lon="6.20628">
        <ele>92.4</ele>
        <time>2021-07-11T06:16:14Z</time>
      </trkpt>
      <trkpt lat="43.23354" lon="6.20644">
        <ele>92.6</ele>
        <time>2021-07-11T06:16:16Z</time>
      </trkpt>
      <trkpt lat="43.23359" lon="6.20721">
        <ele>94.4</ele>
        <time>2021-07-11T06:16:26Z</time>
      </trkpt>
      <trkpt lat="43.23361" lon="6.20746">
        <ele>94.6</ele>
        <time>2021-07-11T06:16:29Z</time>
      </trkpt>
      <trkpt lat="43.2337" lon="6.20807">
        <ele>94.7</ele>
        <time>2021-07-11T06:16:36Z</time>
      </trkpt>
      <trkpt lat="43.23385" lon="6.20883">
        <ele>94.2</ele>
        <time>2021-07-11T06:16:44Z</time>
      </trkpt>
      <trkpt lat="43.23388" lon="6.20902">
        <ele>94</ele>
        <time>2021-07-11T06:16:46Z</time>
      </trkpt>
      <trkpt lat="43.23401" lon="6.20978">
        <ele>93.3</ele>
        <time>2021-07-11T06:16:54Z</time>
      </trkpt>
      <trkpt lat="43.23404" lon="6.20997">
        <ele>93.1</ele>
        <time>2021-07-11T06:16:56Z</time>
      </trkpt>
      <trkpt lat="43.2342" lon="6.21076">
        <ele>92.2</ele>
        <time>2021-07-11T06:17:04Z</time>
      </trkpt>
      <trkpt lat="43.23424" lon="6.21096">
        <ele>92.3</ele>
        <time>2021-07-11T06:17:06Z</time>
      </trkpt>
      <trkpt lat="43.23435" lon="6.21172">
        <ele>93.3</ele>
        <time>2021-07-11T06:17:14Z</time>
      </trkpt>
      <trkpt lat="43.23436" lon="6.2119">
        <ele>94</ele>
        <time>2021-07-11T06:17:16Z</time>
      </trkpt>
      <trkpt lat="43.2344" lon="6.21271">
        <ele>94.6</ele>
        <time>2021-07-11T06:17:26Z</time>
      </trkpt>
      <trkpt lat="43.23439" lon="6.21347">
        <ele>94</ele>
        <time>2021-07-11T06:17:35Z</time>
      </trkpt>
      <trkpt lat="43.23439" lon="6.21356">
        <ele>93.9</ele>
        <time>2021-07-11T06:17:36Z</time>
      </trkpt>
      <trkpt lat="43.23442" lon="6.214">
        <ele>93.7</ele>
        <time>2021-07-11T06:17:41Z</time>
      </trkpt>
      <trkpt lat="43.23455" lon="6.21433">
        <ele>93.3</ele>
        <time>2021-07-11T06:17:45Z</time>
      </trkpt>
      <trkpt lat="43.2346" lon="6.2144">
        <ele>93.2</ele>
        <time>2021-07-11T06:17:46Z</time>
      </trkpt>
      <trkpt lat="43.23504" lon="6.21497">
        <ele>92.7</ele>
        <time>2021-07-11T06:17:54Z</time>
      </trkpt>
      <trkpt lat="43.23514" lon="6.21513">
        <ele>92.7</ele>
        <time>2021-07-11T06:17:56Z</time>
      </trkpt>
      <trkpt lat="43.23547" lon="6.21579">
        <ele>92.9</ele>
        <time>2021-07-11T06:18:04Z</time>
      </trkpt>
      <trkpt lat="43.23554" lon="6.21595">
        <ele>93.1</ele>
        <time>2021-07-11T06:18:06Z</time>
      </trkpt>
      <trkpt lat="43.23579" lon="6.21664">
        <ele>93.5</ele>
        <time>2021-07-11T06:18:14Z</time>
      </trkpt>
      <trkpt lat="43.23585" lon="6.2168">
        <ele>93.6</ele>
        <time>2021-07-11T06:18:16Z</time>
      </trkpt>
      <trkpt lat="43.2361" lon="6.21754">
        <ele>94</ele>
        <time>2021-07-11T06:18:25Z</time>
      </trkpt>
      <trkpt lat="43.23613" lon="6.21762">
        <ele>94</ele>
        <time>2021-07-11T06:18:26Z</time>
      </trkpt>
      <trkpt lat="43.23632" lon="6.2182">
        <ele>94.7</ele>
        <time>2021-07-11T06:18:33Z</time>
      </trkpt>
      <trkpt lat="43.23645" lon="6.21854">
        <ele>95.4</ele>
        <time>2021-07-11T06:18:36Z</time>
      </trkpt>
      <trkpt lat="43.23652" lon="6.21929">
        <ele>95.9</ele>
        <time>2021-07-11T06:18:46Z</time>
      </trkpt>
      <trkpt lat="43.23636" lon="6.22006">
        <ele>97.4</ele>
        <time>2021-07-11T06:18:56Z</time>
      </trkpt>
      <trkpt lat="43.23607" lon="6.22067">
        <ele>98.8</ele>
        <time>2021-07-11T06:19:06Z</time>
      </trkpt>
      <trkpt lat="43.2358" lon="6.22132">
        <ele>100.2</ele>
        <time>2021-07-11T06:19:16Z</time>
      </trkpt>
      <trkpt lat="43.23561" lon="6.22204">
        <ele>101.6</ele>
        <time>2021-07-11T06:19:26Z</time>
      </trkpt>
      <trkpt lat="43.23545" lon="6.2228">
        <ele>102.4</ele>
        <time>2021-07-11T06:19:36Z</time>
      </trkpt>
      <trkpt lat="43.2353" lon="6.22354">
        <ele>102.6</ele>
        <time>2021-07-11T06:19:45Z</time>
      </trkpt>
      <trkpt lat="43.23528" lon="6.22362">
        <ele>102.6</ele>
        <time>2021-07-11T06:19:46Z</time>
      </trkpt>
      <trkpt lat="43.23512" lon="6.22436">
        <ele>102.5</ele>
        <time>2021-07-11T06:19:55Z</time>
      </trkpt>
      <trkpt lat="43.23511" lon="6.22445">
        <ele>102.5</ele>
        <time>2021-07-11T06:19:56Z</time>
      </trkpt>
      <trkpt lat="43.23504" lon="6.22483">
        <ele>102.6</ele>
        <time>2021-07-11T06:20:01Z</time>
      </trkpt>
      <trkpt lat="43.23495" lon="6.22524">
        <ele>102.8</ele>
        <time>2021-07-11T06:20:06Z</time>
      </trkpt>
      <trkpt lat="43.2349" lon="6.22602">
        <ele>102.3</ele>
        <time>2021-07-11T06:20:15Z</time>
      </trkpt>
      <trkpt lat="43.2349" lon="6.22611">
        <ele>102.2</ele>
        <time>2021-07-11T06:20:16Z</time>
      </trkpt>
      <trkpt lat="43.2349" lon="6.22693">
        <ele>101.6</ele>
        <time>2021-07-11T06:20:24Z</time>
      </trkpt>
      <trkpt lat="43.23487" lon="6.22713">
        <ele>101.6</ele>
        <time>2021-07-11T06:20:26Z</time>
      </trkpt>
      <trkpt lat="43.23462" lon="6.22783">
        <ele>101.3</ele>
        <time>2021-07-11T06:20:34Z</time>
      </trkpt>
      <trkpt lat="43.23454" lon="6.22798">
        <ele>101.3</ele>
        <time>2021-07-11T06:20:36Z</time>
      </trkpt>
      <trkpt lat="43.23414" lon="6.22856">
        <ele>101.5</ele>
        <time>2021-07-11T06:20:45Z</time>
      </trkpt>
      <trkpt lat="43.2341" lon="6.22862">
        <ele>101.6</ele>
        <time>2021-07-11T06:20:46Z</time>
      </trkpt>
      <trkpt lat="43.23369" lon="6.22918">
        <ele>102.4</ele>
        <time>2021-07-11T06:20:55Z</time>
      </trkpt>
      <trkpt lat="43.23365" lon="6.22924">
        <ele>102.5</ele>
        <time>2021-07-11T06:20:56Z</time>
      </trkpt>
      <trkpt lat="43.23331" lon="6.22992">
        <ele>103.7</ele>
        <time>2021-07-11T06:21:06Z</time>
      </trkpt>
      <trkpt lat="43.23306" lon="6.23062">
        <ele>104.8</ele>
        <time>2021-07-11T06:21:15Z</time>
      </trkpt>
      <trkpt lat="43.23303" lon="6.23069">
        <ele>104.9</ele>
        <time>2021-07-11T06:21:16Z</time>
      </trkpt>
      <trkpt lat="43.23269" lon="6.23136">
        <ele>106</ele>
        <time>2021-07-11T06:21:26Z</time>
      </trkpt>
      <trkpt lat="43.23237" lon="6.23201">
        <ele>106.7</ele>
        <time>2021-07-11T06:21:35Z</time>
      </trkpt>
      <trkpt lat="43.23233" lon="6.23208">
        <ele>106.8</ele>
        <time>2021-07-11T06:21:36Z</time>
      </trkpt>
      <trkpt lat="43.23202" lon="6.23274">
        <ele>107.7</ele>
        <time>2021-07-11T06:21:46Z</time>
      </trkpt>
      <trkpt lat="43.23172" lon="6.2334">
        <ele>108.6</ele>
        <time>2021-07-11T06:21:56Z</time>
      </trkpt>
      <trkpt lat="43.23143" lon="6.23403">
        <ele>110.1</ele>
        <time>2021-07-11T06:22:05Z</time>
      </trkpt>
      <trkpt lat="43.2314" lon="6.23409">
        <ele>110.3</ele>
        <time>2021-07-11T06:22:06Z</time>
      </trkpt>
      <trkpt lat="43.23109" lon="6.23471">
        <ele>112.5</ele>
        <time>2021-07-11T06:22:16Z</time>
      </trkpt>
      <trkpt lat="43.23077" lon="6.23532">
        <ele>114.9</ele>
        <time>2021-07-11T06:22:26Z</time>
      </trkpt>
      <trkpt lat="43.23057" lon="6.23566">
        <ele>116.4</ele>
        <time>2021-07-11T06:22:33Z</time>
      </trkpt>
      <trkpt lat="43.23047" lon="6.23583">
        <ele>117.1</ele>
        <time>2021-07-11T06:22:36Z</time>
      </trkpt>
      <trkpt lat="43.23038" lon="6.23606">
        <ele>117.9</ele>
        <time>2021-07-11T06:22:40Z</time>
      </trkpt>
      <trkpt lat="43.23035" lon="6.23624">
        <ele>118.3</ele>
        <time>2021-07-11T06:22:43Z</time>
      </trkpt>
      <trkpt lat="43.23036" lon="6.23646">
        <ele>118.6</ele>
        <time>2021-07-11T06:22:46Z</time>
      </trkpt>
      <trkpt lat="43.23058" lon="6.23718">
        <ele>117</ele>
        <time>2021-07-11T06:22:54Z</time>
      </trkpt>
      <trkpt lat="43.23065" lon="6.23739">
        <ele>116.3</ele>
        <time>2021-07-11T06:22:56Z</time>
      </trkpt>
      <trkpt lat="43.23088" lon="6.23819">
        <ele>113.6</ele>
        <time>2021-07-11T06:23:03Z</time>
      </trkpt>
      <trkpt lat="43.23099" lon="6.23854">
        <ele>112.6</ele>
        <time>2021-07-11T06:23:06Z</time>
      </trkpt>
      <trkpt lat="43.23113" lon="6.23926">
        <ele>111.3</ele>
        <time>2021-07-11T06:23:12Z</time>
      </trkpt>
      <trkpt lat="43.2312" lon="6.23973">
        <ele>110.7</ele>
        <time>2021-07-11T06:23:16Z</time>
      </trkpt>
      <trkpt lat="43.23128" lon="6.24052">
        <ele>110</ele>
        <time>2021-07-11T06:23:23Z</time>
      </trkpt>
      <trkpt lat="43.23132" lon="6.24086">
        <ele>109.6</ele>
        <time>2021-07-11T06:23:26Z</time>
      </trkpt>
      <trkpt lat="43.23148" lon="6.24162">
        <ele>109</ele>
        <time>2021-07-11T06:23:33Z</time>
      </trkpt>
      <trkpt lat="43.23158" lon="6.24193">
        <ele>108.9</ele>
        <time>2021-07-11T06:23:36Z</time>
      </trkpt>
      <trkpt lat="43.23176" lon="6.24269">
        <ele>108.8</ele>
        <time>2021-07-11T06:23:43Z</time>
      </trkpt>
      <trkpt lat="43.23181" lon="6.24302">
        <ele>109</ele>
        <time>2021-07-11T06:23:46Z</time>
      </trkpt>
      <trkpt lat="43.23189" lon="6.24375">
        <ele>109.6</ele>
        <time>2021-07-11T06:23:53Z</time>
      </trkpt>
      <trkpt lat="43.23193" lon="6.24405">
        <ele>109.8</ele>
        <time>2021-07-11T06:23:56Z</time>
      </trkpt>
      <trkpt lat="43.23201" lon="6.24482">
        <ele>110.6</ele>
        <time>2021-07-11T06:24:04Z</time>
      </trkpt>
      <trkpt lat="43.23203" lon="6.24502">
        <ele>110.8</ele>
        <time>2021-07-11T06:24:06Z</time>
      </trkpt>
      <trkpt lat="43.2321" lon="6.24569">
        <ele>111.8</ele>
        <time>2021-07-11T06:24:13Z</time>
      </trkpt>
      <trkpt lat="43.23213" lon="6.24596">
        <ele>112.1</ele>
        <time>2021-07-11T06:24:16Z</time>
      </trkpt>
      <trkpt lat="43.23221" lon="6.24676">
        <ele>113.2</ele>
        <time>2021-07-11T06:24:25Z</time>
      </trkpt>
      <trkpt lat="43.23222" lon="6.24684">
        <ele>113.4</ele>
        <time>2021-07-11T06:24:26Z</time>
      </trkpt>
      <trkpt lat="43.2322" lon="6.24762">
        <ele>113.9</ele>
        <time>2021-07-11T06:24:35Z</time>
      </trkpt>
      <trkpt lat="43.2322" lon="6.24771">
        <ele>114</ele>
        <time>2021-07-11T06:24:36Z</time>
      </trkpt>
      <trkpt lat="43.2321" lon="6.2485">
        <ele>114.5</ele>
        <time>2021-07-11T06:24:45Z</time>
      </trkpt>
      <trkpt lat="43.23209" lon="6.24859">
        <ele>114.5</ele>
        <time>2021-07-11T06:24:46Z</time>
      </trkpt>
      <trkpt lat="43.23198" lon="6.24934">
        <ele>115</ele>
        <time>2021-07-11T06:24:55Z</time>
      </trkpt>
      <trkpt lat="43.23196" lon="6.24943">
        <ele>115</ele>
        <time>2021-07-11T06:24:56Z</time>
      </trkpt>
      <trkpt lat="43.23183" lon="6.24995">
        <ele>115</ele>
        <time>2021-07-11T06:25:02Z</time>
      </trkpt>
      <trkpt lat="43.23172" lon="6.25028">
        <ele>115</ele>
        <time>2021-07-11T06:25:06Z</time>
      </trkpt>
      <trkpt lat="43.23148" lon="6.251">
        <ele>115</ele>
        <time>2021-07-11T06:25:15Z</time>
      </trkpt>
      <trkpt lat="43.23145" lon="6.25108">
        <ele>115</ele>
        <time>2021-07-11T06:25:16Z</time>
      </trkpt>
      <trkpt lat="43.2312" lon="6.25168">
        <ele>114.7</ele>
        <time>2021-07-11T06:25:23Z</time>
      </trkpt>
      <trkpt lat="43.23107" lon="6.2519">
        <ele>114.5</ele>
        <time>2021-07-11T06:25:26Z</time>
      </trkpt>
      <trkpt lat="43.23089" lon="6.25265">
        <ele>114.6</ele>
        <time>2021-07-11T06:25:34Z</time>
      </trkpt>
      <trkpt lat="43.23086" lon="6.25284">
        <ele>114.7</ele>
        <time>2021-07-11T06:25:36Z</time>
      </trkpt>
      <trkpt lat="43.23077" lon="6.25364">
        <ele>115.4</ele>
        <time>2021-07-11T06:25:45Z</time>
      </trkpt>
      <trkpt lat="43.23077" lon="6.25373">
        <ele>115.5</ele>
        <time>2021-07-11T06:25:46Z</time>
      </trkpt>
      <trkpt lat="43.23071" lon="6.25452">
        <ele>116.3</ele>
        <time>2021-07-11T06:25:55Z</time>
      </trkpt>
      <trkpt lat="43.2307" lon="6.25461">
        <ele>116.4</ele>
        <time>2021-07-11T06:25:56Z</time>
      </trkpt>
      <trkpt lat="43.2307" lon="6.25515">
        <ele>116.5</ele>
        <time>2021-07-11T06:26:02Z</time>
      </trkpt>
      <trkpt lat="43.23075" lon="6.25555">
        <ele>116.5</ele>
        <time>2021-07-11T06:26:06Z</time>
      </trkpt>
      <trkpt lat="43.23089" lon="6.25631">
        <ele>116.7</ele>
        <time>2021-07-11T06:26:14Z</time>
      </trkpt>
      <trkpt lat="43.23092" lon="6.2565">
        <ele>116.8</ele>
        <time>2021-07-11T06:26:16Z</time>
      </trkpt>
      <trkpt lat="43.23105" lon="6.2573">
        <ele>117.9</ele>
        <time>2021-07-11T06:26:25Z</time>
      </trkpt>
      <trkpt lat="43.23107" lon="6.25739">
        <ele>118.1</ele>
        <time>2021-07-11T06:26:26Z</time>
      </trkpt>
      <trkpt lat="43.23112" lon="6.25763">
        <ele>118.7</ele>
        <time>2021-07-11T06:26:29Z</time>
      </trkpt>
      <trkpt lat="43.23126" lon="6.25815">
        <ele>120</ele>
        <time>2021-07-11T06:26:36Z</time>
      </trkpt>
      <trkpt lat="43.23136" lon="6.25885">
        <ele>121.7</ele>
        <time>2021-07-11T06:26:46Z</time>
      </trkpt>
      <trkpt lat="43.2314" lon="6.25912">
        <ele>122.4</ele>
        <time>2021-07-11T06:26:50Z</time>
      </trkpt>
      <trkpt lat="43.23149" lon="6.25952">
        <ele>123.3</ele>
        <time>2021-07-11T06:26:56Z</time>
      </trkpt>
      <trkpt lat="43.23174" lon="6.26026">
        <ele>123.1</ele>
        <time>2021-07-11T06:27:05Z</time>
      </trkpt>
      <trkpt lat="43.23177" lon="6.26035">
        <ele>123.1</ele>
        <time>2021-07-11T06:27:06Z</time>
      </trkpt>
      <trkpt lat="43.23187" lon="6.26071">
        <ele>123.1</ele>
        <time>2021-07-11T06:27:10Z</time>
      </trkpt>
      <trkpt lat="43.23189" lon="6.26079">
        <ele>123</ele>
        <time>2021-07-11T06:27:11Z</time>
      </trkpt>
      <trkpt lat="43.23202" lon="6.26126">
        <ele>122.4</ele>
        <time>2021-07-11T06:27:16Z</time>
      </trkpt>
      <trkpt lat="43.23218" lon="6.26203">
        <ele>122.2</ele>
        <time>2021-07-11T06:27:24Z</time>
      </trkpt>
      <trkpt lat="43.23221" lon="6.26222">
        <ele>122.2</ele>
        <time>2021-07-11T06:27:26Z</time>
      </trkpt>
      <trkpt lat="43.23235" lon="6.26299">
        <ele>121.4</ele>
        <time>2021-07-11T06:27:34Z</time>
      </trkpt>
      <trkpt lat="43.23238" lon="6.26319">
        <ele>121.4</ele>
        <time>2021-07-11T06:27:36Z</time>
      </trkpt>
      <trkpt lat="43.23249" lon="6.26393">
        <ele>121.2</ele>
        <time>2021-07-11T06:27:44Z</time>
      </trkpt>
      <trkpt lat="43.23251" lon="6.26412">
        <ele>121.2</ele>
        <time>2021-07-11T06:27:46Z</time>
      </trkpt>
      <trkpt lat="43.23257" lon="6.26485">
        <ele>121.7</ele>
        <time>2021-07-11T06:27:54Z</time>
      </trkpt>
      <trkpt lat="43.23257" lon="6.26504">
        <ele>121.8</ele>
        <time>2021-07-11T06:27:56Z</time>
      </trkpt>
      <trkpt lat="43.23259" lon="6.26572">
        <ele>122.2</ele>
        <time>2021-07-11T06:28:03Z</time>
      </trkpt>
      <trkpt lat="43.2326" lon="6.266">
        <ele>122.4</ele>
        <time>2021-07-11T06:28:06Z</time>
      </trkpt>
      <trkpt lat="43.23266" lon="6.26674">
        <ele>122.7</ele>
        <time>2021-07-11T06:28:14Z</time>
      </trkpt>
      <trkpt lat="43.23268" lon="6.26693">
        <ele>122.8</ele>
        <time>2021-07-11T06:28:16Z</time>
      </trkpt>
      <trkpt lat="43.23276" lon="6.26767">
        <ele>123.5</ele>
        <time>2021-07-11T06:28:24Z</time>
      </trkpt>
      <trkpt lat="43.23278" lon="6.26784">
        <ele>123.8</ele>
        <time>2021-07-11T06:28:26Z</time>
      </trkpt>
      <trkpt lat="43.2328" lon="6.26792">
        <ele>124</ele>
        <time>2021-07-11T06:28:27Z</time>
      </trkpt>
      <trkpt lat="43.23301" lon="6.2686">
        <ele>125</ele>
        <time>2021-07-11T06:28:36Z</time>
      </trkpt>
      <trkpt lat="43.23318" lon="6.26935">
        <ele>125.3</ele>
        <time>2021-07-11T06:28:45Z</time>
      </trkpt>
      <trkpt lat="43.2332" lon="6.26944">
        <ele>125.4</ele>
        <time>2021-07-11T06:28:46Z</time>
      </trkpt>
      <trkpt lat="43.23338" lon="6.2702">
        <ele>126.1</ele>
        <time>2021-07-11T06:28:55Z</time>
      </trkpt>
      <trkpt lat="43.23341" lon="6.27028">
        <ele>126.1</ele>
        <time>2021-07-11T06:28:56Z</time>
      </trkpt>
      <trkpt lat="43.2335" lon="6.27054">
        <ele>126.5</ele>
        <time>2021-07-11T06:28:59Z</time>
      </trkpt>
      <trkpt lat="43.23378" lon="6.27107">
        <ele>127.4</ele>
        <time>2021-07-11T06:29:06Z</time>
      </trkpt>
      <trkpt lat="43.23408" lon="6.27175">
        <ele>128.7</ele>
        <time>2021-07-11T06:29:15Z</time>
      </trkpt>
      <trkpt lat="43.2341" lon="6.27183">
        <ele>128.8</ele>
        <time>2021-07-11T06:29:16Z</time>
      </trkpt>
      <trkpt lat="43.2343" lon="6.27255">
        <ele>130</ele>
        <time>2021-07-11T06:29:25Z</time>
      </trkpt>
      <trkpt lat="43.23433" lon="6.27263">
        <ele>130.1</ele>
        <time>2021-07-11T06:29:26Z</time>
      </trkpt>
      <trkpt lat="43.2346" lon="6.27332">
        <ele>131</ele>
        <time>2021-07-11T06:29:35Z</time>
      </trkpt>
      <trkpt lat="43.23463" lon="6.27339">
        <ele>131</ele>
        <time>2021-07-11T06:29:36Z</time>
      </trkpt>
      <trkpt lat="43.23494" lon="6.27411">
        <ele>130.6</ele>
        <time>2021-07-11T06:29:45Z</time>
      </trkpt>
      <trkpt lat="43.23498" lon="6.2742">
        <ele>130.5</ele>
        <time>2021-07-11T06:29:46Z</time>
      </trkpt>
      <trkpt lat="43.23523" lon="6.27489">
        <ele>130.2</ele>
        <time>2021-07-11T06:29:54Z</time>
      </trkpt>
      <trkpt lat="43.2353" lon="6.27508">
        <ele>130.1</ele>
        <time>2021-07-11T06:29:56Z</time>
      </trkpt>
      <trkpt lat="43.23555" lon="6.27579">
        <ele>129.9</ele>
        <time>2021-07-11T06:30:04Z</time>
      </trkpt>
      <trkpt lat="43.23561" lon="6.27596">
        <ele>129.9</ele>
        <time>2021-07-11T06:30:06Z</time>
      </trkpt>
      <trkpt lat="43.23586" lon="6.27666">
        <ele>129.7</ele>
        <time>2021-07-11T06:30:14Z</time>
      </trkpt>
      <trkpt lat="43.23592" lon="6.27683">
        <ele>129.7</ele>
        <time>2021-07-11T06:30:16Z</time>
      </trkpt>
      <trkpt lat="43.23621" lon="6.27753">
        <ele>130.1</ele>
        <time>2021-07-11T06:30:24Z</time>
      </trkpt>
      <trkpt lat="43.23627" lon="6.2777">
        <ele>130.2</ele>
        <time>2021-07-11T06:30:26Z</time>
      </trkpt>
      <trkpt lat="43.23647" lon="6.2784">
        <ele>131.2</ele>
        <time>2021-07-11T06:30:34Z</time>
      </trkpt>
      <trkpt lat="43.2365" lon="6.27869">
        <ele>131.6</ele>
        <time>2021-07-11T06:30:36Z</time>
      </trkpt>
      <trkpt lat="43.23644" lon="6.27929">
        <ele>132.4</ele>
        <time>2021-07-11T06:30:44Z</time>
      </trkpt>
      <trkpt lat="43.23639" lon="6.27945">
        <ele>132.4</ele>
        <time>2021-07-11T06:30:46Z</time>
      </trkpt>
      <trkpt lat="43.23636" lon="6.27952">
        <ele>132.4</ele>
        <time>2021-07-11T06:30:47Z</time>
      </trkpt>
      <trkpt lat="43.23633" lon="6.27959">
        <ele>132.4</ele>
        <time>2021-07-11T06:30:48Z</time>
      </trkpt>
      <trkpt lat="43.23593" lon="6.28016">
        <ele>131.7</ele>
        <time>2021-07-11T06:30:56Z</time>
      </trkpt>
      <trkpt lat="43.23565" lon="6.28062">
        <ele>131.5</ele>
        <time>2021-07-11T06:31:02Z</time>
      </trkpt>
      <trkpt lat="43.23555" lon="6.28097">
        <ele>131.5</ele>
        <time>2021-07-11T06:31:06Z</time>
      </trkpt>
      <trkpt lat="43.23544" lon="6.28146">
        <ele>131.6</ele>
        <time>2021-07-11T06:31:12Z</time>
      </trkpt>
      <trkpt lat="43.23536" lon="6.2818">
        <ele>131.8</ele>
        <time>2021-07-11T06:31:16Z</time>
      </trkpt>
      <trkpt lat="43.23532" lon="6.28255">
        <ele>132.5</ele>
        <time>2021-07-11T06:31:24Z</time>
      </trkpt>
      <trkpt lat="43.23532" lon="6.28275">
        <ele>132.7</ele>
        <time>2021-07-11T06:31:26Z</time>
      </trkpt>
      <trkpt lat="43.23535" lon="6.28322">
        <ele>133.3</ele>
        <time>2021-07-11T06:31:31Z</time>
      </trkpt>
      <trkpt lat="43.2354" lon="6.28369">
        <ele>133.7</ele>
        <time>2021-07-11T06:31:36Z</time>
      </trkpt>
      <trkpt lat="43.23547" lon="6.28445">
        <ele>134</ele>
        <time>2021-07-11T06:31:44Z</time>
      </trkpt>
      <trkpt lat="43.23549" lon="6.28464">
        <ele>134.1</ele>
        <time>2021-07-11T06:31:46Z</time>
      </trkpt>
      <trkpt lat="43.23557" lon="6.28538">
        <ele>134.3</ele>
        <time>2021-07-11T06:31:54Z</time>
      </trkpt>
      <trkpt lat="43.2356" lon="6.28556">
        <ele>134.5</ele>
        <time>2021-07-11T06:31:56Z</time>
      </trkpt>
      <trkpt lat="43.2358" lon="6.28632">
        <ele>135.2</ele>
        <time>2021-07-11T06:32:05Z</time>
      </trkpt>
      <trkpt lat="43.23583" lon="6.2864">
        <ele>135.3</ele>
        <time>2021-07-11T06:32:06Z</time>
      </trkpt>
      <trkpt lat="43.23611" lon="6.28709">
        <ele>135.8</ele>
        <time>2021-07-11T06:32:15Z</time>
      </trkpt>
      <trkpt lat="43.23615" lon="6.28716">
        <ele>135.8</ele>
        <time>2021-07-11T06:32:16Z</time>
      </trkpt>
      <trkpt lat="43.23643" lon="6.28762">
        <ele>136.2</ele>
        <time>2021-07-11T06:32:23Z</time>
      </trkpt>
      <trkpt lat="43.23657" lon="6.2878">
        <ele>136.4</ele>
        <time>2021-07-11T06:32:26Z</time>
      </trkpt>
      <trkpt lat="43.237" lon="6.28835">
        <ele>136.9</ele>
        <time>2021-07-11T06:32:35Z</time>
      </trkpt>
      <trkpt lat="43.23705" lon="6.28841">
        <ele>137</ele>
        <time>2021-07-11T06:32:36Z</time>
      </trkpt>
      <trkpt lat="43.23739" lon="6.28899">
        <ele>137.4</ele>
        <time>2021-07-11T06:32:45Z</time>
      </trkpt>
      <trkpt lat="43.23743" lon="6.28907">
        <ele>137.5</ele>
        <time>2021-07-11T06:32:46Z</time>
      </trkpt>
      <trkpt lat="43.23763" lon="6.2897">
        <ele>137.5</ele>
        <time>2021-07-11T06:32:54Z</time>
      </trkpt>
      <trkpt lat="43.23768" lon="6.28988">
        <ele>137.6</ele>
        <time>2021-07-11T06:32:56Z</time>
      </trkpt>
      <trkpt lat="43.23782" lon="6.29064">
        <ele>138.4</ele>
        <time>2021-07-11T06:33:05Z</time>
      </trkpt>
      <trkpt lat="43.23783" lon="6.29072">
        <ele>138.5</ele>
        <time>2021-07-11T06:33:06Z</time>
      </trkpt>
      <trkpt lat="43.23795" lon="6.29153">
        <ele>139.5</ele>
        <time>2021-07-11T06:33:16Z</time>
      </trkpt>
      <trkpt lat="43.23801" lon="6.29231">
        <ele>139.8</ele>
        <time>2021-07-11T06:33:25Z</time>
      </trkpt>
      <trkpt lat="43.23801" lon="6.2924">
        <ele>139.9</ele>
        <time>2021-07-11T06:33:26Z</time>
      </trkpt>
      <trkpt lat="43.238" lon="6.29295">
        <ele>140.9</ele>
        <time>2021-07-11T06:33:32Z</time>
      </trkpt>
      <trkpt lat="43.238" lon="6.29326">
        <ele>142</ele>
        <time>2021-07-11T06:33:36Z</time>
      </trkpt>
      <trkpt lat="43.23799" lon="6.29393">
        <ele>144.8</ele>
        <time>2021-07-11T06:33:46Z</time>
      </trkpt>
      <trkpt lat="43.23806" lon="6.29453">
        <ele>146.7</ele>
        <time>2021-07-11T06:33:56Z</time>
      </trkpt>
      <trkpt lat="43.23833" lon="6.29525">
        <ele>146.8</ele>
        <time>2021-07-11T06:34:06Z</time>
      </trkpt>
      <trkpt lat="43.23861" lon="6.29596">
        <ele>146.8</ele>
        <time>2021-07-11T06:34:15Z</time>
      </trkpt>
      <trkpt lat="43.23864" lon="6.29603">
        <ele>146.8</ele>
        <time>2021-07-11T06:34:16Z</time>
      </trkpt>
      <trkpt lat="43.23876" lon="6.29633">
        <ele>146.9</ele>
        <time>2021-07-11T06:34:20Z</time>
      </trkpt>
      <trkpt lat="43.23893" lon="6.29678">
        <ele>146.9</ele>
        <time>2021-07-11T06:34:26Z</time>
      </trkpt>
      <trkpt lat="43.23909" lon="6.29755">
        <ele>146.7</ele>
        <time>2021-07-11T06:34:35Z</time>
      </trkpt>
      <trkpt lat="43.2391" lon="6.29763">
        <ele>146.7</ele>
        <time>2021-07-11T06:34:36Z</time>
      </trkpt>
      <trkpt lat="43.23917" lon="6.29836">
        <ele>145.9</ele>
        <time>2021-07-11T06:34:44Z</time>
      </trkpt>
      <trkpt lat="43.23916" lon="6.29857">
        <ele>145.9</ele>
        <time>2021-07-11T06:34:46Z</time>
      </trkpt>
      <trkpt lat="43.23914" lon="6.29877">
        <ele>146.1</ele>
        <time>2021-07-11T06:34:48Z</time>
      </trkpt>
      <trkpt lat="43.23898" lon="6.29946">
        <ele>147.1</ele>
        <time>2021-07-11T06:34:56Z</time>
      </trkpt>
      <trkpt lat="43.23879" lon="6.30019">
        <ele>147.9</ele>
        <time>2021-07-11T06:35:05Z</time>
      </trkpt>
      <trkpt lat="43.23876" lon="6.30027">
        <ele>147.9</ele>
        <time>2021-07-11T06:35:06Z</time>
      </trkpt>
      <trkpt lat="43.23853" lon="6.301">
        <ele>149.4</ele>
        <time>2021-07-11T06:35:16Z</time>
      </trkpt>
      <trkpt lat="43.23824" lon="6.30169">
        <ele>149.5</ele>
        <time>2021-07-11T06:35:26Z</time>
      </trkpt>
      <trkpt lat="43.23807" lon="6.30208">
        <ele>149.6</ele>
        <time>2021-07-11T06:35:32Z</time>
      </trkpt>
      <trkpt lat="43.23796" lon="6.30232">
        <ele>149.8</ele>
        <time>2021-07-11T06:35:36Z</time>
      </trkpt>
      <trkpt lat="43.23768" lon="6.30297">
        <ele>150.6</ele>
        <time>2021-07-11T06:35:45Z</time>
      </trkpt>
      <trkpt lat="43.23765" lon="6.30304">
        <ele>150.7</ele>
        <time>2021-07-11T06:35:46Z</time>
      </trkpt>
      <trkpt lat="43.2376" lon="6.30317">
        <ele>151.1</ele>
        <time>2021-07-11T06:35:48Z</time>
      </trkpt>
      <trkpt lat="43.23741" lon="6.30366">
        <ele>152.8</ele>
        <time>2021-07-11T06:35:56Z</time>
      </trkpt>
      <trkpt lat="43.23734" lon="6.30382">
        <ele>153.3</ele>
        <time>2021-07-11T06:35:59Z</time>
      </trkpt>
      <trkpt lat="43.23729" lon="6.30399">
        <ele>153.8</ele>
        <time>2021-07-11T06:36:02Z</time>
      </trkpt>
      <trkpt lat="43.2372" lon="6.3042">
        <ele>154.2</ele>
        <time>2021-07-11T06:36:06Z</time>
      </trkpt>
      <trkpt lat="43.23698" lon="6.30475">
        <ele>155.3</ele>
        <time>2021-07-11T06:36:16Z</time>
      </trkpt>
      <trkpt lat="43.2368" lon="6.30547">
        <ele>155.4</ele>
        <time>2021-07-11T06:36:25Z</time>
      </trkpt>
      <trkpt lat="43.23677" lon="6.30558">
        <ele>155.4</ele>
        <time>2021-07-11T06:36:26Z</time>
      </trkpt>
      <trkpt lat="43.23674" lon="6.30627">
        <ele>154.2</ele>
        <time>2021-07-11T06:36:33Z</time>
      </trkpt>
      <trkpt lat="43.23676" lon="6.30664">
        <ele>153.8</ele>
        <time>2021-07-11T06:36:36Z</time>
      </trkpt>
      <trkpt lat="43.23677" lon="6.30674">
        <ele>153.7</ele>
        <time>2021-07-11T06:36:38Z</time>
      </trkpt>
      <trkpt lat="43.23693" lon="6.30751">
        <ele>153.8</ele>
        <time>2021-07-11T06:36:46Z</time>
      </trkpt>
      <trkpt lat="43.2369" lon="6.30765">
        <ele>154.2</ele>
        <time>2021-07-11T06:36:48Z</time>
      </trkpt>
      <trkpt lat="43.23684" lon="6.30789">
        <ele>154.6</ele>
        <time>2021-07-11T06:36:52Z</time>
      </trkpt>
      <trkpt lat="43.23688" lon="6.30799">
        <ele>154.8</ele>
        <time>2021-07-11T06:36:54Z</time>
      </trkpt>
      <trkpt lat="43.23694" lon="6.30808">
        <ele>154.9</ele>
        <time>2021-07-11T06:36:56Z</time>
      </trkpt>
      <trkpt lat="43.23716" lon="6.30838">
        <ele>155.3</ele>
        <time>2021-07-11T06:37:06Z</time>
      </trkpt>
      <trkpt lat="43.23747" lon="6.30869">
        <ele>155.6</ele>
        <time>2021-07-11T06:37:16Z</time>
      </trkpt>
      <trkpt lat="43.23772" lon="6.30904">
        <ele>155.5</ele>
        <time>2021-07-11T06:37:26Z</time>
      </trkpt>
      <trkpt lat="43.23796" lon="6.30933">
        <ele>155.2</ele>
        <time>2021-07-11T06:37:36Z</time>
      </trkpt>
      <trkpt lat="43.23813" lon="6.30937">
        <ele>155.2</ele>
        <time>2021-07-11T06:37:42Z</time>
      </trkpt>
      <trkpt lat="43.23817" lon="6.30939">
        <ele>155.2</ele>
        <time>2021-07-11T06:39:53Z</time>
      </trkpt>
      <trkpt lat="43.23835" lon="6.30963">
        <ele>155.1</ele>
        <time>2021-07-11T06:40:06Z</time>
      </trkpt>
      <trkpt lat="43.23849" lon="6.31003">
        <ele>155.2</ele>
        <time>2021-07-11T06:40:14Z</time>
      </trkpt>
      <trkpt lat="43.23854" lon="6.31017">
        <ele>155.3</ele>
        <time>2021-07-11T06:40:16Z</time>
      </trkpt>
      <trkpt lat="43.23861" lon="6.31039">
        <ele>155.4</ele>
        <time>2021-07-11T06:40:19Z</time>
      </trkpt>
      <trkpt lat="43.23862" lon="6.31052">
        <ele>155.5</ele>
        <time>2021-07-11T06:40:21Z</time>
      </trkpt>
      <trkpt lat="43.23861" lon="6.31078">
        <ele>155.7</ele>
        <time>2021-07-11T06:40:25Z</time>
      </trkpt>
      <trkpt lat="43.2386" lon="6.31084">
        <ele>155.7</ele>
        <time>2021-07-11T06:40:26Z</time>
      </trkpt>
      <trkpt lat="43.23856" lon="6.31096">
        <ele>155.8</ele>
        <time>2021-07-11T06:40:27Z</time>
      </trkpt>
      <trkpt lat="43.23851" lon="6.31107">
        <ele>155.9</ele>
        <time>2021-07-11T06:40:30Z</time>
      </trkpt>
      <trkpt lat="43.23843" lon="6.31118">
        <ele>156</ele>
        <time>2021-07-11T06:40:32Z</time>
      </trkpt>
      <trkpt lat="43.23839" lon="6.31123">
        <ele>156.1</ele>
        <time>2021-07-11T06:40:33Z</time>
      </trkpt>
      <trkpt lat="43.23831" lon="6.31134">
        <ele>156.3</ele>
        <time>2021-07-11T06:40:34Z</time>
      </trkpt>
      <trkpt lat="43.23826" lon="6.31139">
        <ele>156.3</ele>
        <time>2021-07-11T06:40:36Z</time>
      </trkpt>
      <trkpt lat="43.23817" lon="6.31148">
        <ele>156.5</ele>
        <time>2021-07-11T06:40:38Z</time>
      </trkpt>
      <trkpt lat="43.23813" lon="6.31153">
        <ele>156.6</ele>
        <time>2021-07-11T06:40:39Z</time>
      </trkpt>
      <trkpt lat="43.23805" lon="6.31162">
        <ele>156.7</ele>
        <time>2021-07-11T06:40:40Z</time>
      </trkpt>
      <trkpt lat="43.238" lon="6.31167">
        <ele>156.8</ele>
        <time>2021-07-11T06:40:42Z</time>
      </trkpt>
      <trkpt lat="43.23792" lon="6.31175">
        <ele>157</ele>
        <time>2021-07-11T06:40:44Z</time>
      </trkpt>
      <trkpt lat="43.23788" lon="6.3118">
        <ele>157.1</ele>
        <time>2021-07-11T06:40:45Z</time>
      </trkpt>
      <trkpt lat="43.23781" lon="6.31189">
        <ele>157.3</ele>
        <time>2021-07-11T06:40:46Z</time>
      </trkpt>
      <trkpt lat="43.23773" lon="6.31196">
        <ele>157.5</ele>
        <time>2021-07-11T06:40:49Z</time>
      </trkpt>
      <trkpt lat="43.23765" lon="6.31202">
        <ele>157.7</ele>
        <time>2021-07-11T06:40:50Z</time>
      </trkpt>
      <trkpt lat="43.23761" lon="6.31205">
        <ele>157.8</ele>
        <time>2021-07-11T06:40:52Z</time>
      </trkpt>
      <trkpt lat="43.23756" lon="6.31209">
        <ele>157.9</ele>
        <time>2021-07-11T06:40:53Z</time>
      </trkpt>
      <trkpt lat="43.23752" lon="6.31214">
        <ele>158</ele>
        <time>2021-07-11T06:40:54Z</time>
      </trkpt>
      <trkpt lat="43.23744" lon="6.31222">
        <ele>158.2</ele>
        <time>2021-07-11T06:40:55Z</time>
      </trkpt>
      <trkpt lat="43.23736" lon="6.31231">
        <ele>158.3</ele>
        <time>2021-07-11T06:40:58Z</time>
      </trkpt>
      <trkpt lat="43.23731" lon="6.31235">
        <ele>158.4</ele>
        <time>2021-07-11T06:40:59Z</time>
      </trkpt>
      <trkpt lat="43.23724" lon="6.31244">
        <ele>158.6</ele>
        <time>2021-07-11T06:41:00Z</time>
      </trkpt>
      <trkpt lat="43.23713" lon="6.31258">
        <ele>159</ele>
        <time>2021-07-11T06:41:04Z</time>
      </trkpt>
      <trkpt lat="43.23706" lon="6.31268">
        <ele>159.2</ele>
        <time>2021-07-11T06:41:05Z</time>
      </trkpt>
      <trkpt lat="43.23704" lon="6.31271">
        <ele>159.3</ele>
        <time>2021-07-11T06:41:06Z</time>
      </trkpt>
      <trkpt lat="43.23703" lon="6.31274">
        <ele>159.3</ele>
        <time>2021-07-11T06:41:07Z</time>
      </trkpt>
      <trkpt lat="43.23698" lon="6.31283">
        <ele>159.5</ele>
        <time>2021-07-11T06:41:08Z</time>
      </trkpt>
      <trkpt lat="43.23696" lon="6.31286">
        <ele>159.6</ele>
        <time>2021-07-11T06:41:09Z</time>
      </trkpt>
      <trkpt lat="43.23691" lon="6.31298">
        <ele>159.9</ele>
        <time>2021-07-11T06:41:11Z</time>
      </trkpt>
      <trkpt lat="43.23688" lon="6.31311">
        <ele>160.1</ele>
        <time>2021-07-11T06:41:13Z</time>
      </trkpt>
      <trkpt lat="43.23686" lon="6.31331">
        <ele>160.4</ele>
        <time>2021-07-11T06:41:16Z</time>
      </trkpt>
      <trkpt lat="43.23686" lon="6.31338">
        <ele>160.4</ele>
        <time>2021-07-11T06:41:17Z</time>
      </trkpt>
      <trkpt lat="43.23686" lon="6.31345">
        <ele>160.5</ele>
        <time>2021-07-11T06:41:18Z</time>
      </trkpt>
      <trkpt lat="43.23686" lon="6.31352">
        <ele>160.6</ele>
        <time>2021-07-11T06:41:19Z</time>
      </trkpt>
      <trkpt lat="43.23685" lon="6.3136">
        <ele>160.7</ele>
        <time>2021-07-11T06:41:20Z</time>
      </trkpt>
      <trkpt lat="43.2369" lon="6.31402">
        <ele>161.1</ele>
        <time>2021-07-11T06:41:26Z</time>
      </trkpt>
      <trkpt lat="43.23701" lon="6.31479">
        <ele>161.6</ele>
        <time>2021-07-11T06:41:35Z</time>
      </trkpt>
      <trkpt lat="43.23702" lon="6.31487">
        <ele>161.7</ele>
        <time>2021-07-11T06:41:36Z</time>
      </trkpt>
      <trkpt lat="43.23715" lon="6.3156">
        <ele>162.3</ele>
        <time>2021-07-11T06:41:45Z</time>
      </trkpt>
      <trkpt lat="43.23716" lon="6.31568">
        <ele>162.4</ele>
        <time>2021-07-11T06:41:46Z</time>
      </trkpt>
      <trkpt lat="43.23731" lon="6.31643">
        <ele>163.4</ele>
        <time>2021-07-11T06:41:56Z</time>
      </trkpt>
      <trkpt lat="43.23745" lon="6.31718">
        <ele>164.5</ele>
        <time>2021-07-11T06:42:06Z</time>
      </trkpt>
      <trkpt lat="43.23748" lon="6.31733">
        <ele>164.6</ele>
        <time>2021-07-11T06:42:08Z</time>
      </trkpt>
      <trkpt lat="43.2376" lon="6.31795">
        <ele>164.8</ele>
        <time>2021-07-11T06:42:16Z</time>
      </trkpt>
      <trkpt lat="43.23772" lon="6.31871">
        <ele>164.9</ele>
        <time>2021-07-11T06:42:25Z</time>
      </trkpt>
      <trkpt lat="43.23772" lon="6.31879">
        <ele>164.8</ele>
        <time>2021-07-11T06:42:26Z</time>
      </trkpt>
      <trkpt lat="43.23791" lon="6.31951">
        <ele>164.8</ele>
        <time>2021-07-11T06:42:35Z</time>
      </trkpt>
      <trkpt lat="43.23794" lon="6.31958">
        <ele>164.8</ele>
        <time>2021-07-11T06:42:36Z</time>
      </trkpt>
      <trkpt lat="43.23823" lon="6.32028">
        <ele>165.1</ele>
        <time>2021-07-11T06:42:45Z</time>
      </trkpt>
      <trkpt lat="43.23824" lon="6.32037">
        <ele>165.2</ele>
        <time>2021-07-11T06:42:46Z</time>
      </trkpt>
      <trkpt lat="43.23824" lon="6.32046">
        <ele>165.2</ele>
        <time>2021-07-11T06:42:47Z</time>
      </trkpt>
      <trkpt lat="43.23822" lon="6.32126">
        <ele>165.8</ele>
        <time>2021-07-11T06:42:56Z</time>
      </trkpt>
      <trkpt lat="43.23823" lon="6.32148">
        <ele>166.1</ele>
        <time>2021-07-11T06:43:00Z</time>
      </trkpt>
      <trkpt lat="43.23828" lon="6.3216">
        <ele>166.2</ele>
        <time>2021-07-11T06:43:02Z</time>
      </trkpt>
      <trkpt lat="43.23836" lon="6.32166">
        <ele>166.3</ele>
        <time>2021-07-11T06:43:04Z</time>
      </trkpt>
      <trkpt lat="43.23845" lon="6.32168">
        <ele>166.4</ele>
        <time>2021-07-11T06:43:06Z</time>
      </trkpt>
      <trkpt lat="43.23901" lon="6.32152">
        <ele>166.7</ele>
        <time>2021-07-11T06:43:16Z</time>
      </trkpt>
      <trkpt lat="43.23935" lon="6.32143">
        <ele>167</ele>
        <time>2021-07-11T06:43:22Z</time>
      </trkpt>
      <trkpt lat="43.2396" lon="6.32145">
        <ele>167.4</ele>
        <time>2021-07-11T06:43:26Z</time>
      </trkpt>
      <trkpt lat="43.24007" lon="6.32153">
        <ele>168.5</ele>
        <time>2021-07-11T06:43:34Z</time>
      </trkpt>
      <trkpt lat="43.24016" lon="6.32153">
        <ele>168.9</ele>
        <time>2021-07-11T06:43:36Z</time>
      </trkpt>
      <trkpt lat="43.24021" lon="6.32151">
        <ele>169</ele>
        <time>2021-07-11T06:43:37Z</time>
      </trkpt>
      <trkpt lat="43.24066" lon="6.32134">
        <ele>170.6</ele>
        <time>2021-07-11T06:43:46Z</time>
      </trkpt>
      <trkpt lat="43.24079" lon="6.32128">
        <ele>171.2</ele>
        <time>2021-07-11T06:43:50Z</time>
      </trkpt>
      <trkpt lat="43.24103" lon="6.32121">
        <ele>172.1</ele>
        <time>2021-07-11T06:43:56Z</time>
      </trkpt>
      <trkpt lat="43.24133" lon="6.3211">
        <ele>173.2</ele>
        <time>2021-07-11T06:44:03Z</time>
      </trkpt>
      <trkpt lat="43.24149" lon="6.3211">
        <ele>173.6</ele>
        <time>2021-07-11T06:44:06Z</time>
      </trkpt>
      <trkpt lat="43.24199" lon="6.32134">
        <ele>174.3</ele>
        <time>2021-07-11T06:44:16Z</time>
      </trkpt>
      <trkpt lat="43.24244" lon="6.32181">
        <ele>175.5</ele>
        <time>2021-07-11T06:44:24Z</time>
      </trkpt>
      <trkpt lat="43.24253" lon="6.32194">
        <ele>176</ele>
        <time>2021-07-11T06:44:26Z</time>
      </trkpt>
      <trkpt lat="43.24283" lon="6.32247">
        <ele>178.3</ele>
        <time>2021-07-11T06:44:35Z</time>
      </trkpt>
      <trkpt lat="43.24285" lon="6.32253">
        <ele>178.6</ele>
        <time>2021-07-11T06:44:36Z</time>
      </trkpt>
      <trkpt lat="43.24287" lon="6.3226">
        <ele>178.8</ele>
        <time>2021-07-11T06:44:37Z</time>
      </trkpt>
      <trkpt lat="43.24291" lon="6.32275">
        <ele>179.3</ele>
        <time>2021-07-11T06:44:39Z</time>
      </trkpt>
      <trkpt lat="43.24289" lon="6.32325">
        <ele>180.1</ele>
        <time>2021-07-11T06:44:46Z</time>
      </trkpt>
      <trkpt lat="43.24279" lon="6.32392">
        <ele>181.4</ele>
        <time>2021-07-11T06:44:56Z</time>
      </trkpt>
      <trkpt lat="43.24274" lon="6.32441">
        <ele>183.1</ele>
        <time>2021-07-11T06:45:04Z</time>
      </trkpt>
      <trkpt lat="43.24274" lon="6.32453">
        <ele>183.6</ele>
        <time>2021-07-11T06:45:06Z</time>
      </trkpt>
      <trkpt lat="43.24272" lon="6.32471">
        <ele>184.2</ele>
        <time>2021-07-11T06:45:09Z</time>
      </trkpt>
      <trkpt lat="43.24262" lon="6.32509">
        <ele>185.6</ele>
        <time>2021-07-11T06:45:16Z</time>
      </trkpt>
      <trkpt lat="43.24261" lon="6.32527">
        <ele>186</ele>
        <time>2021-07-11T06:45:19Z</time>
      </trkpt>
      <trkpt lat="43.24266" lon="6.32581">
        <ele>185.3</ele>
        <time>2021-07-11T06:45:26Z</time>
      </trkpt>
      <trkpt lat="43.24265" lon="6.326">
        <ele>184.7</ele>
        <time>2021-07-11T06:45:28Z</time>
      </trkpt>
      <trkpt lat="43.24259" lon="6.32618">
        <ele>183.9</ele>
        <time>2021-07-11T06:45:30Z</time>
      </trkpt>
      <trkpt lat="43.24244" lon="6.3264">
        <ele>182.6</ele>
        <time>2021-07-11T06:45:33Z</time>
      </trkpt>
      <trkpt lat="43.24224" lon="6.32661">
        <ele>181.3</ele>
        <time>2021-07-11T06:45:36Z</time>
      </trkpt>
      <trkpt lat="43.24172" lon="6.32692">
        <ele>180.2</ele>
        <time>2021-07-11T06:45:43Z</time>
      </trkpt>
      <trkpt lat="43.2416" lon="6.32704">
        <ele>180</ele>
        <time>2021-07-11T06:45:45Z</time>
      </trkpt>
      <trkpt lat="43.24155" lon="6.32712">
        <ele>179.9</ele>
        <time>2021-07-11T06:45:46Z</time>
      </trkpt>
      <trkpt lat="43.24151" lon="6.32721">
        <ele>179.9</ele>
        <time>2021-07-11T06:45:47Z</time>
      </trkpt>
      <trkpt lat="43.24143" lon="6.32739">
        <ele>179.9</ele>
        <time>2021-07-11T06:45:49Z</time>
      </trkpt>
      <trkpt lat="43.24126" lon="6.32797">
        <ele>181.3</ele>
        <time>2021-07-11T06:45:56Z</time>
      </trkpt>
      <trkpt lat="43.24121" lon="6.32819">
        <ele>182</ele>
        <time>2021-07-11T06:45:59Z</time>
      </trkpt>
      <trkpt lat="43.24122" lon="6.32834">
        <ele>182.5</ele>
        <time>2021-07-11T06:46:01Z</time>
      </trkpt>
      <trkpt lat="43.24126" lon="6.32848">
        <ele>183</ele>
        <time>2021-07-11T06:46:03Z</time>
      </trkpt>
      <trkpt lat="43.24133" lon="6.32865">
        <ele>183.8</ele>
        <time>2021-07-11T06:46:06Z</time>
      </trkpt>
      <trkpt lat="43.24166" lon="6.32902">
        <ele>185.7</ele>
        <time>2021-07-11T06:46:16Z</time>
      </trkpt>
      <trkpt lat="43.24186" lon="6.32919">
        <ele>186.8</ele>
        <time>2021-07-11T06:46:22Z</time>
      </trkpt>
      <trkpt lat="43.24204" lon="6.32943">
        <ele>188</ele>
        <time>2021-07-11T06:46:26Z</time>
      </trkpt>
      <trkpt lat="43.24209" lon="6.32955">
        <ele>188.6</ele>
        <time>2021-07-11T06:46:28Z</time>
      </trkpt>
      <trkpt lat="43.2422" lon="6.32983">
        <ele>189.8</ele>
        <time>2021-07-11T06:46:33Z</time>
      </trkpt>
      <trkpt lat="43.24224" lon="6.33001">
        <ele>190.5</ele>
        <time>2021-07-11T06:46:36Z</time>
      </trkpt>
      <trkpt lat="43.24207" lon="6.33038">
        <ele>191.7</ele>
        <time>2021-07-11T06:46:45Z</time>
      </trkpt>
      <trkpt lat="43.24203" lon="6.33041">
        <ele>191.8</ele>
        <time>2021-07-11T06:46:46Z</time>
      </trkpt>
      <trkpt lat="43.24159" lon="6.3308">
        <ele>192</ele>
        <time>2021-07-11T06:46:56Z</time>
      </trkpt>
      <trkpt lat="43.24145" lon="6.33111">
        <ele>192.4</ele>
        <time>2021-07-11T06:47:01Z</time>
      </trkpt>
      <trkpt lat="43.24135" lon="6.33139">
        <ele>192.9</ele>
        <time>2021-07-11T06:47:06Z</time>
      </trkpt>
      <trkpt lat="43.24113" lon="6.33198">
        <ele>194</ele>
        <time>2021-07-11T06:47:16Z</time>
      </trkpt>
      <trkpt lat="43.24105" lon="6.3323">
        <ele>194.5</ele>
        <time>2021-07-11T06:47:21Z</time>
      </trkpt>
      <trkpt lat="43.24097" lon="6.33271">
        <ele>195.5</ele>
        <time>2021-07-11T06:47:26Z</time>
      </trkpt>
      <trkpt lat="43.24096" lon="6.33333">
        <ele>197.5</ele>
        <time>2021-07-11T06:47:36Z</time>
      </trkpt>
      <trkpt lat="43.24071" lon="6.33367">
        <ele>199.1</ele>
        <time>2021-07-11T06:47:46Z</time>
      </trkpt>
      <trkpt lat="43.24057" lon="6.33372">
        <ele>199.9</ele>
        <time>2021-07-11T06:47:49Z</time>
      </trkpt>
      <trkpt lat="43.24026" lon="6.33371">
        <ele>201.5</ele>
        <time>2021-07-11T06:47:56Z</time>
      </trkpt>
      <trkpt lat="43.2399" lon="6.33365">
        <ele>203.6</ele>
        <time>2021-07-11T06:48:06Z</time>
      </trkpt>
      <trkpt lat="43.23955" lon="6.33368">
        <ele>205.7</ele>
        <time>2021-07-11T06:48:15Z</time>
      </trkpt>
      <trkpt lat="43.23952" lon="6.33368">
        <ele>205.9</ele>
        <time>2021-07-11T06:48:16Z</time>
      </trkpt>
      <trkpt lat="43.23921" lon="6.33386">
        <ele>207.7</ele>
        <time>2021-07-11T06:48:26Z</time>
      </trkpt>
      <trkpt lat="43.23893" lon="6.33406">
        <ele>209.4</ele>
        <time>2021-07-11T06:48:36Z</time>
      </trkpt>
      <trkpt lat="43.23872" lon="6.33415">
        <ele>210.6</ele>
        <time>2021-07-11T06:48:42Z</time>
      </trkpt>
      <trkpt lat="43.23859" lon="6.33415">
        <ele>211.4</ele>
        <time>2021-07-11T06:48:46Z</time>
      </trkpt>
      <trkpt lat="43.23822" lon="6.33409">
        <ele>213.4</ele>
        <time>2021-07-11T06:48:56Z</time>
      </trkpt>
      <trkpt lat="43.23785" lon="6.33408">
        <ele>215.2</ele>
        <time>2021-07-11T06:49:06Z</time>
      </trkpt>
      <trkpt lat="43.23751" lon="6.3342">
        <ele>217.2</ele>
        <time>2021-07-11T06:49:16Z</time>
      </trkpt>
      <trkpt lat="43.23713" lon="6.33413">
        <ele>219.3</ele>
        <time>2021-07-11T06:49:26Z</time>
      </trkpt>
      <trkpt lat="43.23683" lon="6.33424">
        <ele>221.1</ele>
        <time>2021-07-11T06:49:36Z</time>
      </trkpt>
      <trkpt lat="43.23698" lon="6.33465">
        <ele>222.5</ele>
        <time>2021-07-11T06:49:46Z</time>
      </trkpt>
      <trkpt lat="43.23721" lon="6.33478">
        <ele>223.3</ele>
        <time>2021-07-11T06:49:56Z</time>
      </trkpt>
      <trkpt lat="43.23752" lon="6.33483">
        <ele>224.9</ele>
        <time>2021-07-11T06:50:06Z</time>
      </trkpt>
      <trkpt lat="43.23777" lon="6.3349">
        <ele>226.6</ele>
        <time>2021-07-11T06:50:14Z</time>
      </trkpt>
      <trkpt lat="43.23784" lon="6.33492">
        <ele>227</ele>
        <time>2021-07-11T06:50:16Z</time>
      </trkpt>
      <trkpt lat="43.23787" lon="6.33494">
        <ele>227.3</ele>
        <time>2021-07-11T06:50:17Z</time>
      </trkpt>
      <trkpt lat="43.23791" lon="6.33496">
        <ele>227.5</ele>
        <time>2021-07-11T06:50:18Z</time>
      </trkpt>
      <trkpt lat="43.23801" lon="6.335">
        <ele>228.1</ele>
        <time>2021-07-11T06:50:21Z</time>
      </trkpt>
      <trkpt lat="43.23808" lon="6.33502">
        <ele>228.5</ele>
        <time>2021-07-11T06:50:23Z</time>
      </trkpt>
      <trkpt lat="43.23817" lon="6.33506">
        <ele>229</ele>
        <time>2021-07-11T06:50:26Z</time>
      </trkpt>
      <trkpt lat="43.23835" lon="6.33513">
        <ele>230.1</ele>
        <time>2021-07-11T06:50:32Z</time>
      </trkpt>
      <trkpt lat="43.23849" lon="6.33516">
        <ele>230.8</ele>
        <time>2021-07-11T06:50:36Z</time>
      </trkpt>
      <trkpt lat="43.23872" lon="6.33518">
        <ele>232.1</ele>
        <time>2021-07-11T06:50:43Z</time>
      </trkpt>
      <trkpt lat="43.23881" lon="6.33517">
        <ele>232.6</ele>
        <time>2021-07-11T06:50:46Z</time>
      </trkpt>
      <trkpt lat="43.23896" lon="6.33516">
        <ele>233.4</ele>
        <time>2021-07-11T06:50:50Z</time>
      </trkpt>
      <trkpt lat="43.23918" lon="6.33517">
        <ele>234.6</ele>
        <time>2021-07-11T06:50:56Z</time>
      </trkpt>
      <trkpt lat="43.23933" lon="6.33519">
        <ele>235.5</ele>
        <time>2021-07-11T06:51:00Z</time>
      </trkpt>
      <trkpt lat="43.23955" lon="6.33525">
        <ele>236.9</ele>
        <time>2021-07-11T06:51:06Z</time>
      </trkpt>
      <trkpt lat="43.23977" lon="6.33534">
        <ele>238.2</ele>
        <time>2021-07-11T06:51:12Z</time>
      </trkpt>
      <trkpt lat="43.23986" lon="6.33537">
        <ele>238.8</ele>
        <time>2021-07-11T06:51:15Z</time>
      </trkpt>
      <trkpt lat="43.2399" lon="6.33539">
        <ele>239</ele>
        <time>2021-07-11T06:51:16Z</time>
      </trkpt>
      <trkpt lat="43.23997" lon="6.33543">
        <ele>239.4</ele>
        <time>2021-07-11T06:51:18Z</time>
      </trkpt>
      <trkpt lat="43.24025" lon="6.33564">
        <ele>241.2</ele>
        <time>2021-07-11T06:51:26Z</time>
      </trkpt>
      <trkpt lat="43.24042" lon="6.33612">
        <ele>243.4</ele>
        <time>2021-07-11T06:51:36Z</time>
      </trkpt>
      <trkpt lat="43.24045" lon="6.33647">
        <ele>244.9</ele>
        <time>2021-07-11T06:51:44Z</time>
      </trkpt>
      <trkpt lat="43.24046" lon="6.33657">
        <ele>245.3</ele>
        <time>2021-07-11T06:51:46Z</time>
      </trkpt>
      <trkpt lat="43.24032" lon="6.337">
        <ele>247.3</ele>
        <time>2021-07-11T06:51:56Z</time>
      </trkpt>
      <trkpt lat="43.24008" lon="6.33727">
        <ele>248.8</ele>
        <time>2021-07-11T06:52:06Z</time>
      </trkpt>
      <trkpt lat="43.23983" lon="6.33752">
        <ele>250.6</ele>
        <time>2021-07-11T06:52:16Z</time>
      </trkpt>
      <trkpt lat="43.23961" lon="6.33778">
        <ele>252.4</ele>
        <time>2021-07-11T06:52:26Z</time>
      </trkpt>
      <trkpt lat="43.23964" lon="6.33834">
        <ele>253.7</ele>
        <time>2021-07-11T06:52:36Z</time>
      </trkpt>
      <trkpt lat="43.23971" lon="6.33859">
        <ele>254.4</ele>
        <time>2021-07-11T06:52:41Z</time>
      </trkpt>
      <trkpt lat="43.23979" lon="6.33879">
        <ele>255.2</ele>
        <time>2021-07-11T06:52:45Z</time>
      </trkpt>
      <trkpt lat="43.2398" lon="6.33885">
        <ele>255.4</ele>
        <time>2021-07-11T06:52:46Z</time>
      </trkpt>
      <trkpt lat="43.23995" lon="6.33931">
        <ele>257.7</ele>
        <time>2021-07-11T06:52:56Z</time>
      </trkpt>
      <trkpt lat="43.24004" lon="6.3398">
        <ele>259.8</ele>
        <time>2021-07-11T06:53:06Z</time>
      </trkpt>
      <trkpt lat="43.2402" lon="6.34023">
        <ele>262</ele>
        <time>2021-07-11T06:53:16Z</time>
      </trkpt>
      <trkpt lat="43.24028" lon="6.34068">
        <ele>264.1</ele>
        <time>2021-07-11T06:53:26Z</time>
      </trkpt>
      <trkpt lat="43.2401" lon="6.34092">
        <ele>265.6</ele>
        <time>2021-07-11T06:53:36Z</time>
      </trkpt>
      <trkpt lat="43.23992" lon="6.34123">
        <ele>267.2</ele>
        <time>2021-07-11T06:53:46Z</time>
      </trkpt>
      <trkpt lat="43.23964" lon="6.34154">
        <ele>269.3</ele>
        <time>2021-07-11T06:53:56Z</time>
      </trkpt>
      <trkpt lat="43.23951" lon="6.34201">
        <ele>271.3</ele>
        <time>2021-07-11T06:54:06Z</time>
      </trkpt>
      <trkpt lat="43.23954" lon="6.34216">
        <ele>272</ele>
        <time>2021-07-11T06:54:09Z</time>
      </trkpt>
      <trkpt lat="43.23958" lon="6.34248">
        <ele>273.3</ele>
        <time>2021-07-11T06:54:15Z</time>
      </trkpt>
      <trkpt lat="43.23961" lon="6.34251">
        <ele>273.5</ele>
        <time>2021-07-11T06:54:16Z</time>
      </trkpt>
      <trkpt lat="43.23981" lon="6.34253">
        <ele>274.2</ele>
        <time>2021-07-11T06:54:24Z</time>
      </trkpt>
      <trkpt lat="43.23988" lon="6.34254">
        <ele>274.5</ele>
        <time>2021-07-11T06:54:26Z</time>
      </trkpt>
      <trkpt lat="43.24002" lon="6.34257">
        <ele>275.2</ele>
        <time>2021-07-11T06:54:30Z</time>
      </trkpt>
      <trkpt lat="43.24017" lon="6.34265">
        <ele>276.2</ele>
        <time>2021-07-11T06:54:36Z</time>
      </trkpt>
      <trkpt lat="43.24033" lon="6.34309">
        <ele>278.1</ele>
        <time>2021-07-11T06:54:46Z</time>
      </trkpt>
      <trkpt lat="43.24032" lon="6.34356">
        <ele>280.1</ele>
        <time>2021-07-11T06:54:56Z</time>
      </trkpt>
      <trkpt lat="43.24022" lon="6.344">
        <ele>282.2</ele>
        <time>2021-07-11T06:55:06Z</time>
      </trkpt>
      <trkpt lat="43.24005" lon="6.34429">
        <ele>283.7</ele>
        <time>2021-07-11T06:55:15Z</time>
      </trkpt>
      <trkpt lat="43.24002" lon="6.34432">
        <ele>283.9</ele>
        <time>2021-07-11T06:55:16Z</time>
      </trkpt>
      <trkpt lat="43.2399" lon="6.34467">
        <ele>285.5</ele>
        <time>2021-07-11T06:55:26Z</time>
      </trkpt>
      <trkpt lat="43.23987" lon="6.34522">
        <ele>287.6</ele>
        <time>2021-07-11T06:55:36Z</time>
      </trkpt>
      <trkpt lat="43.23983" lon="6.34573">
        <ele>289.7</ele>
        <time>2021-07-11T06:55:46Z</time>
      </trkpt>
      <trkpt lat="43.23998" lon="6.34613">
        <ele>291.6</ele>
        <time>2021-07-11T06:55:56Z</time>
      </trkpt>
      <trkpt lat="43.24003" lon="6.34642">
        <ele>293</ele>
        <time>2021-07-11T06:56:02Z</time>
      </trkpt>
      <trkpt lat="43.24006" lon="6.34662">
        <ele>293.8</ele>
        <time>2021-07-11T06:56:06Z</time>
      </trkpt>
      <trkpt lat="43.24008" lon="6.34696">
        <ele>295.4</ele>
        <time>2021-07-11T06:56:13Z</time>
      </trkpt>
      <trkpt lat="43.24008" lon="6.34709">
        <ele>296</ele>
        <time>2021-07-11T06:56:16Z</time>
      </trkpt>
      <trkpt lat="43.24007" lon="6.34718">
        <ele>296.4</ele>
        <time>2021-07-11T06:56:18Z</time>
      </trkpt>
      <trkpt lat="43.24006" lon="6.34727">
        <ele>296.8</ele>
        <time>2021-07-11T06:56:20Z</time>
      </trkpt>
      <trkpt lat="43.24" lon="6.34736">
        <ele>297.3</ele>
        <time>2021-07-11T06:56:23Z</time>
      </trkpt>
      <trkpt lat="43.23991" lon="6.34742">
        <ele>297.8</ele>
        <time>2021-07-11T06:56:26Z</time>
      </trkpt>
      <trkpt lat="43.23965" lon="6.34764">
        <ele>299.4</ele>
        <time>2021-07-11T06:56:36Z</time>
      </trkpt>
      <trkpt lat="43.23969" lon="6.34816">
        <ele>300.9</ele>
        <time>2021-07-11T06:56:46Z</time>
      </trkpt>
      <trkpt lat="43.23984" lon="6.34861">
        <ele>302.4</ele>
        <time>2021-07-11T06:56:56Z</time>
      </trkpt>
      <trkpt lat="43.23993" lon="6.34907">
        <ele>304.5</ele>
        <time>2021-07-11T06:57:06Z</time>
      </trkpt>
      <trkpt lat="43.23981" lon="6.34932">
        <ele>305.9</ele>
        <time>2021-07-11T06:57:13Z</time>
      </trkpt>
      <trkpt lat="43.23971" lon="6.34938">
        <ele>306.5</ele>
        <time>2021-07-11T06:57:16Z</time>
      </trkpt>
      <trkpt lat="43.23935" lon="6.34941">
        <ele>308.4</ele>
        <time>2021-07-11T06:57:26Z</time>
      </trkpt>
      <trkpt lat="43.23917" lon="6.34951">
        <ele>309.6</ele>
        <time>2021-07-11T06:57:32Z</time>
      </trkpt>
      <trkpt lat="43.23905" lon="6.34959">
        <ele>310.5</ele>
        <time>2021-07-11T06:57:36Z</time>
      </trkpt>
      <trkpt lat="43.23883" lon="6.34974">
        <ele>312</ele>
        <time>2021-07-11T06:57:44Z</time>
      </trkpt>
      <trkpt lat="43.23882" lon="6.34978">
        <ele>312.2</ele>
        <time>2021-07-11T06:57:45Z</time>
      </trkpt>
      <trkpt lat="43.2388" lon="6.34982">
        <ele>312.3</ele>
        <time>2021-07-11T06:57:46Z</time>
      </trkpt>
      <trkpt lat="43.23878" lon="6.34996">
        <ele>312.8</ele>
        <time>2021-07-11T06:57:49Z</time>
      </trkpt>
      <trkpt lat="43.23878" lon="6.35012">
        <ele>313.3</ele>
        <time>2021-07-11T06:57:52Z</time>
      </trkpt>
      <trkpt lat="43.23879" lon="6.35033">
        <ele>313.9</ele>
        <time>2021-07-11T06:57:56Z</time>
      </trkpt>
      <trkpt lat="43.23876" lon="6.35087">
        <ele>315.7</ele>
        <time>2021-07-11T06:58:06Z</time>
      </trkpt>
      <trkpt lat="43.2388" lon="6.35124">
        <ele>316.9</ele>
        <time>2021-07-11T06:58:13Z</time>
      </trkpt>
      <trkpt lat="43.23882" lon="6.35138">
        <ele>317.4</ele>
        <time>2021-07-11T06:58:16Z</time>
      </trkpt>
      <trkpt lat="43.23886" lon="6.35184">
        <ele>319.1</ele>
        <time>2021-07-11T06:58:26Z</time>
      </trkpt>
      <trkpt lat="43.23878" lon="6.35232">
        <ele>321.2</ele>
        <time>2021-07-11T06:58:36Z</time>
      </trkpt>
      <trkpt lat="43.23872" lon="6.35268">
        <ele>322.6</ele>
        <time>2021-07-11T06:58:43Z</time>
      </trkpt>
      <trkpt lat="43.23872" lon="6.35282">
        <ele>323.2</ele>
        <time>2021-07-11T06:58:46Z</time>
      </trkpt>
      <trkpt lat="43.2387" lon="6.35326">
        <ele>324.9</ele>
        <time>2021-07-11T06:58:55Z</time>
      </trkpt>
      <trkpt lat="43.23869" lon="6.35331">
        <ele>325.1</ele>
        <time>2021-07-11T06:58:56Z</time>
      </trkpt>
      <trkpt lat="43.23866" lon="6.3538">
        <ele>327.2</ele>
        <time>2021-07-11T06:59:06Z</time>
      </trkpt>
      <trkpt lat="43.23859" lon="6.35424">
        <ele>329.2</ele>
        <time>2021-07-11T06:59:16Z</time>
      </trkpt>
      <trkpt lat="43.23849" lon="6.35466">
        <ele>330.9</ele>
        <time>2021-07-11T06:59:26Z</time>
      </trkpt>
      <trkpt lat="43.23846" lon="6.35509">
        <ele>332.7</ele>
        <time>2021-07-11T06:59:35Z</time>
      </trkpt>
      <trkpt lat="43.23848" lon="6.35512">
        <ele>332.9</ele>
        <time>2021-07-11T06:59:36Z</time>
      </trkpt>
      <trkpt lat="43.2387" lon="6.35517">
        <ele>333.8</ele>
        <time>2021-07-11T06:59:44Z</time>
      </trkpt>
      <trkpt lat="43.23876" lon="6.35516">
        <ele>334</ele>
        <time>2021-07-11T06:59:46Z</time>
      </trkpt>
      <trkpt lat="43.23892" lon="6.35512">
        <ele>334.5</ele>
        <time>2021-07-11T06:59:51Z</time>
      </trkpt>
      <trkpt lat="43.23911" lon="6.35506">
        <ele>335.2</ele>
        <time>2021-07-11T06:59:56Z</time>
      </trkpt>
      <trkpt lat="43.23943" lon="6.35485">
        <ele>337.3</ele>
        <time>2021-07-11T07:00:06Z</time>
      </trkpt>
      <trkpt lat="43.2396" lon="6.35471">
        <ele>338.6</ele>
        <time>2021-07-11T07:00:12Z</time>
      </trkpt>
      <trkpt lat="43.23971" lon="6.35463">
        <ele>339.5</ele>
        <time>2021-07-11T07:00:16Z</time>
      </trkpt>
      <trkpt lat="43.23992" lon="6.35475">
        <ele>341.2</ele>
        <time>2021-07-11T07:00:25Z</time>
      </trkpt>
      <trkpt lat="43.23994" lon="6.35478">
        <ele>341.4</ele>
        <time>2021-07-11T07:00:26Z</time>
      </trkpt>
      <trkpt lat="43.24015" lon="6.35512">
        <ele>343.4</ele>
        <time>2021-07-11T07:00:36Z</time>
      </trkpt>
      <trkpt lat="43.24024" lon="6.35553">
        <ele>345.3</ele>
        <time>2021-07-11T07:00:46Z</time>
      </trkpt>
      <trkpt lat="43.24033" lon="6.35571">
        <ele>346.3</ele>
        <time>2021-07-11T07:00:52Z</time>
      </trkpt>
      <trkpt lat="43.2404" lon="6.35574">
        <ele>346.6</ele>
        <time>2021-07-11T07:00:54Z</time>
      </trkpt>
      <trkpt lat="43.24046" lon="6.35577">
        <ele>346.9</ele>
        <time>2021-07-11T07:00:56Z</time>
      </trkpt>
      <trkpt lat="43.24054" lon="6.35582">
        <ele>347.3</ele>
        <time>2021-07-11T07:00:59Z</time>
      </trkpt>
      <trkpt lat="43.24064" lon="6.3559">
        <ele>347.9</ele>
        <time>2021-07-11T07:01:03Z</time>
      </trkpt>
      <trkpt lat="43.24069" lon="6.35602">
        <ele>348.5</ele>
        <time>2021-07-11T07:01:06Z</time>
      </trkpt>
      <trkpt lat="43.24068" lon="6.35644">
        <ele>350.7</ele>
        <time>2021-07-11T07:01:16Z</time>
      </trkpt>
      <trkpt lat="43.24075" lon="6.35678">
        <ele>352.6</ele>
        <time>2021-07-11T07:01:26Z</time>
      </trkpt>
      <trkpt lat="43.24097" lon="6.35714">
        <ele>354.9</ele>
        <time>2021-07-11T07:01:36Z</time>
      </trkpt>
      <trkpt lat="43.24121" lon="6.35734">
        <ele>357</ele>
        <time>2021-07-11T07:01:46Z</time>
      </trkpt>
      <trkpt lat="43.24146" lon="6.35745">
        <ele>358.9</ele>
        <time>2021-07-11T07:01:54Z</time>
      </trkpt>
      <trkpt lat="43.24149" lon="6.35748">
        <ele>359.2</ele>
        <time>2021-07-11T07:01:56Z</time>
      </trkpt>
      <trkpt lat="43.24172" lon="6.35779">
        <ele>361.4</ele>
        <time>2021-07-11T07:02:06Z</time>
      </trkpt>
      <trkpt lat="43.24182" lon="6.35805">
        <ele>362.9</ele>
        <time>2021-07-11T07:02:13Z</time>
      </trkpt>
      <trkpt lat="43.24187" lon="6.35815">
        <ele>363.5</ele>
        <time>2021-07-11T07:02:16Z</time>
      </trkpt>
      <trkpt lat="43.24203" lon="6.35838">
        <ele>365.2</ele>
        <time>2021-07-11T07:02:22Z</time>
      </trkpt>
      <trkpt lat="43.24212" lon="6.35854">
        <ele>366.3</ele>
        <time>2021-07-11T07:02:26Z</time>
      </trkpt>
      <trkpt lat="43.2422" lon="6.35876">
        <ele>367.7</ele>
        <time>2021-07-11T07:02:32Z</time>
      </trkpt>
      <trkpt lat="43.24227" lon="6.35892">
        <ele>368.6</ele>
        <time>2021-07-11T07:02:36Z</time>
      </trkpt>
      <trkpt lat="43.24244" lon="6.35923">
        <ele>370.6</ele>
        <time>2021-07-11T07:02:46Z</time>
      </trkpt>
      <trkpt lat="43.24262" lon="6.35955">
        <ele>372.8</ele>
        <time>2021-07-11T07:02:56Z</time>
      </trkpt>
      <trkpt lat="43.24283" lon="6.35993">
        <ele>375.2</ele>
        <time>2021-07-11T07:03:06Z</time>
      </trkpt>
      <trkpt lat="43.243" lon="6.36031">
        <ele>377.4</ele>
        <time>2021-07-11T07:03:16Z</time>
      </trkpt>
      <trkpt lat="43.24319" lon="6.36073">
        <ele>379.7</ele>
        <time>2021-07-11T07:03:26Z</time>
      </trkpt>
      <trkpt lat="43.24338" lon="6.36114">
        <ele>381.1</ele>
        <time>2021-07-11T07:03:36Z</time>
      </trkpt>
      <trkpt lat="43.24351" lon="6.3614">
        <ele>381.6</ele>
        <time>2021-07-11T07:03:42Z</time>
      </trkpt>
      <trkpt lat="43.24356" lon="6.36149">
        <ele>381.7</ele>
        <time>2021-07-11T07:03:44Z</time>
      </trkpt>
      <trkpt lat="43.24361" lon="6.36158">
        <ele>381.9</ele>
        <time>2021-07-11T07:03:46Z</time>
      </trkpt>
      <trkpt lat="43.24386" lon="6.36211">
        <ele>382.5</ele>
        <time>2021-07-11T07:03:56Z</time>
      </trkpt>
      <trkpt lat="43.24396" lon="6.36285">
        <ele>383.3</ele>
        <time>2021-07-11T07:04:06Z</time>
      </trkpt>
      <trkpt lat="43.244" lon="6.36306">
        <ele>383.6</ele>
        <time>2021-07-11T07:04:09Z</time>
      </trkpt>
      <trkpt lat="43.24405" lon="6.36319">
        <ele>383.8</ele>
        <time>2021-07-11T07:04:11Z</time>
      </trkpt>
      <trkpt lat="43.24417" lon="6.36351">
        <ele>384.4</ele>
        <time>2021-07-11T07:04:16Z</time>
      </trkpt>
      <trkpt lat="43.24433" lon="6.36413">
        <ele>385.8</ele>
        <time>2021-07-11T07:04:26Z</time>
      </trkpt>
      <trkpt lat="43.24449" lon="6.36481">
        <ele>387.1</ele>
        <time>2021-07-11T07:04:36Z</time>
      </trkpt>
      <trkpt lat="43.24456" lon="6.36506">
        <ele>387.5</ele>
        <time>2021-07-11T07:04:40Z</time>
      </trkpt>
      <trkpt lat="43.24473" lon="6.36548">
        <ele>387.6</ele>
        <time>2021-07-11T07:04:46Z</time>
      </trkpt>
      <trkpt lat="43.24482" lon="6.36566">
        <ele>387.5</ele>
        <time>2021-07-11T07:04:49Z</time>
      </trkpt>
      <trkpt lat="43.24514" lon="6.36606">
        <ele>387.2</ele>
        <time>2021-07-11T07:04:56Z</time>
      </trkpt>
      <trkpt lat="43.24516" lon="6.36623">
        <ele>387.1</ele>
        <time>2021-07-11T07:04:58Z</time>
      </trkpt>
      <trkpt lat="43.24512" lon="6.36639">
        <ele>387</ele>
        <time>2021-07-11T07:05:00Z</time>
      </trkpt>
      <trkpt lat="43.24505" lon="6.36655">
        <ele>386.9</ele>
        <time>2021-07-11T07:05:02Z</time>
      </trkpt>
      <trkpt lat="43.24497" lon="6.36682">
        <ele>386.8</ele>
        <time>2021-07-11T07:05:05Z</time>
      </trkpt>
      <trkpt lat="43.24496" lon="6.36691">
        <ele>386.8</ele>
        <time>2021-07-11T07:05:06Z</time>
      </trkpt>
      <trkpt lat="43.24496" lon="6.367">
        <ele>386.7</ele>
        <time>2021-07-11T07:05:07Z</time>
      </trkpt>
      <trkpt lat="43.24501" lon="6.36716">
        <ele>386.6</ele>
        <time>2021-07-11T07:05:09Z</time>
      </trkpt>
      <trkpt lat="43.2451" lon="6.36728">
        <ele>386.4</ele>
        <time>2021-07-11T07:05:11Z</time>
      </trkpt>
      <trkpt lat="43.24542" lon="6.36748">
        <ele>385.9</ele>
        <time>2021-07-11T07:05:16Z</time>
      </trkpt>
      <trkpt lat="43.24596" lon="6.36786">
        <ele>385</ele>
        <time>2021-07-11T07:05:24Z</time>
      </trkpt>
      <trkpt lat="43.24609" lon="6.36794">
        <ele>384.8</ele>
        <time>2021-07-11T07:05:26Z</time>
      </trkpt>
      <trkpt lat="43.24622" lon="6.36798">
        <ele>384.7</ele>
        <time>2021-07-11T07:05:28Z</time>
      </trkpt>
      <trkpt lat="43.24637" lon="6.368">
        <ele>384.6</ele>
        <time>2021-07-11T07:05:30Z</time>
      </trkpt>
      <trkpt lat="43.2465" lon="6.36819">
        <ele>384.6</ele>
        <time>2021-07-11T07:05:32Z</time>
      </trkpt>
      <trkpt lat="43.24648" lon="6.36836">
        <ele>384.6</ele>
        <time>2021-07-11T07:05:34Z</time>
      </trkpt>
      <trkpt lat="43.2464" lon="6.36849">
        <ele>384.7</ele>
        <time>2021-07-11T07:05:36Z</time>
      </trkpt>
      <trkpt lat="43.24628" lon="6.36858">
        <ele>384.8</ele>
        <time>2021-07-11T07:05:38Z</time>
      </trkpt>
      <trkpt lat="43.24615" lon="6.3686">
        <ele>385.1</ele>
        <time>2021-07-11T07:05:40Z</time>
      </trkpt>
      <trkpt lat="43.24602" lon="6.36859">
        <ele>385.5</ele>
        <time>2021-07-11T07:05:42Z</time>
      </trkpt>
      <trkpt lat="43.2458" lon="6.36854">
        <ele>386.2</ele>
        <time>2021-07-11T07:05:46Z</time>
      </trkpt>
      <trkpt lat="43.24533" lon="6.36833">
        <ele>388.9</ele>
        <time>2021-07-11T07:05:56Z</time>
      </trkpt>
      <trkpt lat="43.24523" lon="6.36832">
        <ele>389.6</ele>
        <time>2021-07-11T07:05:58Z</time>
      </trkpt>
      <trkpt lat="43.24501" lon="6.36851">
        <ele>391.2</ele>
        <time>2021-07-11T07:06:06Z</time>
      </trkpt>
      <trkpt lat="43.24485" lon="6.36897">
        <ele>393.5</ele>
        <time>2021-07-11T07:06:16Z</time>
      </trkpt>
      <trkpt lat="43.24481" lon="6.36917">
        <ele>394.4</ele>
        <time>2021-07-11T07:06:20Z</time>
      </trkpt>
      <trkpt lat="43.2448" lon="6.36922">
        <ele>394.6</ele>
        <time>2021-07-11T07:06:21Z</time>
      </trkpt>
      <trkpt lat="43.24478" lon="6.36927">
        <ele>394.9</ele>
        <time>2021-07-11T07:06:22Z</time>
      </trkpt>
      <trkpt lat="43.24477" lon="6.36932">
        <ele>395.1</ele>
        <time>2021-07-11T07:06:23Z</time>
      </trkpt>
      <trkpt lat="43.24476" lon="6.36937">
        <ele>395.4</ele>
        <time>2021-07-11T07:06:24Z</time>
      </trkpt>
      <trkpt lat="43.24474" lon="6.36947">
        <ele>395.9</ele>
        <time>2021-07-11T07:06:26Z</time>
      </trkpt>
      <trkpt lat="43.24468" lon="6.36972">
        <ele>397.1</ele>
        <time>2021-07-11T07:06:31Z</time>
      </trkpt>
      <trkpt lat="43.24467" lon="6.36976">
        <ele>397.3</ele>
        <time>2021-07-11T07:06:32Z</time>
      </trkpt>
      <trkpt lat="43.24467" lon="6.36981">
        <ele>397.5</ele>
        <time>2021-07-11T07:06:33Z</time>
      </trkpt>
      <trkpt lat="43.24464" lon="6.36995">
        <ele>398.2</ele>
        <time>2021-07-11T07:06:36Z</time>
      </trkpt>
      <trkpt lat="43.24463" lon="6.37">
        <ele>398.4</ele>
        <time>2021-07-11T07:06:37Z</time>
      </trkpt>
      <trkpt lat="43.24462" lon="6.37006">
        <ele>398.7</ele>
        <time>2021-07-11T07:06:38Z</time>
      </trkpt>
      <trkpt lat="43.24461" lon="6.37011">
        <ele>399</ele>
        <time>2021-07-11T07:06:39Z</time>
      </trkpt>
      <trkpt lat="43.24459" lon="6.37021">
        <ele>399.4</ele>
        <time>2021-07-11T07:06:41Z</time>
      </trkpt>
      <trkpt lat="43.24457" lon="6.37031">
        <ele>399.9</ele>
        <time>2021-07-11T07:06:43Z</time>
      </trkpt>
      <trkpt lat="43.24456" lon="6.37041">
        <ele>400.3</ele>
        <time>2021-07-11T07:06:45Z</time>
      </trkpt>
      <trkpt lat="43.24456" lon="6.37047">
        <ele>400.6</ele>
        <time>2021-07-11T07:06:46Z</time>
      </trkpt>
      <trkpt lat="43.24456" lon="6.37067">
        <ele>401.3</ele>
        <time>2021-07-11T07:06:49Z</time>
      </trkpt>
      <trkpt lat="43.24458" lon="6.37096">
        <ele>402.4</ele>
        <time>2021-07-11T07:06:54Z</time>
      </trkpt>
      <trkpt lat="43.24457" lon="6.37107">
        <ele>402.9</ele>
        <time>2021-07-11T07:06:56Z</time>
      </trkpt>
      <trkpt lat="43.24463" lon="6.37161">
        <ele>404.8</ele>
        <time>2021-07-11T07:07:06Z</time>
      </trkpt>
      <trkpt lat="43.24489" lon="6.37206">
        <ele>404.4</ele>
        <time>2021-07-11T07:07:16Z</time>
      </trkpt>
      <trkpt lat="43.24525" lon="6.37258">
        <ele>402.3</ele>
        <time>2021-07-11T07:07:26Z</time>
      </trkpt>
      <trkpt lat="43.24565" lon="6.37319">
        <ele>399.5</ele>
        <time>2021-07-11T07:07:34Z</time>
      </trkpt>
      <trkpt lat="43.24578" lon="6.37335">
        <ele>398.7</ele>
        <time>2021-07-11T07:07:36Z</time>
      </trkpt>
      <trkpt lat="43.24613" lon="6.37395">
        <ele>396.4</ele>
        <time>2021-07-11T07:07:42Z</time>
      </trkpt>
      <trkpt lat="43.24636" lon="6.3744">
        <ele>394.9</ele>
        <time>2021-07-11T07:07:46Z</time>
      </trkpt>
      <trkpt lat="43.24656" lon="6.37472">
        <ele>393.9</ele>
        <time>2021-07-11T07:07:49Z</time>
      </trkpt>
      <trkpt lat="43.24671" lon="6.37488">
        <ele>393.6</ele>
        <time>2021-07-11T07:07:51Z</time>
      </trkpt>
      <trkpt lat="43.2469" lon="6.37493">
        <ele>393.5</ele>
        <time>2021-07-11T07:07:53Z</time>
      </trkpt>
      <trkpt lat="43.24705" lon="6.37487">
        <ele>393.4</ele>
        <time>2021-07-11T07:07:55Z</time>
      </trkpt>
      <trkpt lat="43.24712" lon="6.37483">
        <ele>393.4</ele>
        <time>2021-07-11T07:07:56Z</time>
      </trkpt>
      <trkpt lat="43.24717" lon="6.37478">
        <ele>393.4</ele>
        <time>2021-07-11T07:07:57Z</time>
      </trkpt>
      <trkpt lat="43.2474" lon="6.37456">
        <ele>393.4</ele>
        <time>2021-07-11T07:08:01Z</time>
      </trkpt>
      <trkpt lat="43.24761" lon="6.37463">
        <ele>393.3</ele>
        <time>2021-07-11T07:08:04Z</time>
      </trkpt>
      <trkpt lat="43.2477" lon="6.37475">
        <ele>393</ele>
        <time>2021-07-11T07:08:06Z</time>
      </trkpt>
      <trkpt lat="43.24777" lon="6.3749">
        <ele>392.6</ele>
        <time>2021-07-11T07:08:08Z</time>
      </trkpt>
      <trkpt lat="43.24782" lon="6.37509">
        <ele>392.1</ele>
        <time>2021-07-11T07:08:10Z</time>
      </trkpt>
      <trkpt lat="43.24786" lon="6.37585">
        <ele>390</ele>
        <time>2021-07-11T07:08:16Z</time>
      </trkpt>
      <trkpt lat="43.24788" lon="6.37653">
        <ele>388</ele>
        <time>2021-07-11T07:08:21Z</time>
      </trkpt>
      <trkpt lat="43.24802" lon="6.3771">
        <ele>386.1</ele>
        <time>2021-07-11T07:08:25Z</time>
      </trkpt>
      <trkpt lat="43.24807" lon="6.37722">
        <ele>385.7</ele>
        <time>2021-07-11T07:08:26Z</time>
      </trkpt>
      <trkpt lat="43.24813" lon="6.37733">
        <ele>385.4</ele>
        <time>2021-07-11T07:08:27Z</time>
      </trkpt>
      <trkpt lat="43.24829" lon="6.37751">
        <ele>384.6</ele>
        <time>2021-07-11T07:08:29Z</time>
      </trkpt>
      <trkpt lat="43.24847" lon="6.37759">
        <ele>383.9</ele>
        <time>2021-07-11T07:08:31Z</time>
      </trkpt>
      <trkpt lat="43.24895" lon="6.3775">
        <ele>382.4</ele>
        <time>2021-07-11T07:08:36Z</time>
      </trkpt>
      <trkpt lat="43.2491" lon="6.37755">
        <ele>382</ele>
        <time>2021-07-11T07:08:38Z</time>
      </trkpt>
      <trkpt lat="43.24918" lon="6.3777">
        <ele>381.8</ele>
        <time>2021-07-11T07:08:40Z</time>
      </trkpt>
      <trkpt lat="43.24916" lon="6.3779">
        <ele>381.5</ele>
        <time>2021-07-11T07:08:42Z</time>
      </trkpt>
      <trkpt lat="43.24908" lon="6.37805">
        <ele>381.1</ele>
        <time>2021-07-11T07:08:44Z</time>
      </trkpt>
      <trkpt lat="43.24902" lon="6.37823">
        <ele>380.6</ele>
        <time>2021-07-11T07:08:46Z</time>
      </trkpt>
      <trkpt lat="43.24889" lon="6.37851">
        <ele>379.8</ele>
        <time>2021-07-11T07:08:48Z</time>
      </trkpt>
      <trkpt lat="43.24876" lon="6.37867">
        <ele>379.2</ele>
        <time>2021-07-11T07:08:50Z</time>
      </trkpt>
      <trkpt lat="43.24831" lon="6.37906">
        <ele>377.3</ele>
        <time>2021-07-11T07:08:56Z</time>
      </trkpt>
      <trkpt lat="43.2481" lon="6.37932">
        <ele>376</ele>
        <time>2021-07-11T07:09:00Z</time>
      </trkpt>
      <trkpt lat="43.24801" lon="6.37956">
        <ele>375</ele>
        <time>2021-07-11T07:09:02Z</time>
      </trkpt>
      <trkpt lat="43.24793" lon="6.38015">
        <ele>372.4</ele>
        <time>2021-07-11T07:09:06Z</time>
      </trkpt>
      <trkpt lat="43.24787" lon="6.38071">
        <ele>369.7</ele>
        <time>2021-07-11T07:09:10Z</time>
      </trkpt>
      <trkpt lat="43.24795" lon="6.381">
        <ele>367.9</ele>
        <time>2021-07-11T07:09:12Z</time>
      </trkpt>
      <trkpt lat="43.24818" lon="6.38156">
        <ele>364.7</ele>
        <time>2021-07-11T07:09:16Z</time>
      </trkpt>
      <trkpt lat="43.24845" lon="6.38231">
        <ele>361.5</ele>
        <time>2021-07-11T07:09:21Z</time>
      </trkpt>
      <trkpt lat="43.24869" lon="6.383">
        <ele>359.6</ele>
        <time>2021-07-11T07:09:26Z</time>
      </trkpt>
      <trkpt lat="43.24883" lon="6.38355">
        <ele>358.3</ele>
        <time>2021-07-11T07:09:30Z</time>
      </trkpt>
      <trkpt lat="43.24895" lon="6.3838">
        <ele>357.9</ele>
        <time>2021-07-11T07:09:32Z</time>
      </trkpt>
      <trkpt lat="43.2492" lon="6.38423">
        <ele>357.5</ele>
        <time>2021-07-11T07:09:36Z</time>
      </trkpt>
      <trkpt lat="43.24926" lon="6.38432">
        <ele>357.5</ele>
        <time>2021-07-11T07:09:37Z</time>
      </trkpt>
      <trkpt lat="43.24942" lon="6.38446">
        <ele>357.4</ele>
        <time>2021-07-11T07:09:39Z</time>
      </trkpt>
      <trkpt lat="43.24964" lon="6.38464">
        <ele>357.1</ele>
        <time>2021-07-11T07:09:42Z</time>
      </trkpt>
      <trkpt lat="43.24976" lon="6.38481">
        <ele>356.9</ele>
        <time>2021-07-11T07:09:44Z</time>
      </trkpt>
      <trkpt lat="43.24985" lon="6.38504">
        <ele>356.7</ele>
        <time>2021-07-11T07:09:46Z</time>
      </trkpt>
      <trkpt lat="43.25002" lon="6.38533">
        <ele>356.5</ele>
        <time>2021-07-11T07:09:49Z</time>
      </trkpt>
      <trkpt lat="43.25017" lon="6.38547">
        <ele>356.3</ele>
        <time>2021-07-11T07:09:51Z</time>
      </trkpt>
      <trkpt lat="43.25034" lon="6.38553">
        <ele>356.1</ele>
        <time>2021-07-11T07:09:53Z</time>
      </trkpt>
      <trkpt lat="43.25051" lon="6.38551">
        <ele>356</ele>
        <time>2021-07-11T07:09:55Z</time>
      </trkpt>
      <trkpt lat="43.25059" lon="6.38547">
        <ele>355.9</ele>
        <time>2021-07-11T07:09:56Z</time>
      </trkpt>
      <trkpt lat="43.25075" lon="6.38544">
        <ele>355.7</ele>
        <time>2021-07-11T07:09:58Z</time>
      </trkpt>
      <trkpt lat="43.25091" lon="6.38553">
        <ele>355.7</ele>
        <time>2021-07-11T07:10:00Z</time>
      </trkpt>
      <trkpt lat="43.25102" lon="6.38567">
        <ele>355.8</ele>
        <time>2021-07-11T07:10:02Z</time>
      </trkpt>
      <trkpt lat="43.25118" lon="6.386">
        <ele>356</ele>
        <time>2021-07-11T07:10:06Z</time>
      </trkpt>
      <trkpt lat="43.25139" lon="6.38657">
        <ele>356.6</ele>
        <time>2021-07-11T07:10:12Z</time>
      </trkpt>
      <trkpt lat="43.25141" lon="6.38666">
        <ele>356.7</ele>
        <time>2021-07-11T07:10:13Z</time>
      </trkpt>
      <trkpt lat="43.25143" lon="6.38685">
        <ele>356.6</ele>
        <time>2021-07-11T07:10:15Z</time>
      </trkpt>
      <trkpt lat="43.25142" lon="6.38695">
        <ele>356.5</ele>
        <time>2021-07-11T07:10:16Z</time>
      </trkpt>
      <trkpt lat="43.25141" lon="6.38705">
        <ele>356.3</ele>
        <time>2021-07-11T07:10:17Z</time>
      </trkpt>
      <trkpt lat="43.25132" lon="6.38732">
        <ele>355.8</ele>
        <time>2021-07-11T07:10:20Z</time>
      </trkpt>
      <trkpt lat="43.25104" lon="6.38783">
        <ele>354.1</ele>
        <time>2021-07-11T07:10:25Z</time>
      </trkpt>
      <trkpt lat="43.25101" lon="6.38795">
        <ele>353.8</ele>
        <time>2021-07-11T07:10:26Z</time>
      </trkpt>
      <trkpt lat="43.251" lon="6.38805">
        <ele>353.5</ele>
        <time>2021-07-11T07:10:27Z</time>
      </trkpt>
      <trkpt lat="43.25103" lon="6.38827">
        <ele>352.9</ele>
        <time>2021-07-11T07:10:29Z</time>
      </trkpt>
      <trkpt lat="43.25107" lon="6.38852">
        <ele>352.2</ele>
        <time>2021-07-11T07:10:31Z</time>
      </trkpt>
      <trkpt lat="43.25097" lon="6.38886">
        <ele>351.2</ele>
        <time>2021-07-11T07:10:33Z</time>
      </trkpt>
      <trkpt lat="43.25092" lon="6.38895">
        <ele>350.7</ele>
        <time>2021-07-11T07:10:35Z</time>
      </trkpt>
      <trkpt lat="43.25084" lon="6.389">
        <ele>350.3</ele>
        <time>2021-07-11T07:10:36Z</time>
      </trkpt>
      <trkpt lat="43.25076" lon="6.38904">
        <ele>349.7</ele>
        <time>2021-07-11T07:10:37Z</time>
      </trkpt>
      <trkpt lat="43.25047" lon="6.38916">
        <ele>348</ele>
        <time>2021-07-11T07:10:40Z</time>
      </trkpt>
      <trkpt lat="43.25032" lon="6.38929">
        <ele>347.1</ele>
        <time>2021-07-11T07:10:42Z</time>
      </trkpt>
      <trkpt lat="43.25023" lon="6.38949">
        <ele>346.1</ele>
        <time>2021-07-11T07:10:44Z</time>
      </trkpt>
      <trkpt lat="43.25024" lon="6.38971">
        <ele>345.2</ele>
        <time>2021-07-11T07:10:46Z</time>
      </trkpt>
      <trkpt lat="43.25031" lon="6.38995">
        <ele>344.1</ele>
        <time>2021-07-11T07:10:48Z</time>
      </trkpt>
      <trkpt lat="43.25058" lon="6.39066">
        <ele>341.3</ele>
        <time>2021-07-11T07:10:54Z</time>
      </trkpt>
      <trkpt lat="43.25059" lon="6.3908">
        <ele>340.7</ele>
        <time>2021-07-11T07:10:55Z</time>
      </trkpt>
      <trkpt lat="43.25059" lon="6.39095">
        <ele>340</ele>
        <time>2021-07-11T07:10:56Z</time>
      </trkpt>
      <trkpt lat="43.25057" lon="6.39113">
        <ele>339.1</ele>
        <time>2021-07-11T07:10:57Z</time>
      </trkpt>
      <trkpt lat="43.25053" lon="6.39187">
        <ele>335.8</ele>
        <time>2021-07-11T07:11:02Z</time>
      </trkpt>
      <trkpt lat="43.25055" lon="6.39198">
        <ele>335.3</ele>
        <time>2021-07-11T07:11:03Z</time>
      </trkpt>
      <trkpt lat="43.2506" lon="6.39223">
        <ele>334.1</ele>
        <time>2021-07-11T07:11:05Z</time>
      </trkpt>
      <trkpt lat="43.25064" lon="6.39235">
        <ele>333.5</ele>
        <time>2021-07-11T07:11:06Z</time>
      </trkpt>
      <trkpt lat="43.25097" lon="6.39284">
        <ele>330.9</ele>
        <time>2021-07-11T07:11:16Z</time>
      </trkpt>
      <trkpt lat="43.25102" lon="6.39291">
        <ele>330.6</ele>
        <time>2021-07-11T07:12:30Z</time>
      </trkpt>
      <trkpt lat="43.25121" lon="6.39306">
        <ele>329.8</ele>
        <time>2021-07-11T07:12:36Z</time>
      </trkpt>
      <trkpt lat="43.25134" lon="6.39314">
        <ele>329.4</ele>
        <time>2021-07-11T07:12:39Z</time>
      </trkpt>
      <trkpt lat="43.25163" lon="6.39345">
        <ele>328.9</ele>
        <time>2021-07-11T07:12:46Z</time>
      </trkpt>
      <trkpt lat="43.25207" lon="6.39393">
        <ele>327.1</ele>
        <time>2021-07-11T07:12:54Z</time>
      </trkpt>
      <trkpt lat="43.25215" lon="6.39399">
        <ele>326.6</ele>
        <time>2021-07-11T07:12:55Z</time>
      </trkpt>
      <trkpt lat="43.25223" lon="6.39403">
        <ele>326.2</ele>
        <time>2021-07-11T07:12:56Z</time>
      </trkpt>
      <trkpt lat="43.25231" lon="6.39404">
        <ele>325.8</ele>
        <time>2021-07-11T07:12:57Z</time>
      </trkpt>
      <trkpt lat="43.25247" lon="6.39407">
        <ele>324.9</ele>
        <time>2021-07-11T07:12:59Z</time>
      </trkpt>
      <trkpt lat="43.25263" lon="6.39417">
        <ele>324.3</ele>
        <time>2021-07-11T07:13:01Z</time>
      </trkpt>
      <trkpt lat="43.25269" lon="6.39424">
        <ele>324.1</ele>
        <time>2021-07-11T07:13:02Z</time>
      </trkpt>
      <trkpt lat="43.25283" lon="6.39433">
        <ele>323.7</ele>
        <time>2021-07-11T07:13:04Z</time>
      </trkpt>
      <trkpt lat="43.25297" lon="6.3943">
        <ele>323.5</ele>
        <time>2021-07-11T07:13:06Z</time>
      </trkpt>
      <trkpt lat="43.25304" lon="6.39425">
        <ele>323.5</ele>
        <time>2021-07-11T07:13:07Z</time>
      </trkpt>
      <trkpt lat="43.2531" lon="6.39421">
        <ele>323.5</ele>
        <time>2021-07-11T07:13:08Z</time>
      </trkpt>
      <trkpt lat="43.25326" lon="6.39422">
        <ele>323.4</ele>
        <time>2021-07-11T07:13:10Z</time>
      </trkpt>
      <trkpt lat="43.25338" lon="6.39434">
        <ele>323.2</ele>
        <time>2021-07-11T07:13:12Z</time>
      </trkpt>
      <trkpt lat="43.25354" lon="6.39466">
        <ele>323.1</ele>
        <time>2021-07-11T07:13:16Z</time>
      </trkpt>
      <trkpt lat="43.25364" lon="6.39503">
        <ele>323</ele>
        <time>2021-07-11T07:13:20Z</time>
      </trkpt>
      <trkpt lat="43.25374" lon="6.3953">
        <ele>322.8</ele>
        <time>2021-07-11T07:13:23Z</time>
      </trkpt>
      <trkpt lat="43.25383" lon="6.39548">
        <ele>322.7</ele>
        <time>2021-07-11T07:13:25Z</time>
      </trkpt>
      <trkpt lat="43.25387" lon="6.39558">
        <ele>322.6</ele>
        <time>2021-07-11T07:13:26Z</time>
      </trkpt>
      <trkpt lat="43.25395" lon="6.39578">
        <ele>322.4</ele>
        <time>2021-07-11T07:13:28Z</time>
      </trkpt>
      <trkpt lat="43.254" lon="6.39599">
        <ele>322.3</ele>
        <time>2021-07-11T07:13:29Z</time>
      </trkpt>
      <trkpt lat="43.25402" lon="6.39609">
        <ele>322.2</ele>
        <time>2021-07-11T07:13:31Z</time>
      </trkpt>
      <trkpt lat="43.25401" lon="6.3963">
        <ele>322.1</ele>
        <time>2021-07-11T07:13:33Z</time>
      </trkpt>
      <trkpt lat="43.254" lon="6.39662">
        <ele>322</ele>
        <time>2021-07-11T07:13:36Z</time>
      </trkpt>
      <trkpt lat="43.25401" lon="6.39671">
        <ele>321.9</ele>
        <time>2021-07-11T07:13:37Z</time>
      </trkpt>
      <trkpt lat="43.25407" lon="6.39691">
        <ele>321.6</ele>
        <time>2021-07-11T07:13:39Z</time>
      </trkpt>
      <trkpt lat="43.25416" lon="6.39711">
        <ele>321.4</ele>
        <time>2021-07-11T07:13:41Z</time>
      </trkpt>
      <trkpt lat="43.25427" lon="6.39728">
        <ele>321.2</ele>
        <time>2021-07-11T07:13:43Z</time>
      </trkpt>
      <trkpt lat="43.25438" lon="6.39745">
        <ele>321.1</ele>
        <time>2021-07-11T07:13:45Z</time>
      </trkpt>
      <trkpt lat="43.25444" lon="6.39752">
        <ele>321.1</ele>
        <time>2021-07-11T07:13:46Z</time>
      </trkpt>
      <trkpt lat="43.25451" lon="6.39758">
        <ele>321</ele>
        <time>2021-07-11T07:13:47Z</time>
      </trkpt>
      <trkpt lat="43.25489" lon="6.39797">
        <ele>320.8</ele>
        <time>2021-07-11T07:13:53Z</time>
      </trkpt>
      <trkpt lat="43.25497" lon="6.39815">
        <ele>320.6</ele>
        <time>2021-07-11T07:13:55Z</time>
      </trkpt>
      <trkpt lat="43.25503" lon="6.39836">
        <ele>320.5</ele>
        <time>2021-07-11T07:13:56Z</time>
      </trkpt>
      <trkpt lat="43.25522" lon="6.39884">
        <ele>320.3</ele>
        <time>2021-07-11T07:14:01Z</time>
      </trkpt>
      <trkpt lat="43.25529" lon="6.39901">
        <ele>320.6</ele>
        <time>2021-07-11T07:14:03Z</time>
      </trkpt>
      <trkpt lat="43.25528" lon="6.39918">
        <ele>320.8</ele>
        <time>2021-07-11T07:14:05Z</time>
      </trkpt>
      <trkpt lat="43.25523" lon="6.39922">
        <ele>320.9</ele>
        <time>2021-07-11T07:14:06Z</time>
      </trkpt>
      <trkpt lat="43.25518" lon="6.39924">
        <ele>320.9</ele>
        <time>2021-07-11T07:14:07Z</time>
      </trkpt>
      <trkpt lat="43.25507" lon="6.39924">
        <ele>320.9</ele>
        <time>2021-07-11T07:14:09Z</time>
      </trkpt>
      <trkpt lat="43.25496" lon="6.39918">
        <ele>320.8</ele>
        <time>2021-07-11T07:14:11Z</time>
      </trkpt>
      <trkpt lat="43.25483" lon="6.39904">
        <ele>320.7</ele>
        <time>2021-07-11T07:14:14Z</time>
      </trkpt>
      <trkpt lat="43.25475" lon="6.39891">
        <ele>320.7</ele>
        <time>2021-07-11T07:14:16Z</time>
      </trkpt>
      <trkpt lat="43.25456" lon="6.3987">
        <ele>321.1</ele>
        <time>2021-07-11T07:14:20Z</time>
      </trkpt>
      <trkpt lat="43.25445" lon="6.39864">
        <ele>321.2</ele>
        <time>2021-07-11T07:14:22Z</time>
      </trkpt>
      <trkpt lat="43.25422" lon="6.3986">
        <ele>321.5</ele>
        <time>2021-07-11T07:14:26Z</time>
      </trkpt>
      <trkpt lat="43.25372" lon="6.39855">
        <ele>322</ele>
        <time>2021-07-11T07:14:34Z</time>
      </trkpt>
      <trkpt lat="43.25361" lon="6.39854">
        <ele>322.2</ele>
        <time>2021-07-11T07:14:36Z</time>
      </trkpt>
      <trkpt lat="43.25306" lon="6.39847">
        <ele>323.1</ele>
        <time>2021-07-11T07:14:45Z</time>
      </trkpt>
      <trkpt lat="43.253" lon="6.39846">
        <ele>323.3</ele>
        <time>2021-07-11T07:14:46Z</time>
      </trkpt>
      <trkpt lat="43.25245" lon="6.39835">
        <ele>325.1</ele>
        <time>2021-07-11T07:14:56Z</time>
      </trkpt>
      <trkpt lat="43.25235" lon="6.39835">
        <ele>325.6</ele>
        <time>2021-07-11T07:14:58Z</time>
      </trkpt>
      <trkpt lat="43.25217" lon="6.39837">
        <ele>326.7</ele>
        <time>2021-07-11T07:15:02Z</time>
      </trkpt>
      <trkpt lat="43.25207" lon="6.39847">
        <ele>327.5</ele>
        <time>2021-07-11T07:15:06Z</time>
      </trkpt>
      <trkpt lat="43.25195" lon="6.39867">
        <ele>328.5</ele>
        <time>2021-07-11T07:15:11Z</time>
      </trkpt>
      <trkpt lat="43.25197" lon="6.39892">
        <ele>329.4</ele>
        <time>2021-07-11T07:15:15Z</time>
      </trkpt>
      <trkpt lat="43.25198" lon="6.39898">
        <ele>329.7</ele>
        <time>2021-07-11T07:15:16Z</time>
      </trkpt>
      <trkpt lat="43.25215" lon="6.39953">
        <ele>331.7</ele>
        <time>2021-07-11T07:15:26Z</time>
      </trkpt>
      <trkpt lat="43.25227" lon="6.40006">
        <ele>333.7</ele>
        <time>2021-07-11T07:15:36Z</time>
      </trkpt>
      <trkpt lat="43.25238" lon="6.40061">
        <ele>335.9</ele>
        <time>2021-07-11T07:15:46Z</time>
      </trkpt>
      <trkpt lat="43.25244" lon="6.40116">
        <ele>337.8</ele>
        <time>2021-07-11T07:15:56Z</time>
      </trkpt>
      <trkpt lat="43.2523" lon="6.40169">
        <ele>339.7</ele>
        <time>2021-07-11T07:16:06Z</time>
      </trkpt>
      <trkpt lat="43.25222" lon="6.40211">
        <ele>341</ele>
        <time>2021-07-11T07:16:13Z</time>
      </trkpt>
      <trkpt lat="43.25224" lon="6.40231">
        <ele>341.6</ele>
        <time>2021-07-11T07:16:16Z</time>
      </trkpt>
      <trkpt lat="43.25229" lon="6.40259">
        <ele>342.2</ele>
        <time>2021-07-11T07:16:20Z</time>
      </trkpt>
      <trkpt lat="43.25233" lon="6.40281">
        <ele>342.7</ele>
        <time>2021-07-11T07:16:23Z</time>
      </trkpt>
      <trkpt lat="43.25238" lon="6.40293">
        <ele>343</ele>
        <time>2021-07-11T07:16:25Z</time>
      </trkpt>
      <trkpt lat="43.25241" lon="6.40298">
        <ele>343.2</ele>
        <time>2021-07-11T07:16:26Z</time>
      </trkpt>
      <trkpt lat="43.25248" lon="6.40305">
        <ele>343.4</ele>
        <time>2021-07-11T07:16:28Z</time>
      </trkpt>
      <trkpt lat="43.25278" lon="6.4033">
        <ele>344.9</ele>
        <time>2021-07-11T07:16:36Z</time>
      </trkpt>
      <trkpt lat="43.25291" lon="6.40342">
        <ele>345.9</ele>
        <time>2021-07-11T07:16:40Z</time>
      </trkpt>
      <trkpt lat="43.25303" lon="6.40365">
        <ele>347.1</ele>
        <time>2021-07-11T07:16:46Z</time>
      </trkpt>
      <trkpt lat="43.25317" lon="6.40417">
        <ele>349.3</ele>
        <time>2021-07-11T07:16:56Z</time>
      </trkpt>
      <trkpt lat="43.25334" lon="6.40464">
        <ele>351.6</ele>
        <time>2021-07-11T07:17:06Z</time>
      </trkpt>
      <trkpt lat="43.25358" lon="6.40502">
        <ele>353.8</ele>
        <time>2021-07-11T07:17:16Z</time>
      </trkpt>
      <trkpt lat="43.25375" lon="6.40544">
        <ele>356</ele>
        <time>2021-07-11T07:17:26Z</time>
      </trkpt>
      <trkpt lat="43.2539" lon="6.40584">
        <ele>358.1</ele>
        <time>2021-07-11T07:17:36Z</time>
      </trkpt>
      <trkpt lat="43.25407" lon="6.40625">
        <ele>360.5</ele>
        <time>2021-07-11T07:17:46Z</time>
      </trkpt>
      <trkpt lat="43.25419" lon="6.40668">
        <ele>362.7</ele>
        <time>2021-07-11T07:17:56Z</time>
      </trkpt>
      <trkpt lat="43.25418" lon="6.40718">
        <ele>365</ele>
        <time>2021-07-11T07:18:06Z</time>
      </trkpt>
      <trkpt lat="43.25439" lon="6.40749">
        <ele>366.2</ele>
        <time>2021-07-11T07:18:16Z</time>
      </trkpt>
      <trkpt lat="43.25478" lon="6.40745">
        <ele>364.8</ele>
        <time>2021-07-11T07:18:25Z</time>
      </trkpt>
      <trkpt lat="43.25484" lon="6.40745">
        <ele>364.6</ele>
        <time>2021-07-11T07:18:26Z</time>
      </trkpt>
      <trkpt lat="43.25513" lon="6.40746">
        <ele>363.4</ele>
        <time>2021-07-11T07:18:30Z</time>
      </trkpt>
      <trkpt lat="43.25522" lon="6.40756">
        <ele>362.9</ele>
        <time>2021-07-11T07:18:32Z</time>
      </trkpt>
      <trkpt lat="43.25529" lon="6.40771">
        <ele>362.5</ele>
        <time>2021-07-11T07:18:34Z</time>
      </trkpt>
      <trkpt lat="43.25531" lon="6.40788">
        <ele>362.1</ele>
        <time>2021-07-11T07:18:36Z</time>
      </trkpt>
      <trkpt lat="43.25541" lon="6.40848">
        <ele>360.3</ele>
        <time>2021-07-11T07:18:42Z</time>
      </trkpt>
      <trkpt lat="43.25548" lon="6.40865">
        <ele>359.8</ele>
        <time>2021-07-11T07:18:44Z</time>
      </trkpt>
      <trkpt lat="43.25559" lon="6.40877">
        <ele>359.3</ele>
        <time>2021-07-11T07:18:46Z</time>
      </trkpt>
      <trkpt lat="43.25574" lon="6.40877">
        <ele>358.8</ele>
        <time>2021-07-11T07:18:48Z</time>
      </trkpt>
      <trkpt lat="43.25632" lon="6.40858">
        <ele>356.7</ele>
        <time>2021-07-11T07:18:56Z</time>
      </trkpt>
      <trkpt lat="43.25653" lon="6.40869">
        <ele>356</ele>
        <time>2021-07-11T07:18:59Z</time>
      </trkpt>
      <trkpt lat="43.25663" lon="6.40883">
        <ele>355.5</ele>
        <time>2021-07-11T07:19:01Z</time>
      </trkpt>
      <trkpt lat="43.25672" lon="6.40902">
        <ele>355.1</ele>
        <time>2021-07-11T07:19:03Z</time>
      </trkpt>
      <trkpt lat="43.25672" lon="6.40922">
        <ele>354.7</ele>
        <time>2021-07-11T07:19:05Z</time>
      </trkpt>
      <trkpt lat="43.25671" lon="6.40932">
        <ele>354.4</ele>
        <time>2021-07-11T07:19:06Z</time>
      </trkpt>
      <trkpt lat="43.25671" lon="6.40942">
        <ele>354.2</ele>
        <time>2021-07-11T07:19:07Z</time>
      </trkpt>
      <trkpt lat="43.25687" lon="6.41005">
        <ele>352.9</ele>
        <time>2021-07-11T07:19:14Z</time>
      </trkpt>
      <trkpt lat="43.25696" lon="6.41017">
        <ele>352.4</ele>
        <time>2021-07-11T07:19:16Z</time>
      </trkpt>
      <trkpt lat="43.2572" lon="6.41035">
        <ele>351.5</ele>
        <time>2021-07-11T07:19:20Z</time>
      </trkpt>
      <trkpt lat="43.25729" lon="6.41047">
        <ele>351.1</ele>
        <time>2021-07-11T07:19:22Z</time>
      </trkpt>
      <trkpt lat="43.25734" lon="6.41063">
        <ele>350.6</ele>
        <time>2021-07-11T07:19:24Z</time>
      </trkpt>
      <trkpt lat="43.25731" lon="6.4108">
        <ele>349.9</ele>
        <time>2021-07-11T07:19:26Z</time>
      </trkpt>
      <trkpt lat="43.2571" lon="6.41156">
        <ele>346.5</ele>
        <time>2021-07-11T07:19:34Z</time>
      </trkpt>
      <trkpt lat="43.25703" lon="6.41175">
        <ele>346.1</ele>
        <time>2021-07-11T07:19:36Z</time>
      </trkpt>
      <trkpt lat="43.25699" lon="6.41183">
        <ele>346</ele>
        <time>2021-07-11T07:19:37Z</time>
      </trkpt>
      <trkpt lat="43.25684" lon="6.41195">
        <ele>345.9</ele>
        <time>2021-07-11T07:19:39Z</time>
      </trkpt>
      <trkpt lat="43.25658" lon="6.41212">
        <ele>345.9</ele>
        <time>2021-07-11T07:19:43Z</time>
      </trkpt>
      <trkpt lat="43.2565" lon="6.41226">
        <ele>345.9</ele>
        <time>2021-07-11T07:19:45Z</time>
      </trkpt>
      <trkpt lat="43.25649" lon="6.41234">
        <ele>345.9</ele>
        <time>2021-07-11T07:19:46Z</time>
      </trkpt>
      <trkpt lat="43.25649" lon="6.41244">
        <ele>345.7</ele>
        <time>2021-07-11T07:19:47Z</time>
      </trkpt>
      <trkpt lat="43.25655" lon="6.41263">
        <ele>345.3</ele>
        <time>2021-07-11T07:19:49Z</time>
      </trkpt>
      <trkpt lat="43.25682" lon="6.41333">
        <ele>343.4</ele>
        <time>2021-07-11T07:19:56Z</time>
      </trkpt>
      <trkpt lat="43.25709" lon="6.41404">
        <ele>342</ele>
        <time>2021-07-11T07:20:03Z</time>
      </trkpt>
      <trkpt lat="43.25723" lon="6.41433">
        <ele>341.5</ele>
        <time>2021-07-11T07:20:06Z</time>
      </trkpt>
      <trkpt lat="43.25735" lon="6.41447">
        <ele>341.3</ele>
        <time>2021-07-11T07:20:08Z</time>
      </trkpt>
      <trkpt lat="43.2575" lon="6.41455">
        <ele>341.2</ele>
        <time>2021-07-11T07:20:10Z</time>
      </trkpt>
      <trkpt lat="43.25793" lon="6.41463">
        <ele>341.7</ele>
        <time>2021-07-11T07:20:16Z</time>
      </trkpt>
      <trkpt lat="43.25827" lon="6.41475">
        <ele>342.4</ele>
        <time>2021-07-11T07:20:21Z</time>
      </trkpt>
      <trkpt lat="43.25845" lon="6.41484">
        <ele>342.8</ele>
        <time>2021-07-11T07:20:24Z</time>
      </trkpt>
      <trkpt lat="43.25856" lon="6.41492">
        <ele>343.1</ele>
        <time>2021-07-11T07:20:26Z</time>
      </trkpt>
      <trkpt lat="43.25861" lon="6.41505">
        <ele>343.3</ele>
        <time>2021-07-11T07:20:28Z</time>
      </trkpt>
      <trkpt lat="43.25854" lon="6.4152">
        <ele>343.3</ele>
        <time>2021-07-11T07:20:31Z</time>
      </trkpt>
      <trkpt lat="43.25837" lon="6.41526">
        <ele>343.1</ele>
        <time>2021-07-11T07:20:33Z</time>
      </trkpt>
      <trkpt lat="43.25819" lon="6.41532">
        <ele>343.1</ele>
        <time>2021-07-11T07:20:36Z</time>
      </trkpt>
      <trkpt lat="43.25813" lon="6.41535">
        <ele>343.1</ele>
        <time>2021-07-11T07:20:38Z</time>
      </trkpt>
      <trkpt lat="43.25799" lon="6.41549">
        <ele>343.2</ele>
        <time>2021-07-11T07:20:41Z</time>
      </trkpt>
      <trkpt lat="43.25788" lon="6.4157">
        <ele>343.2</ele>
        <time>2021-07-11T07:20:43Z</time>
      </trkpt>
      <trkpt lat="43.25782" lon="6.41585">
        <ele>343.2</ele>
        <time>2021-07-11T07:20:46Z</time>
      </trkpt>
      <trkpt lat="43.25778" lon="6.41592">
        <ele>343.2</ele>
        <time>2021-07-11T07:20:47Z</time>
      </trkpt>
      <trkpt lat="43.25762" lon="6.41605">
        <ele>343.4</ele>
        <time>2021-07-11T07:20:49Z</time>
      </trkpt>
      <trkpt lat="43.25732" lon="6.41619">
        <ele>343.8</ele>
        <time>2021-07-11T07:20:54Z</time>
      </trkpt>
      <trkpt lat="43.25727" lon="6.41623">
        <ele>343.8</ele>
        <time>2021-07-11T07:20:56Z</time>
      </trkpt>
      <trkpt lat="43.25721" lon="6.41634">
        <ele>344</ele>
        <time>2021-07-11T07:20:58Z</time>
      </trkpt>
      <trkpt lat="43.25706" lon="6.41662">
        <ele>343.9</ele>
        <time>2021-07-11T07:21:02Z</time>
      </trkpt>
      <trkpt lat="43.25695" lon="6.41671">
        <ele>343.9</ele>
        <time>2021-07-11T07:21:04Z</time>
      </trkpt>
      <trkpt lat="43.25681" lon="6.41674">
        <ele>344</ele>
        <time>2021-07-11T07:21:06Z</time>
      </trkpt>
      <trkpt lat="43.25657" lon="6.41676">
        <ele>344.3</ele>
        <time>2021-07-11T07:21:10Z</time>
      </trkpt>
      <trkpt lat="43.25645" lon="6.41682">
        <ele>344.4</ele>
        <time>2021-07-11T07:21:12Z</time>
      </trkpt>
      <trkpt lat="43.25637" lon="6.41692">
        <ele>344.5</ele>
        <time>2021-07-11T07:21:14Z</time>
      </trkpt>
      <trkpt lat="43.25633" lon="6.41708">
        <ele>344.4</ele>
        <time>2021-07-11T07:21:16Z</time>
      </trkpt>
      <trkpt lat="43.25628" lon="6.41789">
        <ele>343.4</ele>
        <time>2021-07-11T07:21:24Z</time>
      </trkpt>
      <trkpt lat="43.25627" lon="6.41811">
        <ele>343.1</ele>
        <time>2021-07-11T07:21:26Z</time>
      </trkpt>
      <trkpt lat="43.2562" lon="6.41881">
        <ele>341.9</ele>
        <time>2021-07-11T07:21:32Z</time>
      </trkpt>
      <trkpt lat="43.25612" lon="6.41926">
        <ele>341.1</ele>
        <time>2021-07-11T07:21:36Z</time>
      </trkpt>
      <trkpt lat="43.256" lon="6.41984">
        <ele>340</ele>
        <time>2021-07-11T07:21:41Z</time>
      </trkpt>
      <trkpt lat="43.25578" lon="6.42034">
        <ele>338.8</ele>
        <time>2021-07-11T07:21:46Z</time>
      </trkpt>
      <trkpt lat="43.25563" lon="6.42072">
        <ele>338.1</ele>
        <time>2021-07-11T07:21:50Z</time>
      </trkpt>
      <trkpt lat="43.25547" lon="6.42143">
        <ele>336.6</ele>
        <time>2021-07-11T07:21:56Z</time>
      </trkpt>
      <trkpt lat="43.2553" lon="6.42216">
        <ele>335.2</ele>
        <time>2021-07-11T07:22:02Z</time>
      </trkpt>
      <trkpt lat="43.25522" lon="6.42267">
        <ele>334.5</ele>
        <time>2021-07-11T07:22:06Z</time>
      </trkpt>
      <trkpt lat="43.25517" lon="6.42343">
        <ele>334.9</ele>
        <time>2021-07-11T07:22:12Z</time>
      </trkpt>
      <trkpt lat="43.25515" lon="6.42389">
        <ele>336.1</ele>
        <time>2021-07-11T07:22:16Z</time>
      </trkpt>
      <trkpt lat="43.25508" lon="6.42465">
        <ele>339.2</ele>
        <time>2021-07-11T07:22:24Z</time>
      </trkpt>
      <trkpt lat="43.25507" lon="6.42481">
        <ele>340</ele>
        <time>2021-07-11T07:22:26Z</time>
      </trkpt>
      <trkpt lat="43.25502" lon="6.42545">
        <ele>343</ele>
        <time>2021-07-11T07:22:36Z</time>
      </trkpt>
      <trkpt lat="43.25501" lon="6.42582">
        <ele>343.9</ele>
        <time>2021-07-11T07:22:42Z</time>
      </trkpt>
      <trkpt lat="43.25503" lon="6.42597">
        <ele>343.9</ele>
        <time>2021-07-11T07:22:44Z</time>
      </trkpt>
      <trkpt lat="43.25505" lon="6.42613">
        <ele>343.8</ele>
        <time>2021-07-11T07:22:46Z</time>
      </trkpt>
      <trkpt lat="43.25516" lon="6.42647">
        <ele>342.2</ele>
        <time>2021-07-11T07:22:50Z</time>
      </trkpt>
      <trkpt lat="43.25543" lon="6.42684">
        <ele>339.3</ele>
        <time>2021-07-11T07:22:56Z</time>
      </trkpt>
      <trkpt lat="43.2556" lon="6.42705">
        <ele>337.5</ele>
        <time>2021-07-11T07:22:59Z</time>
      </trkpt>
      <trkpt lat="43.256" lon="6.42729">
        <ele>334.3</ele>
        <time>2021-07-11T07:23:05Z</time>
      </trkpt>
      <trkpt lat="43.25606" lon="6.42736">
        <ele>333.8</ele>
        <time>2021-07-11T07:23:06Z</time>
      </trkpt>
      <trkpt lat="43.2561" lon="6.42743">
        <ele>333.3</ele>
        <time>2021-07-11T07:23:07Z</time>
      </trkpt>
      <trkpt lat="43.25643" lon="6.42808">
        <ele>328.9</ele>
        <time>2021-07-11T07:23:14Z</time>
      </trkpt>
      <trkpt lat="43.25649" lon="6.4283">
        <ele>327.6</ele>
        <time>2021-07-11T07:23:16Z</time>
      </trkpt>
      <trkpt lat="43.25656" lon="6.42887">
        <ele>324.3</ele>
        <time>2021-07-11T07:23:21Z</time>
      </trkpt>
      <trkpt lat="43.25667" lon="6.42922">
        <ele>322.2</ele>
        <time>2021-07-11T07:23:24Z</time>
      </trkpt>
      <trkpt lat="43.25677" lon="6.42947">
        <ele>320.6</ele>
        <time>2021-07-11T07:23:26Z</time>
      </trkpt>
      <trkpt lat="43.25701" lon="6.43024">
        <ele>315.9</ele>
        <time>2021-07-11T07:23:32Z</time>
      </trkpt>
      <trkpt lat="43.25718" lon="6.43069">
        <ele>313.2</ele>
        <time>2021-07-11T07:23:36Z</time>
      </trkpt>
      <trkpt lat="43.25724" lon="6.4309">
        <ele>311.9</ele>
        <time>2021-07-11T07:23:38Z</time>
      </trkpt>
      <trkpt lat="43.25731" lon="6.43175">
        <ele>306.7</ele>
        <time>2021-07-11T07:23:45Z</time>
      </trkpt>
      <trkpt lat="43.25729" lon="6.43187">
        <ele>305.8</ele>
        <time>2021-07-11T07:23:46Z</time>
      </trkpt>
      <trkpt lat="43.25726" lon="6.43199">
        <ele>305.1</ele>
        <time>2021-07-11T07:23:47Z</time>
      </trkpt>
      <trkpt lat="43.2572" lon="6.43236">
        <ele>302.9</ele>
        <time>2021-07-11T07:23:50Z</time>
      </trkpt>
      <trkpt lat="43.25719" lon="6.43315">
        <ele>297.9</ele>
        <time>2021-07-11T07:23:56Z</time>
      </trkpt>
      <trkpt lat="43.2573" lon="6.43393">
        <ele>293.1</ele>
        <time>2021-07-11T07:24:02Z</time>
      </trkpt>
      <trkpt lat="43.25732" lon="6.43421">
        <ele>291.4</ele>
        <time>2021-07-11T07:24:04Z</time>
      </trkpt>
      <trkpt lat="43.2573" lon="6.43448">
        <ele>289.8</ele>
        <time>2021-07-11T07:24:06Z</time>
      </trkpt>
      <trkpt lat="43.25727" lon="6.43485">
        <ele>287.5</ele>
        <time>2021-07-11T07:24:09Z</time>
      </trkpt>
      <trkpt lat="43.25725" lon="6.43524">
        <ele>285</ele>
        <time>2021-07-11T07:24:12Z</time>
      </trkpt>
      <trkpt lat="43.25727" lon="6.43582">
        <ele>281.6</ele>
        <time>2021-07-11T07:24:16Z</time>
      </trkpt>
      <trkpt lat="43.25731" lon="6.43664">
        <ele>277</ele>
        <time>2021-07-11T07:24:22Z</time>
      </trkpt>
      <trkpt lat="43.2573" lon="6.43712">
        <ele>274.3</ele>
        <time>2021-07-11T07:24:26Z</time>
      </trkpt>
      <trkpt lat="43.25722" lon="6.43792">
        <ele>269.5</ele>
        <time>2021-07-11T07:24:33Z</time>
      </trkpt>
      <trkpt lat="43.25715" lon="6.43812">
        <ele>268.1</ele>
        <time>2021-07-11T07:24:35Z</time>
      </trkpt>
      <trkpt lat="43.25711" lon="6.43822">
        <ele>267.5</ele>
        <time>2021-07-11T07:24:36Z</time>
      </trkpt>
      <trkpt lat="43.25701" lon="6.4386">
        <ele>265</ele>
        <time>2021-07-11T07:24:39Z</time>
      </trkpt>
      <trkpt lat="43.25702" lon="6.43869">
        <ele>264.3</ele>
        <time>2021-07-11T07:24:41Z</time>
      </trkpt>
      <trkpt lat="43.25719" lon="6.43926">
        <ele>260.5</ele>
        <time>2021-07-11T07:24:46Z</time>
      </trkpt>
      <trkpt lat="43.25723" lon="6.43936">
        <ele>259.8</ele>
        <time>2021-07-11T07:24:47Z</time>
      </trkpt>
      <trkpt lat="43.25749" lon="6.43983">
        <ele>257.3</ele>
        <time>2021-07-11T07:24:52Z</time>
      </trkpt>
      <trkpt lat="43.25762" lon="6.44027">
        <ele>255.4</ele>
        <time>2021-07-11T07:24:56Z</time>
      </trkpt>
      <trkpt lat="43.25775" lon="6.44082">
        <ele>253.1</ele>
        <time>2021-07-11T07:25:01Z</time>
      </trkpt>
      <trkpt lat="43.25778" lon="6.44092">
        <ele>252.7</ele>
        <time>2021-07-11T07:25:02Z</time>
      </trkpt>
      <trkpt lat="43.25795" lon="6.44133">
        <ele>251</ele>
        <time>2021-07-11T07:25:06Z</time>
      </trkpt>
      <trkpt lat="43.25808" lon="6.44183">
        <ele>249.1</ele>
        <time>2021-07-11T07:25:11Z</time>
      </trkpt>
      <trkpt lat="43.25807" lon="6.44202">
        <ele>248.4</ele>
        <time>2021-07-11T07:25:13Z</time>
      </trkpt>
      <trkpt lat="43.25801" lon="6.44218">
        <ele>247.8</ele>
        <time>2021-07-11T07:25:15Z</time>
      </trkpt>
      <trkpt lat="43.25799" lon="6.44227">
        <ele>247.5</ele>
        <time>2021-07-11T07:25:16Z</time>
      </trkpt>
      <trkpt lat="43.25795" lon="6.44269">
        <ele>245.7</ele>
        <time>2021-07-11T07:25:20Z</time>
      </trkpt>
      <trkpt lat="43.25797" lon="6.44312">
        <ele>244.1</ele>
        <time>2021-07-11T07:25:24Z</time>
      </trkpt>
      <trkpt lat="43.25789" lon="6.44329">
        <ele>243.3</ele>
        <time>2021-07-11T07:25:26Z</time>
      </trkpt>
      <trkpt lat="43.25783" lon="6.44336">
        <ele>243</ele>
        <time>2021-07-11T07:25:27Z</time>
      </trkpt>
      <trkpt lat="43.25765" lon="6.44365">
        <ele>241.5</ele>
        <time>2021-07-11T07:25:31Z</time>
      </trkpt>
      <trkpt lat="43.25762" lon="6.44385">
        <ele>240.6</ele>
        <time>2021-07-11T07:25:33Z</time>
      </trkpt>
      <trkpt lat="43.25762" lon="6.44416">
        <ele>239.3</ele>
        <time>2021-07-11T07:25:36Z</time>
      </trkpt>
      <trkpt lat="43.25763" lon="6.44427">
        <ele>238.8</ele>
        <time>2021-07-11T07:25:37Z</time>
      </trkpt>
      <trkpt lat="43.25769" lon="6.4445">
        <ele>237.9</ele>
        <time>2021-07-11T07:25:39Z</time>
      </trkpt>
      <trkpt lat="43.25804" lon="6.44514">
        <ele>234.6</ele>
        <time>2021-07-11T07:25:46Z</time>
      </trkpt>
      <trkpt lat="43.25807" lon="6.44523">
        <ele>234.1</ele>
        <time>2021-07-11T07:25:47Z</time>
      </trkpt>
      <trkpt lat="43.25811" lon="6.44574">
        <ele>231.8</ele>
        <time>2021-07-11T07:25:52Z</time>
      </trkpt>
      <trkpt lat="43.25822" lon="6.44619">
        <ele>229.9</ele>
        <time>2021-07-11T07:25:56Z</time>
      </trkpt>
      <trkpt lat="43.25832" lon="6.4466">
        <ele>228.4</ele>
        <time>2021-07-11T07:26:00Z</time>
      </trkpt>
      <trkpt lat="43.25835" lon="6.44688">
        <ele>227.5</ele>
        <time>2021-07-11T07:26:03Z</time>
      </trkpt>
      <trkpt lat="43.25843" lon="6.44703">
        <ele>227</ele>
        <time>2021-07-11T07:26:05Z</time>
      </trkpt>
      <trkpt lat="43.25848" lon="6.44709">
        <ele>226.7</ele>
        <time>2021-07-11T07:26:06Z</time>
      </trkpt>
      <trkpt lat="43.25864" lon="6.44731">
        <ele>225.8</ele>
        <time>2021-07-11T07:26:09Z</time>
      </trkpt>
      <trkpt lat="43.25872" lon="6.44751">
        <ele>225.3</ele>
        <time>2021-07-11T07:26:11Z</time>
      </trkpt>
      <trkpt lat="43.25872" lon="6.4477">
        <ele>224.8</ele>
        <time>2021-07-11T07:26:13Z</time>
      </trkpt>
      <trkpt lat="43.25874" lon="6.4479">
        <ele>224.3</ele>
        <time>2021-07-11T07:26:15Z</time>
      </trkpt>
      <trkpt lat="43.25877" lon="6.44802">
        <ele>224</ele>
        <time>2021-07-11T07:26:16Z</time>
      </trkpt>
      <trkpt lat="43.25881" lon="6.44813">
        <ele>223.8</ele>
        <time>2021-07-11T07:26:17Z</time>
      </trkpt>
      <trkpt lat="43.25892" lon="6.44832">
        <ele>223.2</ele>
        <time>2021-07-11T07:26:19Z</time>
      </trkpt>
      <trkpt lat="43.25902" lon="6.44851">
        <ele>222.7</ele>
        <time>2021-07-11T07:26:21Z</time>
      </trkpt>
      <trkpt lat="43.25904" lon="6.44871">
        <ele>222.4</ele>
        <time>2021-07-11T07:26:23Z</time>
      </trkpt>
      <trkpt lat="43.25897" lon="6.4489">
        <ele>222.1</ele>
        <time>2021-07-11T07:26:25Z</time>
      </trkpt>
      <trkpt lat="43.25895" lon="6.44901">
        <ele>222</ele>
        <time>2021-07-11T07:26:26Z</time>
      </trkpt>
      <trkpt lat="43.25894" lon="6.44912">
        <ele>221.8</ele>
        <time>2021-07-11T07:26:27Z</time>
      </trkpt>
      <trkpt lat="43.25895" lon="6.44935">
        <ele>221.4</ele>
        <time>2021-07-11T07:26:29Z</time>
      </trkpt>
      <trkpt lat="43.25912" lon="6.45008">
        <ele>220</ele>
        <time>2021-07-11T07:26:35Z</time>
      </trkpt>
      <trkpt lat="43.25916" lon="6.4502">
        <ele>219.7</ele>
        <time>2021-07-11T07:26:36Z</time>
      </trkpt>
      <trkpt lat="43.25926" lon="6.45041">
        <ele>219.3</ele>
        <time>2021-07-11T07:26:38Z</time>
      </trkpt>
      <trkpt lat="43.25933" lon="6.45063">
        <ele>218.8</ele>
        <time>2021-07-11T07:26:40Z</time>
      </trkpt>
      <trkpt lat="43.25935" lon="6.45086">
        <ele>218.4</ele>
        <time>2021-07-11T07:26:42Z</time>
      </trkpt>
      <trkpt lat="43.25938" lon="6.45107">
        <ele>218.1</ele>
        <time>2021-07-11T07:26:44Z</time>
      </trkpt>
      <trkpt lat="43.25947" lon="6.45128">
        <ele>217.8</ele>
        <time>2021-07-11T07:26:46Z</time>
      </trkpt>
      <trkpt lat="43.25955" lon="6.45149">
        <ele>217.5</ele>
        <time>2021-07-11T07:26:48Z</time>
      </trkpt>
      <trkpt lat="43.25955" lon="6.45171">
        <ele>217.3</ele>
        <time>2021-07-11T07:26:50Z</time>
      </trkpt>
      <trkpt lat="43.25946" lon="6.45192">
        <ele>217.1</ele>
        <time>2021-07-11T07:26:52Z</time>
      </trkpt>
      <trkpt lat="43.25932" lon="6.45202">
        <ele>216.9</ele>
        <time>2021-07-11T07:26:54Z</time>
      </trkpt>
      <trkpt lat="43.25917" lon="6.45223">
        <ele>216.7</ele>
        <time>2021-07-11T07:26:56Z</time>
      </trkpt>
      <trkpt lat="43.25919" lon="6.45242">
        <ele>216.5</ele>
        <time>2021-07-11T07:26:59Z</time>
      </trkpt>
      <trkpt lat="43.25927" lon="6.45265">
        <ele>216.2</ele>
        <time>2021-07-11T07:27:01Z</time>
      </trkpt>
      <trkpt lat="43.25945" lon="6.45308">
        <ele>215.5</ele>
        <time>2021-07-11T07:27:05Z</time>
      </trkpt>
      <trkpt lat="43.25948" lon="6.45319">
        <ele>215.2</ele>
        <time>2021-07-11T07:27:06Z</time>
      </trkpt>
      <trkpt lat="43.25951" lon="6.45343">
        <ele>214.7</ele>
        <time>2021-07-11T07:27:08Z</time>
      </trkpt>
      <trkpt lat="43.25949" lon="6.45366">
        <ele>214.4</ele>
        <time>2021-07-11T07:27:10Z</time>
      </trkpt>
      <trkpt lat="43.25936" lon="6.45411">
        <ele>213.4</ele>
        <time>2021-07-11T07:27:14Z</time>
      </trkpt>
      <trkpt lat="43.25934" lon="6.45434">
        <ele>212.7</ele>
        <time>2021-07-11T07:27:16Z</time>
      </trkpt>
      <trkpt lat="43.25936" lon="6.45446">
        <ele>212.2</ele>
        <time>2021-07-11T07:27:17Z</time>
      </trkpt>
      <trkpt lat="43.2596" lon="6.45516">
        <ele>208.9</ele>
        <time>2021-07-11T07:27:22Z</time>
      </trkpt>
      <trkpt lat="43.25975" lon="6.45567">
        <ele>206.2</ele>
        <time>2021-07-11T07:27:26Z</time>
      </trkpt>
      <trkpt lat="43.25989" lon="6.45584">
        <ele>205</ele>
        <time>2021-07-11T07:27:28Z</time>
      </trkpt>
      <trkpt lat="43.2601" lon="6.45601">
        <ele>203.3</ele>
        <time>2021-07-11T07:27:31Z</time>
      </trkpt>
      <trkpt lat="43.2602" lon="6.45619">
        <ele>202.1</ele>
        <time>2021-07-11T07:27:33Z</time>
      </trkpt>
      <trkpt lat="43.26021" lon="6.45644">
        <ele>200.8</ele>
        <time>2021-07-11T07:27:35Z</time>
      </trkpt>
      <trkpt lat="43.26022" lon="6.45656">
        <ele>200.1</ele>
        <time>2021-07-11T07:27:36Z</time>
      </trkpt>
      <trkpt lat="43.26021" lon="6.45683">
        <ele>198.7</ele>
        <time>2021-07-11T07:27:38Z</time>
      </trkpt>
      <trkpt lat="43.26018" lon="6.45711">
        <ele>197.3</ele>
        <time>2021-07-11T07:27:40Z</time>
      </trkpt>
      <trkpt lat="43.26021" lon="6.45787">
        <ele>193.8</ele>
        <time>2021-07-11T07:27:45Z</time>
      </trkpt>
      <trkpt lat="43.26022" lon="6.45801">
        <ele>193.1</ele>
        <time>2021-07-11T07:27:46Z</time>
      </trkpt>
      <trkpt lat="43.26026" lon="6.45832">
        <ele>191.7</ele>
        <time>2021-07-11T07:27:48Z</time>
      </trkpt>
      <trkpt lat="43.26045" lon="6.45905">
        <ele>188.5</ele>
        <time>2021-07-11T07:27:53Z</time>
      </trkpt>
      <trkpt lat="43.26054" lon="6.45945">
        <ele>186.8</ele>
        <time>2021-07-11T07:27:56Z</time>
      </trkpt>
      <trkpt lat="43.26052" lon="6.45973">
        <ele>185.8</ele>
        <time>2021-07-11T07:27:58Z</time>
      </trkpt>
      <trkpt lat="43.26044" lon="6.45998">
        <ele>184.8</ele>
        <time>2021-07-11T07:28:00Z</time>
      </trkpt>
      <trkpt lat="43.26036" lon="6.4604">
        <ele>183.4</ele>
        <time>2021-07-11T07:28:03Z</time>
      </trkpt>
      <trkpt lat="43.26037" lon="6.46083">
        <ele>182.1</ele>
        <time>2021-07-11T07:28:06Z</time>
      </trkpt>
      <trkpt lat="43.26038" lon="6.46111">
        <ele>181.3</ele>
        <time>2021-07-11T07:28:08Z</time>
      </trkpt>
      <trkpt lat="43.26028" lon="6.46197">
        <ele>178.7</ele>
        <time>2021-07-11T07:28:14Z</time>
      </trkpt>
      <trkpt lat="43.26023" lon="6.46227">
        <ele>177.9</ele>
        <time>2021-07-11T07:28:16Z</time>
      </trkpt>
      <trkpt lat="43.26015" lon="6.46267">
        <ele>176.8</ele>
        <time>2021-07-11T07:28:19Z</time>
      </trkpt>
      <trkpt lat="43.26015" lon="6.46295">
        <ele>176.1</ele>
        <time>2021-07-11T07:28:21Z</time>
      </trkpt>
      <trkpt lat="43.26029" lon="6.4637">
        <ele>174.1</ele>
        <time>2021-07-11T07:28:26Z</time>
      </trkpt>
      <trkpt lat="43.26032" lon="6.46399">
        <ele>173.2</ele>
        <time>2021-07-11T07:28:28Z</time>
      </trkpt>
      <trkpt lat="43.26032" lon="6.46456">
        <ele>171.6</ele>
        <time>2021-07-11T07:28:32Z</time>
      </trkpt>
      <trkpt lat="43.26044" lon="6.46515">
        <ele>169.8</ele>
        <time>2021-07-11T07:28:36Z</time>
      </trkpt>
      <trkpt lat="43.26049" lon="6.46544">
        <ele>168.9</ele>
        <time>2021-07-11T07:28:38Z</time>
      </trkpt>
      <trkpt lat="43.26049" lon="6.46573">
        <ele>168</ele>
        <time>2021-07-11T07:28:40Z</time>
      </trkpt>
      <trkpt lat="43.2605" lon="6.46586">
        <ele>167.6</ele>
        <time>2021-07-11T07:28:41Z</time>
      </trkpt>
      <trkpt lat="43.26058" lon="6.46608">
        <ele>166.9</ele>
        <time>2021-07-11T07:28:43Z</time>
      </trkpt>
      <trkpt lat="43.2607" lon="6.46629">
        <ele>166</ele>
        <time>2021-07-11T07:28:45Z</time>
      </trkpt>
      <trkpt lat="43.26077" lon="6.46638">
        <ele>165.6</ele>
        <time>2021-07-11T07:28:46Z</time>
      </trkpt>
      <trkpt lat="43.26094" lon="6.46653">
        <ele>164.8</ele>
        <time>2021-07-11T07:28:48Z</time>
      </trkpt>
      <trkpt lat="43.2611" lon="6.46669">
        <ele>164.1</ele>
        <time>2021-07-11T07:28:50Z</time>
      </trkpt>
      <trkpt lat="43.26122" lon="6.46688">
        <ele>163.5</ele>
        <time>2021-07-11T07:28:52Z</time>
      </trkpt>
      <trkpt lat="43.26125" lon="6.46709">
        <ele>163</ele>
        <time>2021-07-11T07:28:54Z</time>
      </trkpt>
      <trkpt lat="43.26127" lon="6.46729">
        <ele>162.4</ele>
        <time>2021-07-11T07:28:56Z</time>
      </trkpt>
      <trkpt lat="43.26134" lon="6.46746">
        <ele>161.9</ele>
        <time>2021-07-11T07:28:58Z</time>
      </trkpt>
      <trkpt lat="43.26181" lon="6.46792">
        <ele>159.5</ele>
        <time>2021-07-11T07:29:04Z</time>
      </trkpt>
      <trkpt lat="43.26198" lon="6.4681">
        <ele>158.5</ele>
        <time>2021-07-11T07:29:06Z</time>
      </trkpt>
      <trkpt lat="43.26234" lon="6.46864">
        <ele>156.1</ele>
        <time>2021-07-11T07:29:11Z</time>
      </trkpt>
      <trkpt lat="43.26251" lon="6.4688">
        <ele>155.1</ele>
        <time>2021-07-11T07:29:13Z</time>
      </trkpt>
      <trkpt lat="43.26274" lon="6.46888">
        <ele>154.2</ele>
        <time>2021-07-11T07:29:15Z</time>
      </trkpt>
      <trkpt lat="43.26285" lon="6.46892">
        <ele>153.8</ele>
        <time>2021-07-11T07:29:16Z</time>
      </trkpt>
      <trkpt lat="43.26305" lon="6.46903">
        <ele>153</ele>
        <time>2021-07-11T07:29:18Z</time>
      </trkpt>
      <trkpt lat="43.26323" lon="6.46918">
        <ele>152.1</ele>
        <time>2021-07-11T07:29:20Z</time>
      </trkpt>
      <trkpt lat="43.26333" lon="6.46943">
        <ele>151.3</ele>
        <time>2021-07-11T07:29:22Z</time>
      </trkpt>
      <trkpt lat="43.26332" lon="6.46971">
        <ele>150.4</ele>
        <time>2021-07-11T07:29:24Z</time>
      </trkpt>
      <trkpt lat="43.26326" lon="6.46997">
        <ele>149.6</ele>
        <time>2021-07-11T07:29:26Z</time>
      </trkpt>
      <trkpt lat="43.26301" lon="6.47059">
        <ele>147.3</ele>
        <time>2021-07-11T07:29:31Z</time>
      </trkpt>
      <trkpt lat="43.26277" lon="6.47083">
        <ele>145.9</ele>
        <time>2021-07-11T07:29:34Z</time>
      </trkpt>
      <trkpt lat="43.26268" lon="6.47106">
        <ele>144.9</ele>
        <time>2021-07-11T07:29:36Z</time>
      </trkpt>
      <trkpt lat="43.26263" lon="6.4714">
        <ele>143.9</ele>
        <time>2021-07-11T07:29:39Z</time>
      </trkpt>
      <trkpt lat="43.26267" lon="6.4716">
        <ele>143.1</ele>
        <time>2021-07-11T07:29:41Z</time>
      </trkpt>
      <trkpt lat="43.26285" lon="6.47192">
        <ele>141.7</ele>
        <time>2021-07-11T07:29:45Z</time>
      </trkpt>
      <trkpt lat="43.26292" lon="6.47198">
        <ele>141.3</ele>
        <time>2021-07-11T07:29:46Z</time>
      </trkpt>
      <trkpt lat="43.26299" lon="6.47204">
        <ele>140.9</ele>
        <time>2021-07-11T07:29:47Z</time>
      </trkpt>
      <trkpt lat="43.26337" lon="6.47242">
        <ele>139</ele>
        <time>2021-07-11T07:29:52Z</time>
      </trkpt>
      <trkpt lat="43.26343" lon="6.47266">
        <ele>138.2</ele>
        <time>2021-07-11T07:29:54Z</time>
      </trkpt>
      <trkpt lat="43.2635" lon="6.47287">
        <ele>137.3</ele>
        <time>2021-07-11T07:29:56Z</time>
      </trkpt>
      <trkpt lat="43.26363" lon="6.47301">
        <ele>136.5</ele>
        <time>2021-07-11T07:29:58Z</time>
      </trkpt>
      <trkpt lat="43.26381" lon="6.47306">
        <ele>135.6</ele>
        <time>2021-07-11T07:30:00Z</time>
      </trkpt>
      <trkpt lat="43.26409" lon="6.47312">
        <ele>134.1</ele>
        <time>2021-07-11T07:30:03Z</time>
      </trkpt>
      <trkpt lat="43.26436" lon="6.47326">
        <ele>132.7</ele>
        <time>2021-07-11T07:30:06Z</time>
      </trkpt>
      <trkpt lat="43.26454" lon="6.47333">
        <ele>131.8</ele>
        <time>2021-07-11T07:30:08Z</time>
      </trkpt>
      <trkpt lat="43.26492" lon="6.4734">
        <ele>130.3</ele>
        <time>2021-07-11T07:30:12Z</time>
      </trkpt>
      <trkpt lat="43.26506" lon="6.47352">
        <ele>129.6</ele>
        <time>2021-07-11T07:30:14Z</time>
      </trkpt>
      <trkpt lat="43.2651" lon="6.47374">
        <ele>128.7</ele>
        <time>2021-07-11T07:30:16Z</time>
      </trkpt>
      <trkpt lat="43.26516" lon="6.47423">
        <ele>127.2</ele>
        <time>2021-07-11T07:30:20Z</time>
      </trkpt>
      <trkpt lat="43.26538" lon="6.47504">
        <ele>124.4</ele>
        <time>2021-07-11T07:30:26Z</time>
      </trkpt>
      <trkpt lat="43.26539" lon="6.47519">
        <ele>123.9</ele>
        <time>2021-07-11T07:30:27Z</time>
      </trkpt>
      <trkpt lat="43.26538" lon="6.47546">
        <ele>123.1</ele>
        <time>2021-07-11T07:30:29Z</time>
      </trkpt>
      <trkpt lat="43.26528" lon="6.4757">
        <ele>122.4</ele>
        <time>2021-07-11T07:30:31Z</time>
      </trkpt>
      <trkpt lat="43.26513" lon="6.4759">
        <ele>121.4</ele>
        <time>2021-07-11T07:30:33Z</time>
      </trkpt>
      <trkpt lat="43.2649" lon="6.47618">
        <ele>120</ele>
        <time>2021-07-11T07:30:36Z</time>
      </trkpt>
      <trkpt lat="43.26481" lon="6.47642">
        <ele>119.2</ele>
        <time>2021-07-11T07:30:38Z</time>
      </trkpt>
      <trkpt lat="43.2647" lon="6.47694">
        <ele>117.6</ele>
        <time>2021-07-11T07:30:42Z</time>
      </trkpt>
      <trkpt lat="43.26469" lon="6.47749">
        <ele>116</ele>
        <time>2021-07-11T07:30:46Z</time>
      </trkpt>
      <trkpt lat="43.26462" lon="6.47835">
        <ele>113.3</ele>
        <time>2021-07-11T07:30:52Z</time>
      </trkpt>
      <trkpt lat="43.26445" lon="6.47889">
        <ele>111.4</ele>
        <time>2021-07-11T07:30:56Z</time>
      </trkpt>
      <trkpt lat="43.26427" lon="6.47941">
        <ele>109.3</ele>
        <time>2021-07-11T07:31:00Z</time>
      </trkpt>
      <trkpt lat="43.26429" lon="6.47964">
        <ele>108.5</ele>
        <time>2021-07-11T07:31:02Z</time>
      </trkpt>
      <trkpt lat="43.26437" lon="6.47985">
        <ele>107.7</ele>
        <time>2021-07-11T07:31:04Z</time>
      </trkpt>
      <trkpt lat="43.26449" lon="6.48004">
        <ele>106.9</ele>
        <time>2021-07-11T07:31:06Z</time>
      </trkpt>
      <trkpt lat="43.26494" lon="6.48051">
        <ele>104.2</ele>
        <time>2021-07-11T07:31:12Z</time>
      </trkpt>
      <trkpt lat="43.26502" lon="6.48058">
        <ele>103.8</ele>
        <time>2021-07-11T07:31:13Z</time>
      </trkpt>
      <trkpt lat="43.26518" lon="6.48063">
        <ele>103</ele>
        <time>2021-07-11T07:31:15Z</time>
      </trkpt>
      <trkpt lat="43.26527" lon="6.4806">
        <ele>102.7</ele>
        <time>2021-07-11T07:31:16Z</time>
      </trkpt>
      <trkpt lat="43.26537" lon="6.48055">
        <ele>102.3</ele>
        <time>2021-07-11T07:31:17Z</time>
      </trkpt>
      <trkpt lat="43.26596" lon="6.4803">
        <ele>99.7</ele>
        <time>2021-07-11T07:31:23Z</time>
      </trkpt>
      <trkpt lat="43.26626" lon="6.48028">
        <ele>98.4</ele>
        <time>2021-07-11T07:31:26Z</time>
      </trkpt>
      <trkpt lat="43.26645" lon="6.48039">
        <ele>97.5</ele>
        <time>2021-07-11T07:31:28Z</time>
      </trkpt>
      <trkpt lat="43.26659" lon="6.48058">
        <ele>96.6</ele>
        <time>2021-07-11T07:31:30Z</time>
      </trkpt>
      <trkpt lat="43.26681" lon="6.48077">
        <ele>95.4</ele>
        <time>2021-07-11T07:31:33Z</time>
      </trkpt>
      <trkpt lat="43.26698" lon="6.48073">
        <ele>94.7</ele>
        <time>2021-07-11T07:31:35Z</time>
      </trkpt>
      <trkpt lat="43.26706" lon="6.48067">
        <ele>94.3</ele>
        <time>2021-07-11T07:31:36Z</time>
      </trkpt>
      <trkpt lat="43.2673" lon="6.48048">
        <ele>93.1</ele>
        <time>2021-07-11T07:31:39Z</time>
      </trkpt>
      <trkpt lat="43.26749" lon="6.48046">
        <ele>92.3</ele>
        <time>2021-07-11T07:31:41Z</time>
      </trkpt>
      <trkpt lat="43.26768" lon="6.48054">
        <ele>91.4</ele>
        <time>2021-07-11T07:31:43Z</time>
      </trkpt>
      <trkpt lat="43.26791" lon="6.48079">
        <ele>90.2</ele>
        <time>2021-07-11T07:31:46Z</time>
      </trkpt>
      <trkpt lat="43.26807" lon="6.48093">
        <ele>89.3</ele>
        <time>2021-07-11T07:31:48Z</time>
      </trkpt>
      <trkpt lat="43.26825" lon="6.48099">
        <ele>88.7</ele>
        <time>2021-07-11T07:31:50Z</time>
      </trkpt>
      <trkpt lat="43.26863" lon="6.48102">
        <ele>87.3</ele>
        <time>2021-07-11T07:31:54Z</time>
      </trkpt>
      <trkpt lat="43.26878" lon="6.48111">
        <ele>86.8</ele>
        <time>2021-07-11T07:31:56Z</time>
      </trkpt>
      <trkpt lat="43.26886" lon="6.48126">
        <ele>86.2</ele>
        <time>2021-07-11T07:31:58Z</time>
      </trkpt>
      <trkpt lat="43.26885" lon="6.48154">
        <ele>85.3</ele>
        <time>2021-07-11T07:32:00Z</time>
      </trkpt>
      <trkpt lat="43.2689" lon="6.48189">
        <ele>84</ele>
        <time>2021-07-11T07:32:03Z</time>
      </trkpt>
      <trkpt lat="43.26899" lon="6.48208">
        <ele>83.2</ele>
        <time>2021-07-11T07:32:05Z</time>
      </trkpt>
      <trkpt lat="43.26903" lon="6.48218">
        <ele>82.8</ele>
        <time>2021-07-11T07:32:06Z</time>
      </trkpt>
      <trkpt lat="43.26911" lon="6.48224">
        <ele>82.5</ele>
        <time>2021-07-11T07:32:07Z</time>
      </trkpt>
      <trkpt lat="43.26935" lon="6.48246">
        <ele>81.3</ele>
        <time>2021-07-11T07:32:10Z</time>
      </trkpt>
      <trkpt lat="43.26943" lon="6.48267">
        <ele>80.5</ele>
        <time>2021-07-11T07:32:12Z</time>
      </trkpt>
      <trkpt lat="43.26937" lon="6.48289">
        <ele>79.8</ele>
        <time>2021-07-11T07:32:14Z</time>
      </trkpt>
      <trkpt lat="43.26925" lon="6.48307">
        <ele>79.1</ele>
        <time>2021-07-11T07:32:16Z</time>
      </trkpt>
      <trkpt lat="43.26919" lon="6.48316">
        <ele>78.6</ele>
        <time>2021-07-11T07:32:17Z</time>
      </trkpt>
      <trkpt lat="43.26911" lon="6.48336">
        <ele>77.8</ele>
        <time>2021-07-11T07:32:19Z</time>
      </trkpt>
      <trkpt lat="43.2689" lon="6.48394">
        <ele>75.6</ele>
        <time>2021-07-11T07:32:24Z</time>
      </trkpt>
      <trkpt lat="43.26884" lon="6.48417">
        <ele>74.7</ele>
        <time>2021-07-11T07:32:26Z</time>
      </trkpt>
      <trkpt lat="43.26883" lon="6.48465">
        <ele>73</ele>
        <time>2021-07-11T07:32:30Z</time>
      </trkpt>
      <trkpt lat="43.26893" lon="6.48484">
        <ele>72.2</ele>
        <time>2021-07-11T07:32:32Z</time>
      </trkpt>
      <trkpt lat="43.26906" lon="6.48494">
        <ele>71.5</ele>
        <time>2021-07-11T07:32:34Z</time>
      </trkpt>
      <trkpt lat="43.26923" lon="6.48496">
        <ele>70.7</ele>
        <time>2021-07-11T07:32:36Z</time>
      </trkpt>
      <trkpt lat="43.26938" lon="6.485">
        <ele>70.1</ele>
        <time>2021-07-11T07:32:38Z</time>
      </trkpt>
      <trkpt lat="43.26951" lon="6.48513">
        <ele>69.3</ele>
        <time>2021-07-11T07:32:40Z</time>
      </trkpt>
      <trkpt lat="43.26976" lon="6.48567">
        <ele>67.3</ele>
        <time>2021-07-11T07:32:45Z</time>
      </trkpt>
      <trkpt lat="43.26979" lon="6.4858">
        <ele>66.9</ele>
        <time>2021-07-11T07:32:46Z</time>
      </trkpt>
      <trkpt lat="43.2698" lon="6.48593">
        <ele>66.5</ele>
        <time>2021-07-11T07:32:47Z</time>
      </trkpt>
      <trkpt lat="43.26975" lon="6.48616">
        <ele>65.9</ele>
        <time>2021-07-11T07:32:49Z</time>
      </trkpt>
      <trkpt lat="43.26941" lon="6.48682">
        <ele>63.5</ele>
        <time>2021-07-11T07:32:55Z</time>
      </trkpt>
      <trkpt lat="43.26936" lon="6.48693">
        <ele>63.1</ele>
        <time>2021-07-11T07:32:56Z</time>
      </trkpt>
      <trkpt lat="43.26931" lon="6.48705">
        <ele>62.7</ele>
        <time>2021-07-11T07:32:57Z</time>
      </trkpt>
      <trkpt lat="43.26927" lon="6.48731">
        <ele>61.8</ele>
        <time>2021-07-11T07:32:59Z</time>
      </trkpt>
      <trkpt lat="43.26929" lon="6.48807">
        <ele>59.1</ele>
        <time>2021-07-11T07:33:04Z</time>
      </trkpt>
      <trkpt lat="43.26927" lon="6.48821">
        <ele>58.6</ele>
        <time>2021-07-11T07:33:05Z</time>
      </trkpt>
      <trkpt lat="43.26924" lon="6.48834">
        <ele>58.2</ele>
        <time>2021-07-11T07:33:06Z</time>
      </trkpt>
      <trkpt lat="43.26918" lon="6.48847">
        <ele>57.7</ele>
        <time>2021-07-11T07:33:07Z</time>
      </trkpt>
      <trkpt lat="43.26909" lon="6.48873">
        <ele>56.5</ele>
        <time>2021-07-11T07:33:09Z</time>
      </trkpt>
      <trkpt lat="43.26902" lon="6.48953">
        <ele>53.6</ele>
        <time>2021-07-11T07:33:14Z</time>
      </trkpt>
      <trkpt lat="43.26899" lon="6.48984">
        <ele>52.6</ele>
        <time>2021-07-11T07:33:16Z</time>
      </trkpt>
      <trkpt lat="43.2689" lon="6.49064">
        <ele>50.4</ele>
        <time>2021-07-11T07:33:21Z</time>
      </trkpt>
      <trkpt lat="43.26883" lon="6.49142">
        <ele>48.1</ele>
        <time>2021-07-11T07:33:26Z</time>
      </trkpt>
      <trkpt lat="43.26883" lon="6.49187">
        <ele>46.9</ele>
        <time>2021-07-11T07:33:29Z</time>
      </trkpt>
      <trkpt lat="43.26897" lon="6.49262">
        <ele>44.6</ele>
        <time>2021-07-11T07:33:34Z</time>
      </trkpt>
      <trkpt lat="43.26905" lon="6.49291">
        <ele>43.7</ele>
        <time>2021-07-11T07:33:36Z</time>
      </trkpt>
      <trkpt lat="43.26927" lon="6.49358">
        <ele>40.9</ele>
        <time>2021-07-11T07:33:41Z</time>
      </trkpt>
      <trkpt lat="43.26947" lon="6.49429">
        <ele>38.1</ele>
        <time>2021-07-11T07:33:46Z</time>
      </trkpt>
      <trkpt lat="43.26955" lon="6.49455">
        <ele>37.1</ele>
        <time>2021-07-11T07:33:48Z</time>
      </trkpt>
      <trkpt lat="43.26968" lon="6.49475">
        <ele>36.3</ele>
        <time>2021-07-11T07:33:50Z</time>
      </trkpt>
      <trkpt lat="43.26983" lon="6.49489">
        <ele>35.5</ele>
        <time>2021-07-11T07:33:52Z</time>
      </trkpt>
      <trkpt lat="43.27006" lon="6.49512">
        <ele>34.3</ele>
        <time>2021-07-11T07:33:55Z</time>
      </trkpt>
      <trkpt lat="43.27009" lon="6.49522">
        <ele>34</ele>
        <time>2021-07-11T07:33:56Z</time>
      </trkpt>
      <trkpt lat="43.2701" lon="6.49531">
        <ele>33.6</ele>
        <time>2021-07-11T07:33:57Z</time>
      </trkpt>
      <trkpt lat="43.27001" lon="6.49548">
        <ele>32.6</ele>
        <time>2021-07-11T07:33:59Z</time>
      </trkpt>
      <trkpt lat="43.26985" lon="6.49557">
        <ele>31.4</ele>
        <time>2021-07-11T07:34:01Z</time>
      </trkpt>
      <trkpt lat="43.26968" lon="6.49565">
        <ele>30.2</ele>
        <time>2021-07-11T07:34:03Z</time>
      </trkpt>
      <trkpt lat="43.26956" lon="6.49582">
        <ele>29.3</ele>
        <time>2021-07-11T07:34:05Z</time>
      </trkpt>
      <trkpt lat="43.26955" lon="6.49594">
        <ele>29.1</ele>
        <time>2021-07-11T07:34:06Z</time>
      </trkpt>
      <trkpt lat="43.26956" lon="6.49605">
        <ele>28.9</ele>
        <time>2021-07-11T07:34:07Z</time>
      </trkpt>
      <trkpt lat="43.26961" lon="6.4963">
        <ele>28.8</ele>
        <time>2021-07-11T07:34:09Z</time>
      </trkpt>
      <trkpt lat="43.26971" lon="6.4965">
        <ele>29</ele>
        <time>2021-07-11T07:34:11Z</time>
      </trkpt>
      <trkpt lat="43.27002" lon="6.49681">
        <ele>29.6</ele>
        <time>2021-07-11T07:34:16Z</time>
      </trkpt>
      <trkpt lat="43.27043" lon="6.49741">
        <ele>30.9</ele>
        <time>2021-07-11T07:34:24Z</time>
      </trkpt>
      <trkpt lat="43.27052" lon="6.49758">
        <ele>31.1</ele>
        <time>2021-07-11T07:34:26Z</time>
      </trkpt>
      <trkpt lat="43.27085" lon="6.49827">
        <ele>30.6</ele>
        <time>2021-07-11T07:34:34Z</time>
      </trkpt>
      <trkpt lat="43.27092" lon="6.49845">
        <ele>30.2</ele>
        <time>2021-07-11T07:34:36Z</time>
      </trkpt>
      <trkpt lat="43.27118" lon="6.49915">
        <ele>28.8</ele>
        <time>2021-07-11T07:34:43Z</time>
      </trkpt>
      <trkpt lat="43.27133" lon="6.49942">
        <ele>28.2</ele>
        <time>2021-07-11T07:34:46Z</time>
      </trkpt>
      <trkpt lat="43.27146" lon="6.49972">
        <ele>27.5</ele>
        <time>2021-07-11T07:34:49Z</time>
      </trkpt>
      <trkpt lat="43.2715" lon="6.49995">
        <ele>27.1</ele>
        <time>2021-07-11T07:34:51Z</time>
      </trkpt>
      <trkpt lat="43.27147" lon="6.50017">
        <ele>26.7</ele>
        <time>2021-07-11T07:34:53Z</time>
      </trkpt>
      <trkpt lat="43.27141" lon="6.50049">
        <ele>26.1</ele>
        <time>2021-07-11T07:34:56Z</time>
      </trkpt>
      <trkpt lat="43.27138" lon="6.50072">
        <ele>25.7</ele>
        <time>2021-07-11T07:34:58Z</time>
      </trkpt>
      <trkpt lat="43.27139" lon="6.50109">
        <ele>25.1</ele>
        <time>2021-07-11T07:35:01Z</time>
      </trkpt>
      <trkpt lat="43.27153" lon="6.50168">
        <ele>23.7</ele>
        <time>2021-07-11T07:35:06Z</time>
      </trkpt>
      <trkpt lat="43.27171" lon="6.50243">
        <ele>22.5</ele>
        <time>2021-07-11T07:35:13Z</time>
      </trkpt>
      <trkpt lat="43.27177" lon="6.5027">
        <ele>22.3</ele>
        <time>2021-07-11T07:35:16Z</time>
      </trkpt>
      <trkpt lat="43.2718" lon="6.50275">
        <ele>22.3</ele>
        <time>2021-07-11T07:35:17Z</time>
      </trkpt>
      <trkpt lat="43.27206" lon="6.50295">
        <ele>22.6</ele>
        <time>2021-07-11T07:35:26Z</time>
      </trkpt>
      <trkpt lat="43.27242" lon="6.50319">
        <ele>22.9</ele>
        <time>2021-07-11T07:35:34Z</time>
      </trkpt>
      <trkpt lat="43.27247" lon="6.50328">
        <ele>22.9</ele>
        <time>2021-07-11T07:35:36Z</time>
      </trkpt>
      <trkpt lat="43.27251" lon="6.5034">
        <ele>22.9</ele>
        <time>2021-07-11T07:35:38Z</time>
      </trkpt>
      <trkpt lat="43.27253" lon="6.50356">
        <ele>22.9</ele>
        <time>2021-07-11T07:35:40Z</time>
      </trkpt>
      <trkpt lat="43.27255" lon="6.5039">
        <ele>22.5</ele>
        <time>2021-07-11T07:35:44Z</time>
      </trkpt>
      <trkpt lat="43.27254" lon="6.50408">
        <ele>22.4</ele>
        <time>2021-07-11T07:35:46Z</time>
      </trkpt>
      <trkpt lat="43.27249" lon="6.50483">
        <ele>22.1</ele>
        <time>2021-07-11T07:35:54Z</time>
      </trkpt>
      <trkpt lat="43.27246" lon="6.50502">
        <ele>22.1</ele>
        <time>2021-07-11T07:35:56Z</time>
      </trkpt>
      <trkpt lat="43.2724" lon="6.5052">
        <ele>22.2</ele>
        <time>2021-07-11T07:35:58Z</time>
      </trkpt>
      <trkpt lat="43.27214" lon="6.50583">
        <ele>23.4</ele>
        <time>2021-07-11T07:36:06Z</time>
      </trkpt>
      <trkpt lat="43.27173" lon="6.50638">
        <ele>25.1</ele>
        <time>2021-07-11T07:36:16Z</time>
      </trkpt>
      <trkpt lat="43.27132" lon="6.50684">
        <ele>26.9</ele>
        <time>2021-07-11T07:36:26Z</time>
      </trkpt>
      <trkpt lat="43.27128" lon="6.50688">
        <ele>27</ele>
        <time>2021-07-11T07:36:27Z</time>
      </trkpt>
      <trkpt lat="43.271" lon="6.50703">
        <ele>27.9</ele>
        <time>2021-07-11T07:36:33Z</time>
      </trkpt>
      <trkpt lat="43.2709" lon="6.50708">
        <ele>28.1</ele>
        <time>2021-07-11T07:36:35Z</time>
      </trkpt>
      <trkpt lat="43.27085" lon="6.50711">
        <ele>28.3</ele>
        <time>2021-07-11T07:36:36Z</time>
      </trkpt>
      <trkpt lat="43.27069" lon="6.50722">
        <ele>28.6</ele>
        <time>2021-07-11T07:36:39Z</time>
      </trkpt>
      <trkpt lat="43.27061" lon="6.50731">
        <ele>28.8</ele>
        <time>2021-07-11T07:36:41Z</time>
      </trkpt>
      <trkpt lat="43.27049" lon="6.50762">
        <ele>29.5</ele>
        <time>2021-07-11T07:36:46Z</time>
      </trkpt>
      <trkpt lat="43.27048" lon="6.50784">
        <ele>30.1</ele>
        <time>2021-07-11T07:36:49Z</time>
      </trkpt>
      <trkpt lat="43.27053" lon="6.50797">
        <ele>30.4</ele>
        <time>2021-07-11T07:36:51Z</time>
      </trkpt>
      <trkpt lat="43.2706" lon="6.50807">
        <ele>30.8</ele>
        <time>2021-07-11T07:36:53Z</time>
      </trkpt>
      <trkpt lat="43.2707" lon="6.50822">
        <ele>31.3</ele>
        <time>2021-07-11T07:36:56Z</time>
      </trkpt>
      <trkpt lat="43.27073" lon="6.50827">
        <ele>31.4</ele>
        <time>2021-07-11T07:36:57Z</time>
      </trkpt>
      <trkpt lat="43.27077" lon="6.50839">
        <ele>31.8</ele>
        <time>2021-07-11T07:36:59Z</time>
      </trkpt>
      <trkpt lat="43.27079" lon="6.50865">
        <ele>32.5</ele>
        <time>2021-07-11T07:37:03Z</time>
      </trkpt>
      <trkpt lat="43.27079" lon="6.50884">
        <ele>33</ele>
        <time>2021-07-11T07:37:06Z</time>
      </trkpt>
      <trkpt lat="43.27072" lon="6.5095">
        <ele>35.3</ele>
        <time>2021-07-11T07:37:16Z</time>
      </trkpt>
      <trkpt lat="43.2707" lon="6.50998">
        <ele>37.1</ele>
        <time>2021-07-11T07:37:26Z</time>
      </trkpt>
      <trkpt lat="43.27051" lon="6.51051">
        <ele>38.6</ele>
        <time>2021-07-11T07:37:36Z</time>
      </trkpt>
      <trkpt lat="43.27038" lon="6.5111">
        <ele>40.5</ele>
        <time>2021-07-11T07:37:46Z</time>
      </trkpt>
      <trkpt lat="43.27036" lon="6.51171">
        <ele>42.6</ele>
        <time>2021-07-11T07:37:56Z</time>
      </trkpt>
      <trkpt lat="43.27038" lon="6.51177">
        <ele>42.8</ele>
        <time>2021-07-11T07:37:57Z</time>
      </trkpt>
      <trkpt lat="43.27069" lon="6.51208">
        <ele>44.4</ele>
        <time>2021-07-11T07:38:06Z</time>
      </trkpt>
      <trkpt lat="43.27103" lon="6.51242">
        <ele>46.1</ele>
        <time>2021-07-11T07:38:16Z</time>
      </trkpt>
      <trkpt lat="43.27117" lon="6.51255">
        <ele>46.7</ele>
        <time>2021-07-11T07:38:20Z</time>
      </trkpt>
      <trkpt lat="43.27133" lon="6.51264">
        <ele>47.4</ele>
        <time>2021-07-11T07:38:24Z</time>
      </trkpt>
      <trkpt lat="43.27141" lon="6.51267">
        <ele>47.8</ele>
        <time>2021-07-11T07:38:26Z</time>
      </trkpt>
      <trkpt lat="43.27179" lon="6.51279">
        <ele>49.7</ele>
        <time>2021-07-11T07:38:36Z</time>
      </trkpt>
      <trkpt lat="43.27212" lon="6.51304">
        <ele>51.6</ele>
        <time>2021-07-11T07:38:46Z</time>
      </trkpt>
      <trkpt lat="43.27242" lon="6.51337">
        <ele>53.2</ele>
        <time>2021-07-11T07:38:56Z</time>
      </trkpt>
      <trkpt lat="43.27277" lon="6.51362">
        <ele>55</ele>
        <time>2021-07-11T07:39:06Z</time>
      </trkpt>
      <trkpt lat="43.27314" lon="6.51376">
        <ele>56.7</ele>
        <time>2021-07-11T07:39:15Z</time>
      </trkpt>
      <trkpt lat="43.27318" lon="6.51377">
        <ele>56.9</ele>
        <time>2021-07-11T07:39:16Z</time>
      </trkpt>
      <trkpt lat="43.27347" lon="6.51382">
        <ele>58.5</ele>
        <time>2021-07-11T07:39:24Z</time>
      </trkpt>
      <trkpt lat="43.27355" lon="6.51384">
        <ele>58.9</ele>
        <time>2021-07-11T07:39:26Z</time>
      </trkpt>
      <trkpt lat="43.27394" lon="6.51397">
        <ele>60.6</ele>
        <time>2021-07-11T07:39:36Z</time>
      </trkpt>
      <trkpt lat="43.27434" lon="6.51425">
        <ele>61.8</ele>
        <time>2021-07-11T07:39:46Z</time>
      </trkpt>
      <trkpt lat="43.27483" lon="6.51457">
        <ele>62.4</ele>
        <time>2021-07-11T07:39:56Z</time>
      </trkpt>
      <trkpt lat="43.27532" lon="6.51488">
        <ele>63.4</ele>
        <time>2021-07-11T07:40:06Z</time>
      </trkpt>
      <trkpt lat="43.2756" lon="6.51511">
        <ele>64</ele>
        <time>2021-07-11T07:40:12Z</time>
      </trkpt>
      <trkpt lat="43.27567" lon="6.51522">
        <ele>64.2</ele>
        <time>2021-07-11T07:40:14Z</time>
      </trkpt>
      <trkpt lat="43.27571" lon="6.51536">
        <ele>64.5</ele>
        <time>2021-07-11T07:40:16Z</time>
      </trkpt>
      <trkpt lat="43.27577" lon="6.51562">
        <ele>64.7</ele>
        <time>2021-07-11T07:40:20Z</time>
      </trkpt>
      <trkpt lat="43.2758" lon="6.51591">
        <ele>65.6</ele>
        <time>2021-07-11T07:40:26Z</time>
      </trkpt>
      <trkpt lat="43.27559" lon="6.51613">
        <ele>66.5</ele>
        <time>2021-07-11T07:40:34Z</time>
      </trkpt>
      <trkpt lat="43.27552" lon="6.51617">
        <ele>66.9</ele>
        <time>2021-07-11T07:40:36Z</time>
      </trkpt>
      <trkpt lat="43.27511" lon="6.51632">
        <ele>68.9</ele>
        <time>2021-07-11T07:40:46Z</time>
      </trkpt>
      <trkpt lat="43.27475" lon="6.5165">
        <ele>71.1</ele>
        <time>2021-07-11T07:40:56Z</time>
      </trkpt>
      <trkpt lat="43.27439" lon="6.51681">
        <ele>73.1</ele>
        <time>2021-07-11T07:41:06Z</time>
      </trkpt>
      <trkpt lat="43.27421" lon="6.51706">
        <ele>74.2</ele>
        <time>2021-07-11T07:41:12Z</time>
      </trkpt>
      <trkpt lat="43.27408" lon="6.51721">
        <ele>74.7</ele>
        <time>2021-07-11T07:41:16Z</time>
      </trkpt>
      <trkpt lat="43.27381" lon="6.5173">
        <ele>75.5</ele>
        <time>2021-07-11T07:41:24Z</time>
      </trkpt>
      <trkpt lat="43.27373" lon="6.51731">
        <ele>75.7</ele>
        <time>2021-07-11T07:41:26Z</time>
      </trkpt>
      <trkpt lat="43.27352" lon="6.51739">
        <ele>76.3</ele>
        <time>2021-07-11T07:41:31Z</time>
      </trkpt>
      <trkpt lat="43.27343" lon="6.51749">
        <ele>76.6</ele>
        <time>2021-07-11T07:41:33Z</time>
      </trkpt>
      <trkpt lat="43.27332" lon="6.51767">
        <ele>77.1</ele>
        <time>2021-07-11T07:41:36Z</time>
      </trkpt>
      <trkpt lat="43.27313" lon="6.51808">
        <ele>78.1</ele>
        <time>2021-07-11T07:41:43Z</time>
      </trkpt>
      <trkpt lat="43.27312" lon="6.51823">
        <ele>78.5</ele>
        <time>2021-07-11T07:41:45Z</time>
      </trkpt>
      <trkpt lat="43.27312" lon="6.5183">
        <ele>78.7</ele>
        <time>2021-07-11T07:41:46Z</time>
      </trkpt>
      <trkpt lat="43.27313" lon="6.51845">
        <ele>79.2</ele>
        <time>2021-07-11T07:41:48Z</time>
      </trkpt>
      <trkpt lat="43.27321" lon="6.5189">
        <ele>80.9</ele>
        <time>2021-07-11T07:41:55Z</time>
      </trkpt>
      <trkpt lat="43.27321" lon="6.51896">
        <ele>81.1</ele>
        <time>2021-07-11T07:41:56Z</time>
      </trkpt>
      <trkpt lat="43.27322" lon="6.51901">
        <ele>81.3</ele>
        <time>2021-07-11T07:41:57Z</time>
      </trkpt>
      <trkpt lat="43.27321" lon="6.51913">
        <ele>81.7</ele>
        <time>2021-07-11T07:41:59Z</time>
      </trkpt>
      <trkpt lat="43.27314" lon="6.51947">
        <ele>82.9</ele>
        <time>2021-07-11T07:42:06Z</time>
      </trkpt>
      <trkpt lat="43.27313" lon="6.51954">
        <ele>83.1</ele>
        <time>2021-07-11T07:42:07Z</time>
      </trkpt>
      <trkpt lat="43.27319" lon="6.52013">
        <ele>83.7</ele>
        <time>2021-07-11T07:42:16Z</time>
      </trkpt>
      <trkpt lat="43.27323" lon="6.52028">
        <ele>83.6</ele>
        <time>2021-07-11T07:42:18Z</time>
      </trkpt>
      <trkpt lat="43.27323" lon="6.52045">
        <ele>83.4</ele>
        <time>2021-07-11T07:42:20Z</time>
      </trkpt>
      <trkpt lat="43.27319" lon="6.5206">
        <ele>83.3</ele>
        <time>2021-07-11T07:42:22Z</time>
      </trkpt>
      <trkpt lat="43.27303" lon="6.5209">
        <ele>83</ele>
        <time>2021-07-11T07:42:26Z</time>
      </trkpt>
      <trkpt lat="43.2727" lon="6.5215">
        <ele>82.2</ele>
        <time>2021-07-11T07:42:34Z</time>
      </trkpt>
      <trkpt lat="43.27263" lon="6.52165">
        <ele>81.9</ele>
        <time>2021-07-11T07:42:36Z</time>
      </trkpt>
      <trkpt lat="43.27242" lon="6.52237">
        <ele>80.3</ele>
        <time>2021-07-11T07:42:44Z</time>
      </trkpt>
      <trkpt lat="43.2724" lon="6.5226">
        <ele>79.4</ele>
        <time>2021-07-11T07:42:46Z</time>
      </trkpt>
      <trkpt lat="43.27229" lon="6.52338">
        <ele>76.1</ele>
        <time>2021-07-11T07:42:53Z</time>
      </trkpt>
      <trkpt lat="43.27226" lon="6.52374">
        <ele>74.7</ele>
        <time>2021-07-11T07:42:56Z</time>
      </trkpt>
      <trkpt lat="43.27225" lon="6.52425">
        <ele>72.6</ele>
        <time>2021-07-11T07:43:00Z</time>
      </trkpt>
      <trkpt lat="43.27229" lon="6.52449">
        <ele>71.9</ele>
        <time>2021-07-11T07:43:02Z</time>
      </trkpt>
      <trkpt lat="43.27239" lon="6.52471">
        <ele>71</ele>
        <time>2021-07-11T07:43:04Z</time>
      </trkpt>
      <trkpt lat="43.2725" lon="6.52492">
        <ele>70.8</ele>
        <time>2021-07-11T07:43:06Z</time>
      </trkpt>
      <trkpt lat="43.27282" lon="6.52547">
        <ele>67.9</ele>
        <time>2021-07-11T07:43:11Z</time>
      </trkpt>
      <trkpt lat="43.27287" lon="6.52573">
        <ele>65.3</ele>
        <time>2021-07-11T07:43:13Z</time>
      </trkpt>
      <trkpt lat="43.27282" lon="6.52597">
        <ele>64.5</ele>
        <time>2021-07-11T07:43:15Z</time>
      </trkpt>
      <trkpt lat="43.27277" lon="6.52608">
        <ele>64.1</ele>
        <time>2021-07-11T07:43:16Z</time>
      </trkpt>
      <trkpt lat="43.27239" lon="6.52677">
        <ele>61.6</ele>
        <time>2021-07-11T07:43:22Z</time>
      </trkpt>
      <trkpt lat="43.27214" lon="6.52703">
        <ele>59.7</ele>
        <time>2021-07-11T07:43:25Z</time>
      </trkpt>
      <trkpt lat="43.27205" lon="6.52709">
        <ele>58.9</ele>
        <time>2021-07-11T07:43:26Z</time>
      </trkpt>
      <trkpt lat="43.27135" lon="6.52745">
        <ele>54.1</ele>
        <time>2021-07-11T07:43:31Z</time>
      </trkpt>
      <trkpt lat="43.27089" lon="6.52763">
        <ele>51.5</ele>
        <time>2021-07-11T07:43:36Z</time>
      </trkpt>
      <trkpt lat="43.27032" lon="6.52788">
        <ele>48.9</ele>
        <time>2021-07-11T07:43:40Z</time>
      </trkpt>
      <trkpt lat="43.26976" lon="6.52811">
        <ele>45.4</ele>
        <time>2021-07-11T07:43:46Z</time>
      </trkpt>
      <trkpt lat="43.26947" lon="6.52829">
        <ele>43.6</ele>
        <time>2021-07-11T07:43:49Z</time>
      </trkpt>
      <trkpt lat="43.26936" lon="6.5285">
        <ele>42.2</ele>
        <time>2021-07-11T07:43:51Z</time>
      </trkpt>
      <trkpt lat="43.26932" lon="6.52878">
        <ele>40.9</ele>
        <time>2021-07-11T07:43:53Z</time>
      </trkpt>
      <trkpt lat="43.26936" lon="6.52925">
        <ele>38.8</ele>
        <time>2021-07-11T07:43:56Z</time>
      </trkpt>
      <trkpt lat="43.26944" lon="6.53007">
        <ele>35.6</ele>
        <time>2021-07-11T07:44:01Z</time>
      </trkpt>
      <trkpt lat="43.26944" lon="6.53021">
        <ele>35.5</ele>
        <time>2021-07-11T07:44:02Z</time>
      </trkpt>
      <trkpt lat="43.26939" lon="6.53042">
        <ele>35</ele>
        <time>2021-07-11T07:44:04Z</time>
      </trkpt>
      <trkpt lat="43.2693" lon="6.53056">
        <ele>34.3</ele>
        <time>2021-07-11T07:44:06Z</time>
      </trkpt>
      <trkpt lat="43.26918" lon="6.53065">
        <ele>33.9</ele>
        <time>2021-07-11T07:44:08Z</time>
      </trkpt>
      <trkpt lat="43.26913" lon="6.53082">
        <ele>33.2</ele>
        <time>2021-07-11T07:44:10Z</time>
      </trkpt>
      <trkpt lat="43.26917" lon="6.53099">
        <ele>33</ele>
        <time>2021-07-11T07:44:12Z</time>
      </trkpt>
      <trkpt lat="43.26923" lon="6.53115">
        <ele>32.9</ele>
        <time>2021-07-11T07:44:14Z</time>
      </trkpt>
      <trkpt lat="43.26924" lon="6.53133">
        <ele>32.7</ele>
        <time>2021-07-11T07:44:16Z</time>
      </trkpt>
      <trkpt lat="43.26918" lon="6.5315">
        <ele>32.5</ele>
        <time>2021-07-11T07:44:18Z</time>
      </trkpt>
      <trkpt lat="43.26899" lon="6.53184">
        <ele>32</ele>
        <time>2021-07-11T07:44:22Z</time>
      </trkpt>
      <trkpt lat="43.26881" lon="6.53224">
        <ele>31.2</ele>
        <time>2021-07-11T07:44:26Z</time>
      </trkpt>
      <trkpt lat="43.26876" lon="6.53248">
        <ele>30.6</ele>
        <time>2021-07-11T07:44:28Z</time>
      </trkpt>
      <trkpt lat="43.26875" lon="6.53326">
        <ele>29</ele>
        <time>2021-07-11T07:44:34Z</time>
      </trkpt>
      <trkpt lat="43.26877" lon="6.53353">
        <ele>28.2</ele>
        <time>2021-07-11T07:44:36Z</time>
      </trkpt>
      <trkpt lat="43.26883" lon="6.53436">
        <ele>25.8</ele>
        <time>2021-07-11T07:44:42Z</time>
      </trkpt>
      <trkpt lat="43.26886" lon="6.53478">
        <ele>24.9</ele>
        <time>2021-07-11T07:44:45Z</time>
      </trkpt>
      <trkpt lat="43.26887" lon="6.53492">
        <ele>24.6</ele>
        <time>2021-07-11T07:44:46Z</time>
      </trkpt>
      <trkpt lat="43.26894" lon="6.53577">
        <ele>22.8</ele>
        <time>2021-07-11T07:44:52Z</time>
      </trkpt>
      <trkpt lat="43.26898" lon="6.53631">
        <ele>22</ele>
        <time>2021-07-11T07:44:56Z</time>
      </trkpt>
      <trkpt lat="43.26904" lon="6.53711">
        <ele>21.1</ele>
        <time>2021-07-11T07:45:02Z</time>
      </trkpt>
      <trkpt lat="43.26908" lon="6.53759">
        <ele>20.6</ele>
        <time>2021-07-11T07:45:06Z</time>
      </trkpt>
      <trkpt lat="43.26915" lon="6.53839">
        <ele>19.3</ele>
        <time>2021-07-11T07:45:12Z</time>
      </trkpt>
      <trkpt lat="43.26919" lon="6.53894">
        <ele>18.3</ele>
        <time>2021-07-11T07:45:16Z</time>
      </trkpt>
      <trkpt lat="43.26925" lon="6.53981">
        <ele>16.3</ele>
        <time>2021-07-11T07:45:22Z</time>
      </trkpt>
      <trkpt lat="43.26928" lon="6.5404">
        <ele>15.2</ele>
        <time>2021-07-11T07:45:26Z</time>
      </trkpt>
      <trkpt lat="43.26934" lon="6.54082">
        <ele>14.4</ele>
        <time>2021-07-11T07:45:29Z</time>
      </trkpt>
      <trkpt lat="43.26947" lon="6.54119">
        <ele>14.1</ele>
        <time>2021-07-11T07:45:32Z</time>
      </trkpt>
      <trkpt lat="43.26971" lon="6.5416">
        <ele>14.1</ele>
        <time>2021-07-11T07:45:36Z</time>
      </trkpt>
      <trkpt lat="43.26979" lon="6.54169">
        <ele>14.1</ele>
        <time>2021-07-11T07:45:37Z</time>
      </trkpt>
      <trkpt lat="43.2703" lon="6.54201">
        <ele>13.8</ele>
        <time>2021-07-11T07:45:43Z</time>
      </trkpt>
      <trkpt lat="43.27057" lon="6.54211">
        <ele>13.9</ele>
        <time>2021-07-11T07:45:46Z</time>
      </trkpt>
      <trkpt lat="43.27117" lon="6.54232">
        <ele>14.6</ele>
        <time>2021-07-11T07:45:53Z</time>
      </trkpt>
      <trkpt lat="43.27141" lon="6.5424">
        <ele>14.7</ele>
        <time>2021-07-11T07:45:56Z</time>
      </trkpt>
      <trkpt lat="43.27196" lon="6.5426">
        <ele>14.8</ele>
        <time>2021-07-11T07:46:03Z</time>
      </trkpt>
      <trkpt lat="43.27219" lon="6.54269">
        <ele>14.7</ele>
        <time>2021-07-11T07:46:06Z</time>
      </trkpt>
      <trkpt lat="43.27274" lon="6.54289">
        <ele>14.5</ele>
        <time>2021-07-11T07:46:13Z</time>
      </trkpt>
      <trkpt lat="43.27297" lon="6.54298">
        <ele>14.5</ele>
        <time>2021-07-11T07:46:16Z</time>
      </trkpt>
      <trkpt lat="43.27351" lon="6.54319">
        <ele>14.5</ele>
        <time>2021-07-11T07:46:23Z</time>
      </trkpt>
      <trkpt lat="43.27373" lon="6.54327">
        <ele>14.4</ele>
        <time>2021-07-11T07:46:26Z</time>
      </trkpt>
      <trkpt lat="43.27425" lon="6.54347">
        <ele>14.5</ele>
        <time>2021-07-11T07:46:33Z</time>
      </trkpt>
      <trkpt lat="43.27447" lon="6.54356">
        <ele>14.6</ele>
        <time>2021-07-11T07:46:36Z</time>
      </trkpt>
      <trkpt lat="43.27495" lon="6.54392">
        <ele>15.1</ele>
        <time>2021-07-11T07:46:44Z</time>
      </trkpt>
      <trkpt lat="43.27505" lon="6.54404">
        <ele>15.4</ele>
        <time>2021-07-11T07:46:46Z</time>
      </trkpt>
      <trkpt lat="43.27529" lon="6.54442">
        <ele>16.4</ele>
        <time>2021-07-11T07:46:52Z</time>
      </trkpt>
      <trkpt lat="43.2754" lon="6.54468">
        <ele>17</ele>
        <time>2021-07-11T07:46:56Z</time>
      </trkpt>
      <trkpt lat="43.27558" lon="6.54538">
        <ele>18.2</ele>
        <time>2021-07-11T07:47:06Z</time>
      </trkpt>
      <trkpt lat="43.2757" lon="6.54605">
        <ele>19.1</ele>
        <time>2021-07-11T07:47:15Z</time>
      </trkpt>
      <trkpt lat="43.27573" lon="6.54611">
        <ele>19.2</ele>
        <time>2021-07-11T07:47:16Z</time>
      </trkpt>
      <trkpt lat="43.27576" lon="6.54617">
        <ele>19.3</ele>
        <time>2021-07-11T07:47:17Z</time>
      </trkpt>
      <trkpt lat="43.27586" lon="6.54621">
        <ele>19.5</ele>
        <time>2021-07-11T07:47:19Z</time>
      </trkpt>
      <trkpt lat="43.27595" lon="6.54624">
        <ele>19.6</ele>
        <time>2021-07-11T07:47:21Z</time>
      </trkpt>
      <trkpt lat="43.27604" lon="6.54636">
        <ele>19.7</ele>
        <time>2021-07-11T07:47:24Z</time>
      </trkpt>
      <trkpt lat="43.27608" lon="6.54647">
        <ele>19.8</ele>
        <time>2021-07-11T07:47:26Z</time>
      </trkpt>
      <trkpt lat="43.27624" lon="6.54677">
        <ele>20.3</ele>
        <time>2021-07-11T07:47:32Z</time>
      </trkpt>
      <trkpt lat="43.27632" lon="6.54685">
        <ele>20.4</ele>
        <time>2021-07-11T07:47:34Z</time>
      </trkpt>
      <trkpt lat="43.27641" lon="6.54691">
        <ele>20.6</ele>
        <time>2021-07-11T07:47:36Z</time>
      </trkpt>
      <trkpt lat="43.27687" lon="6.54708">
        <ele>22</ele>
        <time>2021-07-11T07:47:46Z</time>
      </trkpt>
      <trkpt lat="43.27731" lon="6.54714">
        <ele>23.8</ele>
        <time>2021-07-11T07:47:56Z</time>
      </trkpt>
      <trkpt lat="43.27753" lon="6.54716">
        <ele>24.9</ele>
        <time>2021-07-11T07:48:02Z</time>
      </trkpt>
      <trkpt lat="43.27766" lon="6.54719">
        <ele>25.7</ele>
        <time>2021-07-11T07:48:06Z</time>
      </trkpt>
      <trkpt lat="43.27799" lon="6.54726">
        <ele>27.8</ele>
        <time>2021-07-11T07:48:16Z</time>
      </trkpt>
      <trkpt lat="43.27833" lon="6.54734">
        <ele>30</ele>
        <time>2021-07-11T07:48:26Z</time>
      </trkpt>
      <trkpt lat="43.27864" lon="6.5474">
        <ele>32.3</ele>
        <time>2021-07-11T07:48:36Z</time>
      </trkpt>
      <trkpt lat="43.2789" lon="6.54759">
        <ele>34.3</ele>
        <time>2021-07-11T07:48:46Z</time>
      </trkpt>
      <trkpt lat="43.27915" lon="6.54789">
        <ele>36.5</ele>
        <time>2021-07-11T07:48:56Z</time>
      </trkpt>
      <trkpt lat="43.2793" lon="6.54804">
        <ele>37.5</ele>
        <time>2021-07-11T07:49:01Z</time>
      </trkpt>
      <trkpt lat="43.27949" lon="6.54814">
        <ele>38.4</ele>
        <time>2021-07-11T07:49:06Z</time>
      </trkpt>
      <trkpt lat="43.27981" lon="6.54825">
        <ele>39.5</ele>
        <time>2021-07-11T07:49:15Z</time>
      </trkpt>
      <trkpt lat="43.27985" lon="6.54827">
        <ele>39.6</ele>
        <time>2021-07-11T07:49:16Z</time>
      </trkpt>
      <trkpt lat="43.28016" lon="6.54841">
        <ele>40.5</ele>
        <time>2021-07-11T07:49:26Z</time>
      </trkpt>
      <trkpt lat="43.28052" lon="6.54867">
        <ele>41.8</ele>
        <time>2021-07-11T07:49:36Z</time>
      </trkpt>
      <trkpt lat="43.28066" lon="6.54879">
        <ele>42.3</ele>
        <time>2021-07-11T07:49:40Z</time>
      </trkpt>
      <trkpt lat="43.28086" lon="6.54894">
        <ele>43</ele>
        <time>2021-07-11T07:49:46Z</time>
      </trkpt>
      <trkpt lat="43.28124" lon="6.54909">
        <ele>44.1</ele>
        <time>2021-07-11T07:49:56Z</time>
      </trkpt>
      <trkpt lat="43.28133" lon="6.54914">
        <ele>44.3</ele>
        <time>2021-07-11T07:49:58Z</time>
      </trkpt>
      <trkpt lat="43.28164" lon="6.54942">
        <ele>45.3</ele>
        <time>2021-07-11T07:50:06Z</time>
      </trkpt>
      <trkpt lat="43.28176" lon="6.54953">
        <ele>45.8</ele>
        <time>2021-07-11T07:50:09Z</time>
      </trkpt>
      <trkpt lat="43.28205" lon="6.54966">
        <ele>46.7</ele>
        <time>2021-07-11T07:50:15Z</time>
      </trkpt>
      <trkpt lat="43.28209" lon="6.54968">
        <ele>46.9</ele>
        <time>2021-07-11T07:50:16Z</time>
      </trkpt>
      <trkpt lat="43.28256" lon="6.54985">
        <ele>48.7</ele>
        <time>2021-07-11T07:50:26Z</time>
      </trkpt>
      <trkpt lat="43.283" lon="6.55001">
        <ele>50.4</ele>
        <time>2021-07-11T07:50:36Z</time>
      </trkpt>
      <trkpt lat="43.28336" lon="6.55005">
        <ele>51.7</ele>
        <time>2021-07-11T07:50:44Z</time>
      </trkpt>
      <trkpt lat="43.28345" lon="6.55005">
        <ele>52</ele>
        <time>2021-07-11T07:50:46Z</time>
      </trkpt>
      <trkpt lat="43.2839" lon="6.55008">
        <ele>53.6</ele>
        <time>2021-07-11T07:50:56Z</time>
      </trkpt>
      <trkpt lat="43.28408" lon="6.55013">
        <ele>54.2</ele>
        <time>2021-07-11T07:51:00Z</time>
      </trkpt>
      <trkpt lat="43.28433" lon="6.55024">
        <ele>55.2</ele>
        <time>2021-07-11T07:51:06Z</time>
      </trkpt>
      <trkpt lat="43.28476" lon="6.55046">
        <ele>57</ele>
        <time>2021-07-11T07:51:16Z</time>
      </trkpt>
      <trkpt lat="43.28481" lon="6.55049">
        <ele>57.1</ele>
        <time>2021-07-11T07:51:17Z</time>
      </trkpt>
      <trkpt lat="43.28518" lon="6.55074">
        <ele>58.7</ele>
        <time>2021-07-11T07:51:26Z</time>
      </trkpt>
      <trkpt lat="43.28555" lon="6.551">
        <ele>60.1</ele>
        <time>2021-07-11T07:51:36Z</time>
      </trkpt>
      <trkpt lat="43.28597" lon="6.55117">
        <ele>61.7</ele>
        <time>2021-07-11T07:51:46Z</time>
      </trkpt>
      <trkpt lat="43.2864" lon="6.55126">
        <ele>63.1</ele>
        <time>2021-07-11T07:51:56Z</time>
      </trkpt>
      <trkpt lat="43.28684" lon="6.55137">
        <ele>64.7</ele>
        <time>2021-07-11T07:52:06Z</time>
      </trkpt>
      <trkpt lat="43.28727" lon="6.55151">
        <ele>66.4</ele>
        <time>2021-07-11T07:52:16Z</time>
      </trkpt>
      <trkpt lat="43.28767" lon="6.55163">
        <ele>68.2</ele>
        <time>2021-07-11T07:52:26Z</time>
      </trkpt>
      <trkpt lat="43.28808" lon="6.55167">
        <ele>70.2</ele>
        <time>2021-07-11T07:52:36Z</time>
      </trkpt>
      <trkpt lat="43.28827" lon="6.55165">
        <ele>71.1</ele>
        <time>2021-07-11T07:52:41Z</time>
      </trkpt>
      <trkpt lat="43.28847" lon="6.55163">
        <ele>72.1</ele>
        <time>2021-07-11T07:52:46Z</time>
      </trkpt>
      <trkpt lat="43.28854" lon="6.55162">
        <ele>72.5</ele>
        <time>2021-07-11T07:52:48Z</time>
      </trkpt>
      <trkpt lat="43.28886" lon="6.55157">
        <ele>74.3</ele>
        <time>2021-07-11T07:52:56Z</time>
      </trkpt>
      <trkpt lat="43.28898" lon="6.55155">
        <ele>75</ele>
        <time>2021-07-11T07:52:59Z</time>
      </trkpt>
      <trkpt lat="43.28923" lon="6.55151">
        <ele>76.4</ele>
        <time>2021-07-11T07:53:06Z</time>
      </trkpt>
      <trkpt lat="43.28957" lon="6.55147">
        <ele>78.2</ele>
        <time>2021-07-11T07:53:16Z</time>
      </trkpt>
      <trkpt lat="43.2899" lon="6.5514">
        <ele>80.1</ele>
        <time>2021-07-11T07:53:26Z</time>
      </trkpt>
      <trkpt lat="43.29021" lon="6.55123">
        <ele>82.1</ele>
        <time>2021-07-11T07:53:36Z</time>
      </trkpt>
      <trkpt lat="43.29048" lon="6.55105">
        <ele>83.6</ele>
        <time>2021-07-11T07:53:46Z</time>
      </trkpt>
      <trkpt lat="43.29079" lon="6.55084">
        <ele>85.1</ele>
        <time>2021-07-11T07:53:56Z</time>
      </trkpt>
      <trkpt lat="43.29112" lon="6.5506">
        <ele>87</ele>
        <time>2021-07-11T07:54:06Z</time>
      </trkpt>
      <trkpt lat="43.29146" lon="6.55039">
        <ele>89</ele>
        <time>2021-07-11T07:54:16Z</time>
      </trkpt>
      <trkpt lat="43.29174" lon="6.55061">
        <ele>90.2</ele>
        <time>2021-07-11T07:54:26Z</time>
      </trkpt>
      <trkpt lat="43.29169" lon="6.55106">
        <ele>91.8</ele>
        <time>2021-07-11T07:54:36Z</time>
      </trkpt>
      <trkpt lat="43.29152" lon="6.55145">
        <ele>93.3</ele>
        <time>2021-07-11T07:54:46Z</time>
      </trkpt>
      <trkpt lat="43.29144" lon="6.55167">
        <ele>94.2</ele>
        <time>2021-07-11T07:54:51Z</time>
      </trkpt>
      <trkpt lat="43.29137" lon="6.55187">
        <ele>95.1</ele>
        <time>2021-07-11T07:54:56Z</time>
      </trkpt>
      <trkpt lat="43.29126" lon="6.55231">
        <ele>97.1</ele>
        <time>2021-07-11T07:55:06Z</time>
      </trkpt>
      <trkpt lat="43.29129" lon="6.55257">
        <ele>98.3</ele>
        <time>2021-07-11T07:55:11Z</time>
      </trkpt>
      <trkpt lat="43.29132" lon="6.55282">
        <ele>99.6</ele>
        <time>2021-07-11T07:55:16Z</time>
      </trkpt>
      <trkpt lat="43.29145" lon="6.55326">
        <ele>102</ele>
        <time>2021-07-11T07:55:26Z</time>
      </trkpt>
      <trkpt lat="43.29143" lon="6.55365">
        <ele>103.8</ele>
        <time>2021-07-11T07:55:36Z</time>
      </trkpt>
      <trkpt lat="43.29126" lon="6.55388">
        <ele>105.4</ele>
        <time>2021-07-11T07:55:46Z</time>
      </trkpt>
      <trkpt lat="43.29121" lon="6.55404">
        <ele>106.3</ele>
        <time>2021-07-11T07:55:50Z</time>
      </trkpt>
      <trkpt lat="43.29119" lon="6.55431">
        <ele>107.7</ele>
        <time>2021-07-11T07:55:56Z</time>
      </trkpt>
      <trkpt lat="43.29129" lon="6.55473">
        <ele>109.7</ele>
        <time>2021-07-11T07:56:06Z</time>
      </trkpt>
      <trkpt lat="43.29144" lon="6.555">
        <ele>111.4</ele>
        <time>2021-07-11T07:56:14Z</time>
      </trkpt>
      <trkpt lat="43.29148" lon="6.55507">
        <ele>111.8</ele>
        <time>2021-07-11T07:56:16Z</time>
      </trkpt>
      <trkpt lat="43.29166" lon="6.5554">
        <ele>113.9</ele>
        <time>2021-07-11T07:56:26Z</time>
      </trkpt>
      <trkpt lat="43.29188" lon="6.55575">
        <ele>116.1</ele>
        <time>2021-07-11T07:56:36Z</time>
      </trkpt>
      <trkpt lat="43.29211" lon="6.55609">
        <ele>118.4</ele>
        <time>2021-07-11T07:56:46Z</time>
      </trkpt>
      <trkpt lat="43.29231" lon="6.55643">
        <ele>120.2</ele>
        <time>2021-07-11T07:56:56Z</time>
      </trkpt>
      <trkpt lat="43.29258" lon="6.55672">
        <ele>120.8</ele>
        <time>2021-07-11T07:57:06Z</time>
      </trkpt>
      <trkpt lat="43.293" lon="6.55715">
        <ele>118.3</ele>
        <time>2021-07-11T07:57:15Z</time>
      </trkpt>
      <trkpt lat="43.29306" lon="6.55718">
        <ele>118</ele>
        <time>2021-07-11T07:57:16Z</time>
      </trkpt>
      <trkpt lat="43.29313" lon="6.55719">
        <ele>117.6</ele>
        <time>2021-07-11T07:57:17Z</time>
      </trkpt>
      <trkpt lat="43.29325" lon="6.55714">
        <ele>116.9</ele>
        <time>2021-07-11T07:57:19Z</time>
      </trkpt>
      <trkpt lat="43.29336" lon="6.55701">
        <ele>116.2</ele>
        <time>2021-07-11T07:57:21Z</time>
      </trkpt>
      <trkpt lat="43.29344" lon="6.55685">
        <ele>115.3</ele>
        <time>2021-07-11T07:57:23Z</time>
      </trkpt>
      <trkpt lat="43.29358" lon="6.55679">
        <ele>114.4</ele>
        <time>2021-07-11T07:57:25Z</time>
      </trkpt>
      <trkpt lat="43.29366" lon="6.55681">
        <ele>113.8</ele>
        <time>2021-07-11T07:57:26Z</time>
      </trkpt>
      <trkpt lat="43.29375" lon="6.55685">
        <ele>113.1</ele>
        <time>2021-07-11T07:57:27Z</time>
      </trkpt>
      <trkpt lat="43.29414" lon="6.5572">
        <ele>109.6</ele>
        <time>2021-07-11T07:57:32Z</time>
      </trkpt>
      <trkpt lat="43.29432" lon="6.55731">
        <ele>108.3</ele>
        <time>2021-07-11T07:57:34Z</time>
      </trkpt>
      <trkpt lat="43.29448" lon="6.55749">
        <ele>106.8</ele>
        <time>2021-07-11T07:57:36Z</time>
      </trkpt>
      <trkpt lat="43.29474" lon="6.55813">
        <ele>103</ele>
        <time>2021-07-11T07:57:41Z</time>
      </trkpt>
      <trkpt lat="43.29499" lon="6.55838">
        <ele>100.8</ele>
        <time>2021-07-11T07:57:44Z</time>
      </trkpt>
      <trkpt lat="43.29518" lon="6.55842">
        <ele>99.6</ele>
        <time>2021-07-11T07:57:46Z</time>
      </trkpt>
      <trkpt lat="43.29536" lon="6.55832">
        <ele>98.3</ele>
        <time>2021-07-11T07:57:48Z</time>
      </trkpt>
      <trkpt lat="43.29552" lon="6.55814">
        <ele>96.8</ele>
        <time>2021-07-11T07:57:50Z</time>
      </trkpt>
      <trkpt lat="43.29566" lon="6.55792">
        <ele>95.3</ele>
        <time>2021-07-11T07:57:52Z</time>
      </trkpt>
      <trkpt lat="43.29585" lon="6.55777">
        <ele>93.8</ele>
        <time>2021-07-11T07:57:54Z</time>
      </trkpt>
      <trkpt lat="43.29606" lon="6.55765">
        <ele>92.8</ele>
        <time>2021-07-11T07:57:56Z</time>
      </trkpt>
      <trkpt lat="43.29616" lon="6.55757">
        <ele>92.4</ele>
        <time>2021-07-11T07:57:57Z</time>
      </trkpt>
      <trkpt lat="43.2966" lon="6.55713">
        <ele>91.5</ele>
        <time>2021-07-11T07:58:02Z</time>
      </trkpt>
      <trkpt lat="43.29688" lon="6.5569">
        <ele>91.6</ele>
        <time>2021-07-11T07:58:06Z</time>
      </trkpt>
      <trkpt lat="43.29694" lon="6.55687">
        <ele>91.7</ele>
        <time>2021-07-11T07:58:07Z</time>
      </trkpt>
      <trkpt lat="43.29706" lon="6.55688">
        <ele>91.7</ele>
        <time>2021-07-11T07:58:09Z</time>
      </trkpt>
      <trkpt lat="43.29714" lon="6.557">
        <ele>91.7</ele>
        <time>2021-07-11T07:58:11Z</time>
      </trkpt>
      <trkpt lat="43.29714" lon="6.55716">
        <ele>91.6</ele>
        <time>2021-07-11T07:58:13Z</time>
      </trkpt>
      <trkpt lat="43.29708" lon="6.55731">
        <ele>91.5</ele>
        <time>2021-07-11T07:58:15Z</time>
      </trkpt>
      <trkpt lat="43.29703" lon="6.55739">
        <ele>91.5</ele>
        <time>2021-07-11T07:58:16Z</time>
      </trkpt>
      <trkpt lat="43.29664" lon="6.55798">
        <ele>92.5</ele>
        <time>2021-07-11T07:58:25Z</time>
      </trkpt>
      <trkpt lat="43.2966" lon="6.55804">
        <ele>92.7</ele>
        <time>2021-07-11T07:58:26Z</time>
      </trkpt>
      <trkpt lat="43.29627" lon="6.55856">
        <ele>95.2</ele>
        <time>2021-07-11T07:58:36Z</time>
      </trkpt>
      <trkpt lat="43.29605" lon="6.55907">
        <ele>97.8</ele>
        <time>2021-07-11T07:58:46Z</time>
      </trkpt>
      <trkpt lat="43.29591" lon="6.55955">
        <ele>100.2</ele>
        <time>2021-07-11T07:58:56Z</time>
      </trkpt>
      <trkpt lat="43.2958" lon="6.56001">
        <ele>102.6</ele>
        <time>2021-07-11T07:59:06Z</time>
      </trkpt>
      <trkpt lat="43.29583" lon="6.56047">
        <ele>104.8</ele>
        <time>2021-07-11T07:59:16Z</time>
      </trkpt>
      <trkpt lat="43.29606" lon="6.56081">
        <ele>106.7</ele>
        <time>2021-07-11T07:59:26Z</time>
      </trkpt>
      <trkpt lat="43.29619" lon="6.56088">
        <ele>107.5</ele>
        <time>2021-07-11T07:59:30Z</time>
      </trkpt>
      <trkpt lat="43.29636" lon="6.56098">
        <ele>108.7</ele>
        <time>2021-07-11T07:59:36Z</time>
      </trkpt>
      <trkpt lat="43.29666" lon="6.56113">
        <ele>110.9</ele>
        <time>2021-07-11T07:59:46Z</time>
      </trkpt>
      <trkpt lat="43.29697" lon="6.56107">
        <ele>112.9</ele>
        <time>2021-07-11T07:59:56Z</time>
      </trkpt>
      <trkpt lat="43.29704" lon="6.56102">
        <ele>113.5</ele>
        <time>2021-07-11T07:59:59Z</time>
      </trkpt>
      <trkpt lat="43.29722" lon="6.56088">
        <ele>114.8</ele>
        <time>2021-07-11T08:00:06Z</time>
      </trkpt>
      <trkpt lat="43.29745" lon="6.56065">
        <ele>116.8</ele>
        <time>2021-07-11T08:00:16Z</time>
      </trkpt>
      <trkpt lat="43.29762" lon="6.56032">
        <ele>119</ele>
        <time>2021-07-11T08:00:26Z</time>
      </trkpt>
      <trkpt lat="43.29789" lon="6.56008">
        <ele>121.3</ele>
        <time>2021-07-11T08:00:36Z</time>
      </trkpt>
      <trkpt lat="43.29816" lon="6.55998">
        <ele>123.2</ele>
        <time>2021-07-11T08:00:46Z</time>
      </trkpt>
      <trkpt lat="43.29844" lon="6.55977">
        <ele>125.5</ele>
        <time>2021-07-11T08:00:56Z</time>
      </trkpt>
      <trkpt lat="43.29871" lon="6.55952">
        <ele>127.7</ele>
        <time>2021-07-11T08:01:06Z</time>
      </trkpt>
      <trkpt lat="43.29892" lon="6.55919">
        <ele>129.8</ele>
        <time>2021-07-11T08:01:16Z</time>
      </trkpt>
      <trkpt lat="43.29913" lon="6.55885">
        <ele>131.9</ele>
        <time>2021-07-11T08:01:26Z</time>
      </trkpt>
      <trkpt lat="43.29941" lon="6.55859">
        <ele>134.1</ele>
        <time>2021-07-11T08:01:36Z</time>
      </trkpt>
      <trkpt lat="43.29972" lon="6.5584">
        <ele>136.4</ele>
        <time>2021-07-11T08:01:46Z</time>
      </trkpt>
      <trkpt lat="43.30002" lon="6.55828">
        <ele>138.5</ele>
        <time>2021-07-11T08:01:56Z</time>
      </trkpt>
      <trkpt lat="43.30008" lon="6.55825">
        <ele>139</ele>
        <time>2021-07-11T08:01:58Z</time>
      </trkpt>
      <trkpt lat="43.30031" lon="6.55816">
        <ele>140.5</ele>
        <time>2021-07-11T08:02:06Z</time>
      </trkpt>
      <trkpt lat="43.30058" lon="6.55793">
        <ele>142.2</ele>
        <time>2021-07-11T08:02:16Z</time>
      </trkpt>
      <trkpt lat="43.30082" lon="6.55753">
        <ele>143.6</ele>
        <time>2021-07-11T08:02:26Z</time>
      </trkpt>
      <trkpt lat="43.30106" lon="6.55704">
        <ele>144.5</ele>
        <time>2021-07-11T08:02:36Z</time>
      </trkpt>
      <trkpt lat="43.30136" lon="6.55663">
        <ele>144.9</ele>
        <time>2021-07-11T08:02:44Z</time>
      </trkpt>
      <trkpt lat="43.30148" lon="6.55656">
        <ele>145</ele>
        <time>2021-07-11T08:02:46Z</time>
      </trkpt>
      <trkpt lat="43.30204" lon="6.55647">
        <ele>145.8</ele>
        <time>2021-07-11T08:02:56Z</time>
      </trkpt>
      <trkpt lat="43.30251" lon="6.55615">
        <ele>147.1</ele>
        <time>2021-07-11T08:03:06Z</time>
      </trkpt>
      <trkpt lat="43.30269" lon="6.55592">
        <ele>147.9</ele>
        <time>2021-07-11T08:03:11Z</time>
      </trkpt>
      <trkpt lat="43.30277" lon="6.55576">
        <ele>148.3</ele>
        <time>2021-07-11T08:03:14Z</time>
      </trkpt>
      <trkpt lat="43.30285" lon="6.5557">
        <ele>148.6</ele>
        <time>2021-07-11T08:03:16Z</time>
      </trkpt>
      <trkpt lat="43.30295" lon="6.55569">
        <ele>149</ele>
        <time>2021-07-11T08:03:18Z</time>
      </trkpt>
      <trkpt lat="43.30321" lon="6.55577">
        <ele>150.1</ele>
        <time>2021-07-11T08:03:24Z</time>
      </trkpt>
      <trkpt lat="43.30331" lon="6.55576">
        <ele>150.5</ele>
        <time>2021-07-11T08:03:26Z</time>
      </trkpt>
      <trkpt lat="43.30336" lon="6.55575">
        <ele>150.7</ele>
        <time>2021-07-11T08:03:27Z</time>
      </trkpt>
      <trkpt lat="43.30354" lon="6.55571">
        <ele>151.6</ele>
        <time>2021-07-11T08:03:31Z</time>
      </trkpt>
      <trkpt lat="43.30376" lon="6.55565">
        <ele>152.8</ele>
        <time>2021-07-11T08:03:36Z</time>
      </trkpt>
      <trkpt lat="43.30406" lon="6.55541">
        <ele>154.9</ele>
        <time>2021-07-11T08:03:46Z</time>
      </trkpt>
      <trkpt lat="43.30431" lon="6.55516">
        <ele>156</ele>
        <time>2021-07-11T08:03:55Z</time>
      </trkpt>
      <trkpt lat="43.30435" lon="6.55514">
        <ele>156.3</ele>
        <time>2021-07-11T08:03:56Z</time>
      </trkpt>
      <trkpt lat="43.30456" lon="6.55505">
        <ele>157.6</ele>
        <time>2021-07-11T08:04:02Z</time>
      </trkpt>
      <trkpt lat="43.30462" lon="6.55502">
        <ele>158</ele>
        <time>2021-07-11T08:04:04Z</time>
      </trkpt>
      <trkpt lat="43.30468" lon="6.55498">
        <ele>158.4</ele>
        <time>2021-07-11T08:04:06Z</time>
      </trkpt>
      <trkpt lat="43.30494" lon="6.55462">
        <ele>160.5</ele>
        <time>2021-07-11T08:04:16Z</time>
      </trkpt>
      <trkpt lat="43.30507" lon="6.55447">
        <ele>161.5</ele>
        <time>2021-07-11T08:04:21Z</time>
      </trkpt>
      <trkpt lat="43.30526" lon="6.55438">
        <ele>162.6</ele>
        <time>2021-07-11T08:04:26Z</time>
      </trkpt>
      <trkpt lat="43.30565" lon="6.55429">
        <ele>164.4</ele>
        <time>2021-07-11T08:04:36Z</time>
      </trkpt>
      <trkpt lat="43.30597" lon="6.55406">
        <ele>166</ele>
        <time>2021-07-11T08:04:46Z</time>
      </trkpt>
      <trkpt lat="43.30622" lon="6.55368">
        <ele>167.8</ele>
        <time>2021-07-11T08:04:56Z</time>
      </trkpt>
      <trkpt lat="43.30628" lon="6.55319">
        <ele>168.9</ele>
        <time>2021-07-11T08:05:06Z</time>
      </trkpt>
      <trkpt lat="43.30617" lon="6.55295">
        <ele>169.4</ele>
        <time>2021-07-11T08:05:11Z</time>
      </trkpt>
      <trkpt lat="43.30608" lon="6.55281">
        <ele>169.6</ele>
        <time>2021-07-11T08:05:14Z</time>
      </trkpt>
      <trkpt lat="43.30606" lon="6.55271">
        <ele>169.7</ele>
        <time>2021-07-11T08:05:16Z</time>
      </trkpt>
      <trkpt lat="43.30605" lon="6.55259">
        <ele>169.9</ele>
        <time>2021-07-11T08:05:18Z</time>
      </trkpt>
      <trkpt lat="43.30606" lon="6.55247">
        <ele>170</ele>
        <time>2021-07-11T08:05:20Z</time>
      </trkpt>
      <trkpt lat="43.30612" lon="6.55237">
        <ele>170.2</ele>
        <time>2021-07-11T08:05:22Z</time>
      </trkpt>
      <trkpt lat="43.30625" lon="6.55224">
        <ele>170.6</ele>
        <time>2021-07-11T08:05:26Z</time>
      </trkpt>
      <trkpt lat="43.30642" lon="6.55213">
        <ele>170.8</ele>
        <time>2021-07-11T08:05:30Z</time>
      </trkpt>
      <trkpt lat="43.30654" lon="6.55211">
        <ele>171</ele>
        <time>2021-07-11T08:05:32Z</time>
      </trkpt>
      <trkpt lat="43.30664" lon="6.55213">
        <ele>171.3</ele>
        <time>2021-07-11T08:05:34Z</time>
      </trkpt>
      <trkpt lat="43.30672" lon="6.55218">
        <ele>171.5</ele>
        <time>2021-07-11T08:05:36Z</time>
      </trkpt>
      <trkpt lat="43.30696" lon="6.55231">
        <ele>172.2</ele>
        <time>2021-07-11T08:05:42Z</time>
      </trkpt>
      <trkpt lat="43.30707" lon="6.5523">
        <ele>172.4</ele>
        <time>2021-07-11T08:05:44Z</time>
      </trkpt>
      <trkpt lat="43.30715" lon="6.55227">
        <ele>172.7</ele>
        <time>2021-07-11T08:05:46Z</time>
      </trkpt>
      <trkpt lat="43.30723" lon="6.55221">
        <ele>173</ele>
        <time>2021-07-11T08:05:48Z</time>
      </trkpt>
      <trkpt lat="43.30741" lon="6.55205">
        <ele>173.7</ele>
        <time>2021-07-11T08:05:53Z</time>
      </trkpt>
      <trkpt lat="43.30753" lon="6.55196">
        <ele>174.1</ele>
        <time>2021-07-11T08:05:56Z</time>
      </trkpt>
      <trkpt lat="43.30766" lon="6.55184">
        <ele>174.4</ele>
        <time>2021-07-11T08:06:00Z</time>
      </trkpt>
      <trkpt lat="43.30787" lon="6.55158">
        <ele>174.8</ele>
        <time>2021-07-11T08:06:06Z</time>
      </trkpt>
      <trkpt lat="43.3083" lon="6.55113">
        <ele>174.6</ele>
        <time>2021-07-11T08:06:16Z</time>
      </trkpt>
      <trkpt lat="43.30876" lon="6.55065">
        <ele>173.4</ele>
        <time>2021-07-11T08:06:26Z</time>
      </trkpt>
      <trkpt lat="43.30916" lon="6.55027">
        <ele>172.7</ele>
        <time>2021-07-11T08:06:35Z</time>
      </trkpt>
      <trkpt lat="43.30921" lon="6.55024">
        <ele>172.6</ele>
        <time>2021-07-11T08:06:36Z</time>
      </trkpt>
      <trkpt lat="43.30928" lon="6.55022">
        <ele>172.7</ele>
        <time>2021-07-11T08:06:37Z</time>
      </trkpt>
      <trkpt lat="43.30939" lon="6.55023">
        <ele>172.8</ele>
        <time>2021-07-11T08:06:39Z</time>
      </trkpt>
      <trkpt lat="43.30959" lon="6.55033">
        <ele>173.7</ele>
        <time>2021-07-11T08:06:43Z</time>
      </trkpt>
      <trkpt lat="43.30969" lon="6.55041">
        <ele>174.4</ele>
        <time>2021-07-11T08:06:46Z</time>
      </trkpt>
      <trkpt lat="43.30991" lon="6.55066">
        <ele>176.6</ele>
        <time>2021-07-11T08:06:56Z</time>
      </trkpt>
      <trkpt lat="43.31026" lon="6.55075">
        <ele>179.1</ele>
        <time>2021-07-11T08:07:06Z</time>
      </trkpt>
      <trkpt lat="43.31037" lon="6.55073">
        <ele>179.8</ele>
        <time>2021-07-11T08:07:09Z</time>
      </trkpt>
      <trkpt lat="43.31058" lon="6.55063">
        <ele>180.8</ele>
        <time>2021-07-11T08:07:16Z</time>
      </trkpt>
      <trkpt lat="43.31069" lon="6.5506">
        <ele>181.2</ele>
        <time>2021-07-11T08:07:23Z</time>
      </trkpt>
      <trkpt lat="43.31075" lon="6.55056">
        <ele>181.4</ele>
        <time>2021-07-11T08:09:25Z</time>
      </trkpt>
      <trkpt lat="43.31076" lon="6.55054">
        <ele>181.4</ele>
        <time>2021-07-11T08:09:26Z</time>
      </trkpt>
      <trkpt lat="43.31083" lon="6.5505">
        <ele>181.5</ele>
        <time>2021-07-11T08:09:29Z</time>
      </trkpt>
      <trkpt lat="43.311" lon="6.55038">
        <ele>181.5</ele>
        <time>2021-07-11T08:09:34Z</time>
      </trkpt>
      <trkpt lat="43.31109" lon="6.55032">
        <ele>181.4</ele>
        <time>2021-07-11T08:09:36Z</time>
      </trkpt>
      <trkpt lat="43.31133" lon="6.55013">
        <ele>180.7</ele>
        <time>2021-07-11T08:09:41Z</time>
      </trkpt>
      <trkpt lat="43.31139" lon="6.55008">
        <ele>180.5</ele>
        <time>2021-07-11T08:09:42Z</time>
      </trkpt>
      <trkpt lat="43.31151" lon="6.54999">
        <ele>179.9</ele>
        <time>2021-07-11T08:09:44Z</time>
      </trkpt>
      <trkpt lat="43.31164" lon="6.54989">
        <ele>179.2</ele>
        <time>2021-07-11T08:09:46Z</time>
      </trkpt>
      <trkpt lat="43.31192" lon="6.54968">
        <ele>177.9</ele>
        <time>2021-07-11T08:09:50Z</time>
      </trkpt>
      <trkpt lat="43.31199" lon="6.54962">
        <ele>177.5</ele>
        <time>2021-07-11T08:09:51Z</time>
      </trkpt>
      <trkpt lat="43.31207" lon="6.54957">
        <ele>177.1</ele>
        <time>2021-07-11T08:09:52Z</time>
      </trkpt>
      <trkpt lat="43.31214" lon="6.54951">
        <ele>176.7</ele>
        <time>2021-07-11T08:09:53Z</time>
      </trkpt>
      <trkpt lat="43.31221" lon="6.54945">
        <ele>176.2</ele>
        <time>2021-07-11T08:09:54Z</time>
      </trkpt>
      <trkpt lat="43.31236" lon="6.54932">
        <ele>175.3</ele>
        <time>2021-07-11T08:09:56Z</time>
      </trkpt>
      <trkpt lat="43.31268" lon="6.54903">
        <ele>173.6</ele>
        <time>2021-07-11T08:10:00Z</time>
      </trkpt>
      <trkpt lat="43.31276" lon="6.54896">
        <ele>173.1</ele>
        <time>2021-07-11T08:10:01Z</time>
      </trkpt>
      <trkpt lat="43.31284" lon="6.5489">
        <ele>172.7</ele>
        <time>2021-07-11T08:10:02Z</time>
      </trkpt>
      <trkpt lat="43.31293" lon="6.54883">
        <ele>172.2</ele>
        <time>2021-07-11T08:10:03Z</time>
      </trkpt>
      <trkpt lat="43.3132" lon="6.54861">
        <ele>170.7</ele>
        <time>2021-07-11T08:10:06Z</time>
      </trkpt>
      <trkpt lat="43.31374" lon="6.54816">
        <ele>167.7</ele>
        <time>2021-07-11T08:10:12Z</time>
      </trkpt>
      <trkpt lat="43.31407" lon="6.5478">
        <ele>165.2</ele>
        <time>2021-07-11T08:10:16Z</time>
      </trkpt>
      <trkpt lat="43.31415" lon="6.5477">
        <ele>164.7</ele>
        <time>2021-07-11T08:10:17Z</time>
      </trkpt>
      <trkpt lat="43.31423" lon="6.5476">
        <ele>164.1</ele>
        <time>2021-07-11T08:10:18Z</time>
      </trkpt>
      <trkpt lat="43.31431" lon="6.5475">
        <ele>163.6</ele>
        <time>2021-07-11T08:10:19Z</time>
      </trkpt>
      <trkpt lat="43.31441" lon="6.54723">
        <ele>162.6</ele>
        <time>2021-07-11T08:10:21Z</time>
      </trkpt>
      <trkpt lat="43.31444" lon="6.5471">
        <ele>162.1</ele>
        <time>2021-07-11T08:10:22Z</time>
      </trkpt>
      <trkpt lat="43.31445" lon="6.54696">
        <ele>161.6</ele>
        <time>2021-07-11T08:10:23Z</time>
      </trkpt>
      <trkpt lat="43.31445" lon="6.54656">
        <ele>160.3</ele>
        <time>2021-07-11T08:10:26Z</time>
      </trkpt>
      <trkpt lat="43.31443" lon="6.54642">
        <ele>159.8</ele>
        <time>2021-07-11T08:10:27Z</time>
      </trkpt>
      <trkpt lat="43.31436" lon="6.54617">
        <ele>158.9</ele>
        <time>2021-07-11T08:10:29Z</time>
      </trkpt>
      <trkpt lat="43.31429" lon="6.54588">
        <ele>157.9</ele>
        <time>2021-07-11T08:10:31Z</time>
      </trkpt>
      <trkpt lat="43.3143" lon="6.54561">
        <ele>156.9</ele>
        <time>2021-07-11T08:10:33Z</time>
      </trkpt>
      <trkpt lat="43.31437" lon="6.54535">
        <ele>155.8</ele>
        <time>2021-07-11T08:10:35Z</time>
      </trkpt>
      <trkpt lat="43.31443" lon="6.54523">
        <ele>155.1</ele>
        <time>2021-07-11T08:10:36Z</time>
      </trkpt>
      <trkpt lat="43.31451" lon="6.54513">
        <ele>154.5</ele>
        <time>2021-07-11T08:10:37Z</time>
      </trkpt>
      <trkpt lat="43.31467" lon="6.54495">
        <ele>153.2</ele>
        <time>2021-07-11T08:10:39Z</time>
      </trkpt>
      <trkpt lat="43.3148" lon="6.54472">
        <ele>152</ele>
        <time>2021-07-11T08:10:41Z</time>
      </trkpt>
      <trkpt lat="43.31502" lon="6.54409">
        <ele>149.1</ele>
        <time>2021-07-11T08:10:46Z</time>
      </trkpt>
      <trkpt lat="43.31513" lon="6.54372">
        <ele>147.5</ele>
        <time>2021-07-11T08:10:49Z</time>
      </trkpt>
      <trkpt lat="43.31518" lon="6.54361">
        <ele>147</ele>
        <time>2021-07-11T08:10:50Z</time>
      </trkpt>
      <trkpt lat="43.31532" lon="6.5434">
        <ele>145.8</ele>
        <time>2021-07-11T08:10:52Z</time>
      </trkpt>
      <trkpt lat="43.31549" lon="6.5433">
        <ele>144.6</ele>
        <time>2021-07-11T08:10:54Z</time>
      </trkpt>
      <trkpt lat="43.31569" lon="6.54326">
        <ele>143.3</ele>
        <time>2021-07-11T08:10:56Z</time>
      </trkpt>
      <trkpt lat="43.31577" lon="6.54323">
        <ele>142.8</ele>
        <time>2021-07-11T08:10:57Z</time>
      </trkpt>
      <trkpt lat="43.31593" lon="6.54312">
        <ele>141.7</ele>
        <time>2021-07-11T08:10:59Z</time>
      </trkpt>
      <trkpt lat="43.31606" lon="6.54294">
        <ele>140.7</ele>
        <time>2021-07-11T08:11:01Z</time>
      </trkpt>
      <trkpt lat="43.31613" lon="6.54271">
        <ele>139.8</ele>
        <time>2021-07-11T08:11:03Z</time>
      </trkpt>
      <trkpt lat="43.31611" lon="6.54244">
        <ele>139.1</ele>
        <time>2021-07-11T08:11:05Z</time>
      </trkpt>
      <trkpt lat="43.31612" lon="6.54231">
        <ele>138.7</ele>
        <time>2021-07-11T08:11:06Z</time>
      </trkpt>
      <trkpt lat="43.3162" lon="6.54156">
        <ele>136.9</ele>
        <time>2021-07-11T08:11:12Z</time>
      </trkpt>
      <trkpt lat="43.31627" lon="6.54121">
        <ele>136</ele>
        <time>2021-07-11T08:11:15Z</time>
      </trkpt>
      <trkpt lat="43.31631" lon="6.54109">
        <ele>135.7</ele>
        <time>2021-07-11T08:11:16Z</time>
      </trkpt>
      <trkpt lat="43.31637" lon="6.54097">
        <ele>135.3</ele>
        <time>2021-07-11T08:11:17Z</time>
      </trkpt>
      <trkpt lat="43.31672" lon="6.54048">
        <ele>132.6</ele>
        <time>2021-07-11T08:11:22Z</time>
      </trkpt>
      <trkpt lat="43.31691" lon="6.5404">
        <ele>130.8</ele>
        <time>2021-07-11T08:11:24Z</time>
      </trkpt>
      <trkpt lat="43.31711" lon="6.5404">
        <ele>129.2</ele>
        <time>2021-07-11T08:11:26Z</time>
      </trkpt>
      <trkpt lat="43.3177" lon="6.54078">
        <ele>124.4</ele>
        <time>2021-07-11T08:11:32Z</time>
      </trkpt>
      <trkpt lat="43.31799" lon="6.54132">
        <ele>121.3</ele>
        <time>2021-07-11T08:11:36Z</time>
      </trkpt>
      <trkpt lat="43.31806" lon="6.54147">
        <ele>120.5</ele>
        <time>2021-07-11T08:11:37Z</time>
      </trkpt>
      <trkpt lat="43.31814" lon="6.54179">
        <ele>118.9</ele>
        <time>2021-07-11T08:11:39Z</time>
      </trkpt>
      <trkpt lat="43.31818" lon="6.54262">
        <ele>115.8</ele>
        <time>2021-07-11T08:11:44Z</time>
      </trkpt>
      <trkpt lat="43.31819" lon="6.54295">
        <ele>114.5</ele>
        <time>2021-07-11T08:11:46Z</time>
      </trkpt>
      <trkpt lat="43.31819" lon="6.54328">
        <ele>113.2</ele>
        <time>2021-07-11T08:11:48Z</time>
      </trkpt>
      <trkpt lat="43.31809" lon="6.54407">
        <ele>110.1</ele>
        <time>2021-07-11T08:11:53Z</time>
      </trkpt>
      <trkpt lat="43.31798" lon="6.54452">
        <ele>108.3</ele>
        <time>2021-07-11T08:11:56Z</time>
      </trkpt>
      <trkpt lat="43.31786" lon="6.54505">
        <ele>106</ele>
        <time>2021-07-11T08:12:00Z</time>
      </trkpt>
      <trkpt lat="43.31786" lon="6.54528">
        <ele>104.9</ele>
        <time>2021-07-11T08:12:02Z</time>
      </trkpt>
      <trkpt lat="43.31791" lon="6.54543">
        <ele>104.2</ele>
        <time>2021-07-11T08:12:04Z</time>
      </trkpt>
      <trkpt lat="43.318" lon="6.5455">
        <ele>103.4</ele>
        <time>2021-07-11T08:12:06Z</time>
      </trkpt>
      <trkpt lat="43.31816" lon="6.54546">
        <ele>102.2</ele>
        <time>2021-07-11T08:12:08Z</time>
      </trkpt>
      <trkpt lat="43.31837" lon="6.54533">
        <ele>100.6</ele>
        <time>2021-07-11T08:12:10Z</time>
      </trkpt>
      <trkpt lat="43.31898" lon="6.54508">
        <ele>96.6</ele>
        <time>2021-07-11T08:12:16Z</time>
      </trkpt>
      <trkpt lat="43.31932" lon="6.54505">
        <ele>94.4</ele>
        <time>2021-07-11T08:12:19Z</time>
      </trkpt>
      <trkpt lat="43.31989" lon="6.54499">
        <ele>91.5</ele>
        <time>2021-07-11T08:12:24Z</time>
      </trkpt>
      <trkpt lat="43.32011" lon="6.54496">
        <ele>90.4</ele>
        <time>2021-07-11T08:12:26Z</time>
      </trkpt>
      <trkpt lat="43.32036" lon="6.54487">
        <ele>89</ele>
        <time>2021-07-11T08:12:28Z</time>
      </trkpt>
      <trkpt lat="43.32086" lon="6.54456">
        <ele>86.9</ele>
        <time>2021-07-11T08:12:33Z</time>
      </trkpt>
      <trkpt lat="43.32101" lon="6.54449">
        <ele>86.3</ele>
        <time>2021-07-11T08:12:35Z</time>
      </trkpt>
      <trkpt lat="43.32108" lon="6.54449">
        <ele>86.1</ele>
        <time>2021-07-11T08:12:36Z</time>
      </trkpt>
      <trkpt lat="43.32116" lon="6.54452">
        <ele>85.9</ele>
        <time>2021-07-11T08:12:37Z</time>
      </trkpt>
      <trkpt lat="43.32127" lon="6.54467">
        <ele>85.6</ele>
        <time>2021-07-11T08:12:39Z</time>
      </trkpt>
      <trkpt lat="43.32135" lon="6.54486">
        <ele>85.4</ele>
        <time>2021-07-11T08:12:41Z</time>
      </trkpt>
      <trkpt lat="43.32152" lon="6.54508">
        <ele>85.3</ele>
        <time>2021-07-11T08:12:44Z</time>
      </trkpt>
      <trkpt lat="43.32166" lon="6.54516">
        <ele>85.6</ele>
        <time>2021-07-11T08:12:46Z</time>
      </trkpt>
      <trkpt lat="43.32206" lon="6.54527">
        <ele>86.7</ele>
        <time>2021-07-11T08:12:51Z</time>
      </trkpt>
      <trkpt lat="43.32236" lon="6.54549">
        <ele>87.2</ele>
        <time>2021-07-11T08:12:56Z</time>
      </trkpt>
      <trkpt lat="43.32278" lon="6.546">
        <ele>87.4</ele>
        <time>2021-07-11T08:13:04Z</time>
      </trkpt>
      <trkpt lat="43.32286" lon="6.54617">
        <ele>87.5</ele>
        <time>2021-07-11T08:13:06Z</time>
      </trkpt>
      <trkpt lat="43.32308" lon="6.54666">
        <ele>87.8</ele>
        <time>2021-07-11T08:13:12Z</time>
      </trkpt>
      <trkpt lat="43.32312" lon="6.54674">
        <ele>87.8</ele>
        <time>2021-07-11T08:13:13Z</time>
      </trkpt>
      <trkpt lat="43.32316" lon="6.54682">
        <ele>87.9</ele>
        <time>2021-07-11T08:13:14Z</time>
      </trkpt>
      <trkpt lat="43.32319" lon="6.5469">
        <ele>88</ele>
        <time>2021-07-11T08:13:15Z</time>
      </trkpt>
      <trkpt lat="43.32323" lon="6.54698">
        <ele>88</ele>
        <time>2021-07-11T08:13:16Z</time>
      </trkpt>
      <trkpt lat="43.32346" lon="6.54744">
        <ele>88.4</ele>
        <time>2021-07-11T08:13:22Z</time>
      </trkpt>
      <trkpt lat="43.32359" lon="6.54778">
        <ele>88.6</ele>
        <time>2021-07-11T08:13:26Z</time>
      </trkpt>
      <trkpt lat="43.3238" lon="6.5484">
        <ele>88</ele>
        <time>2021-07-11T08:13:33Z</time>
      </trkpt>
      <trkpt lat="43.3239" lon="6.5487">
        <ele>87.7</ele>
        <time>2021-07-11T08:13:36Z</time>
      </trkpt>
      <trkpt lat="43.324" lon="6.54897">
        <ele>87.4</ele>
        <time>2021-07-11T08:13:39Z</time>
      </trkpt>
      <trkpt lat="43.32434" lon="6.5495">
        <ele>86.7</ele>
        <time>2021-07-11T08:13:46Z</time>
      </trkpt>
      <trkpt lat="43.32452" lon="6.5497">
        <ele>86.3</ele>
        <time>2021-07-11T08:13:49Z</time>
      </trkpt>
      <trkpt lat="43.32502" lon="6.54999">
        <ele>85.3</ele>
        <time>2021-07-11T08:13:56Z</time>
      </trkpt>
      <trkpt lat="43.32546" lon="6.55016">
        <ele>84</ele>
        <time>2021-07-11T08:14:01Z</time>
      </trkpt>
      <trkpt lat="43.32573" lon="6.55017">
        <ele>82.6</ele>
        <time>2021-07-11T08:14:04Z</time>
      </trkpt>
      <trkpt lat="43.32593" lon="6.5501">
        <ele>81.3</ele>
        <time>2021-07-11T08:14:06Z</time>
      </trkpt>
      <trkpt lat="43.32611" lon="6.55001">
        <ele>80.1</ele>
        <time>2021-07-11T08:14:07Z</time>
      </trkpt>
      <trkpt lat="43.32658" lon="6.54965">
        <ele>76.9</ele>
        <time>2021-07-11T08:14:13Z</time>
      </trkpt>
      <trkpt lat="43.32667" lon="6.54955">
        <ele>76.2</ele>
        <time>2021-07-11T08:14:14Z</time>
      </trkpt>
      <trkpt lat="43.32685" lon="6.54935">
        <ele>74.8</ele>
        <time>2021-07-11T08:14:16Z</time>
      </trkpt>
      <trkpt lat="43.32726" lon="6.54878">
        <ele>71.6</ele>
        <time>2021-07-11T08:14:21Z</time>
      </trkpt>
      <trkpt lat="43.32767" lon="6.5482">
        <ele>67.9</ele>
        <time>2021-07-11T08:14:26Z</time>
      </trkpt>
      <trkpt lat="43.32777" lon="6.5481">
        <ele>67.1</ele>
        <time>2021-07-11T08:14:27Z</time>
      </trkpt>
      <trkpt lat="43.32838" lon="6.54749">
        <ele>62.7</ele>
        <time>2021-07-11T08:14:33Z</time>
      </trkpt>
      <trkpt lat="43.32868" lon="6.54722">
        <ele>61.9</ele>
        <time>2021-07-11T08:14:36Z</time>
      </trkpt>
      <trkpt lat="43.3291" lon="6.54672">
        <ele>60.2</ele>
        <time>2021-07-11T08:14:41Z</time>
      </trkpt>
      <trkpt lat="43.32939" lon="6.54619">
        <ele>59.7</ele>
        <time>2021-07-11T08:14:46Z</time>
      </trkpt>
      <trkpt lat="43.32941" lon="6.54594">
        <ele>59.5</ele>
        <time>2021-07-11T08:14:48Z</time>
      </trkpt>
      <trkpt lat="43.32936" lon="6.5457">
        <ele>59.3</ele>
        <time>2021-07-11T08:14:50Z</time>
      </trkpt>
      <trkpt lat="43.32926" lon="6.54523">
        <ele>58.8</ele>
        <time>2021-07-11T08:14:54Z</time>
      </trkpt>
      <trkpt lat="43.32927" lon="6.545">
        <ele>58.6</ele>
        <time>2021-07-11T08:14:56Z</time>
      </trkpt>
      <trkpt lat="43.32934" lon="6.54477">
        <ele>58.4</ele>
        <time>2021-07-11T08:14:58Z</time>
      </trkpt>
      <trkpt lat="43.32948" lon="6.54449">
        <ele>58.5</ele>
        <time>2021-07-11T08:15:01Z</time>
      </trkpt>
      <trkpt lat="43.32961" lon="6.54436">
        <ele>58.5</ele>
        <time>2021-07-11T08:15:03Z</time>
      </trkpt>
      <trkpt lat="43.32977" lon="6.54427">
        <ele>58.6</ele>
        <time>2021-07-11T08:15:05Z</time>
      </trkpt>
      <trkpt lat="43.32985" lon="6.54423">
        <ele>58.7</ele>
        <time>2021-07-11T08:15:06Z</time>
      </trkpt>
      <trkpt lat="43.33037" lon="6.54402">
        <ele>60.6</ele>
        <time>2021-07-11T08:15:14Z</time>
      </trkpt>
      <trkpt lat="43.33046" lon="6.54398">
        <ele>61.1</ele>
        <time>2021-07-11T08:15:16Z</time>
      </trkpt>
      <trkpt lat="43.33068" lon="6.54387">
        <ele>62.2</ele>
        <time>2021-07-11T08:15:21Z</time>
      </trkpt>
      <trkpt lat="43.33091" lon="6.54379">
        <ele>63.4</ele>
        <time>2021-07-11T08:15:26Z</time>
      </trkpt>
      <trkpt lat="43.33096" lon="6.54377">
        <ele>63.7</ele>
        <time>2021-07-11T08:15:27Z</time>
      </trkpt>
      <trkpt lat="43.33119" lon="6.54382">
        <ele>64.8</ele>
        <time>2021-07-11T08:15:33Z</time>
      </trkpt>
      <trkpt lat="43.3313" lon="6.5439">
        <ele>65.4</ele>
        <time>2021-07-11T08:15:36Z</time>
      </trkpt>
      <trkpt lat="43.33165" lon="6.5442">
        <ele>67.2</ele>
        <time>2021-07-11T08:15:46Z</time>
      </trkpt>
      <trkpt lat="43.33182" lon="6.54447">
        <ele>68.1</ele>
        <time>2021-07-11T08:15:52Z</time>
      </trkpt>
      <trkpt lat="43.33188" lon="6.5447">
        <ele>68.9</ele>
        <time>2021-07-11T08:15:56Z</time>
      </trkpt>
      <trkpt lat="43.33198" lon="6.54517">
        <ele>70.6</ele>
        <time>2021-07-11T08:16:06Z</time>
      </trkpt>
      <trkpt lat="43.33204" lon="6.54571">
        <ele>72.2</ele>
        <time>2021-07-11T08:16:16Z</time>
      </trkpt>
      <trkpt lat="43.3321" lon="6.5463">
        <ele>73.3</ele>
        <time>2021-07-11T08:16:26Z</time>
      </trkpt>
      <trkpt lat="43.33218" lon="6.54708">
        <ele>72.9</ele>
        <time>2021-07-11T08:16:36Z</time>
      </trkpt>
      <trkpt lat="43.33238" lon="6.54782">
        <ele>72.6</ele>
        <time>2021-07-11T08:16:45Z</time>
      </trkpt>
      <trkpt lat="43.33241" lon="6.5479">
        <ele>72.6</ele>
        <time>2021-07-11T08:16:46Z</time>
      </trkpt>
      <trkpt lat="43.33253" lon="6.54809">
        <ele>72.7</ele>
        <time>2021-07-11T08:16:49Z</time>
      </trkpt>
      <trkpt lat="43.33262" lon="6.5482">
        <ele>72.8</ele>
        <time>2021-07-11T08:16:51Z</time>
      </trkpt>
      <trkpt lat="43.33273" lon="6.54826">
        <ele>72.9</ele>
        <time>2021-07-11T08:16:53Z</time>
      </trkpt>
      <trkpt lat="43.33285" lon="6.54829">
        <ele>72.9</ele>
        <time>2021-07-11T08:16:55Z</time>
      </trkpt>
      <trkpt lat="43.33291" lon="6.54828">
        <ele>72.9</ele>
        <time>2021-07-11T08:16:56Z</time>
      </trkpt>
      <trkpt lat="43.33297" lon="6.54827">
        <ele>72.9</ele>
        <time>2021-07-11T08:16:57Z</time>
      </trkpt>
      <trkpt lat="43.33307" lon="6.54821">
        <ele>72.8</ele>
        <time>2021-07-11T08:16:59Z</time>
      </trkpt>
      <trkpt lat="43.33343" lon="6.54781">
        <ele>72.7</ele>
        <time>2021-07-11T08:17:06Z</time>
      </trkpt>
      <trkpt lat="43.33385" lon="6.5473">
        <ele>72.5</ele>
        <time>2021-07-11T08:17:15Z</time>
      </trkpt>
      <trkpt lat="43.3339" lon="6.54724">
        <ele>72.5</ele>
        <time>2021-07-11T08:17:16Z</time>
      </trkpt>
      <trkpt lat="43.33433" lon="6.54672">
        <ele>73.1</ele>
        <time>2021-07-11T08:17:25Z</time>
      </trkpt>
      <trkpt lat="43.33438" lon="6.54666">
        <ele>73.1</ele>
        <time>2021-07-11T08:17:26Z</time>
      </trkpt>
      <trkpt lat="43.33477" lon="6.54619">
        <ele>73.9</ele>
        <time>2021-07-11T08:17:34Z</time>
      </trkpt>
      <trkpt lat="43.33488" lon="6.54607">
        <ele>74.1</ele>
        <time>2021-07-11T08:17:36Z</time>
      </trkpt>
      <trkpt lat="43.33514" lon="6.54586">
        <ele>74.4</ele>
        <time>2021-07-11T08:17:41Z</time>
      </trkpt>
      <trkpt lat="43.33521" lon="6.54584">
        <ele>74.4</ele>
        <time>2021-07-11T08:17:42Z</time>
      </trkpt>
      <trkpt lat="43.33534" lon="6.54582">
        <ele>74.3</ele>
        <time>2021-07-11T08:17:44Z</time>
      </trkpt>
      <trkpt lat="43.33547" lon="6.54584">
        <ele>74.3</ele>
        <time>2021-07-11T08:17:46Z</time>
      </trkpt>
      <trkpt lat="43.33554" lon="6.54585">
        <ele>74.3</ele>
        <time>2021-07-11T08:17:47Z</time>
      </trkpt>
      <trkpt lat="43.33609" lon="6.54611">
        <ele>74</ele>
        <time>2021-07-11T08:17:55Z</time>
      </trkpt>
      <trkpt lat="43.33616" lon="6.54614">
        <ele>74</ele>
        <time>2021-07-11T08:17:56Z</time>
      </trkpt>
      <trkpt lat="43.33662" lon="6.54638">
        <ele>73.6</ele>
        <time>2021-07-11T08:18:03Z</time>
      </trkpt>
      <trkpt lat="43.33675" lon="6.54652">
        <ele>73.5</ele>
        <time>2021-07-11T08:18:06Z</time>
      </trkpt>
      <trkpt lat="43.33686" lon="6.54653">
        <ele>73.5</ele>
        <time>2021-07-11T08:18:08Z</time>
      </trkpt>
      <trkpt lat="43.33696" lon="6.54654">
        <ele>73.6</ele>
        <time>2021-07-11T08:18:10Z</time>
      </trkpt>
      <trkpt lat="43.33717" lon="6.54661">
        <ele>73.8</ele>
        <time>2021-07-11T08:18:14Z</time>
      </trkpt>
      <trkpt lat="43.33729" lon="6.54668">
        <ele>73.8</ele>
        <time>2021-07-11T08:18:16Z</time>
      </trkpt>
      <trkpt lat="43.33779" lon="6.54693">
        <ele>73.7</ele>
        <time>2021-07-11T08:18:25Z</time>
      </trkpt>
      <trkpt lat="43.33783" lon="6.54693">
        <ele>73.8</ele>
        <time>2021-07-11T08:18:26Z</time>
      </trkpt>
      <trkpt lat="43.33787" lon="6.5469">
        <ele>73.8</ele>
        <time>2021-07-11T08:18:27Z</time>
      </trkpt>
      <trkpt lat="43.33791" lon="6.5468">
        <ele>73.9</ele>
        <time>2021-07-11T08:18:29Z</time>
      </trkpt>
      <trkpt lat="43.33795" lon="6.54668">
        <ele>74</ele>
        <time>2021-07-11T08:18:31Z</time>
      </trkpt>
      <trkpt lat="43.33803" lon="6.5466">
        <ele>74.2</ele>
        <time>2021-07-11T08:18:33Z</time>
      </trkpt>
      <trkpt lat="43.33811" lon="6.54653">
        <ele>74.3</ele>
        <time>2021-07-11T08:18:35Z</time>
      </trkpt>
      <trkpt lat="43.33814" lon="6.54648">
        <ele>74.4</ele>
        <time>2021-07-11T08:18:36Z</time>
      </trkpt>
      <trkpt lat="43.33817" lon="6.54641">
        <ele>74.4</ele>
        <time>2021-07-11T08:18:37Z</time>
      </trkpt>
      <trkpt lat="43.3382" lon="6.54627">
        <ele>74.6</ele>
        <time>2021-07-11T08:18:39Z</time>
      </trkpt>
      <trkpt lat="43.33822" lon="6.54613">
        <ele>74.8</ele>
        <time>2021-07-11T08:18:41Z</time>
      </trkpt>
      <trkpt lat="43.33828" lon="6.54602">
        <ele>75</ele>
        <time>2021-07-11T08:18:43Z</time>
      </trkpt>
      <trkpt lat="43.33837" lon="6.54593">
        <ele>75.1</ele>
        <time>2021-07-11T08:18:45Z</time>
      </trkpt>
      <trkpt lat="43.33842" lon="6.54588">
        <ele>75.1</ele>
        <time>2021-07-11T08:18:46Z</time>
      </trkpt>
      <trkpt lat="43.33879" lon="6.54559">
        <ele>75.8</ele>
        <time>2021-07-11T08:18:53Z</time>
      </trkpt>
      <trkpt lat="43.33884" lon="6.54563">
        <ele>75.6</ele>
        <time>2021-07-11T08:18:56Z</time>
      </trkpt>
      <trkpt lat="43.33885" lon="6.54624">
        <ele>74.9</ele>
        <time>2021-07-11T08:19:06Z</time>
      </trkpt>
      <trkpt lat="43.33882" lon="6.54671">
        <ele>74</ele>
        <time>2021-07-11T08:19:16Z</time>
      </trkpt>
      <trkpt lat="43.33878" lon="6.54679">
        <ele>73.9</ele>
        <time>2021-07-11T08:19:26Z</time>
      </trkpt>
      <trkpt lat="43.33878" lon="6.54678">
        <ele>73.8</ele>
        <time>2021-07-11T08:19:36Z</time>
      </trkpt>
      <trkpt lat="43.3388" lon="6.54683">
        <ele>73.7</ele>
        <time>2021-07-11T08:19:40Z</time>
      </trkpt>
      <trkpt lat="43.33881" lon="6.54698">
        <ele>73.5</ele>
        <time>2021-07-11T08:19:45Z</time>
      </trkpt>
      <trkpt lat="43.33881" lon="6.54701">
        <ele>73.4</ele>
        <time>2021-07-11T08:19:46Z</time>
      </trkpt>
      <trkpt lat="43.33892" lon="6.54737">
        <ele>72.9</ele>
        <time>2021-07-11T08:19:56Z</time>
      </trkpt>
      <trkpt lat="43.33899" lon="6.54749">
        <ele>72.8</ele>
        <time>2021-07-11T08:20:05Z</time>
      </trkpt>
      <trkpt lat="43.33896" lon="6.5476">
        <ele>72.6</ele>
        <time>2021-07-11T08:23:02Z</time>
      </trkpt>
      <trkpt lat="43.33898" lon="6.54754">
        <ele>72.7</ele>
        <time>2021-07-11T08:23:06Z</time>
      </trkpt>
      <trkpt lat="43.33901" lon="6.5475">
        <ele>72.7</ele>
        <time>2021-07-11T08:23:08Z</time>
      </trkpt>
      <trkpt lat="43.33904" lon="6.54747">
        <ele>72.8</ele>
        <time>2021-07-11T08:23:09Z</time>
      </trkpt>
      <trkpt lat="43.33906" lon="6.54746">
        <ele>72.8</ele>
        <time>2021-07-11T08:23:10Z</time>
      </trkpt>
      <trkpt lat="43.33912" lon="6.54745">
        <ele>73</ele>
        <time>2021-07-11T08:23:12Z</time>
      </trkpt>
      <trkpt lat="43.33915" lon="6.54745">
        <ele>73.1</ele>
        <time>2021-07-11T08:23:13Z</time>
      </trkpt>
      <trkpt lat="43.33919" lon="6.54746">
        <ele>73.1</ele>
        <time>2021-07-11T08:23:14Z</time>
      </trkpt>
      <trkpt lat="43.33924" lon="6.54745">
        <ele>73.2</ele>
        <time>2021-07-11T08:23:15Z</time>
      </trkpt>
      <trkpt lat="43.33928" lon="6.54744">
        <ele>73.3</ele>
        <time>2021-07-11T08:23:16Z</time>
      </trkpt>
      <trkpt lat="43.33932" lon="6.54743">
        <ele>73.4</ele>
        <time>2021-07-11T08:23:17Z</time>
      </trkpt>
      <trkpt lat="43.33936" lon="6.54743">
        <ele>73.4</ele>
        <time>2021-07-11T08:23:18Z</time>
      </trkpt>
      <trkpt lat="43.33948" lon="6.54741">
        <ele>73.7</ele>
        <time>2021-07-11T08:23:21Z</time>
      </trkpt>
      <trkpt lat="43.33969" lon="6.54739">
        <ele>74.3</ele>
        <time>2021-07-11T08:23:26Z</time>
      </trkpt>
      <trkpt lat="43.33973" lon="6.54738">
        <ele>74.4</ele>
        <time>2021-07-11T08:23:27Z</time>
      </trkpt>
      <trkpt lat="43.33988" lon="6.54736">
        <ele>74.9</ele>
        <time>2021-07-11T08:23:31Z</time>
      </trkpt>
      <trkpt lat="43.33992" lon="6.54735">
        <ele>75</ele>
        <time>2021-07-11T08:23:32Z</time>
      </trkpt>
      <trkpt lat="43.33997" lon="6.54735">
        <ele>75.1</ele>
        <time>2021-07-11T08:23:33Z</time>
      </trkpt>
      <trkpt lat="43.34" lon="6.54734">
        <ele>75.2</ele>
        <time>2021-07-11T08:23:34Z</time>
      </trkpt>
      <trkpt lat="43.34007" lon="6.5473">
        <ele>75.4</ele>
        <time>2021-07-11T08:23:36Z</time>
      </trkpt>
      <trkpt lat="43.34047" lon="6.54712">
        <ele>76.9</ele>
        <time>2021-07-11T08:23:46Z</time>
      </trkpt>
      <trkpt lat="43.34055" lon="6.5471">
        <ele>77.3</ele>
        <time>2021-07-11T08:23:48Z</time>
      </trkpt>
      <trkpt lat="43.34062" lon="6.54707">
        <ele>77.7</ele>
        <time>2021-07-11T08:23:50Z</time>
      </trkpt>
      <trkpt lat="43.34074" lon="6.54701">
        <ele>78.4</ele>
        <time>2021-07-11T08:23:53Z</time>
      </trkpt>
      <trkpt lat="43.34084" lon="6.54696">
        <ele>78.9</ele>
        <time>2021-07-11T08:23:56Z</time>
      </trkpt>
      <trkpt lat="43.3409" lon="6.54691">
        <ele>79.3</ele>
        <time>2021-07-11T08:23:58Z</time>
      </trkpt>
      <trkpt lat="43.34095" lon="6.54676">
        <ele>79.8</ele>
        <time>2021-07-11T08:24:00Z</time>
      </trkpt>
      <trkpt lat="43.34098" lon="6.54665">
        <ele>80.2</ele>
        <time>2021-07-11T08:24:02Z</time>
      </trkpt>
      <trkpt lat="43.34099" lon="6.5466">
        <ele>80.3</ele>
        <time>2021-07-11T08:24:03Z</time>
      </trkpt>
      <trkpt lat="43.341" lon="6.54648">
        <ele>80.6</ele>
        <time>2021-07-11T08:24:06Z</time>
      </trkpt>
      <trkpt lat="43.34098" lon="6.5464">
        <ele>80.6</ele>
        <time>2021-07-11T08:24:08Z</time>
      </trkpt>
      <trkpt lat="43.34093" lon="6.54632">
        <ele>80.6</ele>
        <time>2021-07-11T08:24:10Z</time>
      </trkpt>
      <trkpt lat="43.34074" lon="6.54604">
        <ele>80.8</ele>
        <time>2021-07-11T08:24:16Z</time>
      </trkpt>
      <trkpt lat="43.34038" lon="6.54553">
        <ele>81.5</ele>
        <time>2021-07-11T08:24:26Z</time>
      </trkpt>
      <trkpt lat="43.33999" lon="6.54496">
        <ele>82.1</ele>
        <time>2021-07-11T08:24:36Z</time>
      </trkpt>
      <trkpt lat="43.33962" lon="6.54441">
        <ele>82.6</ele>
        <time>2021-07-11T08:24:46Z</time>
      </trkpt>
      <trkpt lat="43.33929" lon="6.54389">
        <ele>83.8</ele>
        <time>2021-07-11T08:24:56Z</time>
      </trkpt>
      <trkpt lat="43.33898" lon="6.5435">
        <ele>85.8</ele>
        <time>2021-07-11T08:25:06Z</time>
      </trkpt>
      <trkpt lat="43.33874" lon="6.54309">
        <ele>87.9</ele>
        <time>2021-07-11T08:25:16Z</time>
      </trkpt>
      <trkpt lat="43.3387" lon="6.54293">
        <ele>88.6</ele>
        <time>2021-07-11T08:25:19Z</time>
      </trkpt>
      <trkpt lat="43.3387" lon="6.54287">
        <ele>88.8</ele>
        <time>2021-07-11T08:25:20Z</time>
      </trkpt>
      <trkpt lat="43.33869" lon="6.54282">
        <ele>89.1</ele>
        <time>2021-07-11T08:25:21Z</time>
      </trkpt>
      <trkpt lat="43.33868" lon="6.54277">
        <ele>89.3</ele>
        <time>2021-07-11T08:25:22Z</time>
      </trkpt>
      <trkpt lat="43.33868" lon="6.54271">
        <ele>89.6</ele>
        <time>2021-07-11T08:25:23Z</time>
      </trkpt>
      <trkpt lat="43.33867" lon="6.54266">
        <ele>89.8</ele>
        <time>2021-07-11T08:25:24Z</time>
      </trkpt>
      <trkpt lat="43.33866" lon="6.54261">
        <ele>90</ele>
        <time>2021-07-11T08:25:25Z</time>
      </trkpt>
      <trkpt lat="43.33866" lon="6.54257">
        <ele>90.2</ele>
        <time>2021-07-11T08:25:26Z</time>
      </trkpt>
      <trkpt lat="43.33864" lon="6.54247">
        <ele>90.7</ele>
        <time>2021-07-11T08:25:28Z</time>
      </trkpt>
      <trkpt lat="43.33859" lon="6.54239">
        <ele>91.1</ele>
        <time>2021-07-11T08:25:30Z</time>
      </trkpt>
      <trkpt lat="43.3385" lon="6.54231">
        <ele>91.7</ele>
        <time>2021-07-11T08:25:33Z</time>
      </trkpt>
      <trkpt lat="43.33839" lon="6.54225">
        <ele>92.4</ele>
        <time>2021-07-11T08:25:36Z</time>
      </trkpt>
      <trkpt lat="43.33807" lon="6.54216">
        <ele>94.2</ele>
        <time>2021-07-11T08:25:44Z</time>
      </trkpt>
      <trkpt lat="43.33801" lon="6.54213">
        <ele>94.6</ele>
        <time>2021-07-11T08:25:46Z</time>
      </trkpt>
      <trkpt lat="43.33772" lon="6.54194">
        <ele>96.5</ele>
        <time>2021-07-11T08:25:56Z</time>
      </trkpt>
      <trkpt lat="43.33765" lon="6.54172">
        <ele>97.4</ele>
        <time>2021-07-11T08:26:01Z</time>
      </trkpt>
      <trkpt lat="43.33761" lon="6.54147">
        <ele>98.5</ele>
        <time>2021-07-11T08:26:06Z</time>
      </trkpt>
      <trkpt lat="43.33758" lon="6.54122">
        <ele>99.6</ele>
        <time>2021-07-11T08:26:11Z</time>
      </trkpt>
      <trkpt lat="43.33754" lon="6.54101">
        <ele>100.4</ele>
        <time>2021-07-11T08:26:16Z</time>
      </trkpt>
      <trkpt lat="43.33737" lon="6.54067">
        <ele>102.3</ele>
        <time>2021-07-11T08:26:26Z</time>
      </trkpt>
      <trkpt lat="43.33725" lon="6.54047">
        <ele>103.6</ele>
        <time>2021-07-11T08:26:33Z</time>
      </trkpt>
      <trkpt lat="43.3372" lon="6.5404">
        <ele>104</ele>
        <time>2021-07-11T08:26:36Z</time>
      </trkpt>
      <trkpt lat="43.337" lon="6.54006">
        <ele>106.1</ele>
        <time>2021-07-11T08:26:46Z</time>
      </trkpt>
      <trkpt lat="43.33682" lon="6.53947">
        <ele>108.7</ele>
        <time>2021-07-11T08:26:56Z</time>
      </trkpt>
      <trkpt lat="43.3367" lon="6.5391">
        <ele>109.7</ele>
        <time>2021-07-11T08:27:03Z</time>
      </trkpt>
      <trkpt lat="43.33666" lon="6.53894">
        <ele>110</ele>
        <time>2021-07-11T08:27:06Z</time>
      </trkpt>
      <trkpt lat="43.33657" lon="6.53866">
        <ele>110.4</ele>
        <time>2021-07-11T08:27:12Z</time>
      </trkpt>
      <trkpt lat="43.33647" lon="6.53848">
        <ele>110.5</ele>
        <time>2021-07-11T08:27:16Z</time>
      </trkpt>
      <trkpt lat="43.33621" lon="6.53814">
        <ele>110.3</ele>
        <time>2021-07-11T08:27:22Z</time>
      </trkpt>
      <trkpt lat="43.33603" lon="6.53789">
        <ele>109.9</ele>
        <time>2021-07-11T08:27:26Z</time>
      </trkpt>
      <trkpt lat="43.336" lon="6.5378">
        <ele>109.8</ele>
        <time>2021-07-11T08:27:27Z</time>
      </trkpt>
      <trkpt lat="43.33595" lon="6.53763">
        <ele>109.5</ele>
        <time>2021-07-11T08:27:29Z</time>
      </trkpt>
      <trkpt lat="43.33594" lon="6.53745">
        <ele>109.3</ele>
        <time>2021-07-11T08:27:31Z</time>
      </trkpt>
      <trkpt lat="43.33593" lon="6.53697">
        <ele>109.2</ele>
        <time>2021-07-11T08:27:36Z</time>
      </trkpt>
      <trkpt lat="43.33598" lon="6.53621">
        <ele>109.7</ele>
        <time>2021-07-11T08:27:45Z</time>
      </trkpt>
      <trkpt lat="43.33598" lon="6.53612">
        <ele>109.9</ele>
        <time>2021-07-11T08:27:46Z</time>
      </trkpt>
      <trkpt lat="43.33611" lon="6.5354">
        <ele>112.2</ele>
        <time>2021-07-11T08:27:56Z</time>
      </trkpt>
      <trkpt lat="43.33624" lon="6.53485">
        <ele>115</ele>
        <time>2021-07-11T08:28:06Z</time>
      </trkpt>
      <trkpt lat="43.33631" lon="6.5346">
        <ele>116.3</ele>
        <time>2021-07-11T08:28:11Z</time>
      </trkpt>
      <trkpt lat="43.33637" lon="6.53436">
        <ele>117.5</ele>
        <time>2021-07-11T08:28:16Z</time>
      </trkpt>
      <trkpt lat="43.33651" lon="6.5339">
        <ele>119.9</ele>
        <time>2021-07-11T08:28:26Z</time>
      </trkpt>
      <trkpt lat="43.33665" lon="6.5334">
        <ele>122</ele>
        <time>2021-07-11T08:28:36Z</time>
      </trkpt>
      <trkpt lat="43.33684" lon="6.53298">
        <ele>123.8</ele>
        <time>2021-07-11T08:28:46Z</time>
      </trkpt>
      <trkpt lat="43.33707" lon="6.53273">
        <ele>125.5</ele>
        <time>2021-07-11T08:28:56Z</time>
      </trkpt>
      <trkpt lat="43.33733" lon="6.53249">
        <ele>127.6</ele>
        <time>2021-07-11T08:29:06Z</time>
      </trkpt>
      <trkpt lat="43.33758" lon="6.53234">
        <ele>129.5</ele>
        <time>2021-07-11T08:29:14Z</time>
      </trkpt>
      <trkpt lat="43.33765" lon="6.53234">
        <ele>129.9</ele>
        <time>2021-07-11T08:29:16Z</time>
      </trkpt>
      <trkpt lat="43.33797" lon="6.53241">
        <ele>131.4</ele>
        <time>2021-07-11T08:29:26Z</time>
      </trkpt>
      <trkpt lat="43.33837" lon="6.53255">
        <ele>132.9</ele>
        <time>2021-07-11T08:29:36Z</time>
      </trkpt>
      <trkpt lat="43.33854" lon="6.53259">
        <ele>133.5</ele>
        <time>2021-07-11T08:29:40Z</time>
      </trkpt>
      <trkpt lat="43.33876" lon="6.53267">
        <ele>134.4</ele>
        <time>2021-07-11T08:29:46Z</time>
      </trkpt>
      <trkpt lat="43.33913" lon="6.53277">
        <ele>136</ele>
        <time>2021-07-11T08:29:56Z</time>
      </trkpt>
      <trkpt lat="43.33947" lon="6.53283">
        <ele>137.9</ele>
        <time>2021-07-11T08:30:05Z</time>
      </trkpt>
      <trkpt lat="43.33951" lon="6.53283">
        <ele>138.1</ele>
        <time>2021-07-11T08:30:06Z</time>
      </trkpt>
      <trkpt lat="43.33979" lon="6.5328">
        <ele>139.7</ele>
        <time>2021-07-11T08:30:13Z</time>
      </trkpt>
      <trkpt lat="43.3399" lon="6.53279">
        <ele>140.3</ele>
        <time>2021-07-11T08:30:16Z</time>
      </trkpt>
      <trkpt lat="43.34005" lon="6.53276">
        <ele>141.1</ele>
        <time>2021-07-11T08:30:20Z</time>
      </trkpt>
      <trkpt lat="43.34027" lon="6.5327">
        <ele>142.1</ele>
        <time>2021-07-11T08:30:26Z</time>
      </trkpt>
      <trkpt lat="43.34037" lon="6.53263">
        <ele>142.7</ele>
        <time>2021-07-11T08:30:29Z</time>
      </trkpt>
      <trkpt lat="43.34046" lon="6.53253">
        <ele>143.2</ele>
        <time>2021-07-11T08:30:32Z</time>
      </trkpt>
      <trkpt lat="43.34049" lon="6.53249">
        <ele>143.3</ele>
        <time>2021-07-11T08:30:33Z</time>
      </trkpt>
      <trkpt lat="43.34053" lon="6.53239">
        <ele>143.6</ele>
        <time>2021-07-11T08:30:35Z</time>
      </trkpt>
      <trkpt lat="43.34054" lon="6.53233">
        <ele>143.7</ele>
        <time>2021-07-11T08:30:36Z</time>
      </trkpt>
      <trkpt lat="43.34062" lon="6.53205">
        <ele>144.4</ele>
        <time>2021-07-11T08:30:41Z</time>
      </trkpt>
      <trkpt lat="43.34065" lon="6.53194">
        <ele>144.6</ele>
        <time>2021-07-11T08:30:43Z</time>
      </trkpt>
      <trkpt lat="43.3407" lon="6.5318">
        <ele>145</ele>
        <time>2021-07-11T08:30:46Z</time>
      </trkpt>
      <trkpt lat="43.34083" lon="6.53166">
        <ele>145.6</ele>
        <time>2021-07-11T08:30:50Z</time>
      </trkpt>
      <trkpt lat="43.34096" lon="6.5316">
        <ele>145.9</ele>
        <time>2021-07-11T08:30:53Z</time>
      </trkpt>
      <trkpt lat="43.34108" lon="6.53156">
        <ele>146.3</ele>
        <time>2021-07-11T08:30:56Z</time>
      </trkpt>
      <trkpt lat="43.34139" lon="6.53144">
        <ele>147.2</ele>
        <time>2021-07-11T08:31:03Z</time>
      </trkpt>
      <trkpt lat="43.34146" lon="6.53136">
        <ele>147.4</ele>
        <time>2021-07-11T08:31:05Z</time>
      </trkpt>
      <trkpt lat="43.3415" lon="6.53132">
        <ele>147.6</ele>
        <time>2021-07-11T08:31:06Z</time>
      </trkpt>
      <trkpt lat="43.34152" lon="6.53127">
        <ele>147.7</ele>
        <time>2021-07-11T08:31:07Z</time>
      </trkpt>
      <trkpt lat="43.34169" lon="6.53073">
        <ele>149.2</ele>
        <time>2021-07-11T08:31:16Z</time>
      </trkpt>
      <trkpt lat="43.34172" lon="6.53061">
        <ele>149.5</ele>
        <time>2021-07-11T08:31:18Z</time>
      </trkpt>
      <trkpt lat="43.34182" lon="6.53046">
        <ele>150.1</ele>
        <time>2021-07-11T08:31:21Z</time>
      </trkpt>
      <trkpt lat="43.34197" lon="6.53033">
        <ele>150.8</ele>
        <time>2021-07-11T08:31:25Z</time>
      </trkpt>
      <trkpt lat="43.342" lon="6.5303">
        <ele>151</ele>
        <time>2021-07-11T08:31:26Z</time>
      </trkpt>
      <trkpt lat="43.34203" lon="6.53025">
        <ele>151.1</ele>
        <time>2021-07-11T08:31:27Z</time>
      </trkpt>
      <trkpt lat="43.34207" lon="6.53016">
        <ele>151.5</ele>
        <time>2021-07-11T08:31:29Z</time>
      </trkpt>
      <trkpt lat="43.3421" lon="6.53004">
        <ele>151.8</ele>
        <time>2021-07-11T08:31:31Z</time>
      </trkpt>
      <trkpt lat="43.3421" lon="6.52992">
        <ele>152.2</ele>
        <time>2021-07-11T08:31:33Z</time>
      </trkpt>
      <trkpt lat="43.34206" lon="6.5298">
        <ele>152.7</ele>
        <time>2021-07-11T08:31:35Z</time>
      </trkpt>
      <trkpt lat="43.34204" lon="6.52975">
        <ele>152.9</ele>
        <time>2021-07-11T08:31:36Z</time>
      </trkpt>
      <trkpt lat="43.34179" lon="6.52933">
        <ele>154.3</ele>
        <time>2021-07-11T08:31:46Z</time>
      </trkpt>
      <trkpt lat="43.34155" lon="6.52895">
        <ele>156.2</ele>
        <time>2021-07-11T08:31:56Z</time>
      </trkpt>
      <trkpt lat="43.34125" lon="6.52862">
        <ele>158.2</ele>
        <time>2021-07-11T08:32:06Z</time>
      </trkpt>
      <trkpt lat="43.34118" lon="6.52856">
        <ele>158.6</ele>
        <time>2021-07-11T08:32:08Z</time>
      </trkpt>
      <trkpt lat="43.34109" lon="6.52849">
        <ele>159.1</ele>
        <time>2021-07-11T08:32:11Z</time>
      </trkpt>
      <trkpt lat="43.34093" lon="6.52835">
        <ele>160.1</ele>
        <time>2021-07-11T08:32:16Z</time>
      </trkpt>
      <trkpt lat="43.34067" lon="6.52814">
        <ele>161.6</ele>
        <time>2021-07-11T08:32:24Z</time>
      </trkpt>
      <trkpt lat="43.34059" lon="6.52811">
        <ele>162</ele>
        <time>2021-07-11T08:32:26Z</time>
      </trkpt>
      <trkpt lat="43.34022" lon="6.52792">
        <ele>164.1</ele>
        <time>2021-07-11T08:32:36Z</time>
      </trkpt>
      <trkpt lat="43.34009" lon="6.52784">
        <ele>164.9</ele>
        <time>2021-07-11T08:32:40Z</time>
      </trkpt>
      <trkpt lat="43.33987" lon="6.52776">
        <ele>166.1</ele>
        <time>2021-07-11T08:32:46Z</time>
      </trkpt>
      <trkpt lat="43.33947" lon="6.52776">
        <ele>168.3</ele>
        <time>2021-07-11T08:32:56Z</time>
      </trkpt>
      <trkpt lat="43.3391" lon="6.52781">
        <ele>170.2</ele>
        <time>2021-07-11T08:33:06Z</time>
      </trkpt>
      <trkpt lat="43.33878" lon="6.52798">
        <ele>171.7</ele>
        <time>2021-07-11T08:33:16Z</time>
      </trkpt>
      <trkpt lat="43.3386" lon="6.52803">
        <ele>172.4</ele>
        <time>2021-07-11T08:33:21Z</time>
      </trkpt>
      <trkpt lat="43.33844" lon="6.52794">
        <ele>173.2</ele>
        <time>2021-07-11T08:33:26Z</time>
      </trkpt>
      <trkpt lat="43.33835" lon="6.52785">
        <ele>173.7</ele>
        <time>2021-07-11T08:33:29Z</time>
      </trkpt>
      <trkpt lat="43.33819" lon="6.52758">
        <ele>174.8</ele>
        <time>2021-07-11T08:33:36Z</time>
      </trkpt>
      <trkpt lat="43.33813" lon="6.52708">
        <ele>176.3</ele>
        <time>2021-07-11T08:33:46Z</time>
      </trkpt>
      <trkpt lat="43.3381" lon="6.52672">
        <ele>177.4</ele>
        <time>2021-07-11T08:33:53Z</time>
      </trkpt>
      <trkpt lat="43.3381" lon="6.52656">
        <ele>177.9</ele>
        <time>2021-07-11T08:33:56Z</time>
      </trkpt>
      <trkpt lat="43.33841" lon="6.52635">
        <ele>179</ele>
        <time>2021-07-11T08:34:06Z</time>
      </trkpt>
      <trkpt lat="43.33868" lon="6.52625">
        <ele>179.7</ele>
        <time>2021-07-11T08:34:13Z</time>
      </trkpt>
      <trkpt lat="43.33879" lon="6.5262">
        <ele>180</ele>
        <time>2021-07-11T08:34:16Z</time>
      </trkpt>
      <trkpt lat="43.33919" lon="6.52611">
        <ele>181.6</ele>
        <time>2021-07-11T08:34:26Z</time>
      </trkpt>
      <trkpt lat="43.33961" lon="6.52603">
        <ele>183.3</ele>
        <time>2021-07-11T08:34:36Z</time>
      </trkpt>
      <trkpt lat="43.34001" lon="6.52593">
        <ele>185.1</ele>
        <time>2021-07-11T08:34:46Z</time>
      </trkpt>
      <trkpt lat="43.34014" lon="6.52554">
        <ele>186.6</ele>
        <time>2021-07-11T08:34:55Z</time>
      </trkpt>
      <trkpt lat="43.34013" lon="6.52549">
        <ele>186.7</ele>
        <time>2021-07-11T08:34:56Z</time>
      </trkpt>
      <trkpt lat="43.33997" lon="6.52514">
        <ele>187.7</ele>
        <time>2021-07-11T08:35:04Z</time>
      </trkpt>
      <trkpt lat="43.33994" lon="6.52502">
        <ele>187.9</ele>
        <time>2021-07-11T08:35:06Z</time>
      </trkpt>
      <trkpt lat="43.33991" lon="6.52484">
        <ele>188.3</ele>
        <time>2021-07-11T08:35:09Z</time>
      </trkpt>
      <trkpt lat="43.33985" lon="6.52443">
        <ele>189.1</ele>
        <time>2021-07-11T08:35:16Z</time>
      </trkpt>
      <trkpt lat="43.33972" lon="6.52414">
        <ele>189.9</ele>
        <time>2021-07-11T08:35:22Z</time>
      </trkpt>
      <trkpt lat="43.33962" lon="6.52404">
        <ele>190.4</ele>
        <time>2021-07-11T08:35:25Z</time>
      </trkpt>
      <trkpt lat="43.33958" lon="6.52402">
        <ele>190.5</ele>
        <time>2021-07-11T08:35:26Z</time>
      </trkpt>
      <trkpt lat="43.33918" lon="6.52375">
        <ele>192.3</ele>
        <time>2021-07-11T08:35:36Z</time>
      </trkpt>
      <trkpt lat="43.33907" lon="6.52359">
        <ele>192.9</ele>
        <time>2021-07-11T08:35:40Z</time>
      </trkpt>
      <trkpt lat="43.33897" lon="6.5233">
        <ele>194</ele>
        <time>2021-07-11T08:35:46Z</time>
      </trkpt>
      <trkpt lat="43.33893" lon="6.5231">
        <ele>194.7</ele>
        <time>2021-07-11T08:35:50Z</time>
      </trkpt>
      <trkpt lat="43.3389" lon="6.523">
        <ele>195</ele>
        <time>2021-07-11T08:35:52Z</time>
      </trkpt>
      <trkpt lat="43.33888" lon="6.52283">
        <ele>195.7</ele>
        <time>2021-07-11T08:35:55Z</time>
      </trkpt>
      <trkpt lat="43.33888" lon="6.52278">
        <ele>195.9</ele>
        <time>2021-07-11T08:35:56Z</time>
      </trkpt>
      <trkpt lat="43.33871" lon="6.52241">
        <ele>197.5</ele>
        <time>2021-07-11T08:36:06Z</time>
      </trkpt>
      <trkpt lat="43.33837" lon="6.52232">
        <ele>199.2</ele>
        <time>2021-07-11T08:36:16Z</time>
      </trkpt>
      <trkpt lat="43.33801" lon="6.52213">
        <ele>201.3</ele>
        <time>2021-07-11T08:36:26Z</time>
      </trkpt>
      <trkpt lat="43.3377" lon="6.52186">
        <ele>203.5</ele>
        <time>2021-07-11T08:36:36Z</time>
      </trkpt>
      <trkpt lat="43.33755" lon="6.52177">
        <ele>204.4</ele>
        <time>2021-07-11T08:36:41Z</time>
      </trkpt>
      <trkpt lat="43.33737" lon="6.5217">
        <ele>205.4</ele>
        <time>2021-07-11T08:36:46Z</time>
      </trkpt>
      <trkpt lat="43.33702" lon="6.5215">
        <ele>207.4</ele>
        <time>2021-07-11T08:36:56Z</time>
      </trkpt>
      <trkpt lat="43.33669" lon="6.52126">
        <ele>209.6</ele>
        <time>2021-07-11T08:37:06Z</time>
      </trkpt>
      <trkpt lat="43.3366" lon="6.52083">
        <ele>211.4</ele>
        <time>2021-07-11T08:37:16Z</time>
      </trkpt>
      <trkpt lat="43.33669" lon="6.52037">
        <ele>213.3</ele>
        <time>2021-07-11T08:37:26Z</time>
      </trkpt>
      <trkpt lat="43.33684" lon="6.51997">
        <ele>215.1</ele>
        <time>2021-07-11T08:37:36Z</time>
      </trkpt>
      <trkpt lat="43.33695" lon="6.51955">
        <ele>216.6</ele>
        <time>2021-07-11T08:37:46Z</time>
      </trkpt>
      <trkpt lat="43.33706" lon="6.51907">
        <ele>218.4</ele>
        <time>2021-07-11T08:37:56Z</time>
      </trkpt>
      <trkpt lat="43.3372" lon="6.51864">
        <ele>220.1</ele>
        <time>2021-07-11T08:38:06Z</time>
      </trkpt>
      <trkpt lat="43.33747" lon="6.51842">
        <ele>221.7</ele>
        <time>2021-07-11T08:38:16Z</time>
      </trkpt>
      <trkpt lat="43.33751" lon="6.51791">
        <ele>223.1</ele>
        <time>2021-07-11T08:38:25Z</time>
      </trkpt>
      <trkpt lat="43.33751" lon="6.51786">
        <ele>223.3</ele>
        <time>2021-07-11T08:38:26Z</time>
      </trkpt>
      <trkpt lat="43.3375" lon="6.51739">
        <ele>225.3</ele>
        <time>2021-07-11T08:38:36Z</time>
      </trkpt>
      <trkpt lat="43.33753" lon="6.51728">
        <ele>225.8</ele>
        <time>2021-07-11T08:38:39Z</time>
      </trkpt>
      <trkpt lat="43.33771" lon="6.5171">
        <ele>227</ele>
        <time>2021-07-11T08:38:46Z</time>
      </trkpt>
      <trkpt lat="43.33792" lon="6.51687">
        <ele>228.5</ele>
        <time>2021-07-11T08:38:55Z</time>
      </trkpt>
      <trkpt lat="43.33792" lon="6.51682">
        <ele>228.7</ele>
        <time>2021-07-11T08:38:56Z</time>
      </trkpt>
      <trkpt lat="43.33779" lon="6.51636">
        <ele>230.5</ele>
        <time>2021-07-11T08:39:06Z</time>
      </trkpt>
      <trkpt lat="43.33769" lon="6.51614">
        <ele>231.4</ele>
        <time>2021-07-11T08:39:11Z</time>
      </trkpt>
      <trkpt lat="43.33759" lon="6.51593">
        <ele>232.2</ele>
        <time>2021-07-11T08:39:16Z</time>
      </trkpt>
      <trkpt lat="43.3374" lon="6.51552">
        <ele>234</ele>
        <time>2021-07-11T08:39:26Z</time>
      </trkpt>
      <trkpt lat="43.33714" lon="6.51518">
        <ele>235.9</ele>
        <time>2021-07-11T08:39:36Z</time>
      </trkpt>
      <trkpt lat="43.33683" lon="6.51495">
        <ele>237.8</ele>
        <time>2021-07-11T08:39:46Z</time>
      </trkpt>
      <trkpt lat="43.33671" lon="6.51484">
        <ele>238.6</ele>
        <time>2021-07-11T08:39:50Z</time>
      </trkpt>
      <trkpt lat="43.33655" lon="6.51466">
        <ele>239.7</ele>
        <time>2021-07-11T08:39:56Z</time>
      </trkpt>
      <trkpt lat="43.33645" lon="6.5145">
        <ele>240.5</ele>
        <time>2021-07-11T08:40:01Z</time>
      </trkpt>
      <trkpt lat="43.33636" lon="6.51432">
        <ele>241.4</ele>
        <time>2021-07-11T08:40:06Z</time>
      </trkpt>
      <trkpt lat="43.33623" lon="6.51397">
        <ele>243</ele>
        <time>2021-07-11T08:40:15Z</time>
      </trkpt>
      <trkpt lat="43.33621" lon="6.51393">
        <ele>243.1</ele>
        <time>2021-07-11T08:40:16Z</time>
      </trkpt>
      <trkpt lat="43.33617" lon="6.51381">
        <ele>243.7</ele>
        <time>2021-07-11T08:40:19Z</time>
      </trkpt>
      <trkpt lat="43.33613" lon="6.51373">
        <ele>244.1</ele>
        <time>2021-07-11T08:40:21Z</time>
      </trkpt>
      <trkpt lat="43.3361" lon="6.51364">
        <ele>244.4</ele>
        <time>2021-07-11T08:40:23Z</time>
      </trkpt>
      <trkpt lat="43.33607" lon="6.51356">
        <ele>244.8</ele>
        <time>2021-07-11T08:40:25Z</time>
      </trkpt>
      <trkpt lat="43.33606" lon="6.51351">
        <ele>245</ele>
        <time>2021-07-11T08:40:26Z</time>
      </trkpt>
      <trkpt lat="43.33596" lon="6.51306">
        <ele>246.7</ele>
        <time>2021-07-11T08:40:36Z</time>
      </trkpt>
      <trkpt lat="43.33592" lon="6.51282">
        <ele>247.7</ele>
        <time>2021-07-11T08:40:41Z</time>
      </trkpt>
      <trkpt lat="43.33594" lon="6.51264">
        <ele>248.4</ele>
        <time>2021-07-11T08:40:45Z</time>
      </trkpt>
      <trkpt lat="43.33595" lon="6.5126">
        <ele>248.5</ele>
        <time>2021-07-11T08:40:46Z</time>
      </trkpt>
      <trkpt lat="43.33623" lon="6.51241">
        <ele>250.1</ele>
        <time>2021-07-11T08:40:56Z</time>
      </trkpt>
      <trkpt lat="43.33653" lon="6.51226">
        <ele>251.7</ele>
        <time>2021-07-11T08:41:06Z</time>
      </trkpt>
      <trkpt lat="43.33675" lon="6.5122">
        <ele>252.8</ele>
        <time>2021-07-11T08:41:13Z</time>
      </trkpt>
      <trkpt lat="43.33684" lon="6.51223">
        <ele>253.2</ele>
        <time>2021-07-11T08:41:16Z</time>
      </trkpt>
      <trkpt lat="43.33709" lon="6.51244">
        <ele>254.8</ele>
        <time>2021-07-11T08:41:26Z</time>
      </trkpt>
      <trkpt lat="43.33719" lon="6.51258">
        <ele>255.4</ele>
        <time>2021-07-11T08:41:30Z</time>
      </trkpt>
      <trkpt lat="43.3373" lon="6.51278">
        <ele>256.3</ele>
        <time>2021-07-11T08:41:36Z</time>
      </trkpt>
      <trkpt lat="43.33756" lon="6.51298">
        <ele>257.7</ele>
        <time>2021-07-11T08:41:46Z</time>
      </trkpt>
      <trkpt lat="43.3378" lon="6.513">
        <ele>259</ele>
        <time>2021-07-11T08:41:52Z</time>
      </trkpt>
      <trkpt lat="43.33796" lon="6.51302">
        <ele>259.8</ele>
        <time>2021-07-11T08:41:56Z</time>
      </trkpt>
      <trkpt lat="43.33827" lon="6.51319">
        <ele>261.5</ele>
        <time>2021-07-11T08:42:06Z</time>
      </trkpt>
      <trkpt lat="43.33837" lon="6.51326">
        <ele>262.2</ele>
        <time>2021-07-11T08:42:10Z</time>
      </trkpt>
      <trkpt lat="43.33856" lon="6.51313">
        <ele>263.4</ele>
        <time>2021-07-11T08:42:16Z</time>
      </trkpt>
      <trkpt lat="43.33852" lon="6.51268">
        <ele>265</ele>
        <time>2021-07-11T08:42:25Z</time>
      </trkpt>
      <trkpt lat="43.33852" lon="6.51263">
        <ele>265.2</ele>
        <time>2021-07-11T08:42:26Z</time>
      </trkpt>
      <trkpt lat="43.33853" lon="6.51218">
        <ele>266.8</ele>
        <time>2021-07-11T08:42:36Z</time>
      </trkpt>
      <trkpt lat="43.33837" lon="6.51207">
        <ele>267.8</ele>
        <time>2021-07-11T08:42:41Z</time>
      </trkpt>
      <trkpt lat="43.33827" lon="6.51191">
        <ele>268.6</ele>
        <time>2021-07-11T08:42:46Z</time>
      </trkpt>
      <trkpt lat="43.33826" lon="6.51161">
        <ele>269.8</ele>
        <time>2021-07-11T08:42:53Z</time>
      </trkpt>
      <trkpt lat="43.33827" lon="6.51148">
        <ele>270.4</ele>
        <time>2021-07-11T08:42:56Z</time>
      </trkpt>
      <trkpt lat="43.33821" lon="6.51118">
        <ele>271.6</ele>
        <time>2021-07-11T08:43:03Z</time>
      </trkpt>
      <trkpt lat="43.33816" lon="6.51109">
        <ele>272</ele>
        <time>2021-07-11T08:43:06Z</time>
      </trkpt>
      <trkpt lat="43.33799" lon="6.51071">
        <ele>274.1</ele>
        <time>2021-07-11T08:43:16Z</time>
      </trkpt>
      <trkpt lat="43.33794" lon="6.51026">
        <ele>276.3</ele>
        <time>2021-07-11T08:43:26Z</time>
      </trkpt>
      <trkpt lat="43.33788" lon="6.50986">
        <ele>278.3</ele>
        <time>2021-07-11T08:43:36Z</time>
      </trkpt>
      <trkpt lat="43.33772" lon="6.50954">
        <ele>279.9</ele>
        <time>2021-07-11T08:43:46Z</time>
      </trkpt>
      <trkpt lat="43.33762" lon="6.50917">
        <ele>281.7</ele>
        <time>2021-07-11T08:43:56Z</time>
      </trkpt>
      <trkpt lat="43.33779" lon="6.50885">
        <ele>283.4</ele>
        <time>2021-07-11T08:44:06Z</time>
      </trkpt>
      <trkpt lat="43.33806" lon="6.50874">
        <ele>285.2</ele>
        <time>2021-07-11T08:44:16Z</time>
      </trkpt>
      <trkpt lat="43.33831" lon="6.50865">
        <ele>286.9</ele>
        <time>2021-07-11T08:44:25Z</time>
      </trkpt>
      <trkpt lat="43.33834" lon="6.50864">
        <ele>287</ele>
        <time>2021-07-11T08:44:26Z</time>
      </trkpt>
      <trkpt lat="43.33863" lon="6.5085">
        <ele>289.1</ele>
        <time>2021-07-11T08:44:36Z</time>
      </trkpt>
      <trkpt lat="43.33882" lon="6.50835">
        <ele>290.7</ele>
        <time>2021-07-11T08:44:43Z</time>
      </trkpt>
      <trkpt lat="43.3389" lon="6.50828">
        <ele>291.3</ele>
        <time>2021-07-11T08:44:46Z</time>
      </trkpt>
      <trkpt lat="43.33899" lon="6.50819">
        <ele>292</ele>
        <time>2021-07-11T08:44:50Z</time>
      </trkpt>
      <trkpt lat="43.33914" lon="6.50804">
        <ele>293.1</ele>
        <time>2021-07-11T08:44:56Z</time>
      </trkpt>
      <trkpt lat="43.33941" lon="6.50784">
        <ele>295</ele>
        <time>2021-07-11T08:45:06Z</time>
      </trkpt>
      <trkpt lat="43.33968" lon="6.5077">
        <ele>296.8</ele>
        <time>2021-07-11T08:45:16Z</time>
      </trkpt>
      <trkpt lat="43.33997" lon="6.5076">
        <ele>298.7</ele>
        <time>2021-07-11T08:45:26Z</time>
      </trkpt>
      <trkpt lat="43.34021" lon="6.50737">
        <ele>300.8</ele>
        <time>2021-07-11T08:45:36Z</time>
      </trkpt>
      <trkpt lat="43.34017" lon="6.50692">
        <ele>303</ele>
        <time>2021-07-11T08:45:46Z</time>
      </trkpt>
      <trkpt lat="43.34006" lon="6.50651">
        <ele>304.9</ele>
        <time>2021-07-11T08:45:56Z</time>
      </trkpt>
      <trkpt lat="43.33995" lon="6.50638">
        <ele>305.7</ele>
        <time>2021-07-11T08:46:00Z</time>
      </trkpt>
      <trkpt lat="43.33982" lon="6.50619">
        <ele>306.7</ele>
        <time>2021-07-11T08:46:06Z</time>
      </trkpt>
      <trkpt lat="43.33955" lon="6.50595">
        <ele>308.4</ele>
        <time>2021-07-11T08:46:16Z</time>
      </trkpt>
      <trkpt lat="43.33931" lon="6.50569">
        <ele>310.1</ele>
        <time>2021-07-11T08:46:26Z</time>
      </trkpt>
      <trkpt lat="43.33912" lon="6.5054">
        <ele>311.9</ele>
        <time>2021-07-11T08:46:36Z</time>
      </trkpt>
      <trkpt lat="43.33893" lon="6.5051">
        <ele>314</ele>
        <time>2021-07-11T08:46:46Z</time>
      </trkpt>
      <trkpt lat="43.33868" lon="6.50487">
        <ele>316.2</ele>
        <time>2021-07-11T08:46:56Z</time>
      </trkpt>
      <trkpt lat="43.33834" lon="6.50487">
        <ele>318.2</ele>
        <time>2021-07-11T08:47:06Z</time>
      </trkpt>
      <trkpt lat="43.33814" lon="6.5048">
        <ele>319.2</ele>
        <time>2021-07-11T08:47:13Z</time>
      </trkpt>
      <trkpt lat="43.33806" lon="6.50476">
        <ele>319.7</ele>
        <time>2021-07-11T08:47:16Z</time>
      </trkpt>
      <trkpt lat="43.33777" lon="6.50457">
        <ele>321.6</ele>
        <time>2021-07-11T08:47:26Z</time>
      </trkpt>
      <trkpt lat="43.33751" lon="6.50433">
        <ele>323.4</ele>
        <time>2021-07-11T08:47:36Z</time>
      </trkpt>
      <trkpt lat="43.3374" lon="6.50423">
        <ele>324.1</ele>
        <time>2021-07-11T08:47:40Z</time>
      </trkpt>
      <trkpt lat="43.33728" lon="6.50406">
        <ele>325.1</ele>
        <time>2021-07-11T08:47:46Z</time>
      </trkpt>
      <trkpt lat="43.33716" lon="6.50372">
        <ele>326.6</ele>
        <time>2021-07-11T08:47:56Z</time>
      </trkpt>
      <trkpt lat="43.33711" lon="6.50333">
        <ele>328.4</ele>
        <time>2021-07-11T08:48:06Z</time>
      </trkpt>
      <trkpt lat="43.33685" lon="6.50305">
        <ele>330.2</ele>
        <time>2021-07-11T08:48:16Z</time>
      </trkpt>
      <trkpt lat="43.33668" lon="6.50274">
        <ele>331.8</ele>
        <time>2021-07-11T08:48:26Z</time>
      </trkpt>
      <trkpt lat="43.33664" lon="6.50232">
        <ele>333.8</ele>
        <time>2021-07-11T08:48:36Z</time>
      </trkpt>
      <trkpt lat="43.33658" lon="6.50192">
        <ele>335.8</ele>
        <time>2021-07-11T08:48:46Z</time>
      </trkpt>
      <trkpt lat="43.33641" lon="6.50158">
        <ele>337.7</ele>
        <time>2021-07-11T08:48:56Z</time>
      </trkpt>
      <trkpt lat="43.33611" lon="6.50138">
        <ele>339.4</ele>
        <time>2021-07-11T08:49:06Z</time>
      </trkpt>
      <trkpt lat="43.33575" lon="6.50125">
        <ele>340.8</ele>
        <time>2021-07-11T08:49:16Z</time>
      </trkpt>
      <trkpt lat="43.33541" lon="6.50111">
        <ele>341.9</ele>
        <time>2021-07-11T08:49:26Z</time>
      </trkpt>
      <trkpt lat="43.33509" lon="6.50082">
        <ele>343.4</ele>
        <time>2021-07-11T08:49:36Z</time>
      </trkpt>
      <trkpt lat="43.33478" lon="6.50052">
        <ele>345</ele>
        <time>2021-07-11T08:49:46Z</time>
      </trkpt>
      <trkpt lat="43.33461" lon="6.5004">
        <ele>345.9</ele>
        <time>2021-07-11T08:49:51Z</time>
      </trkpt>
      <trkpt lat="43.33443" lon="6.50038">
        <ele>346.7</ele>
        <time>2021-07-11T08:49:56Z</time>
      </trkpt>
      <trkpt lat="43.33426" lon="6.5003">
        <ele>347.5</ele>
        <time>2021-07-11T08:50:01Z</time>
      </trkpt>
      <trkpt lat="43.33416" lon="6.50014">
        <ele>348</ele>
        <time>2021-07-11T08:50:06Z</time>
      </trkpt>
      <trkpt lat="43.33413" lon="6.49986">
        <ele>348.4</ele>
        <time>2021-07-11T08:50:16Z</time>
      </trkpt>
      <trkpt lat="43.33411" lon="6.49985">
        <ele>348.3</ele>
        <time>2021-07-11T08:50:17Z</time>
      </trkpt>
      <trkpt lat="43.33381" lon="6.49962">
        <ele>346.5</ele>
        <time>2021-07-11T08:50:26Z</time>
      </trkpt>
      <trkpt lat="43.33364" lon="6.49942">
        <ele>345.2</ele>
        <time>2021-07-11T08:50:30Z</time>
      </trkpt>
      <trkpt lat="43.33358" lon="6.49928">
        <ele>344.6</ele>
        <time>2021-07-11T08:50:32Z</time>
      </trkpt>
      <trkpt lat="43.33349" lon="6.49908">
        <ele>343.8</ele>
        <time>2021-07-11T08:50:34Z</time>
      </trkpt>
      <trkpt lat="43.3334" lon="6.49895">
        <ele>343.1</ele>
        <time>2021-07-11T08:50:36Z</time>
      </trkpt>
      <trkpt lat="43.33325" lon="6.49895">
        <ele>342.2</ele>
        <time>2021-07-11T08:50:38Z</time>
      </trkpt>
      <trkpt lat="43.3331" lon="6.49903">
        <ele>341.5</ele>
        <time>2021-07-11T08:50:40Z</time>
      </trkpt>
      <trkpt lat="43.33299" lon="6.4991">
        <ele>341</ele>
        <time>2021-07-11T08:50:42Z</time>
      </trkpt>
      <trkpt lat="43.3329" lon="6.49909">
        <ele>340.5</ele>
        <time>2021-07-11T08:50:44Z</time>
      </trkpt>
      <trkpt lat="43.33287" lon="6.49895">
        <ele>339.8</ele>
        <time>2021-07-11T08:50:46Z</time>
      </trkpt>
      <trkpt lat="43.33283" lon="6.49878">
        <ele>338.9</ele>
        <time>2021-07-11T08:50:48Z</time>
      </trkpt>
      <trkpt lat="43.33274" lon="6.49871">
        <ele>338.3</ele>
        <time>2021-07-11T08:50:50Z</time>
      </trkpt>
      <trkpt lat="43.33265" lon="6.49875">
        <ele>337.7</ele>
        <time>2021-07-11T08:50:52Z</time>
      </trkpt>
      <trkpt lat="43.3325" lon="6.49882">
        <ele>336.9</ele>
        <time>2021-07-11T08:50:55Z</time>
      </trkpt>
      <trkpt lat="43.33243" lon="6.49879">
        <ele>336.7</ele>
        <time>2021-07-11T08:50:56Z</time>
      </trkpt>
      <trkpt lat="43.33237" lon="6.49875">
        <ele>336.6</ele>
        <time>2021-07-11T08:50:57Z</time>
      </trkpt>
      <trkpt lat="43.3323" lon="6.49863">
        <ele>336.3</ele>
        <time>2021-07-11T08:50:59Z</time>
      </trkpt>
      <trkpt lat="43.33228" lon="6.49849">
        <ele>336.1</ele>
        <time>2021-07-11T08:51:01Z</time>
      </trkpt>
      <trkpt lat="43.33222" lon="6.49811">
        <ele>335.9</ele>
        <time>2021-07-11T08:51:06Z</time>
      </trkpt>
      <trkpt lat="43.33219" lon="6.4978">
        <ele>336.5</ele>
        <time>2021-07-11T08:51:11Z</time>
      </trkpt>
      <trkpt lat="43.33211" lon="6.49763">
        <ele>337.1</ele>
        <time>2021-07-11T08:51:14Z</time>
      </trkpt>
      <trkpt lat="43.33201" lon="6.49755">
        <ele>337.6</ele>
        <time>2021-07-11T08:51:16Z</time>
      </trkpt>
      <trkpt lat="43.33164" lon="6.49716">
        <ele>339.6</ele>
        <time>2021-07-11T08:51:26Z</time>
      </trkpt>
      <trkpt lat="43.33127" lon="6.49686">
        <ele>341.7</ele>
        <time>2021-07-11T08:51:36Z</time>
      </trkpt>
      <trkpt lat="43.33093" lon="6.49659">
        <ele>343.9</ele>
        <time>2021-07-11T08:51:46Z</time>
      </trkpt>
      <trkpt lat="43.33057" lon="6.49622">
        <ele>346.6</ele>
        <time>2021-07-11T08:51:56Z</time>
      </trkpt>
      <trkpt lat="43.33023" lon="6.49619">
        <ele>348.4</ele>
        <time>2021-07-11T08:52:06Z</time>
      </trkpt>
      <trkpt lat="43.32996" lon="6.49626">
        <ele>350.1</ele>
        <time>2021-07-11T08:52:16Z</time>
      </trkpt>
      <trkpt lat="43.32962" lon="6.4961">
        <ele>352.4</ele>
        <time>2021-07-11T08:52:24Z</time>
      </trkpt>
      <trkpt lat="43.32955" lon="6.49608">
        <ele>352.8</ele>
        <time>2021-07-11T08:52:26Z</time>
      </trkpt>
      <trkpt lat="43.32926" lon="6.496">
        <ele>354.2</ele>
        <time>2021-07-11T08:52:36Z</time>
      </trkpt>
      <trkpt lat="43.32899" lon="6.49578">
        <ele>355</ele>
        <time>2021-07-11T08:52:44Z</time>
      </trkpt>
      <trkpt lat="43.32894" lon="6.49563">
        <ele>355.2</ele>
        <time>2021-07-11T08:52:46Z</time>
      </trkpt>
      <trkpt lat="43.32893" lon="6.49556">
        <ele>355.2</ele>
        <time>2021-07-11T08:52:47Z</time>
      </trkpt>
      <trkpt lat="43.32885" lon="6.49531">
        <ele>354.9</ele>
        <time>2021-07-11T08:52:50Z</time>
      </trkpt>
      <trkpt lat="43.32873" lon="6.49516">
        <ele>354.5</ele>
        <time>2021-07-11T08:52:52Z</time>
      </trkpt>
      <trkpt lat="43.32859" lon="6.49503">
        <ele>353.9</ele>
        <time>2021-07-11T08:52:54Z</time>
      </trkpt>
      <trkpt lat="43.32844" lon="6.49489">
        <ele>353.1</ele>
        <time>2021-07-11T08:52:56Z</time>
      </trkpt>
      <trkpt lat="43.32792" lon="6.4945">
        <ele>350.7</ele>
        <time>2021-07-11T08:53:03Z</time>
      </trkpt>
      <trkpt lat="43.3277" lon="6.49428">
        <ele>349.7</ele>
        <time>2021-07-11T08:53:06Z</time>
      </trkpt>
      <trkpt lat="43.32732" lon="6.4937">
        <ele>347.6</ele>
        <time>2021-07-11T08:53:12Z</time>
      </trkpt>
      <trkpt lat="43.32715" lon="6.49343">
        <ele>346.9</ele>
        <time>2021-07-11T08:53:15Z</time>
      </trkpt>
      <trkpt lat="43.32708" lon="6.49331">
        <ele>346.6</ele>
        <time>2021-07-11T08:53:16Z</time>
      </trkpt>
      <trkpt lat="43.32699" lon="6.49308">
        <ele>346.1</ele>
        <time>2021-07-11T08:53:18Z</time>
      </trkpt>
      <trkpt lat="43.32687" lon="6.49276">
        <ele>346.2</ele>
        <time>2021-07-11T08:53:21Z</time>
      </trkpt>
      <trkpt lat="43.32668" lon="6.49256">
        <ele>346.7</ele>
        <time>2021-07-11T08:53:24Z</time>
      </trkpt>
      <trkpt lat="43.32653" lon="6.49245">
        <ele>347.2</ele>
        <time>2021-07-11T08:53:26Z</time>
      </trkpt>
      <trkpt lat="43.32643" lon="6.49238">
        <ele>347.5</ele>
        <time>2021-07-11T08:53:27Z</time>
      </trkpt>
      <trkpt lat="43.32625" lon="6.49233">
        <ele>347.9</ele>
        <time>2021-07-11T08:53:29Z</time>
      </trkpt>
      <trkpt lat="43.32572" lon="6.49233">
        <ele>348.6</ele>
        <time>2021-07-11T08:53:36Z</time>
      </trkpt>
      <trkpt lat="43.32555" lon="6.49239">
        <ele>348.8</ele>
        <time>2021-07-11T08:53:39Z</time>
      </trkpt>
      <trkpt lat="43.3254" lon="6.49248">
        <ele>348.9</ele>
        <time>2021-07-11T08:53:41Z</time>
      </trkpt>
      <trkpt lat="43.32516" lon="6.49274">
        <ele>349</ele>
        <time>2021-07-11T08:53:45Z</time>
      </trkpt>
      <trkpt lat="43.3251" lon="6.49281">
        <ele>349</ele>
        <time>2021-07-11T08:53:46Z</time>
      </trkpt>
      <trkpt lat="43.32469" lon="6.4932">
        <ele>349</ele>
        <time>2021-07-11T08:53:53Z</time>
      </trkpt>
      <trkpt lat="43.32455" lon="6.49325">
        <ele>349.1</ele>
        <time>2021-07-11T08:53:55Z</time>
      </trkpt>
      <trkpt lat="43.3245" lon="6.49324">
        <ele>349.2</ele>
        <time>2021-07-11T08:53:56Z</time>
      </trkpt>
      <trkpt lat="43.32443" lon="6.49322">
        <ele>349.2</ele>
        <time>2021-07-11T08:53:57Z</time>
      </trkpt>
      <trkpt lat="43.32389" lon="6.493">
        <ele>349.4</ele>
        <time>2021-07-11T08:54:06Z</time>
      </trkpt>
      <trkpt lat="43.32356" lon="6.49266">
        <ele>349.4</ele>
        <time>2021-07-11T08:54:12Z</time>
      </trkpt>
      <trkpt lat="43.32351" lon="6.49259">
        <ele>349.4</ele>
        <time>2021-07-11T08:54:13Z</time>
      </trkpt>
      <trkpt lat="43.32346" lon="6.49244">
        <ele>349.4</ele>
        <time>2021-07-11T08:54:15Z</time>
      </trkpt>
      <trkpt lat="43.32344" lon="6.49237">
        <ele>349.4</ele>
        <time>2021-07-11T08:54:16Z</time>
      </trkpt>
      <trkpt lat="43.32343" lon="6.4923">
        <ele>349.5</ele>
        <time>2021-07-11T08:54:17Z</time>
      </trkpt>
      <trkpt lat="43.32342" lon="6.49213">
        <ele>349.5</ele>
        <time>2021-07-11T08:54:19Z</time>
      </trkpt>
      <trkpt lat="43.32346" lon="6.49198">
        <ele>349.6</ele>
        <time>2021-07-11T08:54:21Z</time>
      </trkpt>
      <trkpt lat="43.32366" lon="6.49162">
        <ele>349.9</ele>
        <time>2021-07-11T08:54:26Z</time>
      </trkpt>
      <trkpt lat="43.32372" lon="6.49156">
        <ele>350</ele>
        <time>2021-07-11T08:54:27Z</time>
      </trkpt>
      <trkpt lat="43.32387" lon="6.4914">
        <ele>350.2</ele>
        <time>2021-07-11T08:54:30Z</time>
      </trkpt>
      <trkpt lat="43.32408" lon="6.49124">
        <ele>350.4</ele>
        <time>2021-07-11T08:54:34Z</time>
      </trkpt>
      <trkpt lat="43.32416" lon="6.49113">
        <ele>350.5</ele>
        <time>2021-07-11T08:54:36Z</time>
      </trkpt>
      <trkpt lat="43.32419" lon="6.49107">
        <ele>350.5</ele>
        <time>2021-07-11T08:54:37Z</time>
      </trkpt>
      <trkpt lat="43.32429" lon="6.49073">
        <ele>350.6</ele>
        <time>2021-07-11T08:54:42Z</time>
      </trkpt>
      <trkpt lat="43.32426" lon="6.49057">
        <ele>350.5</ele>
        <time>2021-07-11T08:54:44Z</time>
      </trkpt>
      <trkpt lat="43.32419" lon="6.49046">
        <ele>350.3</ele>
        <time>2021-07-11T08:54:46Z</time>
      </trkpt>
      <trkpt lat="43.32414" lon="6.49044">
        <ele>350.2</ele>
        <time>2021-07-11T08:54:47Z</time>
      </trkpt>
      <trkpt lat="43.32372" lon="6.49045">
        <ele>349.6</ele>
        <time>2021-07-11T08:54:53Z</time>
      </trkpt>
      <trkpt lat="43.32349" lon="6.49038">
        <ele>349.5</ele>
        <time>2021-07-11T08:54:56Z</time>
      </trkpt>
      <trkpt lat="43.32337" lon="6.49028">
        <ele>349.4</ele>
        <time>2021-07-11T08:54:58Z</time>
      </trkpt>
      <trkpt lat="43.32331" lon="6.49012">
        <ele>349.3</ele>
        <time>2021-07-11T08:55:00Z</time>
      </trkpt>
      <trkpt lat="43.32328" lon="6.48994">
        <ele>349.2</ele>
        <time>2021-07-11T08:55:02Z</time>
      </trkpt>
      <trkpt lat="43.32331" lon="6.48965">
        <ele>349.1</ele>
        <time>2021-07-11T08:55:05Z</time>
      </trkpt>
      <trkpt lat="43.32334" lon="6.48957">
        <ele>349.1</ele>
        <time>2021-07-11T08:55:06Z</time>
      </trkpt>
      <trkpt lat="43.32338" lon="6.4895">
        <ele>349.1</ele>
        <time>2021-07-11T08:55:07Z</time>
      </trkpt>
      <trkpt lat="43.32352" lon="6.48929">
        <ele>349.1</ele>
        <time>2021-07-11T08:55:10Z</time>
      </trkpt>
      <trkpt lat="43.32373" lon="6.4888">
        <ele>349.1</ele>
        <time>2021-07-11T08:55:16Z</time>
      </trkpt>
      <trkpt lat="43.3238" lon="6.48865">
        <ele>349.1</ele>
        <time>2021-07-11T08:55:18Z</time>
      </trkpt>
      <trkpt lat="43.3239" lon="6.48852">
        <ele>349.1</ele>
        <time>2021-07-11T08:55:20Z</time>
      </trkpt>
      <trkpt lat="43.32415" lon="6.48822">
        <ele>349.3</ele>
        <time>2021-07-11T08:55:25Z</time>
      </trkpt>
      <trkpt lat="43.32421" lon="6.48816">
        <ele>349.3</ele>
        <time>2021-07-11T08:55:26Z</time>
      </trkpt>
      <trkpt lat="43.32458" lon="6.48778">
        <ele>349.7</ele>
        <time>2021-07-11T08:55:33Z</time>
      </trkpt>
      <trkpt lat="43.32463" lon="6.48765">
        <ele>349.7</ele>
        <time>2021-07-11T08:55:35Z</time>
      </trkpt>
      <trkpt lat="43.32463" lon="6.4876">
        <ele>349.7</ele>
        <time>2021-07-11T08:55:36Z</time>
      </trkpt>
      <trkpt lat="43.32458" lon="6.48751">
        <ele>349.7</ele>
        <time>2021-07-11T08:55:37Z</time>
      </trkpt>
      <trkpt lat="43.32447" lon="6.48737">
        <ele>349.5</ele>
        <time>2021-07-11T08:55:39Z</time>
      </trkpt>
      <trkpt lat="43.32425" lon="6.48707">
        <ele>349.4</ele>
        <time>2021-07-11T08:55:43Z</time>
      </trkpt>
      <trkpt lat="43.32412" lon="6.48684">
        <ele>349.4</ele>
        <time>2021-07-11T08:55:46Z</time>
      </trkpt>
      <trkpt lat="43.32402" lon="6.48662">
        <ele>349.3</ele>
        <time>2021-07-11T08:55:49Z</time>
      </trkpt>
      <trkpt lat="43.32399" lon="6.48647">
        <ele>349.2</ele>
        <time>2021-07-11T08:55:51Z</time>
      </trkpt>
      <trkpt lat="43.32398" lon="6.48604">
        <ele>348.9</ele>
        <time>2021-07-11T08:55:56Z</time>
      </trkpt>
      <trkpt lat="43.32377" lon="6.48547">
        <ele>348.8</ele>
        <time>2021-07-11T08:56:03Z</time>
      </trkpt>
      <trkpt lat="43.32369" lon="6.48519">
        <ele>348.7</ele>
        <time>2021-07-11T08:56:06Z</time>
      </trkpt>
      <trkpt lat="43.32352" lon="6.48443">
        <ele>348.5</ele>
        <time>2021-07-11T08:56:15Z</time>
      </trkpt>
      <trkpt lat="43.3235" lon="6.48434">
        <ele>348.4</ele>
        <time>2021-07-11T08:56:16Z</time>
      </trkpt>
      <trkpt lat="43.3234" lon="6.48355">
        <ele>347.8</ele>
        <time>2021-07-11T08:56:25Z</time>
      </trkpt>
      <trkpt lat="43.32341" lon="6.48345">
        <ele>347.6</ele>
        <time>2021-07-11T08:56:26Z</time>
      </trkpt>
      <trkpt lat="43.32344" lon="6.48334">
        <ele>347.5</ele>
        <time>2021-07-11T08:56:27Z</time>
      </trkpt>
      <trkpt lat="43.32356" lon="6.48319">
        <ele>347.3</ele>
        <time>2021-07-11T08:56:29Z</time>
      </trkpt>
      <trkpt lat="43.32371" lon="6.48303">
        <ele>347.3</ele>
        <time>2021-07-11T08:56:32Z</time>
      </trkpt>
      <trkpt lat="43.32377" lon="6.4829">
        <ele>347.4</ele>
        <time>2021-07-11T08:56:34Z</time>
      </trkpt>
      <trkpt lat="43.3238" lon="6.48274">
        <ele>347.4</ele>
        <time>2021-07-11T08:56:36Z</time>
      </trkpt>
      <trkpt lat="43.32381" lon="6.48256">
        <ele>347.5</ele>
        <time>2021-07-11T08:56:38Z</time>
      </trkpt>
      <trkpt lat="43.32378" lon="6.48238">
        <ele>347.5</ele>
        <time>2021-07-11T08:56:40Z</time>
      </trkpt>
      <trkpt lat="43.32371" lon="6.48189">
        <ele>347.4</ele>
        <time>2021-07-11T08:56:46Z</time>
      </trkpt>
      <trkpt lat="43.32368" lon="6.4816">
        <ele>347.1</ele>
        <time>2021-07-11T08:56:49Z</time>
      </trkpt>
      <trkpt lat="43.32359" lon="6.48124">
        <ele>346.6</ele>
        <time>2021-07-11T08:56:53Z</time>
      </trkpt>
      <trkpt lat="43.32353" lon="6.481">
        <ele>346.4</ele>
        <time>2021-07-11T08:56:55Z</time>
      </trkpt>
      <trkpt lat="43.32347" lon="6.48093">
        <ele>346.3</ele>
        <time>2021-07-11T08:56:56Z</time>
      </trkpt>
      <trkpt lat="43.3234" lon="6.48086">
        <ele>346.2</ele>
        <time>2021-07-11T08:56:57Z</time>
      </trkpt>
      <trkpt lat="43.32326" lon="6.48082">
        <ele>346</ele>
        <time>2021-07-11T08:56:59Z</time>
      </trkpt>
      <trkpt lat="43.32298" lon="6.48084">
        <ele>345.3</ele>
        <time>2021-07-11T08:57:06Z</time>
      </trkpt>
      <trkpt lat="43.32291" lon="6.48082">
        <ele>345</ele>
        <time>2021-07-11T08:57:07Z</time>
      </trkpt>
      <trkpt lat="43.32269" lon="6.48077">
        <ele>344.2</ele>
        <time>2021-07-11T08:57:10Z</time>
      </trkpt>
      <trkpt lat="43.32253" lon="6.4807">
        <ele>343.6</ele>
        <time>2021-07-11T08:57:12Z</time>
      </trkpt>
      <trkpt lat="43.32238" lon="6.48058">
        <ele>343.1</ele>
        <time>2021-07-11T08:57:14Z</time>
      </trkpt>
      <trkpt lat="43.32228" lon="6.48043">
        <ele>342.6</ele>
        <time>2021-07-11T08:57:16Z</time>
      </trkpt>
      <trkpt lat="43.32195" lon="6.47971">
        <ele>340.5</ele>
        <time>2021-07-11T08:57:24Z</time>
      </trkpt>
      <trkpt lat="43.32183" lon="6.47952">
        <ele>340.1</ele>
        <time>2021-07-11T08:57:26Z</time>
      </trkpt>
      <trkpt lat="43.32158" lon="6.47905">
        <ele>340.1</ele>
        <time>2021-07-11T08:57:31Z</time>
      </trkpt>
      <trkpt lat="43.32155" lon="6.47885">
        <ele>340.1</ele>
        <time>2021-07-11T08:57:33Z</time>
      </trkpt>
      <trkpt lat="43.3215" lon="6.47855">
        <ele>340.2</ele>
        <time>2021-07-11T08:57:36Z</time>
      </trkpt>
      <trkpt lat="43.32145" lon="6.47812">
        <ele>340.5</ele>
        <time>2021-07-11T08:57:41Z</time>
      </trkpt>
      <trkpt lat="43.32147" lon="6.47767">
        <ele>340.9</ele>
        <time>2021-07-11T08:57:46Z</time>
      </trkpt>
      <trkpt lat="43.32146" lon="6.47757">
        <ele>341</ele>
        <time>2021-07-11T08:57:47Z</time>
      </trkpt>
      <trkpt lat="43.32143" lon="6.47731">
        <ele>341.2</ele>
        <time>2021-07-11T08:57:50Z</time>
      </trkpt>
      <trkpt lat="43.32144" lon="6.47683">
        <ele>341.5</ele>
        <time>2021-07-11T08:57:56Z</time>
      </trkpt>
      <trkpt lat="43.32144" lon="6.47675">
        <ele>341.6</ele>
        <time>2021-07-11T08:57:57Z</time>
      </trkpt>
      <trkpt lat="43.32142" lon="6.47651">
        <ele>341.7</ele>
        <time>2021-07-11T08:58:00Z</time>
      </trkpt>
      <trkpt lat="43.32138" lon="6.47637">
        <ele>341.8</ele>
        <time>2021-07-11T08:58:02Z</time>
      </trkpt>
      <trkpt lat="43.32132" lon="6.47625">
        <ele>341.9</ele>
        <time>2021-07-11T08:58:04Z</time>
      </trkpt>
      <trkpt lat="43.32124" lon="6.47615">
        <ele>342</ele>
        <time>2021-07-11T08:58:06Z</time>
      </trkpt>
      <trkpt lat="43.32078" lon="6.47602">
        <ele>342.4</ele>
        <time>2021-07-11T08:58:16Z</time>
      </trkpt>
      <trkpt lat="43.32018" lon="6.47609">
        <ele>342.9</ele>
        <time>2021-07-11T08:58:26Z</time>
      </trkpt>
      <trkpt lat="43.31978" lon="6.47611">
        <ele>343.3</ele>
        <time>2021-07-11T08:58:33Z</time>
      </trkpt>
      <trkpt lat="43.3196" lon="6.47605">
        <ele>343.5</ele>
        <time>2021-07-11T08:58:36Z</time>
      </trkpt>
      <trkpt lat="43.31942" lon="6.47591">
        <ele>343.7</ele>
        <time>2021-07-11T08:58:39Z</time>
      </trkpt>
      <trkpt lat="43.31934" lon="6.4758">
        <ele>343.8</ele>
        <time>2021-07-11T08:58:41Z</time>
      </trkpt>
      <trkpt lat="43.31921" lon="6.47552">
        <ele>344.1</ele>
        <time>2021-07-11T08:58:46Z</time>
      </trkpt>
      <trkpt lat="43.31915" lon="6.47541">
        <ele>344.3</ele>
        <time>2021-07-11T08:58:48Z</time>
      </trkpt>
      <trkpt lat="43.31888" lon="6.47507">
        <ele>344.7</ele>
        <time>2021-07-11T08:58:54Z</time>
      </trkpt>
      <trkpt lat="43.31877" lon="6.47494">
        <ele>344.7</ele>
        <time>2021-07-11T08:58:56Z</time>
      </trkpt>
      <trkpt lat="43.31844" lon="6.47466">
        <ele>344.5</ele>
        <time>2021-07-11T08:59:02Z</time>
      </trkpt>
      <trkpt lat="43.3183" lon="6.47462">
        <ele>344.4</ele>
        <time>2021-07-11T08:59:04Z</time>
      </trkpt>
      <trkpt lat="43.31818" lon="6.47462">
        <ele>344.4</ele>
        <time>2021-07-11T08:59:06Z</time>
      </trkpt>
      <trkpt lat="43.31812" lon="6.47465">
        <ele>344.4</ele>
        <time>2021-07-11T08:59:07Z</time>
      </trkpt>
      <trkpt lat="43.31761" lon="6.47495">
        <ele>344.5</ele>
        <time>2021-07-11T08:59:16Z</time>
      </trkpt>
      <trkpt lat="43.31751" lon="6.47499">
        <ele>344.4</ele>
        <time>2021-07-11T08:59:17Z</time>
      </trkpt>
      <trkpt lat="43.31744" lon="6.475">
        <ele>344.4</ele>
        <time>2021-07-11T08:59:19Z</time>
      </trkpt>
      <trkpt lat="43.31723" lon="6.47492">
        <ele>344.1</ele>
        <time>2021-07-11T08:59:22Z</time>
      </trkpt>
      <trkpt lat="43.31713" lon="6.4748">
        <ele>344</ele>
        <time>2021-07-11T08:59:24Z</time>
      </trkpt>
      <trkpt lat="43.31704" lon="6.47465">
        <ele>343.9</ele>
        <time>2021-07-11T08:59:26Z</time>
      </trkpt>
      <trkpt lat="43.31702" lon="6.47457">
        <ele>343.9</ele>
        <time>2021-07-11T08:59:27Z</time>
      </trkpt>
      <trkpt lat="43.31695" lon="6.47434">
        <ele>343.6</ele>
        <time>2021-07-11T08:59:30Z</time>
      </trkpt>
      <trkpt lat="43.31683" lon="6.4742">
        <ele>343.4</ele>
        <time>2021-07-11T08:59:32Z</time>
      </trkpt>
      <trkpt lat="43.31656" lon="6.47398">
        <ele>343</ele>
        <time>2021-07-11T08:59:36Z</time>
      </trkpt>
      <trkpt lat="43.31645" lon="6.47388">
        <ele>342.8</ele>
        <time>2021-07-11T08:59:38Z</time>
      </trkpt>
      <trkpt lat="43.31632" lon="6.47367">
        <ele>342.7</ele>
        <time>2021-07-11T08:59:41Z</time>
      </trkpt>
      <trkpt lat="43.3162" lon="6.47349">
        <ele>342.6</ele>
        <time>2021-07-11T08:59:44Z</time>
      </trkpt>
      <trkpt lat="43.31608" lon="6.47337">
        <ele>342.6</ele>
        <time>2021-07-11T08:59:46Z</time>
      </trkpt>
      <trkpt lat="43.31589" lon="6.4731">
        <ele>342.4</ele>
        <time>2021-07-11T08:59:50Z</time>
      </trkpt>
      <trkpt lat="43.31574" lon="6.4728">
        <ele>342.4</ele>
        <time>2021-07-11T08:59:54Z</time>
      </trkpt>
      <trkpt lat="43.31562" lon="6.47269">
        <ele>342.4</ele>
        <time>2021-07-11T08:59:56Z</time>
      </trkpt>
      <trkpt lat="43.31525" lon="6.47252">
        <ele>342.6</ele>
        <time>2021-07-11T09:00:02Z</time>
      </trkpt>
      <trkpt lat="43.31503" lon="6.47247">
        <ele>342.7</ele>
        <time>2021-07-11T09:00:06Z</time>
      </trkpt>
      <trkpt lat="43.31489" lon="6.47244">
        <ele>342.9</ele>
        <time>2021-07-11T09:00:09Z</time>
      </trkpt>
      <trkpt lat="43.31474" lon="6.47236">
        <ele>343.2</ele>
        <time>2021-07-11T09:00:14Z</time>
      </trkpt>
      <trkpt lat="43.31472" lon="6.4723">
        <ele>343.3</ele>
        <time>2021-07-11T09:00:16Z</time>
      </trkpt>
      <trkpt lat="43.31472" lon="6.47223">
        <ele>343.5</ele>
        <time>2021-07-11T09:00:18Z</time>
      </trkpt>
      <trkpt lat="43.31472" lon="6.47219">
        <ele>343.5</ele>
        <time>2021-07-11T09:00:19Z</time>
      </trkpt>
      <trkpt lat="43.31469" lon="6.47193">
        <ele>343.6</ele>
        <time>2021-07-11T09:00:26Z</time>
      </trkpt>
      <trkpt lat="43.31464" lon="6.47175">
        <ele>343.6</ele>
        <time>2021-07-11T09:00:29Z</time>
      </trkpt>
      <trkpt lat="43.31455" lon="6.47156">
        <ele>343.4</ele>
        <time>2021-07-11T09:00:36Z</time>
      </trkpt>
      <trkpt lat="43.31454" lon="6.47155">
        <ele>343.4</ele>
        <time>2021-07-11T09:00:39Z</time>
      </trkpt>
      <trkpt lat="43.31456" lon="6.4717">
        <ele>343.5</ele>
        <time>2021-07-11T09:05:36Z</time>
      </trkpt>
      <trkpt lat="43.31462" lon="6.47184">
        <ele>343.6</ele>
        <time>2021-07-11T09:05:41Z</time>
      </trkpt>
      <trkpt lat="43.31468" lon="6.47201">
        <ele>342.4</ele>
        <time>2021-07-11T09:05:46Z</time>
      </trkpt>
      <trkpt lat="43.31486" lon="6.47218">
        <ele>340.7</ele>
        <time>2021-07-11T09:05:52Z</time>
      </trkpt>
      <trkpt lat="43.31496" lon="6.47221">
        <ele>340</ele>
        <time>2021-07-11T09:05:54Z</time>
      </trkpt>
      <trkpt lat="43.31509" lon="6.47221">
        <ele>339</ele>
        <time>2021-07-11T09:05:56Z</time>
      </trkpt>
      <trkpt lat="43.31541" lon="6.47219">
        <ele>336.3</ele>
        <time>2021-07-11T09:06:00Z</time>
      </trkpt>
      <trkpt lat="43.31575" lon="6.47212">
        <ele>333.3</ele>
        <time>2021-07-11T09:06:04Z</time>
      </trkpt>
      <trkpt lat="43.31584" lon="6.47213">
        <ele>332.5</ele>
        <time>2021-07-11T09:06:05Z</time>
      </trkpt>
      <trkpt lat="43.31591" lon="6.47214">
        <ele>331.8</ele>
        <time>2021-07-11T09:06:06Z</time>
      </trkpt>
      <trkpt lat="43.31608" lon="6.47222">
        <ele>330.3</ele>
        <time>2021-07-11T09:06:08Z</time>
      </trkpt>
      <trkpt lat="43.31634" lon="6.47233">
        <ele>328.3</ele>
        <time>2021-07-11T09:06:11Z</time>
      </trkpt>
      <trkpt lat="43.31664" lon="6.47243">
        <ele>326.7</ele>
        <time>2021-07-11T09:06:15Z</time>
      </trkpt>
      <trkpt lat="43.3167" lon="6.47246">
        <ele>326.4</ele>
        <time>2021-07-11T09:06:16Z</time>
      </trkpt>
      <trkpt lat="43.31675" lon="6.47248">
        <ele>326.4</ele>
        <time>2021-07-11T09:06:17Z</time>
      </trkpt>
      <trkpt lat="43.317" lon="6.47249">
        <ele>325.5</ele>
        <time>2021-07-11T09:06:21Z</time>
      </trkpt>
      <trkpt lat="43.31728" lon="6.4724">
        <ele>323.4</ele>
        <time>2021-07-11T09:06:25Z</time>
      </trkpt>
      <trkpt lat="43.31735" lon="6.47237">
        <ele>322.8</ele>
        <time>2021-07-11T09:06:26Z</time>
      </trkpt>
      <trkpt lat="43.31742" lon="6.47235">
        <ele>322.3</ele>
        <time>2021-07-11T09:06:27Z</time>
      </trkpt>
      <trkpt lat="43.31749" lon="6.47234">
        <ele>321.9</ele>
        <time>2021-07-11T09:06:28Z</time>
      </trkpt>
      <trkpt lat="43.31756" lon="6.47233">
        <ele>321.5</ele>
        <time>2021-07-11T09:06:29Z</time>
      </trkpt>
      <trkpt lat="43.31764" lon="6.47234">
        <ele>321.2</ele>
        <time>2021-07-11T09:06:30Z</time>
      </trkpt>
      <trkpt lat="43.3178" lon="6.47236">
        <ele>320.5</ele>
        <time>2021-07-11T09:06:32Z</time>
      </trkpt>
      <trkpt lat="43.31788" lon="6.47236">
        <ele>320.2</ele>
        <time>2021-07-11T09:06:33Z</time>
      </trkpt>
      <trkpt lat="43.31806" lon="6.47235">
        <ele>319.7</ele>
        <time>2021-07-11T09:06:35Z</time>
      </trkpt>
      <trkpt lat="43.31815" lon="6.47234">
        <ele>319.5</ele>
        <time>2021-07-11T09:06:36Z</time>
      </trkpt>
      <trkpt lat="43.31824" lon="6.47232">
        <ele>319.3</ele>
        <time>2021-07-11T09:06:37Z</time>
      </trkpt>
      <trkpt lat="43.31855" lon="6.47223">
        <ele>318.4</ele>
        <time>2021-07-11T09:06:41Z</time>
      </trkpt>
      <trkpt lat="43.31869" lon="6.47224">
        <ele>317.9</ele>
        <time>2021-07-11T09:06:43Z</time>
      </trkpt>
      <trkpt lat="43.31888" lon="6.47226">
        <ele>317.3</ele>
        <time>2021-07-11T09:06:46Z</time>
      </trkpt>
      <trkpt lat="43.319" lon="6.47229">
        <ele>316.9</ele>
        <time>2021-07-11T09:06:48Z</time>
      </trkpt>
      <trkpt lat="43.31913" lon="6.47235">
        <ele>316.6</ele>
        <time>2021-07-11T09:06:50Z</time>
      </trkpt>
      <trkpt lat="43.31924" lon="6.47241">
        <ele>316.3</ele>
        <time>2021-07-11T09:06:52Z</time>
      </trkpt>
      <trkpt lat="43.31941" lon="6.47241">
        <ele>315.7</ele>
        <time>2021-07-11T09:06:54Z</time>
      </trkpt>
      <trkpt lat="43.31965" lon="6.4724">
        <ele>315.2</ele>
        <time>2021-07-11T09:06:56Z</time>
      </trkpt>
      <trkpt lat="43.32023" lon="6.47224">
        <ele>313.8</ele>
        <time>2021-07-11T09:07:03Z</time>
      </trkpt>
      <trkpt lat="43.32047" lon="6.47218">
        <ele>313.3</ele>
        <time>2021-07-11T09:07:06Z</time>
      </trkpt>
      <trkpt lat="43.32055" lon="6.47218">
        <ele>313.1</ele>
        <time>2021-07-11T09:07:07Z</time>
      </trkpt>
      <trkpt lat="43.32077" lon="6.47217">
        <ele>312.4</ele>
        <time>2021-07-11T09:07:09Z</time>
      </trkpt>
      <trkpt lat="43.32097" lon="6.47225">
        <ele>311.9</ele>
        <time>2021-07-11T09:07:11Z</time>
      </trkpt>
      <trkpt lat="43.32111" lon="6.47243">
        <ele>311.5</ele>
        <time>2021-07-11T09:07:13Z</time>
      </trkpt>
      <trkpt lat="43.32121" lon="6.47275">
        <ele>311</ele>
        <time>2021-07-11T09:07:16Z</time>
      </trkpt>
      <trkpt lat="43.32131" lon="6.47339">
        <ele>310.5</ele>
        <time>2021-07-11T09:07:22Z</time>
      </trkpt>
      <trkpt lat="43.32137" lon="6.47379">
        <ele>310.4</ele>
        <time>2021-07-11T09:07:26Z</time>
      </trkpt>
      <trkpt lat="43.3214" lon="6.47387">
        <ele>310.4</ele>
        <time>2021-07-11T09:07:27Z</time>
      </trkpt>
      <trkpt lat="43.32146" lon="6.474">
        <ele>310.1</ele>
        <time>2021-07-11T09:07:29Z</time>
      </trkpt>
      <trkpt lat="43.32154" lon="6.47407">
        <ele>309.7</ele>
        <time>2021-07-11T09:07:31Z</time>
      </trkpt>
      <trkpt lat="43.32166" lon="6.47416">
        <ele>309.3</ele>
        <time>2021-07-11T09:07:34Z</time>
      </trkpt>
      <trkpt lat="43.3218" lon="6.47431">
        <ele>308.9</ele>
        <time>2021-07-11T09:07:36Z</time>
      </trkpt>
      <trkpt lat="43.32196" lon="6.47457">
        <ele>308.4</ele>
        <time>2021-07-11T09:07:39Z</time>
      </trkpt>
      <trkpt lat="43.32201" lon="6.47476">
        <ele>308</ele>
        <time>2021-07-11T09:07:41Z</time>
      </trkpt>
      <trkpt lat="43.3221" lon="6.47535">
        <ele>306.8</ele>
        <time>2021-07-11T09:07:46Z</time>
      </trkpt>
      <trkpt lat="43.32225" lon="6.4761">
        <ele>305.8</ele>
        <time>2021-07-11T09:07:52Z</time>
      </trkpt>
      <trkpt lat="43.32231" lon="6.47634">
        <ele>305.9</ele>
        <time>2021-07-11T09:07:53Z</time>
      </trkpt>
      <trkpt lat="43.32235" lon="6.47646">
        <ele>305.9</ele>
        <time>2021-07-11T09:07:55Z</time>
      </trkpt>
      <trkpt lat="43.32241" lon="6.47651">
        <ele>305.9</ele>
        <time>2021-07-11T09:07:56Z</time>
      </trkpt>
      <trkpt lat="43.32254" lon="6.47661">
        <ele>305.5</ele>
        <time>2021-07-11T09:07:58Z</time>
      </trkpt>
      <trkpt lat="43.32266" lon="6.47653">
        <ele>304.9</ele>
        <time>2021-07-11T09:08:00Z</time>
      </trkpt>
      <trkpt lat="43.323" lon="6.47614">
        <ele>303.4</ele>
        <time>2021-07-11T09:08:06Z</time>
      </trkpt>
      <trkpt lat="43.32338" lon="6.47566">
        <ele>301.9</ele>
        <time>2021-07-11T09:08:13Z</time>
      </trkpt>
      <trkpt lat="43.32349" lon="6.47562">
        <ele>301.6</ele>
        <time>2021-07-11T09:08:15Z</time>
      </trkpt>
      <trkpt lat="43.32359" lon="6.47564">
        <ele>301.4</ele>
        <time>2021-07-11T09:08:16Z</time>
      </trkpt>
      <trkpt lat="43.32364" lon="6.47565">
        <ele>301.2</ele>
        <time>2021-07-11T09:08:18Z</time>
      </trkpt>
      <trkpt lat="43.32378" lon="6.47562">
        <ele>300.8</ele>
        <time>2021-07-11T09:08:20Z</time>
      </trkpt>
      <trkpt lat="43.32389" lon="6.47552">
        <ele>300.3</ele>
        <time>2021-07-11T09:08:22Z</time>
      </trkpt>
      <trkpt lat="43.32422" lon="6.47522">
        <ele>298.7</ele>
        <time>2021-07-11T09:08:26Z</time>
      </trkpt>
      <trkpt lat="43.32459" lon="6.47456">
        <ele>297.5</ele>
        <time>2021-07-11T09:08:33Z</time>
      </trkpt>
      <trkpt lat="43.32464" lon="6.47449">
        <ele>297.4</ele>
        <time>2021-07-11T09:08:34Z</time>
      </trkpt>
      <trkpt lat="43.32475" lon="6.47441">
        <ele>297.2</ele>
        <time>2021-07-11T09:08:36Z</time>
      </trkpt>
      <trkpt lat="43.32498" lon="6.4744">
        <ele>296.7</ele>
        <time>2021-07-11T09:08:40Z</time>
      </trkpt>
      <trkpt lat="43.32515" lon="6.47441">
        <ele>296.3</ele>
        <time>2021-07-11T09:08:42Z</time>
      </trkpt>
      <trkpt lat="43.32537" lon="6.47437">
        <ele>295.5</ele>
        <time>2021-07-11T09:08:45Z</time>
      </trkpt>
      <trkpt lat="43.32544" lon="6.47437">
        <ele>295.4</ele>
        <time>2021-07-11T09:08:46Z</time>
      </trkpt>
      <trkpt lat="43.32558" lon="6.47437">
        <ele>295</ele>
        <time>2021-07-11T09:08:47Z</time>
      </trkpt>
      <trkpt lat="43.32567" lon="6.47436">
        <ele>294.8</ele>
        <time>2021-07-11T09:08:49Z</time>
      </trkpt>
      <trkpt lat="43.32594" lon="6.47439">
        <ele>294.1</ele>
        <time>2021-07-11T09:08:52Z</time>
      </trkpt>
      <trkpt lat="43.32616" lon="6.47437">
        <ele>293.4</ele>
        <time>2021-07-11T09:08:54Z</time>
      </trkpt>
      <trkpt lat="43.32632" lon="6.47422">
        <ele>292.7</ele>
        <time>2021-07-11T09:08:56Z</time>
      </trkpt>
      <trkpt lat="43.32638" lon="6.47414">
        <ele>292.5</ele>
        <time>2021-07-11T09:08:57Z</time>
      </trkpt>
      <trkpt lat="43.32643" lon="6.4739">
        <ele>292.1</ele>
        <time>2021-07-11T09:08:59Z</time>
      </trkpt>
      <trkpt lat="43.32644" lon="6.47326">
        <ele>291.3</ele>
        <time>2021-07-11T09:09:04Z</time>
      </trkpt>
      <trkpt lat="43.32648" lon="6.47303">
        <ele>290.9</ele>
        <time>2021-07-11T09:09:06Z</time>
      </trkpt>
      <trkpt lat="43.32664" lon="6.47235">
        <ele>290.1</ele>
        <time>2021-07-11T09:09:12Z</time>
      </trkpt>
      <trkpt lat="43.32674" lon="6.47222">
        <ele>289.8</ele>
        <time>2021-07-11T09:09:14Z</time>
      </trkpt>
      <trkpt lat="43.32687" lon="6.47215">
        <ele>289.4</ele>
        <time>2021-07-11T09:09:16Z</time>
      </trkpt>
      <trkpt lat="43.32701" lon="6.47203">
        <ele>288.8</ele>
        <time>2021-07-11T09:09:18Z</time>
      </trkpt>
      <trkpt lat="43.32735" lon="6.47147">
        <ele>287.6</ele>
        <time>2021-07-11T09:09:24Z</time>
      </trkpt>
      <trkpt lat="43.32746" lon="6.47137">
        <ele>287.5</ele>
        <time>2021-07-11T09:09:26Z</time>
      </trkpt>
      <trkpt lat="43.32754" lon="6.47131">
        <ele>287.3</ele>
        <time>2021-07-11T09:09:28Z</time>
      </trkpt>
      <trkpt lat="43.32785" lon="6.47134">
        <ele>286.4</ele>
        <time>2021-07-11T09:09:34Z</time>
      </trkpt>
      <trkpt lat="43.32796" lon="6.47142">
        <ele>286.1</ele>
        <time>2021-07-11T09:09:36Z</time>
      </trkpt>
      <trkpt lat="43.32805" lon="6.47155">
        <ele>285.7</ele>
        <time>2021-07-11T09:09:38Z</time>
      </trkpt>
      <trkpt lat="43.32825" lon="6.47168">
        <ele>285.3</ele>
        <time>2021-07-11T09:09:40Z</time>
      </trkpt>
      <trkpt lat="43.32843" lon="6.47174">
        <ele>284.9</ele>
        <time>2021-07-11T09:09:42Z</time>
      </trkpt>
      <trkpt lat="43.32857" lon="6.47165">
        <ele>284.4</ele>
        <time>2021-07-11T09:09:44Z</time>
      </trkpt>
      <trkpt lat="43.32868" lon="6.47152">
        <ele>283.8</ele>
        <time>2021-07-11T09:09:46Z</time>
      </trkpt>
      <trkpt lat="43.32897" lon="6.47121">
        <ele>282.7</ele>
        <time>2021-07-11T09:09:51Z</time>
      </trkpt>
      <trkpt lat="43.32906" lon="6.47105">
        <ele>282.3</ele>
        <time>2021-07-11T09:09:53Z</time>
      </trkpt>
      <trkpt lat="43.32907" lon="6.47087">
        <ele>281.9</ele>
        <time>2021-07-11T09:09:55Z</time>
      </trkpt>
      <trkpt lat="43.32906" lon="6.47079">
        <ele>281.7</ele>
        <time>2021-07-11T09:09:56Z</time>
      </trkpt>
      <trkpt lat="43.32898" lon="6.47049">
        <ele>281</ele>
        <time>2021-07-11T09:09:59Z</time>
      </trkpt>
      <trkpt lat="43.3287" lon="6.46993">
        <ele>279.9</ele>
        <time>2021-07-11T09:10:04Z</time>
      </trkpt>
      <trkpt lat="43.32859" lon="6.46972">
        <ele>279.5</ele>
        <time>2021-07-11T09:10:06Z</time>
      </trkpt>
      <trkpt lat="43.32829" lon="6.4691">
        <ele>278.5</ele>
        <time>2021-07-11T09:10:12Z</time>
      </trkpt>
      <trkpt lat="43.32826" lon="6.46899">
        <ele>278.4</ele>
        <time>2021-07-11T09:10:13Z</time>
      </trkpt>
      <trkpt lat="43.32822" lon="6.46875">
        <ele>278.2</ele>
        <time>2021-07-11T09:10:15Z</time>
      </trkpt>
      <trkpt lat="43.32822" lon="6.46864">
        <ele>278.1</ele>
        <time>2021-07-11T09:10:16Z</time>
      </trkpt>
      <trkpt lat="43.32823" lon="6.46853">
        <ele>278</ele>
        <time>2021-07-11T09:10:17Z</time>
      </trkpt>
      <trkpt lat="43.32829" lon="6.46832">
        <ele>277.8</ele>
        <time>2021-07-11T09:10:19Z</time>
      </trkpt>
      <trkpt lat="43.32839" lon="6.46818">
        <ele>277.6</ele>
        <time>2021-07-11T09:10:21Z</time>
      </trkpt>
      <trkpt lat="43.32852" lon="6.46808">
        <ele>277.4</ele>
        <time>2021-07-11T09:10:23Z</time>
      </trkpt>
      <trkpt lat="43.32868" lon="6.46801">
        <ele>277.2</ele>
        <time>2021-07-11T09:10:25Z</time>
      </trkpt>
      <trkpt lat="43.32876" lon="6.46798">
        <ele>277.1</ele>
        <time>2021-07-11T09:10:26Z</time>
      </trkpt>
      <trkpt lat="43.32931" lon="6.46781">
        <ele>276.8</ele>
        <time>2021-07-11T09:10:33Z</time>
      </trkpt>
      <trkpt lat="43.32938" lon="6.46776">
        <ele>276.7</ele>
        <time>2021-07-11T09:10:34Z</time>
      </trkpt>
      <trkpt lat="43.32948" lon="6.46761">
        <ele>276.6</ele>
        <time>2021-07-11T09:10:36Z</time>
      </trkpt>
      <trkpt lat="43.3295" lon="6.46751">
        <ele>276.5</ele>
        <time>2021-07-11T09:10:37Z</time>
      </trkpt>
      <trkpt lat="43.32945" lon="6.46731">
        <ele>276.2</ele>
        <time>2021-07-11T09:10:39Z</time>
      </trkpt>
      <trkpt lat="43.32899" lon="6.46683">
        <ele>274.4</ele>
        <time>2021-07-11T09:10:45Z</time>
      </trkpt>
      <trkpt lat="43.32891" lon="6.46676">
        <ele>273.9</ele>
        <time>2021-07-11T09:10:46Z</time>
      </trkpt>
      <trkpt lat="43.32839" lon="6.46633">
        <ele>270.9</ele>
        <time>2021-07-11T09:10:52Z</time>
      </trkpt>
      <trkpt lat="43.3283" lon="6.46628">
        <ele>270.5</ele>
        <time>2021-07-11T09:10:53Z</time>
      </trkpt>
      <trkpt lat="43.32803" lon="6.46617">
        <ele>269.1</ele>
        <time>2021-07-11T09:10:56Z</time>
      </trkpt>
      <trkpt lat="43.32789" lon="6.46602">
        <ele>268.1</ele>
        <time>2021-07-11T09:10:58Z</time>
      </trkpt>
      <trkpt lat="43.32765" lon="6.46562">
        <ele>266.2</ele>
        <time>2021-07-11T09:11:02Z</time>
      </trkpt>
      <trkpt lat="43.32743" lon="6.46538">
        <ele>265.2</ele>
        <time>2021-07-11T09:11:05Z</time>
      </trkpt>
      <trkpt lat="43.32739" lon="6.46528">
        <ele>264.8</ele>
        <time>2021-07-11T09:11:06Z</time>
      </trkpt>
      <trkpt lat="43.32735" lon="6.46517">
        <ele>264.5</ele>
        <time>2021-07-11T09:11:07Z</time>
      </trkpt>
      <trkpt lat="43.32737" lon="6.46492">
        <ele>263.6</ele>
        <time>2021-07-11T09:11:09Z</time>
      </trkpt>
      <trkpt lat="43.32747" lon="6.46417">
        <ele>261.1</ele>
        <time>2021-07-11T09:11:15Z</time>
      </trkpt>
      <trkpt lat="43.32745" lon="6.46405">
        <ele>260.7</ele>
        <time>2021-07-11T09:11:16Z</time>
      </trkpt>
      <trkpt lat="43.32742" lon="6.4638">
        <ele>259.9</ele>
        <time>2021-07-11T09:11:18Z</time>
      </trkpt>
      <trkpt lat="43.32748" lon="6.46341">
        <ele>258.6</ele>
        <time>2021-07-11T09:11:21Z</time>
      </trkpt>
      <trkpt lat="43.32758" lon="6.46317">
        <ele>257.6</ele>
        <time>2021-07-11T09:11:23Z</time>
      </trkpt>
      <trkpt lat="43.32775" lon="6.46282">
        <ele>256.2</ele>
        <time>2021-07-11T09:11:26Z</time>
      </trkpt>
      <trkpt lat="43.3281" lon="6.46225">
        <ele>254.1</ele>
        <time>2021-07-11T09:11:32Z</time>
      </trkpt>
      <trkpt lat="43.32825" lon="6.46221">
        <ele>253.4</ele>
        <time>2021-07-11T09:11:34Z</time>
      </trkpt>
      <trkpt lat="43.32841" lon="6.46225">
        <ele>252.6</ele>
        <time>2021-07-11T09:11:36Z</time>
      </trkpt>
      <trkpt lat="43.32875" lon="6.46237">
        <ele>250.9</ele>
        <time>2021-07-11T09:11:40Z</time>
      </trkpt>
      <trkpt lat="43.32885" lon="6.46238">
        <ele>250.5</ele>
        <time>2021-07-11T09:11:41Z</time>
      </trkpt>
      <trkpt lat="43.32905" lon="6.46234">
        <ele>249.6</ele>
        <time>2021-07-11T09:11:43Z</time>
      </trkpt>
      <trkpt lat="43.32918" lon="6.46218">
        <ele>248.8</ele>
        <time>2021-07-11T09:11:45Z</time>
      </trkpt>
      <trkpt lat="43.32923" lon="6.46208">
        <ele>248.4</ele>
        <time>2021-07-11T09:11:46Z</time>
      </trkpt>
      <trkpt lat="43.32926" lon="6.46196">
        <ele>247.9</ele>
        <time>2021-07-11T09:11:47Z</time>
      </trkpt>
      <trkpt lat="43.32932" lon="6.46168">
        <ele>246.9</ele>
        <time>2021-07-11T09:11:49Z</time>
      </trkpt>
      <trkpt lat="43.32951" lon="6.46087">
        <ele>243.9</ele>
        <time>2021-07-11T09:11:55Z</time>
      </trkpt>
      <trkpt lat="43.32957" lon="6.46077">
        <ele>243.4</ele>
        <time>2021-07-11T09:11:56Z</time>
      </trkpt>
      <trkpt lat="43.32974" lon="6.46042">
        <ele>242.1</ele>
        <time>2021-07-11T09:11:59Z</time>
      </trkpt>
      <trkpt lat="43.32978" lon="6.46013">
        <ele>241.2</ele>
        <time>2021-07-11T09:12:01Z</time>
      </trkpt>
      <trkpt lat="43.32984" lon="6.45945">
        <ele>239.4</ele>
        <time>2021-07-11T09:12:06Z</time>
      </trkpt>
      <trkpt lat="43.32993" lon="6.45926">
        <ele>238.6</ele>
        <time>2021-07-11T09:12:08Z</time>
      </trkpt>
      <trkpt lat="43.33006" lon="6.45916">
        <ele>237.9</ele>
        <time>2021-07-11T09:12:10Z</time>
      </trkpt>
      <trkpt lat="43.33022" lon="6.45916">
        <ele>237.2</ele>
        <time>2021-07-11T09:12:12Z</time>
      </trkpt>
      <trkpt lat="43.33039" lon="6.45913">
        <ele>236.6</ele>
        <time>2021-07-11T09:12:14Z</time>
      </trkpt>
      <trkpt lat="43.33052" lon="6.459">
        <ele>236</ele>
        <time>2021-07-11T09:12:16Z</time>
      </trkpt>
      <trkpt lat="43.33054" lon="6.45878">
        <ele>235.3</ele>
        <time>2021-07-11T09:12:18Z</time>
      </trkpt>
      <trkpt lat="43.3304" lon="6.45819">
        <ele>233.7</ele>
        <time>2021-07-11T09:12:23Z</time>
      </trkpt>
      <trkpt lat="43.33047" lon="6.458">
        <ele>233</ele>
        <time>2021-07-11T09:12:25Z</time>
      </trkpt>
      <trkpt lat="43.33051" lon="6.45793">
        <ele>232.6</ele>
        <time>2021-07-11T09:12:26Z</time>
      </trkpt>
      <trkpt lat="43.33057" lon="6.45788">
        <ele>232.2</ele>
        <time>2021-07-11T09:12:27Z</time>
      </trkpt>
      <trkpt lat="43.33094" lon="6.45774">
        <ele>230.3</ele>
        <time>2021-07-11T09:12:31Z</time>
      </trkpt>
      <trkpt lat="43.33108" lon="6.45757">
        <ele>229.5</ele>
        <time>2021-07-11T09:12:33Z</time>
      </trkpt>
      <trkpt lat="43.33128" lon="6.45731">
        <ele>228</ele>
        <time>2021-07-11T09:12:36Z</time>
      </trkpt>
      <trkpt lat="43.33159" lon="6.45697">
        <ele>226.3</ele>
        <time>2021-07-11T09:12:40Z</time>
      </trkpt>
      <trkpt lat="43.33175" lon="6.45652">
        <ele>224.8</ele>
        <time>2021-07-11T09:12:44Z</time>
      </trkpt>
      <trkpt lat="43.33178" lon="6.45626">
        <ele>223.8</ele>
        <time>2021-07-11T09:12:46Z</time>
      </trkpt>
      <trkpt lat="43.33177" lon="6.4558">
        <ele>222.2</ele>
        <time>2021-07-11T09:12:49Z</time>
      </trkpt>
      <trkpt lat="43.33172" lon="6.45549">
        <ele>221.2</ele>
        <time>2021-07-11T09:12:51Z</time>
      </trkpt>
      <trkpt lat="43.33154" lon="6.45477">
        <ele>219</ele>
        <time>2021-07-11T09:12:56Z</time>
      </trkpt>
      <trkpt lat="43.33138" lon="6.45424">
        <ele>217.3</ele>
        <time>2021-07-11T09:13:00Z</time>
      </trkpt>
      <trkpt lat="43.33135" lon="6.45396">
        <ele>216.4</ele>
        <time>2021-07-11T09:13:02Z</time>
      </trkpt>
      <trkpt lat="43.33148" lon="6.45355">
        <ele>214.9</ele>
        <time>2021-07-11T09:13:05Z</time>
      </trkpt>
      <trkpt lat="43.33152" lon="6.45342">
        <ele>214.4</ele>
        <time>2021-07-11T09:13:06Z</time>
      </trkpt>
      <trkpt lat="43.33161" lon="6.453">
        <ele>213.1</ele>
        <time>2021-07-11T09:13:09Z</time>
      </trkpt>
      <trkpt lat="43.33158" lon="6.45241">
        <ele>211.3</ele>
        <time>2021-07-11T09:13:13Z</time>
      </trkpt>
      <trkpt lat="43.33151" lon="6.45213">
        <ele>210.3</ele>
        <time>2021-07-11T09:13:15Z</time>
      </trkpt>
      <trkpt lat="43.33144" lon="6.452">
        <ele>209.9</ele>
        <time>2021-07-11T09:13:16Z</time>
      </trkpt>
      <trkpt lat="43.33137" lon="6.45188">
        <ele>209.4</ele>
        <time>2021-07-11T09:13:17Z</time>
      </trkpt>
      <trkpt lat="43.33116" lon="6.45151">
        <ele>207.9</ele>
        <time>2021-07-11T09:13:20Z</time>
      </trkpt>
      <trkpt lat="43.3311" lon="6.45122">
        <ele>206.7</ele>
        <time>2021-07-11T09:13:22Z</time>
      </trkpt>
      <trkpt lat="43.331" lon="6.45063">
        <ele>205</ele>
        <time>2021-07-11T09:13:26Z</time>
      </trkpt>
      <trkpt lat="43.3309" lon="6.45023">
        <ele>203.8</ele>
        <time>2021-07-11T09:13:29Z</time>
      </trkpt>
      <trkpt lat="43.33053" lon="6.44953">
        <ele>201.3</ele>
        <time>2021-07-11T09:13:35Z</time>
      </trkpt>
      <trkpt lat="43.33048" lon="6.4494">
        <ele>201</ele>
        <time>2021-07-11T09:13:36Z</time>
      </trkpt>
      <trkpt lat="43.33044" lon="6.44927">
        <ele>200.6</ele>
        <time>2021-07-11T09:13:37Z</time>
      </trkpt>
      <trkpt lat="43.33038" lon="6.44888">
        <ele>199.4</ele>
        <time>2021-07-11T09:13:40Z</time>
      </trkpt>
      <trkpt lat="43.33041" lon="6.44865">
        <ele>198.7</ele>
        <time>2021-07-11T09:13:42Z</time>
      </trkpt>
      <trkpt lat="43.33051" lon="6.44848">
        <ele>198.1</ele>
        <time>2021-07-11T09:13:44Z</time>
      </trkpt>
      <trkpt lat="43.33066" lon="6.44836">
        <ele>197.4</ele>
        <time>2021-07-11T09:13:46Z</time>
      </trkpt>
      <trkpt lat="43.33081" lon="6.44821">
        <ele>196.7</ele>
        <time>2021-07-11T09:13:48Z</time>
      </trkpt>
      <trkpt lat="43.33102" lon="6.44781">
        <ele>195.7</ele>
        <time>2021-07-11T09:13:52Z</time>
      </trkpt>
      <trkpt lat="43.33106" lon="6.44758">
        <ele>195.4</ele>
        <time>2021-07-11T09:13:54Z</time>
      </trkpt>
      <trkpt lat="43.33108" lon="6.44735">
        <ele>195.3</ele>
        <time>2021-07-11T09:13:56Z</time>
      </trkpt>
      <trkpt lat="43.3311" lon="6.44726">
        <ele>195.2</ele>
        <time>2021-07-11T09:13:57Z</time>
      </trkpt>
      <trkpt lat="43.33119" lon="6.44714">
        <ele>195</ele>
        <time>2021-07-11T09:13:59Z</time>
      </trkpt>
      <trkpt lat="43.33131" lon="6.44717">
        <ele>194.6</ele>
        <time>2021-07-11T09:14:01Z</time>
      </trkpt>
      <trkpt lat="43.33142" lon="6.44728">
        <ele>194.3</ele>
        <time>2021-07-11T09:14:03Z</time>
      </trkpt>
      <trkpt lat="43.33156" lon="6.44751">
        <ele>193.8</ele>
        <time>2021-07-11T09:14:06Z</time>
      </trkpt>
      <trkpt lat="43.33197" lon="6.44806">
        <ele>192.1</ele>
        <time>2021-07-11T09:14:13Z</time>
      </trkpt>
      <trkpt lat="43.33218" lon="6.44832">
        <ele>191.2</ele>
        <time>2021-07-11T09:14:16Z</time>
      </trkpt>
      <trkpt lat="43.33258" lon="6.44898">
        <ele>189</ele>
        <time>2021-07-11T09:14:22Z</time>
      </trkpt>
      <trkpt lat="43.33281" lon="6.44948">
        <ele>187.6</ele>
        <time>2021-07-11T09:14:26Z</time>
      </trkpt>
      <trkpt lat="43.33286" lon="6.44974">
        <ele>187.1</ele>
        <time>2021-07-11T09:14:28Z</time>
      </trkpt>
      <trkpt lat="43.33296" lon="6.45004">
        <ele>186.5</ele>
        <time>2021-07-11T09:14:31Z</time>
      </trkpt>
      <trkpt lat="43.33311" lon="6.45009">
        <ele>185.9</ele>
        <time>2021-07-11T09:14:33Z</time>
      </trkpt>
      <trkpt lat="43.33324" lon="6.45001">
        <ele>185.1</ele>
        <time>2021-07-11T09:14:35Z</time>
      </trkpt>
      <trkpt lat="43.3333" lon="6.44994">
        <ele>184.5</ele>
        <time>2021-07-11T09:14:36Z</time>
      </trkpt>
      <trkpt lat="43.33338" lon="6.44976">
        <ele>183.6</ele>
        <time>2021-07-11T09:14:38Z</time>
      </trkpt>
      <trkpt lat="43.3334" lon="6.44954">
        <ele>182.6</ele>
        <time>2021-07-11T09:14:40Z</time>
      </trkpt>
      <trkpt lat="43.33342" lon="6.44929">
        <ele>181.6</ele>
        <time>2021-07-11T09:14:42Z</time>
      </trkpt>
      <trkpt lat="43.33333" lon="6.44871">
        <ele>179.5</ele>
        <time>2021-07-11T09:14:46Z</time>
      </trkpt>
      <trkpt lat="43.3332" lon="6.44788">
        <ele>176.7</ele>
        <time>2021-07-11T09:14:52Z</time>
      </trkpt>
      <trkpt lat="43.33311" lon="6.44732">
        <ele>174.9</ele>
        <time>2021-07-11T09:14:56Z</time>
      </trkpt>
      <trkpt lat="43.33296" lon="6.44646">
        <ele>172.3</ele>
        <time>2021-07-11T09:15:02Z</time>
      </trkpt>
      <trkpt lat="43.33282" lon="6.44594">
        <ele>170.8</ele>
        <time>2021-07-11T09:15:06Z</time>
      </trkpt>
      <trkpt lat="43.33263" lon="6.44519">
        <ele>168.7</ele>
        <time>2021-07-11T09:15:12Z</time>
      </trkpt>
      <trkpt lat="43.33263" lon="6.44493">
        <ele>168</ele>
        <time>2021-07-11T09:15:14Z</time>
      </trkpt>
      <trkpt lat="43.33265" lon="6.44468">
        <ele>167.4</ele>
        <time>2021-07-11T09:15:16Z</time>
      </trkpt>
      <trkpt lat="43.33259" lon="6.44443">
        <ele>166.6</ele>
        <time>2021-07-11T09:15:18Z</time>
      </trkpt>
      <trkpt lat="43.33252" lon="6.44418">
        <ele>165.8</ele>
        <time>2021-07-11T09:15:20Z</time>
      </trkpt>
      <trkpt lat="43.33247" lon="6.44392">
        <ele>165.1</ele>
        <time>2021-07-11T09:15:22Z</time>
      </trkpt>
      <trkpt lat="43.33232" lon="6.44358">
        <ele>163.9</ele>
        <time>2021-07-11T09:15:25Z</time>
      </trkpt>
      <trkpt lat="43.33229" lon="6.44346">
        <ele>163.5</ele>
        <time>2021-07-11T09:15:26Z</time>
      </trkpt>
      <trkpt lat="43.33217" lon="6.44267">
        <ele>160.8</ele>
        <time>2021-07-11T09:15:32Z</time>
      </trkpt>
      <trkpt lat="43.33209" lon="6.44214">
        <ele>158.9</ele>
        <time>2021-07-11T09:15:36Z</time>
      </trkpt>
      <trkpt lat="43.33197" lon="6.44138">
        <ele>156.6</ele>
        <time>2021-07-11T09:15:42Z</time>
      </trkpt>
      <trkpt lat="43.33189" lon="6.44087">
        <ele>155</ele>
        <time>2021-07-11T09:15:46Z</time>
      </trkpt>
      <trkpt lat="43.33185" lon="6.44076">
        <ele>154.6</ele>
        <time>2021-07-11T09:15:47Z</time>
      </trkpt>
      <trkpt lat="43.33171" lon="6.44056">
        <ele>153.9</ele>
        <time>2021-07-11T09:15:49Z</time>
      </trkpt>
      <trkpt lat="43.33148" lon="6.44032">
        <ele>152.8</ele>
        <time>2021-07-11T09:15:52Z</time>
      </trkpt>
      <trkpt lat="43.33139" lon="6.44013">
        <ele>152.1</ele>
        <time>2021-07-11T09:15:54Z</time>
      </trkpt>
      <trkpt lat="43.33136" lon="6.43992">
        <ele>151.2</ele>
        <time>2021-07-11T09:15:56Z</time>
      </trkpt>
      <trkpt lat="43.33139" lon="6.43971">
        <ele>150.4</ele>
        <time>2021-07-11T09:15:58Z</time>
      </trkpt>
      <trkpt lat="43.33148" lon="6.43953">
        <ele>149.6</ele>
        <time>2021-07-11T09:16:00Z</time>
      </trkpt>
      <trkpt lat="43.33178" lon="6.43922">
        <ele>148.1</ele>
        <time>2021-07-11T09:16:04Z</time>
      </trkpt>
      <trkpt lat="43.33187" lon="6.43902">
        <ele>147.4</ele>
        <time>2021-07-11T09:16:06Z</time>
      </trkpt>
      <trkpt lat="43.33188" lon="6.43882">
        <ele>146.8</ele>
        <time>2021-07-11T09:16:08Z</time>
      </trkpt>
      <trkpt lat="43.33182" lon="6.4386">
        <ele>146.2</ele>
        <time>2021-07-11T09:16:10Z</time>
      </trkpt>
      <trkpt lat="43.33176" lon="6.43833">
        <ele>145.2</ele>
        <time>2021-07-11T09:16:12Z</time>
      </trkpt>
      <trkpt lat="43.33177" lon="6.43806">
        <ele>144.4</ele>
        <time>2021-07-11T09:16:14Z</time>
      </trkpt>
      <trkpt lat="43.33183" lon="6.43783">
        <ele>143.6</ele>
        <time>2021-07-11T09:16:16Z</time>
      </trkpt>
      <trkpt lat="43.33195" lon="6.43765">
        <ele>142.9</ele>
        <time>2021-07-11T09:16:18Z</time>
      </trkpt>
      <trkpt lat="43.33207" lon="6.43747">
        <ele>142.2</ele>
        <time>2021-07-11T09:16:20Z</time>
      </trkpt>
      <trkpt lat="43.33209" lon="6.43725">
        <ele>141.6</ele>
        <time>2021-07-11T09:16:22Z</time>
      </trkpt>
      <trkpt lat="43.332" lon="6.43691">
        <ele>140.4</ele>
        <time>2021-07-11T09:16:25Z</time>
      </trkpt>
      <trkpt lat="43.33198" lon="6.43679">
        <ele>140</ele>
        <time>2021-07-11T09:16:26Z</time>
      </trkpt>
      <trkpt lat="43.332" lon="6.43652">
        <ele>139.1</ele>
        <time>2021-07-11T09:16:28Z</time>
      </trkpt>
      <trkpt lat="43.33206" lon="6.43628">
        <ele>138.2</ele>
        <time>2021-07-11T09:16:30Z</time>
      </trkpt>
      <trkpt lat="43.33224" lon="6.43552">
        <ele>135.7</ele>
        <time>2021-07-11T09:16:36Z</time>
      </trkpt>
      <trkpt lat="43.33249" lon="6.43479">
        <ele>133</ele>
        <time>2021-07-11T09:16:42Z</time>
      </trkpt>
      <trkpt lat="43.3327" lon="6.43436">
        <ele>131.4</ele>
        <time>2021-07-11T09:16:46Z</time>
      </trkpt>
      <trkpt lat="43.33304" lon="6.43367">
        <ele>128.5</ele>
        <time>2021-07-11T09:16:52Z</time>
      </trkpt>
      <trkpt lat="43.33326" lon="6.43318">
        <ele>126.4</ele>
        <time>2021-07-11T09:16:56Z</time>
      </trkpt>
      <trkpt lat="43.33335" lon="6.43293">
        <ele>125.3</ele>
        <time>2021-07-11T09:16:58Z</time>
      </trkpt>
      <trkpt lat="43.33343" lon="6.43253">
        <ele>124.1</ele>
        <time>2021-07-11T09:17:01Z</time>
      </trkpt>
      <trkpt lat="43.33336" lon="6.43181">
        <ele>121.8</ele>
        <time>2021-07-11T09:17:06Z</time>
      </trkpt>
      <trkpt lat="43.33332" lon="6.43168">
        <ele>121.3</ele>
        <time>2021-07-11T09:17:07Z</time>
      </trkpt>
      <trkpt lat="43.3332" lon="6.43144">
        <ele>120.5</ele>
        <time>2021-07-11T09:17:09Z</time>
      </trkpt>
      <trkpt lat="43.333" lon="6.43095">
        <ele>118.7</ele>
        <time>2021-07-11T09:17:13Z</time>
      </trkpt>
      <trkpt lat="43.33293" lon="6.43054">
        <ele>117.2</ele>
        <time>2021-07-11T09:17:16Z</time>
      </trkpt>
      <trkpt lat="43.33278" lon="6.42975">
        <ele>114.5</ele>
        <time>2021-07-11T09:17:22Z</time>
      </trkpt>
      <trkpt lat="43.33272" lon="6.42951">
        <ele>113.7</ele>
        <time>2021-07-11T09:17:24Z</time>
      </trkpt>
      <trkpt lat="43.33263" lon="6.42928">
        <ele>112.8</ele>
        <time>2021-07-11T09:17:26Z</time>
      </trkpt>
      <trkpt lat="43.33255" lon="6.42904">
        <ele>111.9</ele>
        <time>2021-07-11T09:17:28Z</time>
      </trkpt>
      <trkpt lat="43.33253" lon="6.42878">
        <ele>111</ele>
        <time>2021-07-11T09:17:30Z</time>
      </trkpt>
      <trkpt lat="43.33259" lon="6.42857">
        <ele>110</ele>
        <time>2021-07-11T09:17:32Z</time>
      </trkpt>
      <trkpt lat="43.33274" lon="6.42841">
        <ele>109</ele>
        <time>2021-07-11T09:17:34Z</time>
      </trkpt>
      <trkpt lat="43.33291" lon="6.42829">
        <ele>108</ele>
        <time>2021-07-11T09:17:36Z</time>
      </trkpt>
      <trkpt lat="43.33307" lon="6.42813">
        <ele>107</ele>
        <time>2021-07-11T09:17:38Z</time>
      </trkpt>
      <trkpt lat="43.33339" lon="6.42761">
        <ele>104.4</ele>
        <time>2021-07-11T09:17:43Z</time>
      </trkpt>
      <trkpt lat="43.33355" lon="6.42745">
        <ele>103.3</ele>
        <time>2021-07-11T09:17:45Z</time>
      </trkpt>
      <trkpt lat="43.33364" lon="6.42739">
        <ele>102.8</ele>
        <time>2021-07-11T09:17:46Z</time>
      </trkpt>
      <trkpt lat="43.33423" lon="6.42709">
        <ele>100.7</ele>
        <time>2021-07-11T09:17:52Z</time>
      </trkpt>
      <trkpt lat="43.33457" lon="6.42692">
        <ele>100</ele>
        <time>2021-07-11T09:17:56Z</time>
      </trkpt>
      <trkpt lat="43.33478" lon="6.42681">
        <ele>99.6</ele>
        <time>2021-07-11T09:17:59Z</time>
      </trkpt>
      <trkpt lat="43.33485" lon="6.42678">
        <ele>99.6</ele>
        <time>2021-07-11T09:18:00Z</time>
      </trkpt>
      <trkpt lat="43.33508" lon="6.42675">
        <ele>99.4</ele>
        <time>2021-07-11T09:18:06Z</time>
      </trkpt>
      <trkpt lat="43.33513" lon="6.42675">
        <ele>99.1</ele>
        <time>2021-07-11T09:18:16Z</time>
      </trkpt>
      <trkpt lat="43.33515" lon="6.42669">
        <ele>98.8</ele>
        <time>2021-07-11T09:18:50Z</time>
      </trkpt>
      <trkpt lat="43.33515" lon="6.42648">
        <ele>97.9</ele>
        <time>2021-07-11T09:18:56Z</time>
      </trkpt>
      <trkpt lat="43.33503" lon="6.4257">
        <ele>95.6</ele>
        <time>2021-07-11T09:19:06Z</time>
      </trkpt>
      <trkpt lat="43.33496" lon="6.42521">
        <ele>95.7</ele>
        <time>2021-07-11T09:19:11Z</time>
      </trkpt>
      <trkpt lat="43.33493" lon="6.42503">
        <ele>95.8</ele>
        <time>2021-07-11T09:19:13Z</time>
      </trkpt>
      <trkpt lat="43.33486" lon="6.4248">
        <ele>96.1</ele>
        <time>2021-07-11T09:19:16Z</time>
      </trkpt>
      <trkpt lat="43.33484" lon="6.42474">
        <ele>96.3</ele>
        <time>2021-07-11T09:19:17Z</time>
      </trkpt>
      <trkpt lat="43.33478" lon="6.42461">
        <ele>96.6</ele>
        <time>2021-07-11T09:19:19Z</time>
      </trkpt>
      <trkpt lat="43.33475" lon="6.42455">
        <ele>96.8</ele>
        <time>2021-07-11T09:19:20Z</time>
      </trkpt>
      <trkpt lat="43.33464" lon="6.42439">
        <ele>97.5</ele>
        <time>2021-07-11T09:19:23Z</time>
      </trkpt>
      <trkpt lat="43.33452" lon="6.42425">
        <ele>98.1</ele>
        <time>2021-07-11T09:19:26Z</time>
      </trkpt>
      <trkpt lat="43.33442" lon="6.42413">
        <ele>98.7</ele>
        <time>2021-07-11T09:19:29Z</time>
      </trkpt>
      <trkpt lat="43.33428" lon="6.42398">
        <ele>99.5</ele>
        <time>2021-07-11T09:19:33Z</time>
      </trkpt>
      <trkpt lat="43.33417" lon="6.42385">
        <ele>100.2</ele>
        <time>2021-07-11T09:19:36Z</time>
      </trkpt>
      <trkpt lat="43.33376" lon="6.4234">
        <ele>101.9</ele>
        <time>2021-07-11T09:19:46Z</time>
      </trkpt>
      <trkpt lat="43.33339" lon="6.42299">
        <ele>103.5</ele>
        <time>2021-07-11T09:19:56Z</time>
      </trkpt>
      <trkpt lat="43.33303" lon="6.42257">
        <ele>105</ele>
        <time>2021-07-11T09:20:06Z</time>
      </trkpt>
      <trkpt lat="43.33279" lon="6.42205">
        <ele>106</ele>
        <time>2021-07-11T09:20:16Z</time>
      </trkpt>
      <trkpt lat="43.33259" lon="6.42141">
        <ele>106.5</ele>
        <time>2021-07-11T09:20:26Z</time>
      </trkpt>
      <trkpt lat="43.33243" lon="6.42088">
        <ele>106.7</ele>
        <time>2021-07-11T09:20:33Z</time>
      </trkpt>
      <trkpt lat="43.33236" lon="6.42066">
        <ele>106.7</ele>
        <time>2021-07-11T09:20:36Z</time>
      </trkpt>
      <trkpt lat="43.33213" lon="6.41996">
        <ele>106.9</ele>
        <time>2021-07-11T09:20:45Z</time>
      </trkpt>
      <trkpt lat="43.33211" lon="6.41989">
        <ele>106.9</ele>
        <time>2021-07-11T09:20:46Z</time>
      </trkpt>
      <trkpt lat="43.33195" lon="6.41916">
        <ele>107.3</ele>
        <time>2021-07-11T09:20:55Z</time>
      </trkpt>
      <trkpt lat="43.33194" lon="6.41908">
        <ele>107.3</ele>
        <time>2021-07-11T09:20:56Z</time>
      </trkpt>
      <trkpt lat="43.33186" lon="6.4183">
        <ele>108.4</ele>
        <time>2021-07-11T09:21:06Z</time>
      </trkpt>
      <trkpt lat="43.33184" lon="6.41792">
        <ele>109.2</ele>
        <time>2021-07-11T09:21:11Z</time>
      </trkpt>
      <trkpt lat="43.33184" lon="6.41752">
        <ele>110.3</ele>
        <time>2021-07-11T09:21:16Z</time>
      </trkpt>
      <trkpt lat="43.33193" lon="6.41686">
        <ele>112.3</ele>
        <time>2021-07-11T09:21:26Z</time>
      </trkpt>
      <trkpt lat="43.33207" lon="6.41622">
        <ele>114.3</ele>
        <time>2021-07-11T09:21:36Z</time>
      </trkpt>
      <trkpt lat="43.33212" lon="6.41593">
        <ele>115.2</ele>
        <time>2021-07-11T09:21:41Z</time>
      </trkpt>
      <trkpt lat="43.33213" lon="6.41576">
        <ele>115.7</ele>
        <time>2021-07-11T09:21:44Z</time>
      </trkpt>
      <trkpt lat="43.33211" lon="6.41564">
        <ele>116.1</ele>
        <time>2021-07-11T09:21:46Z</time>
      </trkpt>
      <trkpt lat="43.33206" lon="6.41545">
        <ele>116.6</ele>
        <time>2021-07-11T09:21:49Z</time>
      </trkpt>
      <trkpt lat="43.33182" lon="6.41507">
        <ele>117.8</ele>
        <time>2021-07-11T09:21:56Z</time>
      </trkpt>
      <trkpt lat="43.33156" lon="6.41479">
        <ele>118.5</ele>
        <time>2021-07-11T09:22:02Z</time>
      </trkpt>
      <trkpt lat="43.33138" lon="6.41461">
        <ele>118.9</ele>
        <time>2021-07-11T09:22:06Z</time>
      </trkpt>
      <trkpt lat="43.3312" lon="6.41442">
        <ele>119.2</ele>
        <time>2021-07-11T09:22:10Z</time>
      </trkpt>
      <trkpt lat="43.33092" lon="6.41414">
        <ele>119.7</ele>
        <time>2021-07-11T09:22:16Z</time>
      </trkpt>
      <trkpt lat="43.33048" lon="6.41366">
        <ele>120.6</ele>
        <time>2021-07-11T09:22:26Z</time>
      </trkpt>
      <trkpt lat="43.33003" lon="6.41318">
        <ele>121.6</ele>
        <time>2021-07-11T09:22:36Z</time>
      </trkpt>
      <trkpt lat="43.32969" lon="6.41283">
        <ele>122.3</ele>
        <time>2021-07-11T09:22:43Z</time>
      </trkpt>
      <trkpt lat="43.32955" lon="6.41268">
        <ele>122.8</ele>
        <time>2021-07-11T09:22:46Z</time>
      </trkpt>
      <trkpt lat="43.32911" lon="6.41222">
        <ele>124.6</ele>
        <time>2021-07-11T09:22:56Z</time>
      </trkpt>
      <trkpt lat="43.32877" lon="6.41186">
        <ele>126</ele>
        <time>2021-07-11T09:23:04Z</time>
      </trkpt>
      <trkpt lat="43.32869" lon="6.41178">
        <ele>126.3</ele>
        <time>2021-07-11T09:23:06Z</time>
      </trkpt>
      <trkpt lat="43.32842" lon="6.41138">
        <ele>127.6</ele>
        <time>2021-07-11T09:23:14Z</time>
      </trkpt>
      <trkpt lat="43.32838" lon="6.41126">
        <ele>127.9</ele>
        <time>2021-07-11T09:23:16Z</time>
      </trkpt>
      <trkpt lat="43.32824" lon="6.41055">
        <ele>128.8</ele>
        <time>2021-07-11T09:23:26Z</time>
      </trkpt>
      <trkpt lat="43.3281" lon="6.40982">
        <ele>129.1</ele>
        <time>2021-07-11T09:23:36Z</time>
      </trkpt>
      <trkpt lat="43.32797" lon="6.4091">
        <ele>128.7</ele>
        <time>2021-07-11T09:23:45Z</time>
      </trkpt>
      <trkpt lat="43.32795" lon="6.40902">
        <ele>128.7</ele>
        <time>2021-07-11T09:23:46Z</time>
      </trkpt>
      <trkpt lat="43.32786" lon="6.40849">
        <ele>128.2</ele>
        <time>2021-07-11T09:23:56Z</time>
      </trkpt>
      <trkpt lat="43.32786" lon="6.40847">
        <ele>128.2</ele>
        <time>2021-07-11T09:23:58Z</time>
      </trkpt>
      <trkpt lat="43.32784" lon="6.40835">
        <ele>128.1</ele>
        <time>2021-07-11T09:25:00Z</time>
      </trkpt>
      <trkpt lat="43.32782" lon="6.4082">
        <ele>128</ele>
        <time>2021-07-11T09:25:04Z</time>
      </trkpt>
      <trkpt lat="43.3278" lon="6.40809">
        <ele>127.9</ele>
        <time>2021-07-11T09:25:06Z</time>
      </trkpt>
      <trkpt lat="43.32777" lon="6.40799">
        <ele>127.8</ele>
        <time>2021-07-11T09:25:08Z</time>
      </trkpt>
      <trkpt lat="43.32756" lon="6.40745">
        <ele>127.4</ele>
        <time>2021-07-11T09:25:16Z</time>
      </trkpt>
      <trkpt lat="43.32726" lon="6.4068">
        <ele>127.4</ele>
        <time>2021-07-11T09:25:25Z</time>
      </trkpt>
      <trkpt lat="43.32722" lon="6.40673">
        <ele>127.4</ele>
        <time>2021-07-11T09:25:26Z</time>
      </trkpt>
      <trkpt lat="43.32715" lon="6.40658">
        <ele>127.4</ele>
        <time>2021-07-11T09:25:28Z</time>
      </trkpt>
      <trkpt lat="43.32705" lon="6.40636">
        <ele>127.5</ele>
        <time>2021-07-11T09:25:31Z</time>
      </trkpt>
      <trkpt lat="43.32699" lon="6.40621">
        <ele>127.5</ele>
        <time>2021-07-11T09:25:33Z</time>
      </trkpt>
      <trkpt lat="43.32695" lon="6.40613">
        <ele>127.5</ele>
        <time>2021-07-11T09:25:34Z</time>
      </trkpt>
      <trkpt lat="43.32689" lon="6.40596">
        <ele>127.5</ele>
        <time>2021-07-11T09:25:36Z</time>
      </trkpt>
      <trkpt lat="43.32686" lon="6.40588">
        <ele>127.5</ele>
        <time>2021-07-11T09:25:37Z</time>
      </trkpt>
      <trkpt lat="43.32678" lon="6.40543">
        <ele>127.7</ele>
        <time>2021-07-11T09:25:42Z</time>
      </trkpt>
      <trkpt lat="43.32677" lon="6.40534">
        <ele>127.7</ele>
        <time>2021-07-11T09:25:43Z</time>
      </trkpt>
      <trkpt lat="43.32676" lon="6.40525">
        <ele>127.8</ele>
        <time>2021-07-11T09:25:44Z</time>
      </trkpt>
      <trkpt lat="43.32676" lon="6.40507">
        <ele>127.9</ele>
        <time>2021-07-11T09:25:46Z</time>
      </trkpt>
      <trkpt lat="43.32676" lon="6.40481">
        <ele>127.9</ele>
        <time>2021-07-11T09:25:49Z</time>
      </trkpt>
      <trkpt lat="43.32676" lon="6.40463">
        <ele>127.9</ele>
        <time>2021-07-11T09:25:51Z</time>
      </trkpt>
      <trkpt lat="43.32676" lon="6.40454">
        <ele>127.9</ele>
        <time>2021-07-11T09:25:52Z</time>
      </trkpt>
      <trkpt lat="43.32678" lon="6.40427">
        <ele>128</ele>
        <time>2021-07-11T09:25:55Z</time>
      </trkpt>
      <trkpt lat="43.32678" lon="6.40419">
        <ele>128</ele>
        <time>2021-07-11T09:25:56Z</time>
      </trkpt>
      <trkpt lat="43.32678" lon="6.40382">
        <ele>128.1</ele>
        <time>2021-07-11T09:26:00Z</time>
      </trkpt>
      <trkpt lat="43.3268" lon="6.40363">
        <ele>128.2</ele>
        <time>2021-07-11T09:26:02Z</time>
      </trkpt>
      <trkpt lat="43.32681" lon="6.40345">
        <ele>128.2</ele>
        <time>2021-07-11T09:26:04Z</time>
      </trkpt>
      <trkpt lat="43.32681" lon="6.40325">
        <ele>128.3</ele>
        <time>2021-07-11T09:26:06Z</time>
      </trkpt>
      <trkpt lat="43.3268" lon="6.40246">
        <ele>128.3</ele>
        <time>2021-07-11T09:26:14Z</time>
      </trkpt>
      <trkpt lat="43.3268" lon="6.40226">
        <ele>128.3</ele>
        <time>2021-07-11T09:26:16Z</time>
      </trkpt>
      <trkpt lat="43.32681" lon="6.40147">
        <ele>128.1</ele>
        <time>2021-07-11T09:26:24Z</time>
      </trkpt>
      <trkpt lat="43.32681" lon="6.40128">
        <ele>128</ele>
        <time>2021-07-11T09:26:26Z</time>
      </trkpt>
      <trkpt lat="43.32681" lon="6.4005">
        <ele>128</ele>
        <time>2021-07-11T09:26:34Z</time>
      </trkpt>
      <trkpt lat="43.32681" lon="6.40031">
        <ele>128.1</ele>
        <time>2021-07-11T09:26:36Z</time>
      </trkpt>
      <trkpt lat="43.32682" lon="6.40004">
        <ele>128.4</ele>
        <time>2021-07-11T09:26:39Z</time>
      </trkpt>
      <trkpt lat="43.32681" lon="6.39961">
        <ele>128.9</ele>
        <time>2021-07-11T09:26:44Z</time>
      </trkpt>
      <trkpt lat="43.32678" lon="6.39944">
        <ele>129.3</ele>
        <time>2021-07-11T09:26:46Z</time>
      </trkpt>
      <trkpt lat="43.3267" lon="6.39927">
        <ele>129.8</ele>
        <time>2021-07-11T09:26:48Z</time>
      </trkpt>
      <trkpt lat="43.32662" lon="6.39914">
        <ele>130.2</ele>
        <time>2021-07-11T09:26:50Z</time>
      </trkpt>
      <trkpt lat="43.32645" lon="6.39891">
        <ele>130.7</ele>
        <time>2021-07-11T09:26:54Z</time>
      </trkpt>
      <trkpt lat="43.32638" lon="6.39879">
        <ele>131</ele>
        <time>2021-07-11T09:26:56Z</time>
      </trkpt>
      <trkpt lat="43.32627" lon="6.39861">
        <ele>131.4</ele>
        <time>2021-07-11T09:26:59Z</time>
      </trkpt>
      <trkpt lat="43.32623" lon="6.39847">
        <ele>131.7</ele>
        <time>2021-07-11T09:27:01Z</time>
      </trkpt>
      <trkpt lat="43.32622" lon="6.39824">
        <ele>132</ele>
        <time>2021-07-11T09:27:04Z</time>
      </trkpt>
      <trkpt lat="43.32624" lon="6.39809">
        <ele>132.2</ele>
        <time>2021-07-11T09:27:06Z</time>
      </trkpt>
      <trkpt lat="43.32638" lon="6.39767">
        <ele>132.8</ele>
        <time>2021-07-11T09:27:12Z</time>
      </trkpt>
      <trkpt lat="43.32648" lon="6.3974">
        <ele>133.1</ele>
        <time>2021-07-11T09:27:16Z</time>
      </trkpt>
      <trkpt lat="43.32662" lon="6.39664">
        <ele>133.5</ele>
        <time>2021-07-11T09:27:26Z</time>
      </trkpt>
      <trkpt lat="43.32667" lon="6.39626">
        <ele>133.8</ele>
        <time>2021-07-11T09:27:31Z</time>
      </trkpt>
      <trkpt lat="43.32669" lon="6.39602">
        <ele>133.9</ele>
        <time>2021-07-11T09:27:34Z</time>
      </trkpt>
      <trkpt lat="43.3267" lon="6.39584">
        <ele>134</ele>
        <time>2021-07-11T09:27:36Z</time>
      </trkpt>
      <trkpt lat="43.32675" lon="6.39507">
        <ele>134.4</ele>
        <time>2021-07-11T09:27:45Z</time>
      </trkpt>
      <trkpt lat="43.32677" lon="6.39499">
        <ele>134.4</ele>
        <time>2021-07-11T09:27:46Z</time>
      </trkpt>
      <trkpt lat="43.32684" lon="6.39446">
        <ele>134.1</ele>
        <time>2021-07-11T09:27:52Z</time>
      </trkpt>
      <trkpt lat="43.3269" lon="6.39409">
        <ele>133.7</ele>
        <time>2021-07-11T09:27:56Z</time>
      </trkpt>
      <trkpt lat="43.327" lon="6.39363">
        <ele>132.9</ele>
        <time>2021-07-11T09:28:01Z</time>
      </trkpt>
      <trkpt lat="43.32706" lon="6.39311">
        <ele>132</ele>
        <time>2021-07-11T09:28:06Z</time>
      </trkpt>
      <trkpt lat="43.32702" lon="6.39227">
        <ele>130.3</ele>
        <time>2021-07-11T09:28:13Z</time>
      </trkpt>
      <trkpt lat="43.327" lon="6.3919">
        <ele>129.4</ele>
        <time>2021-07-11T09:28:16Z</time>
      </trkpt>
      <trkpt lat="43.32698" lon="6.3911">
        <ele>128.2</ele>
        <time>2021-07-11T09:28:23Z</time>
      </trkpt>
      <trkpt lat="43.32696" lon="6.39075">
        <ele>127.9</ele>
        <time>2021-07-11T09:28:26Z</time>
      </trkpt>
      <trkpt lat="43.32687" lon="6.38994">
        <ele>128</ele>
        <time>2021-07-11T09:28:33Z</time>
      </trkpt>
      <trkpt lat="43.32686" lon="6.38963">
        <ele>128.2</ele>
        <time>2021-07-11T09:28:36Z</time>
      </trkpt>
      <trkpt lat="43.32672" lon="6.38886">
        <ele>129</ele>
        <time>2021-07-11T09:28:44Z</time>
      </trkpt>
      <trkpt lat="43.32666" lon="6.38869">
        <ele>129.3</ele>
        <time>2021-07-11T09:28:46Z</time>
      </trkpt>
      <trkpt lat="43.32646" lon="6.38807">
        <ele>130.5</ele>
        <time>2021-07-11T09:28:55Z</time>
      </trkpt>
      <trkpt lat="43.32644" lon="6.388">
        <ele>130.7</ele>
        <time>2021-07-11T09:28:56Z</time>
      </trkpt>
      <trkpt lat="43.32626" lon="6.3874">
        <ele>132.2</ele>
        <time>2021-07-11T09:29:05Z</time>
      </trkpt>
      <trkpt lat="43.32624" lon="6.38734">
        <ele>132.4</ele>
        <time>2021-07-11T09:29:06Z</time>
      </trkpt>
      <trkpt lat="43.32615" lon="6.38678">
        <ele>133.8</ele>
        <time>2021-07-11T09:29:15Z</time>
      </trkpt>
      <trkpt lat="43.32613" lon="6.38672">
        <ele>134</ele>
        <time>2021-07-11T09:29:16Z</time>
      </trkpt>
      <trkpt lat="43.32594" lon="6.38607">
        <ele>135.3</ele>
        <time>2021-07-11T09:29:26Z</time>
      </trkpt>
      <trkpt lat="43.32568" lon="6.38542">
        <ele>135.9</ele>
        <time>2021-07-11T09:29:36Z</time>
      </trkpt>
      <trkpt lat="43.32541" lon="6.3847">
        <ele>135.7</ele>
        <time>2021-07-11T09:29:46Z</time>
      </trkpt>
      <trkpt lat="43.32521" lon="6.38399">
        <ele>135.2</ele>
        <time>2021-07-11T09:29:54Z</time>
      </trkpt>
      <trkpt lat="43.32516" lon="6.3838">
        <ele>135.1</ele>
        <time>2021-07-11T09:29:56Z</time>
      </trkpt>
      <trkpt lat="43.32506" lon="6.38342">
        <ele>135</ele>
        <time>2021-07-11T09:30:00Z</time>
      </trkpt>
      <trkpt lat="43.32494" lon="6.38287">
        <ele>135.2</ele>
        <time>2021-07-11T09:30:06Z</time>
      </trkpt>
      <trkpt lat="43.32479" lon="6.38209">
        <ele>135.1</ele>
        <time>2021-07-11T09:30:15Z</time>
      </trkpt>
      <trkpt lat="43.32477" lon="6.382">
        <ele>135</ele>
        <time>2021-07-11T09:30:16Z</time>
      </trkpt>
      <trkpt lat="43.32461" lon="6.38123">
        <ele>134.5</ele>
        <time>2021-07-11T09:30:24Z</time>
      </trkpt>
      <trkpt lat="43.32457" lon="6.38104">
        <ele>134.4</ele>
        <time>2021-07-11T09:30:26Z</time>
      </trkpt>
      <trkpt lat="43.32442" lon="6.38028">
        <ele>133.6</ele>
        <time>2021-07-11T09:30:34Z</time>
      </trkpt>
      <trkpt lat="43.32438" lon="6.3801">
        <ele>133.4</ele>
        <time>2021-07-11T09:30:36Z</time>
      </trkpt>
      <trkpt lat="43.32429" lon="6.37963">
        <ele>132.9</ele>
        <time>2021-07-11T09:30:41Z</time>
      </trkpt>
      <trkpt lat="43.32407" lon="6.37919">
        <ele>132.2</ele>
        <time>2021-07-11T09:30:46Z</time>
      </trkpt>
      <trkpt lat="43.32383" lon="6.37877">
        <ele>131.6</ele>
        <time>2021-07-11T09:30:51Z</time>
      </trkpt>
      <trkpt lat="43.32358" lon="6.37836">
        <ele>131.1</ele>
        <time>2021-07-11T09:30:56Z</time>
      </trkpt>
      <trkpt lat="43.32352" lon="6.37829">
        <ele>131</ele>
        <time>2021-07-11T09:30:57Z</time>
      </trkpt>
      <trkpt lat="43.32333" lon="6.37812">
        <ele>130.9</ele>
        <time>2021-07-11T09:31:00Z</time>
      </trkpt>
      <trkpt lat="43.32292" lon="6.37789">
        <ele>130.5</ele>
        <time>2021-07-11T09:31:06Z</time>
      </trkpt>
      <trkpt lat="43.3224" lon="6.37764">
        <ele>129.8</ele>
        <time>2021-07-11T09:31:13Z</time>
      </trkpt>
      <trkpt lat="43.32218" lon="6.37751">
        <ele>129.4</ele>
        <time>2021-07-11T09:31:16Z</time>
      </trkpt>
      <trkpt lat="43.32199" lon="6.37734">
        <ele>129</ele>
        <time>2021-07-11T09:31:19Z</time>
      </trkpt>
      <trkpt lat="43.32162" lon="6.37685">
        <ele>128</ele>
        <time>2021-07-11T09:31:26Z</time>
      </trkpt>
      <trkpt lat="43.32141" lon="6.37654">
        <ele>126.4</ele>
        <time>2021-07-11T09:31:30Z</time>
      </trkpt>
      <trkpt lat="43.32136" lon="6.37633">
        <ele>125.2</ele>
        <time>2021-07-11T09:31:32Z</time>
      </trkpt>
      <trkpt lat="43.3214" lon="6.37609">
        <ele>123.8</ele>
        <time>2021-07-11T09:31:34Z</time>
      </trkpt>
      <trkpt lat="43.32151" lon="6.37589">
        <ele>122.3</ele>
        <time>2021-07-11T09:31:36Z</time>
      </trkpt>
      <trkpt lat="43.32179" lon="6.3755">
        <ele>119.7</ele>
        <time>2021-07-11T09:31:40Z</time>
      </trkpt>
      <trkpt lat="43.32188" lon="6.37527">
        <ele>118.6</ele>
        <time>2021-07-11T09:31:42Z</time>
      </trkpt>
      <trkpt lat="43.32191" lon="6.375">
        <ele>117.6</ele>
        <time>2021-07-11T09:31:44Z</time>
      </trkpt>
      <trkpt lat="43.32189" lon="6.37473">
        <ele>116.9</ele>
        <time>2021-07-11T09:31:46Z</time>
      </trkpt>
      <trkpt lat="43.32181" lon="6.37393">
        <ele>116.3</ele>
        <time>2021-07-11T09:31:52Z</time>
      </trkpt>
      <trkpt lat="43.32184" lon="6.37344">
        <ele>116.4</ele>
        <time>2021-07-11T09:31:56Z</time>
      </trkpt>
      <trkpt lat="43.32185" lon="6.37322">
        <ele>116.5</ele>
        <time>2021-07-11T09:31:58Z</time>
      </trkpt>
      <trkpt lat="43.32185" lon="6.37241">
        <ele>117.3</ele>
        <time>2021-07-11T09:32:05Z</time>
      </trkpt>
      <trkpt lat="43.32181" lon="6.3722">
        <ele>117.8</ele>
        <time>2021-07-11T09:32:06Z</time>
      </trkpt>
      <trkpt lat="43.32179" lon="6.3721">
        <ele>118</ele>
        <time>2021-07-11T09:32:08Z</time>
      </trkpt>
      <trkpt lat="43.32142" lon="6.37153">
        <ele>119.3</ele>
        <time>2021-07-11T09:32:16Z</time>
      </trkpt>
      <trkpt lat="43.32116" lon="6.37116">
        <ele>120.3</ele>
        <time>2021-07-11T09:32:22Z</time>
      </trkpt>
      <trkpt lat="43.321" lon="6.37092">
        <ele>120.9</ele>
        <time>2021-07-11T09:32:26Z</time>
      </trkpt>
      <trkpt lat="43.32068" lon="6.37043">
        <ele>122</ele>
        <time>2021-07-11T09:32:34Z</time>
      </trkpt>
      <trkpt lat="43.3206" lon="6.37031">
        <ele>122.3</ele>
        <time>2021-07-11T09:32:36Z</time>
      </trkpt>
      <trkpt lat="43.32057" lon="6.37025">
        <ele>122.4</ele>
        <time>2021-07-11T09:32:37Z</time>
      </trkpt>
      <trkpt lat="43.32034" lon="6.36975">
        <ele>123.3</ele>
        <time>2021-07-11T09:32:45Z</time>
      </trkpt>
      <trkpt lat="43.32031" lon="6.36968">
        <ele>123.5</ele>
        <time>2021-07-11T09:32:46Z</time>
      </trkpt>
      <trkpt lat="43.32006" lon="6.36902">
        <ele>124.8</ele>
        <time>2021-07-11T09:32:56Z</time>
      </trkpt>
      <trkpt lat="43.31985" lon="6.36835">
        <ele>125.8</ele>
        <time>2021-07-11T09:33:06Z</time>
      </trkpt>
      <trkpt lat="43.31969" lon="6.36757">
        <ele>127.3</ele>
        <time>2021-07-11T09:33:16Z</time>
      </trkpt>
      <trkpt lat="43.31949" lon="6.36688">
        <ele>128.7</ele>
        <time>2021-07-11T09:33:26Z</time>
      </trkpt>
      <trkpt lat="43.31929" lon="6.36619">
        <ele>129.7</ele>
        <time>2021-07-11T09:33:36Z</time>
      </trkpt>
      <trkpt lat="43.31907" lon="6.36549">
        <ele>130.7</ele>
        <time>2021-07-11T09:33:46Z</time>
      </trkpt>
      <trkpt lat="43.31881" lon="6.36484">
        <ele>131.6</ele>
        <time>2021-07-11T09:33:55Z</time>
      </trkpt>
      <trkpt lat="43.31878" lon="6.36477">
        <ele>131.7</ele>
        <time>2021-07-11T09:33:56Z</time>
      </trkpt>
      <trkpt lat="43.31874" lon="6.3647">
        <ele>131.8</ele>
        <time>2021-07-11T09:33:57Z</time>
      </trkpt>
      <trkpt lat="43.31839" lon="6.3641">
        <ele>132.7</ele>
        <time>2021-07-11T09:34:06Z</time>
      </trkpt>
      <trkpt lat="43.31801" lon="6.36349">
        <ele>132.7</ele>
        <time>2021-07-11T09:34:16Z</time>
      </trkpt>
      <trkpt lat="43.31764" lon="6.36288">
        <ele>132.1</ele>
        <time>2021-07-11T09:34:25Z</time>
      </trkpt>
      <trkpt lat="43.3176" lon="6.36281">
        <ele>132</ele>
        <time>2021-07-11T09:34:26Z</time>
      </trkpt>
      <trkpt lat="43.3172" lon="6.36222">
        <ele>131.7</ele>
        <time>2021-07-11T09:34:35Z</time>
      </trkpt>
      <trkpt lat="43.31717" lon="6.36214">
        <ele>131.7</ele>
        <time>2021-07-11T09:34:36Z</time>
      </trkpt>
      <trkpt lat="43.31697" lon="6.36141">
        <ele>131.7</ele>
        <time>2021-07-11T09:34:45Z</time>
      </trkpt>
      <trkpt lat="43.31694" lon="6.36133">
        <ele>131.8</ele>
        <time>2021-07-11T09:34:46Z</time>
      </trkpt>
      <trkpt lat="43.31671" lon="6.36075">
        <ele>132.8</ele>
        <time>2021-07-11T09:34:54Z</time>
      </trkpt>
      <trkpt lat="43.31666" lon="6.36063">
        <ele>133.1</ele>
        <time>2021-07-11T09:34:56Z</time>
      </trkpt>
      <trkpt lat="43.31658" lon="6.36039">
        <ele>133.6</ele>
        <time>2021-07-11T09:35:00Z</time>
      </trkpt>
      <trkpt lat="43.31656" lon="6.36028">
        <ele>133.9</ele>
        <time>2021-07-11T09:35:02Z</time>
      </trkpt>
      <trkpt lat="43.31655" lon="6.36004">
        <ele>134.6</ele>
        <time>2021-07-11T09:35:06Z</time>
      </trkpt>
      <trkpt lat="43.31653" lon="6.35979">
        <ele>135.7</ele>
        <time>2021-07-11T09:35:10Z</time>
      </trkpt>
      <trkpt lat="43.31655" lon="6.35966">
        <ele>136.2</ele>
        <time>2021-07-11T09:35:12Z</time>
      </trkpt>
      <trkpt lat="43.3166" lon="6.35948">
        <ele>137.1</ele>
        <time>2021-07-11T09:35:15Z</time>
      </trkpt>
      <trkpt lat="43.31663" lon="6.35944">
        <ele>137.3</ele>
        <time>2021-07-11T09:35:16Z</time>
      </trkpt>
      <trkpt lat="43.31667" lon="6.35942">
        <ele>137.5</ele>
        <time>2021-07-11T09:35:17Z</time>
      </trkpt>
      <trkpt lat="43.31708" lon="6.35941">
        <ele>139.6</ele>
        <time>2021-07-11T09:35:26Z</time>
      </trkpt>
      <trkpt lat="43.31726" lon="6.3594">
        <ele>140.5</ele>
        <time>2021-07-11T09:35:30Z</time>
      </trkpt>
      <trkpt lat="43.31735" lon="6.35937">
        <ele>141</ele>
        <time>2021-07-11T09:35:32Z</time>
      </trkpt>
      <trkpt lat="43.3175" lon="6.35922">
        <ele>141.8</ele>
        <time>2021-07-11T09:35:36Z</time>
      </trkpt>
      <trkpt lat="43.31778" lon="6.35868">
        <ele>143.3</ele>
        <time>2021-07-11T09:35:46Z</time>
      </trkpt>
      <trkpt lat="43.31799" lon="6.35817">
        <ele>144</ele>
        <time>2021-07-11T09:35:55Z</time>
      </trkpt>
      <trkpt lat="43.31802" lon="6.35812">
        <ele>144</ele>
        <time>2021-07-11T09:35:56Z</time>
      </trkpt>
      <trkpt lat="43.31818" lon="6.35775">
        <ele>143.9</ele>
        <time>2021-07-11T09:36:02Z</time>
      </trkpt>
      <trkpt lat="43.31825" lon="6.35759">
        <ele>143.8</ele>
        <time>2021-07-11T09:36:05Z</time>
      </trkpt>
      <trkpt lat="43.31828" lon="6.35754">
        <ele>143.7</ele>
        <time>2021-07-11T09:36:06Z</time>
      </trkpt>
      <trkpt lat="43.3183" lon="6.35748">
        <ele>143.7</ele>
        <time>2021-07-11T09:36:07Z</time>
      </trkpt>
      <trkpt lat="43.31849" lon="6.35702">
        <ele>143.3</ele>
        <time>2021-07-11T09:36:14Z</time>
      </trkpt>
      <trkpt lat="43.31852" lon="6.35687">
        <ele>143</ele>
        <time>2021-07-11T09:36:16Z</time>
      </trkpt>
      <trkpt lat="43.31855" lon="6.35648">
        <ele>142.4</ele>
        <time>2021-07-11T09:36:21Z</time>
      </trkpt>
      <trkpt lat="43.31854" lon="6.35602">
        <ele>141.8</ele>
        <time>2021-07-11T09:36:26Z</time>
      </trkpt>
      <trkpt lat="43.31854" lon="6.35526">
        <ele>141.2</ele>
        <time>2021-07-11T09:36:34Z</time>
      </trkpt>
      <trkpt lat="43.31856" lon="6.35508">
        <ele>141.2</ele>
        <time>2021-07-11T09:36:36Z</time>
      </trkpt>
      <trkpt lat="43.3187" lon="6.35428">
        <ele>140.7</ele>
        <time>2021-07-11T09:36:45Z</time>
      </trkpt>
      <trkpt lat="43.31872" lon="6.35419">
        <ele>140.6</ele>
        <time>2021-07-11T09:36:46Z</time>
      </trkpt>
      <trkpt lat="43.31889" lon="6.35341">
        <ele>139.9</ele>
        <time>2021-07-11T09:36:54Z</time>
      </trkpt>
      <trkpt lat="43.31894" lon="6.35322">
        <ele>139.9</ele>
        <time>2021-07-11T09:36:56Z</time>
      </trkpt>
      <trkpt lat="43.31921" lon="6.35254">
        <ele>140.3</ele>
        <time>2021-07-11T09:37:04Z</time>
      </trkpt>
      <trkpt lat="43.31927" lon="6.35238">
        <ele>140.6</ele>
        <time>2021-07-11T09:37:06Z</time>
      </trkpt>
      <trkpt lat="43.31957" lon="6.35178">
        <ele>142.4</ele>
        <time>2021-07-11T09:37:16Z</time>
      </trkpt>
      <trkpt lat="43.31972" lon="6.35148">
        <ele>142.8</ele>
        <time>2021-07-11T09:37:21Z</time>
      </trkpt>
      <trkpt lat="43.31986" lon="6.35113">
        <ele>142.8</ele>
        <time>2021-07-11T09:37:26Z</time>
      </trkpt>
      <trkpt lat="43.32007" lon="6.35044">
        <ele>142.1</ele>
        <time>2021-07-11T09:37:36Z</time>
      </trkpt>
      <trkpt lat="43.32027" lon="6.34971">
        <ele>140.9</ele>
        <time>2021-07-11T09:37:45Z</time>
      </trkpt>
      <trkpt lat="43.32028" lon="6.34962">
        <ele>140.9</ele>
        <time>2021-07-11T09:37:46Z</time>
      </trkpt>
      <trkpt lat="43.32043" lon="6.34882">
        <ele>140.7</ele>
        <time>2021-07-11T09:37:55Z</time>
      </trkpt>
      <trkpt lat="43.32045" lon="6.34873">
        <ele>140.7</ele>
        <time>2021-07-11T09:37:56Z</time>
      </trkpt>
      <trkpt lat="43.32052" lon="6.34796">
        <ele>139.9</ele>
        <time>2021-07-11T09:38:04Z</time>
      </trkpt>
      <trkpt lat="43.32054" lon="6.34774">
        <ele>139.6</ele>
        <time>2021-07-11T09:38:06Z</time>
      </trkpt>
      <trkpt lat="43.32057" lon="6.3469">
        <ele>138.6</ele>
        <time>2021-07-11T09:38:14Z</time>
      </trkpt>
      <trkpt lat="43.32058" lon="6.34668">
        <ele>138.4</ele>
        <time>2021-07-11T09:38:16Z</time>
      </trkpt>
      <trkpt lat="43.32063" lon="6.34584">
        <ele>137.3</ele>
        <time>2021-07-11T09:38:24Z</time>
      </trkpt>
      <trkpt lat="43.32063" lon="6.34564">
        <ele>137.1</ele>
        <time>2021-07-11T09:38:26Z</time>
      </trkpt>
      <trkpt lat="43.32063" lon="6.34484">
        <ele>135.9</ele>
        <time>2021-07-11T09:38:34Z</time>
      </trkpt>
      <trkpt lat="43.32062" lon="6.34464">
        <ele>135.5</ele>
        <time>2021-07-11T09:38:36Z</time>
      </trkpt>
      <trkpt lat="43.32052" lon="6.34389">
        <ele>134.6</ele>
        <time>2021-07-11T09:38:43Z</time>
      </trkpt>
      <trkpt lat="43.32048" lon="6.34359">
        <ele>134.3</ele>
        <time>2021-07-11T09:38:46Z</time>
      </trkpt>
      <trkpt lat="43.32043" lon="6.34311">
        <ele>134</ele>
        <time>2021-07-11T09:38:51Z</time>
      </trkpt>
      <trkpt lat="43.32039" lon="6.34274">
        <ele>134.1</ele>
        <time>2021-07-11T09:38:55Z</time>
      </trkpt>
      <trkpt lat="43.32038" lon="6.34265">
        <ele>134.2</ele>
        <time>2021-07-11T09:38:56Z</time>
      </trkpt>
      <trkpt lat="43.32031" lon="6.34214">
        <ele>134.9</ele>
        <time>2021-07-11T09:39:02Z</time>
      </trkpt>
      <trkpt lat="43.3202" lon="6.34185">
        <ele>135.3</ele>
        <time>2021-07-11T09:39:06Z</time>
      </trkpt>
      <trkpt lat="43.31988" lon="6.34123">
        <ele>136.5</ele>
        <time>2021-07-11T09:39:15Z</time>
      </trkpt>
      <trkpt lat="43.31984" lon="6.34116">
        <ele>136.6</ele>
        <time>2021-07-11T09:39:16Z</time>
      </trkpt>
      <trkpt lat="43.31952" lon="6.34051">
        <ele>138.1</ele>
        <time>2021-07-11T09:39:26Z</time>
      </trkpt>
      <trkpt lat="43.31932" lon="6.3399">
        <ele>139.3</ele>
        <time>2021-07-11T09:39:36Z</time>
      </trkpt>
      <trkpt lat="43.31916" lon="6.33929">
        <ele>140.7</ele>
        <time>2021-07-11T09:39:46Z</time>
      </trkpt>
      <trkpt lat="43.31899" lon="6.33867">
        <ele>142.1</ele>
        <time>2021-07-11T09:39:56Z</time>
      </trkpt>
      <trkpt lat="43.31892" lon="6.33827">
        <ele>143.1</ele>
        <time>2021-07-11T09:40:02Z</time>
      </trkpt>
      <trkpt lat="43.31889" lon="6.33801">
        <ele>143.7</ele>
        <time>2021-07-11T09:40:06Z</time>
      </trkpt>
      <trkpt lat="43.31881" lon="6.33735">
        <ele>145.3</ele>
        <time>2021-07-11T09:40:16Z</time>
      </trkpt>
      <trkpt lat="43.31875" lon="6.33674">
        <ele>146.4</ele>
        <time>2021-07-11T09:40:26Z</time>
      </trkpt>
      <trkpt lat="43.3187" lon="6.33607">
        <ele>147</ele>
        <time>2021-07-11T09:40:36Z</time>
      </trkpt>
      <trkpt lat="43.31871" lon="6.33534">
        <ele>147.7</ele>
        <time>2021-07-11T09:40:46Z</time>
      </trkpt>
      <trkpt lat="43.31874" lon="6.33484">
        <ele>148.2</ele>
        <time>2021-07-11T09:40:53Z</time>
      </trkpt>
      <trkpt lat="43.31876" lon="6.33464">
        <ele>148.4</ele>
        <time>2021-07-11T09:40:56Z</time>
      </trkpt>
      <trkpt lat="43.31882" lon="6.33401">
        <ele>148.8</ele>
        <time>2021-07-11T09:41:05Z</time>
      </trkpt>
      <trkpt lat="43.31883" lon="6.33395">
        <ele>148.8</ele>
        <time>2021-07-11T09:41:06Z</time>
      </trkpt>
      <trkpt lat="43.31894" lon="6.3334">
        <ele>149</ele>
        <time>2021-07-11T09:41:14Z</time>
      </trkpt>
      <trkpt lat="43.31896" lon="6.33325">
        <ele>149</ele>
        <time>2021-07-11T09:41:16Z</time>
      </trkpt>
      <trkpt lat="43.319" lon="6.33297">
        <ele>149.1</ele>
        <time>2021-07-11T09:41:20Z</time>
      </trkpt>
      <trkpt lat="43.31905" lon="6.33254">
        <ele>149.3</ele>
        <time>2021-07-11T09:41:26Z</time>
      </trkpt>
      <trkpt lat="43.31912" lon="6.33184">
        <ele>150.2</ele>
        <time>2021-07-11T09:41:36Z</time>
      </trkpt>
      <trkpt lat="43.31926" lon="6.3312">
        <ele>151.4</ele>
        <time>2021-07-11T09:41:46Z</time>
      </trkpt>
      <trkpt lat="43.3193" lon="6.33079">
        <ele>152.5</ele>
        <time>2021-07-11T09:41:52Z</time>
      </trkpt>
      <trkpt lat="43.31931" lon="6.33049">
        <ele>153.2</ele>
        <time>2021-07-11T09:41:56Z</time>
      </trkpt>
      <trkpt lat="43.31926" lon="6.32969">
        <ele>154.8</ele>
        <time>2021-07-11T09:42:06Z</time>
      </trkpt>
      <trkpt lat="43.3191" lon="6.32898">
        <ele>155.2</ele>
        <time>2021-07-11T09:42:16Z</time>
      </trkpt>
      <trkpt lat="43.31892" lon="6.32824">
        <ele>154.3</ele>
        <time>2021-07-11T09:42:26Z</time>
      </trkpt>
      <trkpt lat="43.31875" lon="6.32753">
        <ele>152.9</ele>
        <time>2021-07-11T09:42:34Z</time>
      </trkpt>
      <trkpt lat="43.31874" lon="6.32733">
        <ele>152.7</ele>
        <time>2021-07-11T09:42:36Z</time>
      </trkpt>
      <trkpt lat="43.31876" lon="6.32658">
        <ele>152.2</ele>
        <time>2021-07-11T09:42:44Z</time>
      </trkpt>
      <trkpt lat="43.31879" lon="6.3264">
        <ele>152.1</ele>
        <time>2021-07-11T09:42:46Z</time>
      </trkpt>
      <trkpt lat="43.31883" lon="6.32622">
        <ele>152</ele>
        <time>2021-07-11T09:42:48Z</time>
      </trkpt>
      <trkpt lat="43.31908" lon="6.32553">
        <ele>151.6</ele>
        <time>2021-07-11T09:42:56Z</time>
      </trkpt>
      <trkpt lat="43.31939" lon="6.32489">
        <ele>151.5</ele>
        <time>2021-07-11T09:43:04Z</time>
      </trkpt>
      <trkpt lat="43.31947" lon="6.32476">
        <ele>151.5</ele>
        <time>2021-07-11T09:43:06Z</time>
      </trkpt>
      <trkpt lat="43.31976" lon="6.32431">
        <ele>151.2</ele>
        <time>2021-07-11T09:43:13Z</time>
      </trkpt>
      <trkpt lat="43.3198" lon="6.32414">
        <ele>151</ele>
        <time>2021-07-11T09:43:15Z</time>
      </trkpt>
      <trkpt lat="43.31982" lon="6.32404">
        <ele>150.9</ele>
        <time>2021-07-11T09:43:16Z</time>
      </trkpt>
      <trkpt lat="43.31986" lon="6.32367">
        <ele>150.4</ele>
        <time>2021-07-11T09:43:20Z</time>
      </trkpt>
      <trkpt lat="43.31989" lon="6.32319">
        <ele>149.8</ele>
        <time>2021-07-11T09:43:25Z</time>
      </trkpt>
      <trkpt lat="43.31986" lon="6.32308">
        <ele>149.8</ele>
        <time>2021-07-11T09:43:26Z</time>
      </trkpt>
      <trkpt lat="43.31983" lon="6.32299">
        <ele>149.7</ele>
        <time>2021-07-11T09:43:27Z</time>
      </trkpt>
      <trkpt lat="43.31974" lon="6.32281">
        <ele>149.7</ele>
        <time>2021-07-11T09:43:29Z</time>
      </trkpt>
      <trkpt lat="43.31944" lon="6.32222">
        <ele>149.5</ele>
        <time>2021-07-11T09:43:36Z</time>
      </trkpt>
      <trkpt lat="43.31935" lon="6.32147">
        <ele>149.7</ele>
        <time>2021-07-11T09:43:45Z</time>
      </trkpt>
      <trkpt lat="43.31934" lon="6.32139">
        <ele>149.7</ele>
        <time>2021-07-11T09:43:46Z</time>
      </trkpt>
      <trkpt lat="43.31928" lon="6.32093">
        <ele>149.2</ele>
        <time>2021-07-11T09:43:51Z</time>
      </trkpt>
      <trkpt lat="43.3193" lon="6.32074">
        <ele>148.8</ele>
        <time>2021-07-11T09:43:53Z</time>
      </trkpt>
      <trkpt lat="43.31936" lon="6.32046">
        <ele>148.1</ele>
        <time>2021-07-11T09:43:56Z</time>
      </trkpt>
      <trkpt lat="43.31959" lon="6.31971">
        <ele>146.2</ele>
        <time>2021-07-11T09:44:04Z</time>
      </trkpt>
      <trkpt lat="43.31965" lon="6.31952">
        <ele>145.7</ele>
        <time>2021-07-11T09:44:06Z</time>
      </trkpt>
      <trkpt lat="43.3198" lon="6.31876">
        <ele>144</ele>
        <time>2021-07-11T09:44:13Z</time>
      </trkpt>
      <trkpt lat="43.31985" lon="6.31843">
        <ele>143.2</ele>
        <time>2021-07-11T09:44:16Z</time>
      </trkpt>
      <trkpt lat="43.31992" lon="6.31801">
        <ele>142.3</ele>
        <time>2021-07-11T09:44:20Z</time>
      </trkpt>
      <trkpt lat="43.32012" lon="6.31745">
        <ele>141.3</ele>
        <time>2021-07-11T09:44:26Z</time>
      </trkpt>
      <trkpt lat="43.32022" lon="6.31716">
        <ele>140.8</ele>
        <time>2021-07-11T09:44:29Z</time>
      </trkpt>
      <trkpt lat="43.32023" lon="6.31694">
        <ele>140.6</ele>
        <time>2021-07-11T09:44:31Z</time>
      </trkpt>
      <trkpt lat="43.32015" lon="6.31638">
        <ele>140.4</ele>
        <time>2021-07-11T09:44:36Z</time>
      </trkpt>
      <trkpt lat="43.32003" lon="6.31587">
        <ele>141</ele>
        <time>2021-07-11T09:44:41Z</time>
      </trkpt>
      <trkpt lat="43.31999" lon="6.31579">
        <ele>141.2</ele>
        <time>2021-07-11T09:44:42Z</time>
      </trkpt>
      <trkpt lat="43.31983" lon="6.31545">
        <ele>141.9</ele>
        <time>2021-07-11T09:44:46Z</time>
      </trkpt>
      <trkpt lat="43.31961" lon="6.31507">
        <ele>142.7</ele>
        <time>2021-07-11T09:44:52Z</time>
      </trkpt>
      <trkpt lat="43.31958" lon="6.31494">
        <ele>143</ele>
        <time>2021-07-11T09:44:54Z</time>
      </trkpt>
      <trkpt lat="43.31958" lon="6.31482">
        <ele>143.2</ele>
        <time>2021-07-11T09:44:56Z</time>
      </trkpt>
      <trkpt lat="43.31959" lon="6.3141">
        <ele>144.3</ele>
        <time>2021-07-11T09:45:06Z</time>
      </trkpt>
      <trkpt lat="43.31958" lon="6.31334">
        <ele>145.4</ele>
        <time>2021-07-11T09:45:16Z</time>
      </trkpt>
      <trkpt lat="43.31958" lon="6.31259">
        <ele>146.3</ele>
        <time>2021-07-11T09:45:26Z</time>
      </trkpt>
      <trkpt lat="43.31959" lon="6.31244">
        <ele>146.4</ele>
        <time>2021-07-11T09:45:28Z</time>
      </trkpt>
      <trkpt lat="43.31967" lon="6.31207">
        <ele>146.5</ele>
        <time>2021-07-11T09:45:33Z</time>
      </trkpt>
      <trkpt lat="43.31976" lon="6.31187">
        <ele>146.5</ele>
        <time>2021-07-11T09:45:36Z</time>
      </trkpt>
      <trkpt lat="43.31993" lon="6.31154">
        <ele>146.6</ele>
        <time>2021-07-11T09:45:41Z</time>
      </trkpt>
      <trkpt lat="43.32012" lon="6.3112">
        <ele>146.6</ele>
        <time>2021-07-11T09:45:46Z</time>
      </trkpt>
      <trkpt lat="43.32041" lon="6.31051">
        <ele>146.7</ele>
        <time>2021-07-11T09:45:56Z</time>
      </trkpt>
      <trkpt lat="43.32049" lon="6.30988">
        <ele>146.9</ele>
        <time>2021-07-11T09:46:04Z</time>
      </trkpt>
      <trkpt lat="43.3205" lon="6.30971">
        <ele>147</ele>
        <time>2021-07-11T09:46:06Z</time>
      </trkpt>
      <trkpt lat="43.32053" lon="6.30903">
        <ele>148.2</ele>
        <time>2021-07-11T09:46:15Z</time>
      </trkpt>
      <trkpt lat="43.32052" lon="6.30896">
        <ele>148.4</ele>
        <time>2021-07-11T09:46:16Z</time>
      </trkpt>
      <trkpt lat="43.32036" lon="6.30832">
        <ele>149.5</ele>
        <time>2021-07-11T09:46:26Z</time>
      </trkpt>
      <trkpt lat="43.32029" lon="6.30784">
        <ele>150.4</ele>
        <time>2021-07-11T09:46:34Z</time>
      </trkpt>
      <trkpt lat="43.3203" lon="6.30771">
        <ele>150.6</ele>
        <time>2021-07-11T09:46:36Z</time>
      </trkpt>
      <trkpt lat="43.32034" lon="6.30737">
        <ele>151.1</ele>
        <time>2021-07-11T09:46:41Z</time>
      </trkpt>
      <trkpt lat="43.32034" lon="6.30696">
        <ele>151.5</ele>
        <time>2021-07-11T09:46:46Z</time>
      </trkpt>
      <trkpt lat="43.32036" lon="6.30663">
        <ele>151.8</ele>
        <time>2021-07-11T09:46:50Z</time>
      </trkpt>
      <trkpt lat="43.32042" lon="6.30617">
        <ele>152.1</ele>
        <time>2021-07-11T09:46:56Z</time>
      </trkpt>
      <trkpt lat="43.32047" lon="6.30564">
        <ele>152.2</ele>
        <time>2021-07-11T09:47:03Z</time>
      </trkpt>
      <trkpt lat="43.32047" lon="6.30542">
        <ele>152.3</ele>
        <time>2021-07-11T09:47:06Z</time>
      </trkpt>
      <trkpt lat="43.32043" lon="6.30471">
        <ele>153</ele>
        <time>2021-07-11T09:47:15Z</time>
      </trkpt>
      <trkpt lat="43.32044" lon="6.30464">
        <ele>153</ele>
        <time>2021-07-11T09:47:16Z</time>
      </trkpt>
      <trkpt lat="43.3205" lon="6.30441">
        <ele>153.4</ele>
        <time>2021-07-11T09:47:19Z</time>
      </trkpt>
      <trkpt lat="43.32056" lon="6.30429">
        <ele>153.5</ele>
        <time>2021-07-11T09:47:21Z</time>
      </trkpt>
      <trkpt lat="43.32074" lon="6.30401">
        <ele>154</ele>
        <time>2021-07-11T09:47:26Z</time>
      </trkpt>
      <trkpt lat="43.32105" lon="6.3034">
        <ele>154.9</ele>
        <time>2021-07-11T09:47:36Z</time>
      </trkpt>
      <trkpt lat="43.32132" lon="6.30281">
        <ele>155.9</ele>
        <time>2021-07-11T09:47:46Z</time>
      </trkpt>
      <trkpt lat="43.32144" lon="6.30218">
        <ele>156.8</ele>
        <time>2021-07-11T09:47:56Z</time>
      </trkpt>
      <trkpt lat="43.32157" lon="6.30148">
        <ele>157.3</ele>
        <time>2021-07-11T09:48:06Z</time>
      </trkpt>
      <trkpt lat="43.32167" lon="6.30077">
        <ele>158</ele>
        <time>2021-07-11T09:48:16Z</time>
      </trkpt>
      <trkpt lat="43.32166" lon="6.30023">
        <ele>158.9</ele>
        <time>2021-07-11T09:48:24Z</time>
      </trkpt>
      <trkpt lat="43.32164" lon="6.30009">
        <ele>159.2</ele>
        <time>2021-07-11T09:48:26Z</time>
      </trkpt>
      <trkpt lat="43.32163" lon="6.29997">
        <ele>159.5</ele>
        <time>2021-07-11T09:48:28Z</time>
      </trkpt>
      <trkpt lat="43.32159" lon="6.29949">
        <ele>160.7</ele>
        <time>2021-07-11T09:48:36Z</time>
      </trkpt>
      <trkpt lat="43.32157" lon="6.29885">
        <ele>161.1</ele>
        <time>2021-07-11T09:48:46Z</time>
      </trkpt>
      <trkpt lat="43.32157" lon="6.2986">
        <ele>161</ele>
        <time>2021-07-11T09:48:50Z</time>
      </trkpt>
      <trkpt lat="43.32154" lon="6.29811">
        <ele>160.4</ele>
        <time>2021-07-11T09:48:56Z</time>
      </trkpt>
      <trkpt lat="43.32148" lon="6.29758">
        <ele>160.2</ele>
        <time>2021-07-11T09:49:02Z</time>
      </trkpt>
      <trkpt lat="43.3214" lon="6.29728">
        <ele>160.2</ele>
        <time>2021-07-11T09:49:06Z</time>
      </trkpt>
      <trkpt lat="43.32113" lon="6.2966">
        <ele>160.7</ele>
        <time>2021-07-11T09:49:16Z</time>
      </trkpt>
      <trkpt lat="43.32086" lon="6.2961">
        <ele>161.3</ele>
        <time>2021-07-11T09:49:24Z</time>
      </trkpt>
      <trkpt lat="43.32078" lon="6.29599">
        <ele>161.3</ele>
        <time>2021-07-11T09:49:26Z</time>
      </trkpt>
      <trkpt lat="43.32036" lon="6.29544">
        <ele>162</ele>
        <time>2021-07-11T09:49:36Z</time>
      </trkpt>
      <trkpt lat="43.31998" lon="6.2949">
        <ele>162.8</ele>
        <time>2021-07-11T09:49:46Z</time>
      </trkpt>
      <trkpt lat="43.31964" lon="6.29434">
        <ele>163.3</ele>
        <time>2021-07-11T09:49:56Z</time>
      </trkpt>
      <trkpt lat="43.31944" lon="6.29401">
        <ele>163.4</ele>
        <time>2021-07-11T09:50:02Z</time>
      </trkpt>
      <trkpt lat="43.3193" lon="6.29379">
        <ele>163.6</ele>
        <time>2021-07-11T09:50:06Z</time>
      </trkpt>
      <trkpt lat="43.31896" lon="6.29322">
        <ele>163.6</ele>
        <time>2021-07-11T09:50:16Z</time>
      </trkpt>
      <trkpt lat="43.31868" lon="6.29269">
        <ele>163.4</ele>
        <time>2021-07-11T09:50:26Z</time>
      </trkpt>
      <trkpt lat="43.31862" lon="6.29249">
        <ele>163.4</ele>
        <time>2021-07-11T09:50:29Z</time>
      </trkpt>
      <trkpt lat="43.31851" lon="6.29196">
        <ele>163.3</ele>
        <time>2021-07-11T09:50:36Z</time>
      </trkpt>
      <trkpt lat="43.31833" lon="6.2912">
        <ele>163.6</ele>
        <time>2021-07-11T09:50:46Z</time>
      </trkpt>
      <trkpt lat="43.31829" lon="6.29092">
        <ele>163.5</ele>
        <time>2021-07-11T09:50:50Z</time>
      </trkpt>
      <trkpt lat="43.31826" lon="6.29046">
        <ele>162.7</ele>
        <time>2021-07-11T09:50:56Z</time>
      </trkpt>
      <trkpt lat="43.31827" lon="6.29038">
        <ele>162.7</ele>
        <time>2021-07-11T09:50:57Z</time>
      </trkpt>
      <trkpt lat="43.3183" lon="6.29024">
        <ele>162.6</ele>
        <time>2021-07-11T09:50:59Z</time>
      </trkpt>
      <trkpt lat="43.31836" lon="6.29013">
        <ele>162.6</ele>
        <time>2021-07-11T09:51:01Z</time>
      </trkpt>
      <trkpt lat="43.31845" lon="6.29008">
        <ele>162.4</ele>
        <time>2021-07-11T09:51:03Z</time>
      </trkpt>
      <trkpt lat="43.31857" lon="6.29">
        <ele>162.3</ele>
        <time>2021-07-11T09:51:06Z</time>
      </trkpt>
      <trkpt lat="43.31889" lon="6.28981">
        <ele>162.3</ele>
        <time>2021-07-11T09:51:16Z</time>
      </trkpt>
      <trkpt lat="43.31892" lon="6.28971">
        <ele>162.3</ele>
        <time>2021-07-11T09:51:21Z</time>
      </trkpt>
      <trkpt lat="43.31888" lon="6.28957">
        <ele>162.6</ele>
        <time>2021-07-11T09:51:26Z</time>
      </trkpt>
      <trkpt lat="43.31883" lon="6.28921">
        <ele>163.3</ele>
        <time>2021-07-11T09:51:36Z</time>
      </trkpt>
      <trkpt lat="43.31881" lon="6.28901">
        <ele>163.9</ele>
        <time>2021-07-11T09:51:42Z</time>
      </trkpt>
      <trkpt lat="43.31891" lon="6.2889">
        <ele>166.5</ele>
        <time>2021-07-11T09:51:46Z</time>
      </trkpt>
      <trkpt lat="43.31921" lon="6.28858">
        <ele>170</ele>
        <time>2021-07-11T09:51:56Z</time>
      </trkpt>
      <trkpt lat="43.31928" lon="6.28855">
        <ele>170.9</ele>
        <time>2021-07-11T09:51:59Z</time>
      </trkpt>
      <trkpt lat="43.31943" lon="6.28874">
        <ele>171.3</ele>
        <time>2021-07-11T09:52:06Z</time>
      </trkpt>
      <trkpt lat="43.31945" lon="6.28876">
        <ele>171.3</ele>
        <time>2021-07-11T09:52:07Z</time>
      </trkpt>
      <trkpt lat="43.31967" lon="6.28858">
        <ele>173.9</ele>
        <time>2021-07-11T09:52:16Z</time>
      </trkpt>
      <trkpt lat="43.31988" lon="6.28833">
        <ele>176.5</ele>
        <time>2021-07-11T09:52:26Z</time>
      </trkpt>
      <trkpt lat="43.31991" lon="6.28831">
        <ele>176.8</ele>
        <time>2021-07-11T09:52:28Z</time>
      </trkpt>
      <trkpt lat="43.32004" lon="6.28853">
        <ele>167.8</ele>
        <time>2021-07-11T09:52:36Z</time>
      </trkpt>
      <trkpt lat="43.32007" lon="6.28854">
        <ele>167.8</ele>
        <time>2021-07-11T09:52:37Z</time>
      </trkpt>
      <trkpt lat="43.32017" lon="6.28853">
        <ele>168.1</ele>
        <time>2021-07-11T09:52:46Z</time>
      </trkpt>
      <trkpt lat="43.32018" lon="6.28851">
        <ele>168.1</ele>
        <time>2021-07-11T09:52:49Z</time>
      </trkpt>
      <trkpt lat="43.32011" lon="6.2883">
        <ele>168.4</ele>
        <time>2021-07-11T09:52:56Z</time>
      </trkpt>
      <trkpt lat="43.32007" lon="6.28802">
        <ele>168.9</ele>
        <time>2021-07-11T09:53:06Z</time>
      </trkpt>
      <trkpt lat="43.3201" lon="6.28789">
        <ele>169.2</ele>
        <time>2021-07-11T09:53:16Z</time>
      </trkpt>
      <trkpt lat="43.32008" lon="6.28781">
        <ele>169.4</ele>
        <time>2021-07-11T09:53:21Z</time>
      </trkpt>
      <trkpt lat="43.32007" lon="6.28779">
        <ele>169.4</ele>
        <time>2021-07-11T09:53:25Z</time>
      </trkpt>
      <trkpt lat="43.32007" lon="6.28778">
        <ele>169.5</ele>
        <time>2021-07-11T09:53:26Z</time>
      </trkpt>
      <trkpt lat="43.32009" lon="6.28776">
        <ele>169.5</ele>
        <time>2021-07-11T09:53:36Z</time>
      </trkpt>
      <trkpt lat="43.32009" lon="6.28774">
        <ele>169.6</ele>
        <time>2021-07-11T09:53:41Z</time>
      </trkpt>
      <trkpt lat="43.32012" lon="6.28775">
        <ele>169.6</ele>
        <time>2021-07-11T09:53:46Z</time>
      </trkpt>
      <trkpt lat="43.32016" lon="6.28775">
        <ele>169.7</ele>
        <time>2021-07-11T09:53:56Z</time>
      </trkpt>
      <trkpt lat="43.32015" lon="6.28775">
        <ele>169.7</ele>
        <time>2021-07-11T09:54:06Z</time>
      </trkpt>
      <trkpt lat="43.32015" lon="6.28775">
        <ele>169.7</ele>
        <time>2021-07-11T09:54:10Z</time>
      </trkpt>
      <trkpt lat="43.32014" lon="6.28773">
        <ele>169.7</ele>
        <time>2021-07-11T09:54:17Z</time>
      </trkpt>
      <trkpt lat="43.32018" lon="6.28767">
        <ele>169.8</ele>
        <time>2021-07-11T09:54:24Z</time>
      </trkpt>
      <trkpt lat="43.3202" lon="6.28762">
        <ele>169.9</ele>
        <time>2021-07-11T09:54:26Z</time>
      </trkpt>
      <trkpt lat="43.32021" lon="6.28709">
        <ele>171</ele>
        <time>2021-07-11T09:54:36Z</time>
      </trkpt>
      <trkpt lat="43.32029" lon="6.2865">
        <ele>172.1</ele>
        <time>2021-07-11T09:54:46Z</time>
      </trkpt>
      <trkpt lat="43.32032" lon="6.28626">
        <ele>172.3</ele>
        <time>2021-07-11T09:54:49Z</time>
      </trkpt>
      <trkpt lat="43.32037" lon="6.28619">
        <ele>172.3</ele>
        <time>2021-07-11T09:54:50Z</time>
      </trkpt>
      <trkpt lat="43.32054" lon="6.28575">
        <ele>172.4</ele>
        <time>2021-07-11T09:54:56Z</time>
      </trkpt>
      <trkpt lat="43.32061" lon="6.28544">
        <ele>172.5</ele>
        <time>2021-07-11T09:55:00Z</time>
      </trkpt>
      <trkpt lat="43.32062" lon="6.28535">
        <ele>172.6</ele>
        <time>2021-07-11T09:55:01Z</time>
      </trkpt>
      <trkpt lat="43.32065" lon="6.28512">
        <ele>172.6</ele>
        <time>2021-07-11T09:55:05Z</time>
      </trkpt>
      <trkpt lat="43.32065" lon="6.28506">
        <ele>172.6</ele>
        <time>2021-07-11T09:55:06Z</time>
      </trkpt>
      <trkpt lat="43.32065" lon="6.28501">
        <ele>172.6</ele>
        <time>2021-07-11T09:55:07Z</time>
      </trkpt>
      <trkpt lat="43.32065" lon="6.28496">
        <ele>172.6</ele>
        <time>2021-07-11T09:55:08Z</time>
      </trkpt>
      <trkpt lat="43.32063" lon="6.2849">
        <ele>172.5</ele>
        <time>2021-07-11T09:55:09Z</time>
      </trkpt>
      <trkpt lat="43.32061" lon="6.28485">
        <ele>172.5</ele>
        <time>2021-07-11T09:55:10Z</time>
      </trkpt>
      <trkpt lat="43.32058" lon="6.28478">
        <ele>172.5</ele>
        <time>2021-07-11T09:55:11Z</time>
      </trkpt>
      <trkpt lat="43.32053" lon="6.2847">
        <ele>172.5</ele>
        <time>2021-07-11T09:55:12Z</time>
      </trkpt>
      <trkpt lat="43.32036" lon="6.28442">
        <ele>172.4</ele>
        <time>2021-07-11T09:55:16Z</time>
      </trkpt>
      <trkpt lat="43.32032" lon="6.28434">
        <ele>172.5</ele>
        <time>2021-07-11T09:55:17Z</time>
      </trkpt>
      <trkpt lat="43.32029" lon="6.28425">
        <ele>172.5</ele>
        <time>2021-07-11T09:55:18Z</time>
      </trkpt>
      <trkpt lat="43.32026" lon="6.28418">
        <ele>172.7</ele>
        <time>2021-07-11T09:55:19Z</time>
      </trkpt>
      <trkpt lat="43.32006" lon="6.28383">
        <ele>173.4</ele>
        <time>2021-07-11T09:55:25Z</time>
      </trkpt>
      <trkpt lat="43.32002" lon="6.28379">
        <ele>173.6</ele>
        <time>2021-07-11T09:55:26Z</time>
      </trkpt>
      <trkpt lat="43.31984" lon="6.28366">
        <ele>174.3</ele>
        <time>2021-07-11T09:55:30Z</time>
      </trkpt>
      <trkpt lat="43.3197" lon="6.2836">
        <ele>174.9</ele>
        <time>2021-07-11T09:55:33Z</time>
      </trkpt>
      <trkpt lat="43.31956" lon="6.28354">
        <ele>175.5</ele>
        <time>2021-07-11T09:55:36Z</time>
      </trkpt>
      <trkpt lat="43.3193" lon="6.28345">
        <ele>176.6</ele>
        <time>2021-07-11T09:55:42Z</time>
      </trkpt>
      <trkpt lat="43.31913" lon="6.28342">
        <ele>177.3</ele>
        <time>2021-07-11T09:55:46Z</time>
      </trkpt>
      <trkpt lat="43.31871" lon="6.28327">
        <ele>179.1</ele>
        <time>2021-07-11T09:55:56Z</time>
      </trkpt>
      <trkpt lat="43.31831" lon="6.28307">
        <ele>180.5</ele>
        <time>2021-07-11T09:56:06Z</time>
      </trkpt>
      <trkpt lat="43.31817" lon="6.28292">
        <ele>180.9</ele>
        <time>2021-07-11T09:56:10Z</time>
      </trkpt>
      <trkpt lat="43.31806" lon="6.2827">
        <ele>181.1</ele>
        <time>2021-07-11T09:56:14Z</time>
      </trkpt>
      <trkpt lat="43.31801" lon="6.28257">
        <ele>181.2</ele>
        <time>2021-07-11T09:56:16Z</time>
      </trkpt>
      <trkpt lat="43.3179" lon="6.28191">
        <ele>181.9</ele>
        <time>2021-07-11T09:56:26Z</time>
      </trkpt>
      <trkpt lat="43.31786" lon="6.28161">
        <ele>182.4</ele>
        <time>2021-07-11T09:56:31Z</time>
      </trkpt>
      <trkpt lat="43.31779" lon="6.2813">
        <ele>183.1</ele>
        <time>2021-07-11T09:56:36Z</time>
      </trkpt>
      <trkpt lat="43.3176" lon="6.28068">
        <ele>184.6</ele>
        <time>2021-07-11T09:56:46Z</time>
      </trkpt>
      <trkpt lat="43.3174" lon="6.28012">
        <ele>186.5</ele>
        <time>2021-07-11T09:56:56Z</time>
      </trkpt>
      <trkpt lat="43.31716" lon="6.27957">
        <ele>188.1</ele>
        <time>2021-07-11T09:57:06Z</time>
      </trkpt>
      <trkpt lat="43.31689" lon="6.27908">
        <ele>189.3</ele>
        <time>2021-07-11T09:57:16Z</time>
      </trkpt>
      <trkpt lat="43.31661" lon="6.27858">
        <ele>190.2</ele>
        <time>2021-07-11T09:57:26Z</time>
      </trkpt>
      <trkpt lat="43.31625" lon="6.27794">
        <ele>190.9</ele>
        <time>2021-07-11T09:57:36Z</time>
      </trkpt>
      <trkpt lat="43.31591" lon="6.27728">
        <ele>191.3</ele>
        <time>2021-07-11T09:57:46Z</time>
      </trkpt>
      <trkpt lat="43.3158" lon="6.277">
        <ele>191.5</ele>
        <time>2021-07-11T09:57:50Z</time>
      </trkpt>
      <trkpt lat="43.31565" lon="6.27661">
        <ele>191.8</ele>
        <time>2021-07-11T09:57:56Z</time>
      </trkpt>
      <trkpt lat="43.31558" lon="6.27645">
        <ele>191.9</ele>
        <time>2021-07-11T09:58:00Z</time>
      </trkpt>
      <trkpt lat="43.31558" lon="6.27635">
        <ele>192</ele>
        <time>2021-07-11T09:58:02Z</time>
      </trkpt>
      <trkpt lat="43.31563" lon="6.27623">
        <ele>192</ele>
        <time>2021-07-11T09:58:04Z</time>
      </trkpt>
      <trkpt lat="43.31566" lon="6.27611">
        <ele>192.1</ele>
        <time>2021-07-11T09:58:06Z</time>
      </trkpt>
      <trkpt lat="43.31561" lon="6.27601">
        <ele>192.1</ele>
        <time>2021-07-11T09:58:08Z</time>
      </trkpt>
      <trkpt lat="43.31546" lon="6.27591">
        <ele>192.3</ele>
        <time>2021-07-11T09:58:11Z</time>
      </trkpt>
      <trkpt lat="43.31538" lon="6.2758">
        <ele>192.4</ele>
        <time>2021-07-11T09:58:13Z</time>
      </trkpt>
      <trkpt lat="43.31531" lon="6.27559">
        <ele>192.5</ele>
        <time>2021-07-11T09:58:16Z</time>
      </trkpt>
      <trkpt lat="43.31512" lon="6.27484">
        <ele>192.8</ele>
        <time>2021-07-11T09:58:26Z</time>
      </trkpt>
      <trkpt lat="43.31504" lon="6.27409">
        <ele>193.1</ele>
        <time>2021-07-11T09:58:35Z</time>
      </trkpt>
      <trkpt lat="43.31503" lon="6.27401">
        <ele>193.1</ele>
        <time>2021-07-11T09:58:36Z</time>
      </trkpt>
      <trkpt lat="43.31499" lon="6.2732">
        <ele>192.9</ele>
        <time>2021-07-11T09:58:45Z</time>
      </trkpt>
      <trkpt lat="43.31498" lon="6.27311">
        <ele>192.9</ele>
        <time>2021-07-11T09:58:46Z</time>
      </trkpt>
      <trkpt lat="43.31492" lon="6.27235">
        <ele>192.6</ele>
        <time>2021-07-11T09:58:54Z</time>
      </trkpt>
      <trkpt lat="43.3149" lon="6.27215">
        <ele>192.5</ele>
        <time>2021-07-11T09:58:56Z</time>
      </trkpt>
      <trkpt lat="43.31483" lon="6.27134">
        <ele>192</ele>
        <time>2021-07-11T09:59:04Z</time>
      </trkpt>
      <trkpt lat="43.31481" lon="6.27113">
        <ele>192</ele>
        <time>2021-07-11T09:59:06Z</time>
      </trkpt>
      <trkpt lat="43.31477" lon="6.27072">
        <ele>192</ele>
        <time>2021-07-11T09:59:10Z</time>
      </trkpt>
      <trkpt lat="43.31471" lon="6.27012">
        <ele>192.5</ele>
        <time>2021-07-11T09:59:16Z</time>
      </trkpt>
      <trkpt lat="43.3146" lon="6.26937">
        <ele>193.6</ele>
        <time>2021-07-11T09:59:25Z</time>
      </trkpt>
      <trkpt lat="43.31458" lon="6.26929">
        <ele>193.7</ele>
        <time>2021-07-11T09:59:26Z</time>
      </trkpt>
      <trkpt lat="43.31434" lon="6.26859">
        <ele>194.6</ele>
        <time>2021-07-11T09:59:36Z</time>
      </trkpt>
      <trkpt lat="43.31401" lon="6.26795">
        <ele>195.3</ele>
        <time>2021-07-11T09:59:46Z</time>
      </trkpt>
      <trkpt lat="43.31372" lon="6.26731">
        <ele>195.7</ele>
        <time>2021-07-11T09:59:55Z</time>
      </trkpt>
      <trkpt lat="43.31369" lon="6.26724">
        <ele>195.7</ele>
        <time>2021-07-11T09:59:56Z</time>
      </trkpt>
      <trkpt lat="43.31343" lon="6.26651">
        <ele>196.5</ele>
        <time>2021-07-11T10:00:06Z</time>
      </trkpt>
      <trkpt lat="43.31319" lon="6.2658">
        <ele>197.3</ele>
        <time>2021-07-11T10:00:16Z</time>
      </trkpt>
      <trkpt lat="43.31293" lon="6.2651">
        <ele>197.6</ele>
        <time>2021-07-11T10:00:26Z</time>
      </trkpt>
      <trkpt lat="43.3129" lon="6.26503">
        <ele>197.6</ele>
        <time>2021-07-11T10:00:27Z</time>
      </trkpt>
      <trkpt lat="43.31262" lon="6.26436">
        <ele>197.4</ele>
        <time>2021-07-11T10:00:36Z</time>
      </trkpt>
      <trkpt lat="43.3123" lon="6.26367">
        <ele>197.6</ele>
        <time>2021-07-11T10:00:45Z</time>
      </trkpt>
      <trkpt lat="43.31226" lon="6.2636">
        <ele>197.6</ele>
        <time>2021-07-11T10:00:46Z</time>
      </trkpt>
      <trkpt lat="43.3119" lon="6.26304">
        <ele>197.9</ele>
        <time>2021-07-11T10:00:54Z</time>
      </trkpt>
      <trkpt lat="43.3118" lon="6.26291">
        <ele>198</ele>
        <time>2021-07-11T10:00:56Z</time>
      </trkpt>
      <trkpt lat="43.3116" lon="6.26257">
        <ele>198.2</ele>
        <time>2021-07-11T10:01:01Z</time>
      </trkpt>
      <trkpt lat="43.31141" lon="6.26219">
        <ele>197.8</ele>
        <time>2021-07-11T10:01:06Z</time>
      </trkpt>
      <trkpt lat="43.31113" lon="6.26149">
        <ele>196.6</ele>
        <time>2021-07-11T10:01:14Z</time>
      </trkpt>
      <trkpt lat="43.31106" lon="6.26131">
        <ele>196.1</ele>
        <time>2021-07-11T10:01:16Z</time>
      </trkpt>
      <trkpt lat="43.31078" lon="6.26059">
        <ele>194.3</ele>
        <time>2021-07-11T10:01:24Z</time>
      </trkpt>
      <trkpt lat="43.31071" lon="6.2604">
        <ele>193.8</ele>
        <time>2021-07-11T10:01:26Z</time>
      </trkpt>
      <trkpt lat="43.31048" lon="6.25971">
        <ele>192</ele>
        <time>2021-07-11T10:01:33Z</time>
      </trkpt>
      <trkpt lat="43.31038" lon="6.25944">
        <ele>191.4</ele>
        <time>2021-07-11T10:01:36Z</time>
      </trkpt>
      <trkpt lat="43.3101" lon="6.25869">
        <ele>190.1</ele>
        <time>2021-07-11T10:01:44Z</time>
      </trkpt>
      <trkpt lat="43.31004" lon="6.25849">
        <ele>189.9</ele>
        <time>2021-07-11T10:01:46Z</time>
      </trkpt>
      <trkpt lat="43.3098" lon="6.25778">
        <ele>189.1</ele>
        <time>2021-07-11T10:01:54Z</time>
      </trkpt>
      <trkpt lat="43.30975" lon="6.25759">
        <ele>188.9</ele>
        <time>2021-07-11T10:01:56Z</time>
      </trkpt>
      <trkpt lat="43.30958" lon="6.25682">
        <ele>188.4</ele>
        <time>2021-07-11T10:02:04Z</time>
      </trkpt>
      <trkpt lat="43.30954" lon="6.25661">
        <ele>188.2</ele>
        <time>2021-07-11T10:02:06Z</time>
      </trkpt>
      <trkpt lat="43.30942" lon="6.25584">
        <ele>188.1</ele>
        <time>2021-07-11T10:02:14Z</time>
      </trkpt>
      <trkpt lat="43.3094" lon="6.25568">
        <ele>188</ele>
        <time>2021-07-11T10:02:16Z</time>
      </trkpt>
      <trkpt lat="43.30928" lon="6.25487">
        <ele>187.8</ele>
        <time>2021-07-11T10:02:25Z</time>
      </trkpt>
      <trkpt lat="43.30926" lon="6.25478">
        <ele>187.8</ele>
        <time>2021-07-11T10:02:26Z</time>
      </trkpt>
      <trkpt lat="43.3091" lon="6.25403">
        <ele>187.4</ele>
        <time>2021-07-11T10:02:35Z</time>
      </trkpt>
      <trkpt lat="43.30908" lon="6.25394">
        <ele>187.4</ele>
        <time>2021-07-11T10:02:36Z</time>
      </trkpt>
      <trkpt lat="43.3089" lon="6.25323">
        <ele>187.2</ele>
        <time>2021-07-11T10:02:44Z</time>
      </trkpt>
      <trkpt lat="43.30885" lon="6.25305">
        <ele>187.2</ele>
        <time>2021-07-11T10:02:46Z</time>
      </trkpt>
      <trkpt lat="43.30862" lon="6.25234">
        <ele>186.9</ele>
        <time>2021-07-11T10:02:54Z</time>
      </trkpt>
      <trkpt lat="43.30855" lon="6.25218">
        <ele>186.8</ele>
        <time>2021-07-11T10:02:56Z</time>
      </trkpt>
      <trkpt lat="43.30821" lon="6.25153">
        <ele>186.7</ele>
        <time>2021-07-11T10:03:04Z</time>
      </trkpt>
      <trkpt lat="43.30811" lon="6.25138">
        <ele>186.7</ele>
        <time>2021-07-11T10:03:06Z</time>
      </trkpt>
      <trkpt lat="43.30772" lon="6.25081">
        <ele>186.6</ele>
        <time>2021-07-11T10:03:14Z</time>
      </trkpt>
      <trkpt lat="43.30762" lon="6.25067">
        <ele>186.6</ele>
        <time>2021-07-11T10:03:16Z</time>
      </trkpt>
      <trkpt lat="43.30723" lon="6.25011">
        <ele>186.6</ele>
        <time>2021-07-11T10:03:24Z</time>
      </trkpt>
      <trkpt lat="43.30715" lon="6.24997">
        <ele>186.6</ele>
        <time>2021-07-11T10:03:26Z</time>
      </trkpt>
      <trkpt lat="43.30685" lon="6.24934">
        <ele>186.3</ele>
        <time>2021-07-11T10:03:34Z</time>
      </trkpt>
      <trkpt lat="43.30678" lon="6.24916">
        <ele>186.1</ele>
        <time>2021-07-11T10:03:36Z</time>
      </trkpt>
      <trkpt lat="43.30675" lon="6.24907">
        <ele>186</ele>
        <time>2021-07-11T10:03:37Z</time>
      </trkpt>
      <trkpt lat="43.30673" lon="6.24898">
        <ele>185.9</ele>
        <time>2021-07-11T10:03:38Z</time>
      </trkpt>
      <trkpt lat="43.30653" lon="6.24822">
        <ele>185.1</ele>
        <time>2021-07-11T10:03:46Z</time>
      </trkpt>
      <trkpt lat="43.30631" lon="6.24745">
        <ele>184.4</ele>
        <time>2021-07-11T10:03:54Z</time>
      </trkpt>
      <trkpt lat="43.30627" lon="6.24725">
        <ele>184.4</ele>
        <time>2021-07-11T10:03:56Z</time>
      </trkpt>
      <trkpt lat="43.30609" lon="6.24648">
        <ele>184.3</ele>
        <time>2021-07-11T10:04:04Z</time>
      </trkpt>
      <trkpt lat="43.30605" lon="6.2463">
        <ele>184.2</ele>
        <time>2021-07-11T10:04:06Z</time>
      </trkpt>
      <trkpt lat="43.30587" lon="6.24554">
        <ele>184.1</ele>
        <time>2021-07-11T10:04:14Z</time>
      </trkpt>
      <trkpt lat="43.30583" lon="6.24536">
        <ele>184</ele>
        <time>2021-07-11T10:04:16Z</time>
      </trkpt>
      <trkpt lat="43.30561" lon="6.24459">
        <ele>183.8</ele>
        <time>2021-07-11T10:04:24Z</time>
      </trkpt>
      <trkpt lat="43.30555" lon="6.24442">
        <ele>183.9</ele>
        <time>2021-07-11T10:04:26Z</time>
      </trkpt>
      <trkpt lat="43.30527" lon="6.24371">
        <ele>183.5</ele>
        <time>2021-07-11T10:04:34Z</time>
      </trkpt>
      <trkpt lat="43.3052" lon="6.24353">
        <ele>183.4</ele>
        <time>2021-07-11T10:04:36Z</time>
      </trkpt>
      <trkpt lat="43.3049" lon="6.24279">
        <ele>182.8</ele>
        <time>2021-07-11T10:04:44Z</time>
      </trkpt>
      <trkpt lat="43.30483" lon="6.24261">
        <ele>182.5</ele>
        <time>2021-07-11T10:04:46Z</time>
      </trkpt>
      <trkpt lat="43.30455" lon="6.24187">
        <ele>181.4</ele>
        <time>2021-07-11T10:04:54Z</time>
      </trkpt>
      <trkpt lat="43.30452" lon="6.24178">
        <ele>181.3</ele>
        <time>2021-07-11T10:04:55Z</time>
      </trkpt>
      <trkpt lat="43.30448" lon="6.24169">
        <ele>181.2</ele>
        <time>2021-07-11T10:04:56Z</time>
      </trkpt>
      <trkpt lat="43.30436" lon="6.24141">
        <ele>180.8</ele>
        <time>2021-07-11T10:04:59Z</time>
      </trkpt>
      <trkpt lat="43.3041" lon="6.24074">
        <ele>179.9</ele>
        <time>2021-07-11T10:05:06Z</time>
      </trkpt>
      <trkpt lat="43.30383" lon="6.24006">
        <ele>178.2</ele>
        <time>2021-07-11T10:05:13Z</time>
      </trkpt>
      <trkpt lat="43.30372" lon="6.23976">
        <ele>177.6</ele>
        <time>2021-07-11T10:05:16Z</time>
      </trkpt>
      <trkpt lat="43.30352" lon="6.23925">
        <ele>176.7</ele>
        <time>2021-07-11T10:05:21Z</time>
      </trkpt>
      <trkpt lat="43.30332" lon="6.23873">
        <ele>175.8</ele>
        <time>2021-07-11T10:05:26Z</time>
      </trkpt>
      <trkpt lat="43.30303" lon="6.238">
        <ele>174.5</ele>
        <time>2021-07-11T10:05:33Z</time>
      </trkpt>
      <trkpt lat="43.3029" lon="6.23769">
        <ele>173.9</ele>
        <time>2021-07-11T10:05:36Z</time>
      </trkpt>
      <trkpt lat="43.30262" lon="6.23699">
        <ele>172.9</ele>
        <time>2021-07-11T10:05:43Z</time>
      </trkpt>
      <trkpt lat="43.30251" lon="6.23668">
        <ele>172.5</ele>
        <time>2021-07-11T10:05:46Z</time>
      </trkpt>
      <trkpt lat="43.30235" lon="6.23628">
        <ele>172.1</ele>
        <time>2021-07-11T10:05:50Z</time>
      </trkpt>
      <trkpt lat="43.30231" lon="6.23618">
        <ele>172</ele>
        <time>2021-07-11T10:05:51Z</time>
      </trkpt>
      <trkpt lat="43.30227" lon="6.23608">
        <ele>171.9</ele>
        <time>2021-07-11T10:05:52Z</time>
      </trkpt>
      <trkpt lat="43.30217" lon="6.23573">
        <ele>171.8</ele>
        <time>2021-07-11T10:05:56Z</time>
      </trkpt>
      <trkpt lat="43.30217" lon="6.23556">
        <ele>171.7</ele>
        <time>2021-07-11T10:05:58Z</time>
      </trkpt>
      <trkpt lat="43.30217" lon="6.23538">
        <ele>171.7</ele>
        <time>2021-07-11T10:06:00Z</time>
      </trkpt>
      <trkpt lat="43.3021" lon="6.23523">
        <ele>171.5</ele>
        <time>2021-07-11T10:06:02Z</time>
      </trkpt>
      <trkpt lat="43.30199" lon="6.23515">
        <ele>171.4</ele>
        <time>2021-07-11T10:06:04Z</time>
      </trkpt>
      <trkpt lat="43.30189" lon="6.23518">
        <ele>171.1</ele>
        <time>2021-07-11T10:06:06Z</time>
      </trkpt>
      <trkpt lat="43.30181" lon="6.23526">
        <ele>170.6</ele>
        <time>2021-07-11T10:06:08Z</time>
      </trkpt>
      <trkpt lat="43.30173" lon="6.23545">
        <ele>170.6</ele>
        <time>2021-07-11T10:06:13Z</time>
      </trkpt>
      <trkpt lat="43.30176" lon="6.23549">
        <ele>170.7</ele>
        <time>2021-07-11T10:06:15Z</time>
      </trkpt>
      <trkpt lat="43.30178" lon="6.2355">
        <ele>170.7</ele>
        <time>2021-07-11T10:06:16Z</time>
      </trkpt>
      <trkpt lat="43.30179" lon="6.23551">
        <ele>170.7</ele>
        <time>2021-07-11T10:06:17Z</time>
      </trkpt>
      <trkpt lat="43.30192" lon="6.23565">
        <ele>170.8</ele>
        <time>2021-07-11T10:06:22Z</time>
      </trkpt>
      <trkpt lat="43.30201" lon="6.23566">
        <ele>171.4</ele>
        <time>2021-07-11T10:06:24Z</time>
      </trkpt>
      <trkpt lat="43.30211" lon="6.23562">
        <ele>171.7</ele>
        <time>2021-07-11T10:06:26Z</time>
      </trkpt>
      <trkpt lat="43.30217" lon="6.23552">
        <ele>171.7</ele>
        <time>2021-07-11T10:06:28Z</time>
      </trkpt>
      <trkpt lat="43.30219" lon="6.23538">
        <ele>171.7</ele>
        <time>2021-07-11T10:06:30Z</time>
      </trkpt>
      <trkpt lat="43.30213" lon="6.23524">
        <ele>171.6</ele>
        <time>2021-07-11T10:06:32Z</time>
      </trkpt>
      <trkpt lat="43.30204" lon="6.23514">
        <ele>171.5</ele>
        <time>2021-07-11T10:06:34Z</time>
      </trkpt>
      <trkpt lat="43.30194" lon="6.23507">
        <ele>171.3</ele>
        <time>2021-07-11T10:06:36Z</time>
      </trkpt>
      <trkpt lat="43.30187" lon="6.23496">
        <ele>171.2</ele>
        <time>2021-07-11T10:06:38Z</time>
      </trkpt>
      <trkpt lat="43.30162" lon="6.23439">
        <ele>170.5</ele>
        <time>2021-07-11T10:06:46Z</time>
      </trkpt>
      <trkpt lat="43.30135" lon="6.2337">
        <ele>169.6</ele>
        <time>2021-07-11T10:06:54Z</time>
      </trkpt>
      <trkpt lat="43.30128" lon="6.23352">
        <ele>169.4</ele>
        <time>2021-07-11T10:06:56Z</time>
      </trkpt>
      <trkpt lat="43.30103" lon="6.23285">
        <ele>168.8</ele>
        <time>2021-07-11T10:07:03Z</time>
      </trkpt>
      <trkpt lat="43.30093" lon="6.23254">
        <ele>168.5</ele>
        <time>2021-07-11T10:07:06Z</time>
      </trkpt>
      <trkpt lat="43.3007" lon="6.23176">
        <ele>167.9</ele>
        <time>2021-07-11T10:07:14Z</time>
      </trkpt>
      <trkpt lat="43.30064" lon="6.23157">
        <ele>167.8</ele>
        <time>2021-07-11T10:07:16Z</time>
      </trkpt>
      <trkpt lat="43.30044" lon="6.23081">
        <ele>167.3</ele>
        <time>2021-07-11T10:07:24Z</time>
      </trkpt>
      <trkpt lat="43.30039" lon="6.23063">
        <ele>167.2</ele>
        <time>2021-07-11T10:07:26Z</time>
      </trkpt>
      <trkpt lat="43.30019" lon="6.22989">
        <ele>167.1</ele>
        <time>2021-07-11T10:07:34Z</time>
      </trkpt>
      <trkpt lat="43.30015" lon="6.22971">
        <ele>167.1</ele>
        <time>2021-07-11T10:07:36Z</time>
      </trkpt>
      <trkpt lat="43.29997" lon="6.22901">
        <ele>167.1</ele>
        <time>2021-07-11T10:07:44Z</time>
      </trkpt>
      <trkpt lat="43.29992" lon="6.22884">
        <ele>167.1</ele>
        <time>2021-07-11T10:07:46Z</time>
      </trkpt>
      <trkpt lat="43.29986" lon="6.22854">
        <ele>167.3</ele>
        <time>2021-07-11T10:07:50Z</time>
      </trkpt>
      <trkpt lat="43.29985" lon="6.22835">
        <ele>167.6</ele>
        <time>2021-07-11T10:07:53Z</time>
      </trkpt>
      <trkpt lat="43.29978" lon="6.22826">
        <ele>167.7</ele>
        <time>2021-07-11T10:07:55Z</time>
      </trkpt>
      <trkpt lat="43.29973" lon="6.22825">
        <ele>167.7</ele>
        <time>2021-07-11T10:07:56Z</time>
      </trkpt>
      <trkpt lat="43.29968" lon="6.22827">
        <ele>167.7</ele>
        <time>2021-07-11T10:07:57Z</time>
      </trkpt>
      <trkpt lat="43.29953" lon="6.22838">
        <ele>166.9</ele>
        <time>2021-07-11T10:08:00Z</time>
      </trkpt>
      <trkpt lat="43.29934" lon="6.22845">
        <ele>166.5</ele>
        <time>2021-07-11T10:08:03Z</time>
      </trkpt>
      <trkpt lat="43.29914" lon="6.22849">
        <ele>166.2</ele>
        <time>2021-07-11T10:08:06Z</time>
      </trkpt>
      <trkpt lat="43.299" lon="6.22851">
        <ele>166</ele>
        <time>2021-07-11T10:08:08Z</time>
      </trkpt>
      <trkpt lat="43.2989" lon="6.22843">
        <ele>165.9</ele>
        <time>2021-07-11T10:08:10Z</time>
      </trkpt>
      <trkpt lat="43.29888" lon="6.22827">
        <ele>165.9</ele>
        <time>2021-07-11T10:08:12Z</time>
      </trkpt>
      <trkpt lat="43.29888" lon="6.22794">
        <ele>165.9</ele>
        <time>2021-07-11T10:08:16Z</time>
      </trkpt>
      <trkpt lat="43.29882" lon="6.22745">
        <ele>166.2</ele>
        <time>2021-07-11T10:08:22Z</time>
      </trkpt>
      <trkpt lat="43.2988" lon="6.22713">
        <ele>166.6</ele>
        <time>2021-07-11T10:08:26Z</time>
      </trkpt>
      <trkpt lat="43.29873" lon="6.22684">
        <ele>166.9</ele>
        <time>2021-07-11T10:08:30Z</time>
      </trkpt>
      <trkpt lat="43.29866" lon="6.2267">
        <ele>167.2</ele>
        <time>2021-07-11T10:08:32Z</time>
      </trkpt>
      <trkpt lat="43.29856" lon="6.22657">
        <ele>167.4</ele>
        <time>2021-07-11T10:08:34Z</time>
      </trkpt>
      <trkpt lat="43.29846" lon="6.22647">
        <ele>167.6</ele>
        <time>2021-07-11T10:08:36Z</time>
      </trkpt>
      <trkpt lat="43.29805" lon="6.22614">
        <ele>167.9</ele>
        <time>2021-07-11T10:08:44Z</time>
      </trkpt>
      <trkpt lat="43.29793" lon="6.22611">
        <ele>167.8</ele>
        <time>2021-07-11T10:08:46Z</time>
      </trkpt>
      <trkpt lat="43.29733" lon="6.22603">
        <ele>167.3</ele>
        <time>2021-07-11T10:08:55Z</time>
      </trkpt>
      <trkpt lat="43.29726" lon="6.22601">
        <ele>167.2</ele>
        <time>2021-07-11T10:08:56Z</time>
      </trkpt>
      <trkpt lat="43.29689" lon="6.22586">
        <ele>166.7</ele>
        <time>2021-07-11T10:09:02Z</time>
      </trkpt>
      <trkpt lat="43.29676" lon="6.22586">
        <ele>166.4</ele>
        <time>2021-07-11T10:09:04Z</time>
      </trkpt>
      <trkpt lat="43.29662" lon="6.22592">
        <ele>166</ele>
        <time>2021-07-11T10:09:06Z</time>
      </trkpt>
      <trkpt lat="43.29641" lon="6.226">
        <ele>165.6</ele>
        <time>2021-07-11T10:09:09Z</time>
      </trkpt>
      <trkpt lat="43.29625" lon="6.22601">
        <ele>165.3</ele>
        <time>2021-07-11T10:09:11Z</time>
      </trkpt>
      <trkpt lat="43.29588" lon="6.22591">
        <ele>164.8</ele>
        <time>2021-07-11T10:09:16Z</time>
      </trkpt>
      <trkpt lat="43.29581" lon="6.22591">
        <ele>164.7</ele>
        <time>2021-07-11T10:09:17Z</time>
      </trkpt>
      <trkpt lat="43.29526" lon="6.22606">
        <ele>164.5</ele>
        <time>2021-07-11T10:09:24Z</time>
      </trkpt>
      <trkpt lat="43.29512" lon="6.22612">
        <ele>164.4</ele>
        <time>2021-07-11T10:09:26Z</time>
      </trkpt>
      <trkpt lat="43.295" lon="6.22623">
        <ele>164.4</ele>
        <time>2021-07-11T10:09:28Z</time>
      </trkpt>
      <trkpt lat="43.29478" lon="6.2265">
        <ele>164.6</ele>
        <time>2021-07-11T10:09:32Z</time>
      </trkpt>
      <trkpt lat="43.29465" lon="6.22652">
        <ele>164.7</ele>
        <time>2021-07-11T10:09:34Z</time>
      </trkpt>
      <trkpt lat="43.29452" lon="6.22646">
        <ele>164.8</ele>
        <time>2021-07-11T10:09:36Z</time>
      </trkpt>
      <trkpt lat="43.29404" lon="6.22607">
        <ele>165</ele>
        <time>2021-07-11T10:09:44Z</time>
      </trkpt>
      <trkpt lat="43.29394" lon="6.22595">
        <ele>165.1</ele>
        <time>2021-07-11T10:09:46Z</time>
      </trkpt>
      <trkpt lat="43.29384" lon="6.22582">
        <ele>165.3</ele>
        <time>2021-07-11T10:09:48Z</time>
      </trkpt>
      <trkpt lat="43.29378" lon="6.22565">
        <ele>165.4</ele>
        <time>2021-07-11T10:09:50Z</time>
      </trkpt>
      <trkpt lat="43.29375" lon="6.22546">
        <ele>165.5</ele>
        <time>2021-07-11T10:09:52Z</time>
      </trkpt>
      <trkpt lat="43.29372" lon="6.22511">
        <ele>165.6</ele>
        <time>2021-07-11T10:09:56Z</time>
      </trkpt>
      <trkpt lat="43.29371" lon="6.22429">
        <ele>166</ele>
        <time>2021-07-11T10:10:06Z</time>
      </trkpt>
      <trkpt lat="43.29371" lon="6.22348">
        <ele>166</ele>
        <time>2021-07-11T10:10:15Z</time>
      </trkpt>
      <trkpt lat="43.2937" lon="6.22338">
        <ele>165.9</ele>
        <time>2021-07-11T10:10:16Z</time>
      </trkpt>
      <trkpt lat="43.29356" lon="6.22266">
        <ele>166</ele>
        <time>2021-07-11T10:10:24Z</time>
      </trkpt>
      <trkpt lat="43.2935" lon="6.22249">
        <ele>166.1</ele>
        <time>2021-07-11T10:10:26Z</time>
      </trkpt>
      <trkpt lat="43.29335" lon="6.22206">
        <ele>166</ele>
        <time>2021-07-11T10:10:31Z</time>
      </trkpt>
      <trkpt lat="43.29319" lon="6.22163">
        <ele>166</ele>
        <time>2021-07-11T10:10:36Z</time>
      </trkpt>
      <trkpt lat="43.29292" lon="6.22096">
        <ele>165.9</ele>
        <time>2021-07-11T10:10:44Z</time>
      </trkpt>
      <trkpt lat="43.29285" lon="6.22079">
        <ele>165.8</ele>
        <time>2021-07-11T10:10:46Z</time>
      </trkpt>
      <trkpt lat="43.29257" lon="6.22014">
        <ele>166.1</ele>
        <time>2021-07-11T10:10:54Z</time>
      </trkpt>
      <trkpt lat="43.29251" lon="6.21998">
        <ele>166.3</ele>
        <time>2021-07-11T10:10:56Z</time>
      </trkpt>
      <trkpt lat="43.29224" lon="6.21931">
        <ele>166.7</ele>
        <time>2021-07-11T10:11:05Z</time>
      </trkpt>
      <trkpt lat="43.2922" lon="6.21924">
        <ele>166.7</ele>
        <time>2021-07-11T10:11:06Z</time>
      </trkpt>
      <trkpt lat="43.29207" lon="6.21897">
        <ele>166.4</ele>
        <time>2021-07-11T10:11:10Z</time>
      </trkpt>
      <trkpt lat="43.29197" lon="6.21888">
        <ele>166.1</ele>
        <time>2021-07-11T10:11:12Z</time>
      </trkpt>
      <trkpt lat="43.29169" lon="6.21873">
        <ele>165.1</ele>
        <time>2021-07-11T10:11:16Z</time>
      </trkpt>
      <trkpt lat="43.29155" lon="6.21863">
        <ele>164.5</ele>
        <time>2021-07-11T10:11:18Z</time>
      </trkpt>
      <trkpt lat="43.29103" lon="6.21814">
        <ele>161.9</ele>
        <time>2021-07-11T10:11:25Z</time>
      </trkpt>
      <trkpt lat="43.29096" lon="6.21807">
        <ele>161.7</ele>
        <time>2021-07-11T10:11:26Z</time>
      </trkpt>
      <trkpt lat="43.29063" lon="6.21786">
        <ele>160.8</ele>
        <time>2021-07-11T10:11:30Z</time>
      </trkpt>
      <trkpt lat="43.29012" lon="6.21765">
        <ele>159.7</ele>
        <time>2021-07-11T10:11:36Z</time>
      </trkpt>
      <trkpt lat="43.28953" lon="6.21743">
        <ele>157.8</ele>
        <time>2021-07-11T10:11:43Z</time>
      </trkpt>
      <trkpt lat="43.28926" lon="6.21734">
        <ele>156.6</ele>
        <time>2021-07-11T10:11:46Z</time>
      </trkpt>
      <trkpt lat="43.28868" lon="6.21713">
        <ele>153.6</ele>
        <time>2021-07-11T10:11:52Z</time>
      </trkpt>
      <trkpt lat="43.28829" lon="6.21699">
        <ele>151.4</ele>
        <time>2021-07-11T10:11:56Z</time>
      </trkpt>
      <trkpt lat="43.28783" lon="6.21689">
        <ele>150.1</ele>
        <time>2021-07-11T10:12:01Z</time>
      </trkpt>
      <trkpt lat="43.28763" lon="6.21693">
        <ele>150.1</ele>
        <time>2021-07-11T10:12:04Z</time>
      </trkpt>
      <trkpt lat="43.28751" lon="6.21689">
        <ele>150.5</ele>
        <time>2021-07-11T10:12:06Z</time>
      </trkpt>
      <trkpt lat="43.28742" lon="6.21681">
        <ele>150.9</ele>
        <time>2021-07-11T10:12:08Z</time>
      </trkpt>
      <trkpt lat="43.28733" lon="6.21678">
        <ele>151.2</ele>
        <time>2021-07-11T10:12:10Z</time>
      </trkpt>
      <trkpt lat="43.2871" lon="6.21688">
        <ele>152.2</ele>
        <time>2021-07-11T10:12:16Z</time>
      </trkpt>
      <trkpt lat="43.2869" lon="6.21689">
        <ele>153.3</ele>
        <time>2021-07-11T10:12:21Z</time>
      </trkpt>
      <trkpt lat="43.2868" lon="6.21688">
        <ele>154</ele>
        <time>2021-07-11T10:12:24Z</time>
      </trkpt>
      <trkpt lat="43.28673" lon="6.21687">
        <ele>154.4</ele>
        <time>2021-07-11T10:12:26Z</time>
      </trkpt>
      <trkpt lat="43.28652" lon="6.21678">
        <ele>155.6</ele>
        <time>2021-07-11T10:12:33Z</time>
      </trkpt>
      <trkpt lat="43.28643" lon="6.21669">
        <ele>155.9</ele>
        <time>2021-07-11T10:12:36Z</time>
      </trkpt>
      <trkpt lat="43.28636" lon="6.21658">
        <ele>156</ele>
        <time>2021-07-11T10:13:42Z</time>
      </trkpt>
      <trkpt lat="43.28633" lon="6.21655">
        <ele>156</ele>
        <time>2021-07-11T10:13:43Z</time>
      </trkpt>
      <trkpt lat="43.28624" lon="6.21639">
        <ele>155.9</ele>
        <time>2021-07-11T10:13:46Z</time>
      </trkpt>
      <trkpt lat="43.28612" lon="6.21621">
        <ele>155.6</ele>
        <time>2021-07-11T10:13:49Z</time>
      </trkpt>
      <trkpt lat="43.286" lon="6.21609">
        <ele>155.3</ele>
        <time>2021-07-11T10:13:50Z</time>
      </trkpt>
      <trkpt lat="43.28596" lon="6.21607">
        <ele>155.2</ele>
        <time>2021-07-11T10:13:51Z</time>
      </trkpt>
      <trkpt lat="43.28593" lon="6.21604">
        <ele>155.1</ele>
        <time>2021-07-11T10:13:52Z</time>
      </trkpt>
      <trkpt lat="43.28582" lon="6.21597">
        <ele>154.8</ele>
        <time>2021-07-11T10:13:53Z</time>
      </trkpt>
      <trkpt lat="43.28578" lon="6.21595">
        <ele>154.7</ele>
        <time>2021-07-11T10:13:54Z</time>
      </trkpt>
      <trkpt lat="43.28566" lon="6.21589">
        <ele>154.2</ele>
        <time>2021-07-11T10:13:55Z</time>
      </trkpt>
      <trkpt lat="43.28562" lon="6.21587">
        <ele>154.1</ele>
        <time>2021-07-11T10:13:56Z</time>
      </trkpt>
      <trkpt lat="43.2855" lon="6.2158">
        <ele>153.6</ele>
        <time>2021-07-11T10:13:57Z</time>
      </trkpt>
      <trkpt lat="43.28546" lon="6.21578">
        <ele>153.5</ele>
        <time>2021-07-11T10:13:58Z</time>
      </trkpt>
      <trkpt lat="43.28535" lon="6.21569">
        <ele>153.1</ele>
        <time>2021-07-11T10:13:59Z</time>
      </trkpt>
      <trkpt lat="43.28531" lon="6.21566">
        <ele>153</ele>
        <time>2021-07-11T10:14:00Z</time>
      </trkpt>
      <trkpt lat="43.28516" lon="6.21554">
        <ele>152.4</ele>
        <time>2021-07-11T10:14:02Z</time>
      </trkpt>
      <trkpt lat="43.28484" lon="6.21528">
        <ele>151.4</ele>
        <time>2021-07-11T10:14:06Z</time>
      </trkpt>
      <trkpt lat="43.28476" lon="6.2152">
        <ele>151.1</ele>
        <time>2021-07-11T10:14:07Z</time>
      </trkpt>
      <trkpt lat="43.28458" lon="6.21494">
        <ele>150.4</ele>
        <time>2021-07-11T10:14:10Z</time>
      </trkpt>
      <trkpt lat="43.28452" lon="6.21485">
        <ele>150.1</ele>
        <time>2021-07-11T10:14:11Z</time>
      </trkpt>
      <trkpt lat="43.2844" lon="6.21467">
        <ele>149.7</ele>
        <time>2021-07-11T10:14:12Z</time>
      </trkpt>
      <trkpt lat="43.28433" lon="6.21459">
        <ele>149.5</ele>
        <time>2021-07-11T10:14:14Z</time>
      </trkpt>
      <trkpt lat="43.28426" lon="6.21452">
        <ele>149.2</ele>
        <time>2021-07-11T10:14:15Z</time>
      </trkpt>
      <trkpt lat="43.28414" lon="6.21442">
        <ele>148.8</ele>
        <time>2021-07-11T10:14:16Z</time>
      </trkpt>
      <trkpt lat="43.28409" lon="6.2144">
        <ele>148.7</ele>
        <time>2021-07-11T10:14:17Z</time>
      </trkpt>
      <trkpt lat="43.28383" lon="6.21423">
        <ele>148</ele>
        <time>2021-07-11T10:14:20Z</time>
      </trkpt>
      <trkpt lat="43.28357" lon="6.21409">
        <ele>147.5</ele>
        <time>2021-07-11T10:14:23Z</time>
      </trkpt>
      <trkpt lat="43.2833" lon="6.21394">
        <ele>147</ele>
        <time>2021-07-11T10:14:26Z</time>
      </trkpt>
      <trkpt lat="43.28296" lon="6.21375">
        <ele>146.2</ele>
        <time>2021-07-11T10:14:30Z</time>
      </trkpt>
      <trkpt lat="43.2828" lon="6.21368">
        <ele>145.7</ele>
        <time>2021-07-11T10:14:31Z</time>
      </trkpt>
      <trkpt lat="43.28271" lon="6.21366">
        <ele>145.5</ele>
        <time>2021-07-11T10:14:33Z</time>
      </trkpt>
      <trkpt lat="43.28245" lon="6.21368">
        <ele>144.7</ele>
        <time>2021-07-11T10:14:36Z</time>
      </trkpt>
      <trkpt lat="43.28217" lon="6.21363">
        <ele>143.6</ele>
        <time>2021-07-11T10:14:39Z</time>
      </trkpt>
      <trkpt lat="43.28199" lon="6.21338">
        <ele>142.6</ele>
        <time>2021-07-11T10:14:42Z</time>
      </trkpt>
      <trkpt lat="43.28178" lon="6.21297">
        <ele>141.7</ele>
        <time>2021-07-11T10:14:46Z</time>
      </trkpt>
      <trkpt lat="43.28153" lon="6.21244">
        <ele>140.1</ele>
        <time>2021-07-11T10:14:51Z</time>
      </trkpt>
      <trkpt lat="43.28138" lon="6.2118">
        <ele>137.2</ele>
        <time>2021-07-11T10:14:56Z</time>
      </trkpt>
      <trkpt lat="43.28133" lon="6.21155">
        <ele>136.2</ele>
        <time>2021-07-11T10:14:57Z</time>
      </trkpt>
      <trkpt lat="43.28132" lon="6.21143">
        <ele>135.8</ele>
        <time>2021-07-11T10:14:59Z</time>
      </trkpt>
      <trkpt lat="43.28143" lon="6.21112">
        <ele>134.8</ele>
        <time>2021-07-11T10:15:01Z</time>
      </trkpt>
      <trkpt lat="43.28148" lon="6.21102">
        <ele>134.1</ele>
        <time>2021-07-11T10:15:03Z</time>
      </trkpt>
      <trkpt lat="43.28167" lon="6.21077">
        <ele>133.1</ele>
        <time>2021-07-11T10:15:06Z</time>
      </trkpt>
      <trkpt lat="43.28175" lon="6.21071">
        <ele>132.8</ele>
        <time>2021-07-11T10:15:07Z</time>
      </trkpt>
      <trkpt lat="43.28195" lon="6.21047">
        <ele>132</ele>
        <time>2021-07-11T10:15:10Z</time>
      </trkpt>
      <trkpt lat="43.28199" lon="6.21026">
        <ele>131.6</ele>
        <time>2021-07-11T10:15:12Z</time>
      </trkpt>
      <trkpt lat="43.28202" lon="6.20979">
        <ele>130.8</ele>
        <time>2021-07-11T10:15:16Z</time>
      </trkpt>
      <trkpt lat="43.28215" lon="6.20896">
        <ele>130.5</ele>
        <time>2021-07-11T10:15:23Z</time>
      </trkpt>
      <trkpt lat="43.28221" lon="6.20863">
        <ele>130.4</ele>
        <time>2021-07-11T10:15:26Z</time>
      </trkpt>
      <trkpt lat="43.28231" lon="6.2078">
        <ele>128.8</ele>
        <time>2021-07-11T10:15:33Z</time>
      </trkpt>
      <trkpt lat="43.28235" lon="6.20742">
        <ele>127.9</ele>
        <time>2021-07-11T10:15:36Z</time>
      </trkpt>
      <trkpt lat="43.28233" lon="6.20668">
        <ele>126.1</ele>
        <time>2021-07-11T10:15:42Z</time>
      </trkpt>
      <trkpt lat="43.2823" lon="6.20619">
        <ele>125.4</ele>
        <time>2021-07-11T10:15:46Z</time>
      </trkpt>
      <trkpt lat="43.28224" lon="6.20574">
        <ele>124.9</ele>
        <time>2021-07-11T10:15:50Z</time>
      </trkpt>
      <trkpt lat="43.28204" lon="6.20527">
        <ele>123.7</ele>
        <time>2021-07-11T10:15:54Z</time>
      </trkpt>
      <trkpt lat="43.28198" lon="6.20503">
        <ele>123.2</ele>
        <time>2021-07-11T10:15:56Z</time>
      </trkpt>
      <trkpt lat="43.28197" lon="6.20427">
        <ele>122.3</ele>
        <time>2021-07-11T10:16:02Z</time>
      </trkpt>
      <trkpt lat="43.28198" lon="6.2038">
        <ele>122.2</ele>
        <time>2021-07-11T10:16:06Z</time>
      </trkpt>
      <trkpt lat="43.28193" lon="6.20302">
        <ele>123.2</ele>
        <time>2021-07-11T10:16:13Z</time>
      </trkpt>
      <trkpt lat="43.28187" lon="6.20276">
        <ele>123.6</ele>
        <time>2021-07-11T10:16:16Z</time>
      </trkpt>
      <trkpt lat="43.28173" lon="6.20203">
        <ele>122.9</ele>
        <time>2021-07-11T10:16:23Z</time>
      </trkpt>
      <trkpt lat="43.28167" lon="6.2017">
        <ele>122.5</ele>
        <time>2021-07-11T10:16:26Z</time>
      </trkpt>
      <trkpt lat="43.2815" lon="6.20091">
        <ele>121.6</ele>
        <time>2021-07-11T10:16:33Z</time>
      </trkpt>
      <trkpt lat="43.28137" lon="6.20066">
        <ele>121.4</ele>
        <time>2021-07-11T10:16:35Z</time>
      </trkpt>
      <trkpt lat="43.28122" lon="6.20046">
        <ele>121.5</ele>
        <time>2021-07-11T10:16:36Z</time>
      </trkpt>
      <trkpt lat="43.28114" lon="6.20037">
        <ele>121.6</ele>
        <time>2021-07-11T10:16:38Z</time>
      </trkpt>
      <trkpt lat="43.28092" lon="6.20012">
        <ele>121.9</ele>
        <time>2021-07-11T10:16:41Z</time>
      </trkpt>
      <trkpt lat="43.28081" lon="6.19995">
        <ele>122.1</ele>
        <time>2021-07-11T10:16:43Z</time>
      </trkpt>
      <trkpt lat="43.28065" lon="6.19972">
        <ele>121.7</ele>
        <time>2021-07-11T10:16:46Z</time>
      </trkpt>
      <trkpt lat="43.28047" lon="6.19936">
        <ele>121.2</ele>
        <time>2021-07-11T10:16:50Z</time>
      </trkpt>
      <trkpt lat="43.28035" lon="6.19874">
        <ele>122</ele>
        <time>2021-07-11T10:16:56Z</time>
      </trkpt>
      <trkpt lat="43.28036" lon="6.19793">
        <ele>123.6</ele>
        <time>2021-07-11T10:17:05Z</time>
      </trkpt>
      <trkpt lat="43.28035" lon="6.19776">
        <ele>123.9</ele>
        <time>2021-07-11T10:17:06Z</time>
      </trkpt>
      <trkpt lat="43.28031" lon="6.19726">
        <ele>124.2</ele>
        <time>2021-07-11T10:17:13Z</time>
      </trkpt>
      <trkpt lat="43.28029" lon="6.19708">
        <ele>124.2</ele>
        <time>2021-07-11T10:17:15Z</time>
      </trkpt>
      <trkpt lat="43.28029" lon="6.19699">
        <ele>124.1</ele>
        <time>2021-07-11T10:17:16Z</time>
      </trkpt>
      <trkpt lat="43.28028" lon="6.19682">
        <ele>124</ele>
        <time>2021-07-11T10:17:17Z</time>
      </trkpt>
      <trkpt lat="43.28027" lon="6.19673">
        <ele>124</ele>
        <time>2021-07-11T10:17:19Z</time>
      </trkpt>
      <trkpt lat="43.28025" lon="6.19646">
        <ele>123.7</ele>
        <time>2021-07-11T10:17:22Z</time>
      </trkpt>
      <trkpt lat="43.2802" lon="6.19618">
        <ele>123.3</ele>
        <time>2021-07-11T10:17:25Z</time>
      </trkpt>
      <trkpt lat="43.28013" lon="6.196">
        <ele>122.9</ele>
        <time>2021-07-11T10:17:26Z</time>
      </trkpt>
      <trkpt lat="43.27999" lon="6.19572">
        <ele>122.4</ele>
        <time>2021-07-11T10:17:30Z</time>
      </trkpt>
      <trkpt lat="43.27973" lon="6.19524">
        <ele>121.7</ele>
        <time>2021-07-11T10:17:35Z</time>
      </trkpt>
      <trkpt lat="43.27968" lon="6.19515">
        <ele>121.5</ele>
        <time>2021-07-11T10:17:36Z</time>
      </trkpt>
      <trkpt lat="43.27956" lon="6.19488">
        <ele>121.2</ele>
        <time>2021-07-11T10:17:39Z</time>
      </trkpt>
      <trkpt lat="43.27933" lon="6.19421">
        <ele>120.2</ele>
        <time>2021-07-11T10:17:46Z</time>
      </trkpt>
      <trkpt lat="43.27916" lon="6.19369">
        <ele>119.6</ele>
        <time>2021-07-11T10:17:51Z</time>
      </trkpt>
      <trkpt lat="43.27901" lon="6.19351">
        <ele>119.5</ele>
        <time>2021-07-11T10:17:53Z</time>
      </trkpt>
      <trkpt lat="43.27879" lon="6.19334">
        <ele>119.5</ele>
        <time>2021-07-11T10:17:56Z</time>
      </trkpt>
      <trkpt lat="43.27828" lon="6.1931">
        <ele>119.9</ele>
        <time>2021-07-11T10:18:03Z</time>
      </trkpt>
      <trkpt lat="43.27806" lon="6.19301">
        <ele>120.1</ele>
        <time>2021-07-11T10:18:06Z</time>
      </trkpt>
      <trkpt lat="43.27754" lon="6.19271">
        <ele>120.9</ele>
        <time>2021-07-11T10:18:14Z</time>
      </trkpt>
      <trkpt lat="43.27743" lon="6.19261">
        <ele>121.1</ele>
        <time>2021-07-11T10:18:16Z</time>
      </trkpt>
      <trkpt lat="43.27706" lon="6.19209">
        <ele>121</ele>
        <time>2021-07-11T10:18:24Z</time>
      </trkpt>
      <trkpt lat="43.277" lon="6.19192">
        <ele>120.8</ele>
        <time>2021-07-11T10:18:26Z</time>
      </trkpt>
      <trkpt lat="43.2769" lon="6.19155">
        <ele>120.3</ele>
        <time>2021-07-11T10:18:30Z</time>
      </trkpt>
      <trkpt lat="43.27659" lon="6.19112">
        <ele>121.2</ele>
        <time>2021-07-11T10:18:36Z</time>
      </trkpt>
      <trkpt lat="43.27628" lon="6.19064">
        <ele>122.9</ele>
        <time>2021-07-11T10:18:44Z</time>
      </trkpt>
      <trkpt lat="43.27621" lon="6.19052">
        <ele>123.3</ele>
        <time>2021-07-11T10:18:46Z</time>
      </trkpt>
      <trkpt lat="43.27586" lon="6.18995">
        <ele>124.4</ele>
        <time>2021-07-11T10:18:56Z</time>
      </trkpt>
      <trkpt lat="43.27548" lon="6.18938">
        <ele>125.3</ele>
        <time>2021-07-11T10:19:06Z</time>
      </trkpt>
      <trkpt lat="43.27545" lon="6.18931">
        <ele>125.4</ele>
        <time>2021-07-11T10:19:07Z</time>
      </trkpt>
      <trkpt lat="43.27539" lon="6.18911">
        <ele>125.5</ele>
        <time>2021-07-11T10:19:10Z</time>
      </trkpt>
      <trkpt lat="43.27536" lon="6.18881">
        <ele>125.1</ele>
        <time>2021-07-11T10:19:14Z</time>
      </trkpt>
      <trkpt lat="43.27535" lon="6.18863">
        <ele>124.5</ele>
        <time>2021-07-11T10:19:16Z</time>
      </trkpt>
      <trkpt lat="43.27528" lon="6.18826">
        <ele>123</ele>
        <time>2021-07-11T10:19:20Z</time>
      </trkpt>
      <trkpt lat="43.27514" lon="6.18789">
        <ele>121.5</ele>
        <time>2021-07-11T10:19:24Z</time>
      </trkpt>
      <trkpt lat="43.27504" lon="6.18771">
        <ele>120.7</ele>
        <time>2021-07-11T10:19:26Z</time>
      </trkpt>
      <trkpt lat="43.27492" lon="6.18757">
        <ele>119.9</ele>
        <time>2021-07-11T10:19:27Z</time>
      </trkpt>
      <trkpt lat="43.27484" lon="6.18752">
        <ele>119.4</ele>
        <time>2021-07-11T10:19:29Z</time>
      </trkpt>
      <trkpt lat="43.2743" lon="6.18741">
        <ele>116.2</ele>
        <time>2021-07-11T10:19:35Z</time>
      </trkpt>
      <trkpt lat="43.27421" lon="6.18741">
        <ele>115.7</ele>
        <time>2021-07-11T10:19:36Z</time>
      </trkpt>
      <trkpt lat="43.27379" lon="6.18744">
        <ele>113.4</ele>
        <time>2021-07-11T10:19:46Z</time>
      </trkpt>
      <trkpt lat="43.27369" lon="6.18743">
        <ele>112.9</ele>
        <time>2021-07-11T10:19:50Z</time>
      </trkpt>
      <trkpt lat="43.27353" lon="6.18742">
        <ele>112</ele>
        <time>2021-07-11T10:19:54Z</time>
      </trkpt>
      <trkpt lat="43.27339" lon="6.18742">
        <ele>111.4</ele>
        <time>2021-07-11T10:19:56Z</time>
      </trkpt>
      <trkpt lat="43.27301" lon="6.18748">
        <ele>109.4</ele>
        <time>2021-07-11T10:20:01Z</time>
      </trkpt>
      <trkpt lat="43.27269" lon="6.18769">
        <ele>107.3</ele>
        <time>2021-07-11T10:20:05Z</time>
      </trkpt>
      <trkpt lat="43.27261" lon="6.18773">
        <ele>106.8</ele>
        <time>2021-07-11T10:20:06Z</time>
      </trkpt>
      <trkpt lat="43.27244" lon="6.18778">
        <ele>105.9</ele>
        <time>2021-07-11T10:20:07Z</time>
      </trkpt>
      <trkpt lat="43.2724" lon="6.18778">
        <ele>105.7</ele>
        <time>2021-07-11T10:20:08Z</time>
      </trkpt>
      <trkpt lat="43.27236" lon="6.18777">
        <ele>105.5</ele>
        <time>2021-07-11T10:20:09Z</time>
      </trkpt>
      <trkpt lat="43.2721" lon="6.18774">
        <ele>104.4</ele>
        <time>2021-07-11T10:20:12Z</time>
      </trkpt>
      <trkpt lat="43.27187" lon="6.18756">
        <ele>103.7</ele>
        <time>2021-07-11T10:20:15Z</time>
      </trkpt>
      <trkpt lat="43.2718" lon="6.18747">
        <ele>103.5</ele>
        <time>2021-07-11T10:20:16Z</time>
      </trkpt>
      <trkpt lat="43.27137" lon="6.18688">
        <ele>103.2</ele>
        <time>2021-07-11T10:20:23Z</time>
      </trkpt>
      <trkpt lat="43.27117" lon="6.18665">
        <ele>103.2</ele>
        <time>2021-07-11T10:20:26Z</time>
      </trkpt>
      <trkpt lat="43.27084" lon="6.18631">
        <ele>103.4</ele>
        <time>2021-07-11T10:20:31Z</time>
      </trkpt>
      <trkpt lat="43.27055" lon="6.18601">
        <ele>103.8</ele>
        <time>2021-07-11T10:20:36Z</time>
      </trkpt>
      <trkpt lat="43.27008" lon="6.18552">
        <ele>104.3</ele>
        <time>2021-07-11T10:20:44Z</time>
      </trkpt>
      <trkpt lat="43.26997" lon="6.18538">
        <ele>104.3</ele>
        <time>2021-07-11T10:20:46Z</time>
      </trkpt>
      <trkpt lat="43.26954" lon="6.18485">
        <ele>104.4</ele>
        <time>2021-07-11T10:20:54Z</time>
      </trkpt>
      <trkpt lat="43.26943" lon="6.18472">
        <ele>104.5</ele>
        <time>2021-07-11T10:20:56Z</time>
      </trkpt>
      <trkpt lat="43.2691" lon="6.18435">
        <ele>104.5</ele>
        <time>2021-07-11T10:21:01Z</time>
      </trkpt>
      <trkpt lat="43.26903" lon="6.18431">
        <ele>104.4</ele>
        <time>2021-07-11T10:21:03Z</time>
      </trkpt>
      <trkpt lat="43.26883" lon="6.18422">
        <ele>104.7</ele>
        <time>2021-07-11T10:21:06Z</time>
      </trkpt>
      <trkpt lat="43.26864" lon="6.18412">
        <ele>105.2</ele>
        <time>2021-07-11T10:21:09Z</time>
      </trkpt>
      <trkpt lat="43.26849" lon="6.18398">
        <ele>105.9</ele>
        <time>2021-07-11T10:21:12Z</time>
      </trkpt>
      <trkpt lat="43.26833" lon="6.18377">
        <ele>106.8</ele>
        <time>2021-07-11T10:21:16Z</time>
      </trkpt>
      <trkpt lat="43.268" lon="6.1833">
        <ele>108.2</ele>
        <time>2021-07-11T10:21:26Z</time>
      </trkpt>
      <trkpt lat="43.26796" lon="6.18326">
        <ele>108.2</ele>
        <time>2021-07-11T10:21:27Z</time>
      </trkpt>
      <trkpt lat="43.26753" lon="6.18297">
        <ele>108.9</ele>
        <time>2021-07-11T10:21:36Z</time>
      </trkpt>
      <trkpt lat="43.26716" lon="6.18283">
        <ele>109.7</ele>
        <time>2021-07-11T10:21:43Z</time>
      </trkpt>
      <trkpt lat="43.26702" lon="6.18278">
        <ele>110.2</ele>
        <time>2021-07-11T10:21:46Z</time>
      </trkpt>
      <trkpt lat="43.26665" lon="6.18271">
        <ele>111.6</ele>
        <time>2021-07-11T10:21:53Z</time>
      </trkpt>
      <trkpt lat="43.26649" lon="6.18274">
        <ele>112.1</ele>
        <time>2021-07-11T10:21:56Z</time>
      </trkpt>
      <trkpt lat="43.26604" lon="6.18294">
        <ele>113.5</ele>
        <time>2021-07-11T10:22:05Z</time>
      </trkpt>
      <trkpt lat="43.26595" lon="6.183">
        <ele>113.8</ele>
        <time>2021-07-11T10:22:06Z</time>
      </trkpt>
      <trkpt lat="43.26556" lon="6.18327">
        <ele>113.5</ele>
        <time>2021-07-11T10:22:15Z</time>
      </trkpt>
      <trkpt lat="43.26543" lon="6.18332">
        <ele>113.1</ele>
        <time>2021-07-11T10:22:16Z</time>
      </trkpt>
      <trkpt lat="43.26498" lon="6.18342">
        <ele>111.8</ele>
        <time>2021-07-11T10:22:23Z</time>
      </trkpt>
      <trkpt lat="43.26483" lon="6.1833">
        <ele>111</ele>
        <time>2021-07-11T10:22:26Z</time>
      </trkpt>
      <trkpt lat="43.2648" lon="6.18312">
        <ele>110.1</ele>
        <time>2021-07-11T10:22:28Z</time>
      </trkpt>
      <trkpt lat="43.26473" lon="6.1827">
        <ele>108.1</ele>
        <time>2021-07-11T10:22:32Z</time>
      </trkpt>
      <trkpt lat="43.26466" lon="6.18225">
        <ele>106.1</ele>
        <time>2021-07-11T10:22:36Z</time>
      </trkpt>
      <trkpt lat="43.26453" lon="6.18163">
        <ele>103.4</ele>
        <time>2021-07-11T10:22:41Z</time>
      </trkpt>
      <trkpt lat="43.2645" lon="6.1815">
        <ele>102.8</ele>
        <time>2021-07-11T10:22:42Z</time>
      </trkpt>
      <trkpt lat="43.2642" lon="6.1811">
        <ele>101.6</ele>
        <time>2021-07-11T10:22:46Z</time>
      </trkpt>
      <trkpt lat="43.26404" lon="6.18096">
        <ele>101.5</ele>
        <time>2021-07-11T10:22:48Z</time>
      </trkpt>
      <trkpt lat="43.2637" lon="6.1807">
        <ele>101.7</ele>
        <time>2021-07-11T10:22:52Z</time>
      </trkpt>
      <trkpt lat="43.26358" lon="6.18051">
        <ele>101.5</ele>
        <time>2021-07-11T10:22:54Z</time>
      </trkpt>
      <trkpt lat="43.26348" lon="6.18028">
        <ele>100.9</ele>
        <time>2021-07-11T10:22:56Z</time>
      </trkpt>
      <trkpt lat="43.26312" lon="6.17961">
        <ele>98.6</ele>
        <time>2021-07-11T10:23:02Z</time>
      </trkpt>
      <trkpt lat="43.26305" lon="6.17951">
        <ele>98.4</ele>
        <time>2021-07-11T10:23:03Z</time>
      </trkpt>
      <trkpt lat="43.26288" lon="6.1794">
        <ele>98.2</ele>
        <time>2021-07-11T10:23:05Z</time>
      </trkpt>
      <trkpt lat="43.26278" lon="6.17939">
        <ele>98.2</ele>
        <time>2021-07-11T10:23:06Z</time>
      </trkpt>
      <trkpt lat="43.26251" lon="6.17938">
        <ele>98.5</ele>
        <time>2021-07-11T10:23:09Z</time>
      </trkpt>
      <trkpt lat="43.26205" lon="6.17923">
        <ele>99.9</ele>
        <time>2021-07-11T10:23:15Z</time>
      </trkpt>
      <trkpt lat="43.26199" lon="6.17918">
        <ele>100</ele>
        <time>2021-07-11T10:23:16Z</time>
      </trkpt>
      <trkpt lat="43.26185" lon="6.17899">
        <ele>100</ele>
        <time>2021-07-11T10:23:19Z</time>
      </trkpt>
      <trkpt lat="43.26156" lon="6.17841">
        <ele>99.1</ele>
        <time>2021-07-11T10:23:26Z</time>
      </trkpt>
      <trkpt lat="43.2612" lon="6.17773">
        <ele>99.5</ele>
        <time>2021-07-11T10:23:34Z</time>
      </trkpt>
      <trkpt lat="43.26111" lon="6.17756">
        <ele>99.5</ele>
        <time>2021-07-11T10:23:36Z</time>
      </trkpt>
      <trkpt lat="43.26088" lon="6.17703">
        <ele>98.4</ele>
        <time>2021-07-11T10:23:42Z</time>
      </trkpt>
      <trkpt lat="43.26071" lon="6.17664">
        <ele>96.9</ele>
        <time>2021-07-11T10:23:46Z</time>
      </trkpt>
      <trkpt lat="43.2604" lon="6.17591">
        <ele>94.7</ele>
        <time>2021-07-11T10:23:53Z</time>
      </trkpt>
      <trkpt lat="43.26026" lon="6.17557">
        <ele>93.9</ele>
        <time>2021-07-11T10:23:56Z</time>
      </trkpt>
      <trkpt lat="43.25993" lon="6.17498">
        <ele>93.8</ele>
        <time>2021-07-11T10:24:02Z</time>
      </trkpt>
      <trkpt lat="43.25973" lon="6.17465">
        <ele>94.7</ele>
        <time>2021-07-11T10:24:06Z</time>
      </trkpt>
      <trkpt lat="43.25941" lon="6.17409">
        <ele>96.2</ele>
        <time>2021-07-11T10:24:13Z</time>
      </trkpt>
      <trkpt lat="43.25926" lon="6.1739">
        <ele>96.7</ele>
        <time>2021-07-11T10:24:16Z</time>
      </trkpt>
      <trkpt lat="43.25912" lon="6.17373">
        <ele>96.5</ele>
        <time>2021-07-11T10:24:19Z</time>
      </trkpt>
      <trkpt lat="43.25893" lon="6.17357">
        <ele>96</ele>
        <time>2021-07-11T10:24:22Z</time>
      </trkpt>
      <trkpt lat="43.25863" lon="6.17344">
        <ele>95.3</ele>
        <time>2021-07-11T10:24:26Z</time>
      </trkpt>
      <trkpt lat="43.25848" lon="6.17335">
        <ele>94.9</ele>
        <time>2021-07-11T10:24:28Z</time>
      </trkpt>
      <trkpt lat="43.25827" lon="6.17317">
        <ele>94.6</ele>
        <time>2021-07-11T10:24:31Z</time>
      </trkpt>
      <trkpt lat="43.25812" lon="6.17306">
        <ele>94.5</ele>
        <time>2021-07-11T10:24:33Z</time>
      </trkpt>
      <trkpt lat="43.25805" lon="6.17301">
        <ele>94.3</ele>
        <time>2021-07-11T10:24:34Z</time>
      </trkpt>
      <trkpt lat="43.25797" lon="6.17296">
        <ele>94.1</ele>
        <time>2021-07-11T10:24:35Z</time>
      </trkpt>
      <trkpt lat="43.2579" lon="6.17291">
        <ele>93.9</ele>
        <time>2021-07-11T10:24:36Z</time>
      </trkpt>
      <trkpt lat="43.25766" lon="6.17276">
        <ele>93</ele>
        <time>2021-07-11T10:24:39Z</time>
      </trkpt>
      <trkpt lat="43.25714" lon="6.17242">
        <ele>91.5</ele>
        <time>2021-07-11T10:24:45Z</time>
      </trkpt>
      <trkpt lat="43.25706" lon="6.17235">
        <ele>91.3</ele>
        <time>2021-07-11T10:24:46Z</time>
      </trkpt>
      <trkpt lat="43.25666" lon="6.17206">
        <ele>91</ele>
        <time>2021-07-11T10:24:51Z</time>
      </trkpt>
      <trkpt lat="43.25633" lon="6.17174">
        <ele>91.3</ele>
        <time>2021-07-11T10:24:56Z</time>
      </trkpt>
      <trkpt lat="43.2562" lon="6.17162">
        <ele>91.6</ele>
        <time>2021-07-11T10:24:58Z</time>
      </trkpt>
      <trkpt lat="43.25572" lon="6.17127">
        <ele>92</ele>
        <time>2021-07-11T10:25:05Z</time>
      </trkpt>
      <trkpt lat="43.25565" lon="6.17123">
        <ele>91.8</ele>
        <time>2021-07-11T10:25:06Z</time>
      </trkpt>
      <trkpt lat="43.2551" lon="6.1709">
        <ele>90.9</ele>
        <time>2021-07-11T10:25:13Z</time>
      </trkpt>
      <trkpt lat="43.25489" lon="6.1707">
        <ele>90.7</ele>
        <time>2021-07-11T10:25:16Z</time>
      </trkpt>
      <trkpt lat="43.25468" lon="6.17053">
        <ele>90.6</ele>
        <time>2021-07-11T10:25:19Z</time>
      </trkpt>
      <trkpt lat="43.25453" lon="6.17047">
        <ele>90.6</ele>
        <time>2021-07-11T10:25:21Z</time>
      </trkpt>
      <trkpt lat="43.25414" lon="6.17034">
        <ele>90.5</ele>
        <time>2021-07-11T10:25:26Z</time>
      </trkpt>
      <trkpt lat="43.25407" lon="6.17029">
        <ele>90.5</ele>
        <time>2021-07-11T10:25:27Z</time>
      </trkpt>
      <trkpt lat="43.25358" lon="6.16992">
        <ele>90.6</ele>
        <time>2021-07-11T10:25:34Z</time>
      </trkpt>
      <trkpt lat="43.25344" lon="6.16984">
        <ele>90.7</ele>
        <time>2021-07-11T10:25:36Z</time>
      </trkpt>
      <trkpt lat="43.25329" lon="6.16979">
        <ele>90.7</ele>
        <time>2021-07-11T10:25:38Z</time>
      </trkpt>
      <trkpt lat="43.25315" lon="6.1698">
        <ele>90.9</ele>
        <time>2021-07-11T10:25:40Z</time>
      </trkpt>
      <trkpt lat="43.2527" lon="6.16986">
        <ele>91.4</ele>
        <time>2021-07-11T10:25:46Z</time>
      </trkpt>
      <trkpt lat="43.25217" lon="6.17006">
        <ele>91.6</ele>
        <time>2021-07-11T10:25:54Z</time>
      </trkpt>
      <trkpt lat="43.25202" lon="6.17013">
        <ele>91.2</ele>
        <time>2021-07-11T10:25:56Z</time>
      </trkpt>
      <trkpt lat="43.25145" lon="6.17021">
        <ele>89.2</ele>
        <time>2021-07-11T10:26:03Z</time>
      </trkpt>
      <trkpt lat="43.25118" lon="6.17019">
        <ele>88.3</ele>
        <time>2021-07-11T10:26:06Z</time>
      </trkpt>
      <trkpt lat="43.25063" lon="6.17009">
        <ele>87.4</ele>
        <time>2021-07-11T10:26:12Z</time>
      </trkpt>
      <trkpt lat="43.25032" lon="6.16996">
        <ele>87.7</ele>
        <time>2021-07-11T10:26:16Z</time>
      </trkpt>
      <trkpt lat="43.24977" lon="6.16979">
        <ele>85.6</ele>
        <time>2021-07-11T10:26:23Z</time>
      </trkpt>
      <trkpt lat="43.2495" lon="6.1697">
        <ele>84.1</ele>
        <time>2021-07-11T10:26:26Z</time>
      </trkpt>
      <trkpt lat="43.2493" lon="6.1696">
        <ele>83.3</ele>
        <time>2021-07-11T10:26:28Z</time>
      </trkpt>
      <trkpt lat="43.2488" lon="6.16916">
        <ele>82.5</ele>
        <time>2021-07-11T10:26:34Z</time>
      </trkpt>
      <trkpt lat="43.24874" lon="6.16906">
        <ele>82.4</ele>
        <time>2021-07-11T10:26:35Z</time>
      </trkpt>
      <trkpt lat="43.24868" lon="6.16897">
        <ele>82.4</ele>
        <time>2021-07-11T10:26:36Z</time>
      </trkpt>
      <trkpt lat="43.24846" lon="6.16848">
        <ele>82.1</ele>
        <time>2021-07-11T10:26:41Z</time>
      </trkpt>
      <trkpt lat="43.24818" lon="6.16803">
        <ele>80.8</ele>
        <time>2021-07-11T10:26:46Z</time>
      </trkpt>
      <trkpt lat="43.24777" lon="6.16745">
        <ele>80.4</ele>
        <time>2021-07-11T10:26:53Z</time>
      </trkpt>
      <trkpt lat="43.2476" lon="6.1672">
        <ele>80.5</ele>
        <time>2021-07-11T10:26:56Z</time>
      </trkpt>
      <trkpt lat="43.24734" lon="6.1668">
        <ele>80.5</ele>
        <time>2021-07-11T10:27:01Z</time>
      </trkpt>
      <trkpt lat="43.24709" lon="6.16639">
        <ele>80.3</ele>
        <time>2021-07-11T10:27:06Z</time>
      </trkpt>
      <trkpt lat="43.24688" lon="6.16598">
        <ele>81</ele>
        <time>2021-07-11T10:27:11Z</time>
      </trkpt>
      <trkpt lat="43.24662" lon="6.16573">
        <ele>83.1</ele>
        <time>2021-07-11T10:27:16Z</time>
      </trkpt>
      <trkpt lat="43.24653" lon="6.16565">
        <ele>83.9</ele>
        <time>2021-07-11T10:27:18Z</time>
      </trkpt>
      <trkpt lat="43.2464" lon="6.16545">
        <ele>85.3</ele>
        <time>2021-07-11T10:27:23Z</time>
      </trkpt>
      <trkpt lat="43.24634" lon="6.16531">
        <ele>86</ele>
        <time>2021-07-11T10:27:26Z</time>
      </trkpt>
      <trkpt lat="43.24627" lon="6.16517">
        <ele>86.8</ele>
        <time>2021-07-11T10:27:29Z</time>
      </trkpt>
      <trkpt lat="43.2461" lon="6.16485">
        <ele>87.6</ele>
        <time>2021-07-11T10:27:36Z</time>
      </trkpt>
      <trkpt lat="43.246" lon="6.16459">
        <ele>87.3</ele>
        <time>2021-07-11T10:27:40Z</time>
      </trkpt>
      <trkpt lat="43.24589" lon="6.16415">
        <ele>86.6</ele>
        <time>2021-07-11T10:27:46Z</time>
      </trkpt>
      <trkpt lat="43.24572" lon="6.16344">
        <ele>84.9</ele>
        <time>2021-07-11T10:27:54Z</time>
      </trkpt>
      <trkpt lat="43.24568" lon="6.16325">
        <ele>84.4</ele>
        <time>2021-07-11T10:27:56Z</time>
      </trkpt>
      <trkpt lat="43.24553" lon="6.16253">
        <ele>82.3</ele>
        <time>2021-07-11T10:28:03Z</time>
      </trkpt>
      <trkpt lat="43.24546" lon="6.16219">
        <ele>81</ele>
        <time>2021-07-11T10:28:06Z</time>
      </trkpt>
      <trkpt lat="43.24524" lon="6.16147">
        <ele>79.1</ele>
        <time>2021-07-11T10:28:12Z</time>
      </trkpt>
      <trkpt lat="43.24517" lon="6.16123">
        <ele>79.2</ele>
        <time>2021-07-11T10:28:14Z</time>
      </trkpt>
      <trkpt lat="43.24513" lon="6.161">
        <ele>79.8</ele>
        <time>2021-07-11T10:28:16Z</time>
      </trkpt>
      <trkpt lat="43.24508" lon="6.1608">
        <ele>80.6</ele>
        <time>2021-07-11T10:28:18Z</time>
      </trkpt>
      <trkpt lat="43.245" lon="6.16066">
        <ele>81.1</ele>
        <time>2021-07-11T10:28:20Z</time>
      </trkpt>
      <trkpt lat="43.24476" lon="6.16032">
        <ele>82.4</ele>
        <time>2021-07-11T10:28:26Z</time>
      </trkpt>
      <trkpt lat="43.24443" lon="6.15971">
        <ele>82.9</ele>
        <time>2021-07-11T10:28:36Z</time>
      </trkpt>
      <trkpt lat="43.24411" lon="6.15919">
        <ele>82.1</ele>
        <time>2021-07-11T10:28:43Z</time>
      </trkpt>
      <trkpt lat="43.24397" lon="6.15894">
        <ele>81.6</ele>
        <time>2021-07-11T10:28:46Z</time>
      </trkpt>
      <trkpt lat="43.24362" lon="6.15825">
        <ele>80.3</ele>
        <time>2021-07-11T10:28:54Z</time>
      </trkpt>
      <trkpt lat="43.24352" lon="6.15808">
        <ele>80.1</ele>
        <time>2021-07-11T10:28:56Z</time>
      </trkpt>
      <trkpt lat="43.24313" lon="6.15749">
        <ele>79.5</ele>
        <time>2021-07-11T10:29:03Z</time>
      </trkpt>
      <trkpt lat="43.24297" lon="6.15726">
        <ele>79.2</ele>
        <time>2021-07-11T10:29:06Z</time>
      </trkpt>
      <trkpt lat="43.2426" lon="6.1567">
        <ele>77.8</ele>
        <time>2021-07-11T10:29:13Z</time>
      </trkpt>
      <trkpt lat="43.24244" lon="6.15643">
        <ele>76.8</ele>
        <time>2021-07-11T10:29:16Z</time>
      </trkpt>
      <trkpt lat="43.24225" lon="6.15616">
        <ele>76</ele>
        <time>2021-07-11T10:29:19Z</time>
      </trkpt>
      <trkpt lat="43.2421" lon="6.15604">
        <ele>75.2</ele>
        <time>2021-07-11T10:29:21Z</time>
      </trkpt>
      <trkpt lat="43.24191" lon="6.15598">
        <ele>73.8</ele>
        <time>2021-07-11T10:29:23Z</time>
      </trkpt>
      <trkpt lat="43.2416" lon="6.15593">
        <ele>71.4</ele>
        <time>2021-07-11T10:29:26Z</time>
      </trkpt>
      <trkpt lat="43.24107" lon="6.15582">
        <ele>67.3</ele>
        <time>2021-07-11T10:29:31Z</time>
      </trkpt>
      <trkpt lat="43.24093" lon="6.15569">
        <ele>66.5</ele>
        <time>2021-07-11T10:29:33Z</time>
      </trkpt>
      <trkpt lat="43.24084" lon="6.15547">
        <ele>65.9</ele>
        <time>2021-07-11T10:29:35Z</time>
      </trkpt>
      <trkpt lat="43.2408" lon="6.15534">
        <ele>65.7</ele>
        <time>2021-07-11T10:29:36Z</time>
      </trkpt>
      <trkpt lat="43.24047" lon="6.15471">
        <ele>64.9</ele>
        <time>2021-07-11T10:29:42Z</time>
      </trkpt>
      <trkpt lat="43.24018" lon="6.15436">
        <ele>64.2</ele>
        <time>2021-07-11T10:29:46Z</time>
      </trkpt>
      <trkpt lat="43.23983" lon="6.15374">
        <ele>63.1</ele>
        <time>2021-07-11T10:29:52Z</time>
      </trkpt>
      <trkpt lat="43.23961" lon="6.15335">
        <ele>62.6</ele>
        <time>2021-07-11T10:29:56Z</time>
      </trkpt>
      <trkpt lat="43.23924" lon="6.15267">
        <ele>62</ele>
        <time>2021-07-11T10:30:03Z</time>
      </trkpt>
      <trkpt lat="43.23911" lon="6.15236">
        <ele>61.8</ele>
        <time>2021-07-11T10:30:06Z</time>
      </trkpt>
      <trkpt lat="43.23891" lon="6.15164">
        <ele>61.6</ele>
        <time>2021-07-11T10:30:13Z</time>
      </trkpt>
      <trkpt lat="43.23887" lon="6.15136">
        <ele>61.5</ele>
        <time>2021-07-11T10:30:16Z</time>
      </trkpt>
      <trkpt lat="43.23879" lon="6.1508">
        <ele>62.5</ele>
        <time>2021-07-11T10:30:22Z</time>
      </trkpt>
      <trkpt lat="43.23881" lon="6.15057">
        <ele>63.3</ele>
        <time>2021-07-11T10:30:26Z</time>
      </trkpt>
      <trkpt lat="43.2388" lon="6.15041">
        <ele>63.8</ele>
        <time>2021-07-11T10:30:31Z</time>
      </trkpt>
      <trkpt lat="43.23878" lon="6.15039">
        <ele>63.7</ele>
        <time>2021-07-11T10:30:32Z</time>
      </trkpt>
      <trkpt lat="43.23874" lon="6.15037">
        <ele>63.6</ele>
        <time>2021-07-11T10:30:33Z</time>
      </trkpt>
      <trkpt lat="43.23857" lon="6.15032">
        <ele>63.2</ele>
        <time>2021-07-11T10:30:36Z</time>
      </trkpt>
      <trkpt lat="43.23799" lon="6.15007">
        <ele>62.8</ele>
        <time>2021-07-11T10:30:45Z</time>
      </trkpt>
      <trkpt lat="43.23792" lon="6.15003">
        <ele>62.8</ele>
        <time>2021-07-11T10:30:46Z</time>
      </trkpt>
      <trkpt lat="43.23746" lon="6.14974">
        <ele>63.2</ele>
        <time>2021-07-11T10:30:53Z</time>
      </trkpt>
      <trkpt lat="43.2374" lon="6.14971">
        <ele>63.3</ele>
        <time>2021-07-11T10:30:54Z</time>
      </trkpt>
      <trkpt lat="43.23728" lon="6.14969">
        <ele>63.6</ele>
        <time>2021-07-11T10:30:56Z</time>
      </trkpt>
      <trkpt lat="43.23716" lon="6.14973">
        <ele>63.8</ele>
        <time>2021-07-11T10:30:58Z</time>
      </trkpt>
      <trkpt lat="43.23707" lon="6.14982">
        <ele>64</ele>
        <time>2021-07-11T10:31:00Z</time>
      </trkpt>
      <trkpt lat="43.23697" lon="6.15">
        <ele>64.2</ele>
        <time>2021-07-11T10:31:03Z</time>
      </trkpt>
      <trkpt lat="43.23686" lon="6.15017">
        <ele>64.4</ele>
        <time>2021-07-11T10:31:06Z</time>
      </trkpt>
      <trkpt lat="43.23676" lon="6.15026">
        <ele>64.5</ele>
        <time>2021-07-11T10:31:08Z</time>
      </trkpt>
      <trkpt lat="43.23665" lon="6.15033">
        <ele>64.5</ele>
        <time>2021-07-11T10:31:10Z</time>
      </trkpt>
      <trkpt lat="43.23653" lon="6.15036">
        <ele>64.6</ele>
        <time>2021-07-11T10:31:12Z</time>
      </trkpt>
      <trkpt lat="43.23628" lon="6.15033">
        <ele>64.3</ele>
        <time>2021-07-11T10:31:16Z</time>
      </trkpt>
      <trkpt lat="43.23571" lon="6.15023">
        <ele>63.6</ele>
        <time>2021-07-11T10:31:25Z</time>
      </trkpt>
      <trkpt lat="43.23564" lon="6.15022">
        <ele>63.5</ele>
        <time>2021-07-11T10:31:26Z</time>
      </trkpt>
      <trkpt lat="43.23507" lon="6.1501">
        <ele>63.5</ele>
        <time>2021-07-11T10:31:34Z</time>
      </trkpt>
      <trkpt lat="43.23494" lon="6.15008">
        <ele>63.6</ele>
        <time>2021-07-11T10:31:36Z</time>
      </trkpt>
      <trkpt lat="43.23435" lon="6.14997">
        <ele>64.5</ele>
        <time>2021-07-11T10:31:45Z</time>
      </trkpt>
      <trkpt lat="43.23429" lon="6.14996">
        <ele>64.7</ele>
        <time>2021-07-11T10:31:46Z</time>
      </trkpt>
      <trkpt lat="43.234" lon="6.14991">
        <ele>65.8</ele>
        <time>2021-07-11T10:31:51Z</time>
      </trkpt>
      <trkpt lat="43.23373" lon="6.14985">
        <ele>66.7</ele>
        <time>2021-07-11T10:31:56Z</time>
      </trkpt>
      <trkpt lat="43.23326" lon="6.14973">
        <ele>68.5</ele>
        <time>2021-07-11T10:32:06Z</time>
      </trkpt>
      <trkpt lat="43.23282" lon="6.14963">
        <ele>70.3</ele>
        <time>2021-07-11T10:32:16Z</time>
      </trkpt>
      <trkpt lat="43.23273" lon="6.14962">
        <ele>70.7</ele>
        <time>2021-07-11T10:32:18Z</time>
      </trkpt>
      <trkpt lat="43.2324" lon="6.14962">
        <ele>72.4</ele>
        <time>2021-07-11T10:32:26Z</time>
      </trkpt>
      <trkpt lat="43.23202" lon="6.14956">
        <ele>74.3</ele>
        <time>2021-07-11T10:32:36Z</time>
      </trkpt>
      <trkpt lat="43.23183" lon="6.14953">
        <ele>75.2</ele>
        <time>2021-07-11T10:32:41Z</time>
      </trkpt>
      <trkpt lat="43.23171" lon="6.1495">
        <ele>75.8</ele>
        <time>2021-07-11T10:32:44Z</time>
      </trkpt>
      <trkpt lat="43.23163" lon="6.14951">
        <ele>76.2</ele>
        <time>2021-07-11T10:32:46Z</time>
      </trkpt>
      <trkpt lat="43.23129" lon="6.14949">
        <ele>77.8</ele>
        <time>2021-07-11T10:32:56Z</time>
      </trkpt>
      <trkpt lat="43.23098" lon="6.1492">
        <ele>79.4</ele>
        <time>2021-07-11T10:33:06Z</time>
      </trkpt>
      <trkpt lat="43.23077" lon="6.14873">
        <ele>80.5</ele>
        <time>2021-07-11T10:33:16Z</time>
      </trkpt>
      <trkpt lat="43.23058" lon="6.14823">
        <ele>81.9</ele>
        <time>2021-07-11T10:33:26Z</time>
      </trkpt>
      <trkpt lat="43.23036" lon="6.14772">
        <ele>83.8</ele>
        <time>2021-07-11T10:33:36Z</time>
      </trkpt>
      <trkpt lat="43.23019" lon="6.14724">
        <ele>85.5</ele>
        <time>2021-07-11T10:33:46Z</time>
      </trkpt>
      <trkpt lat="43.23004" lon="6.14687">
        <ele>86.9</ele>
        <time>2021-07-11T10:33:54Z</time>
      </trkpt>
      <trkpt lat="43.23" lon="6.14677">
        <ele>87.3</ele>
        <time>2021-07-11T10:33:56Z</time>
      </trkpt>
      <trkpt lat="43.22972" lon="6.14627">
        <ele>89.2</ele>
        <time>2021-07-11T10:34:06Z</time>
      </trkpt>
      <trkpt lat="43.22954" lon="6.14602">
        <ele>90.4</ele>
        <time>2021-07-11T10:34:12Z</time>
      </trkpt>
      <trkpt lat="43.22942" lon="6.14587">
        <ele>91.2</ele>
        <time>2021-07-11T10:34:16Z</time>
      </trkpt>
      <trkpt lat="43.22915" lon="6.14548">
        <ele>92.8</ele>
        <time>2021-07-11T10:34:26Z</time>
      </trkpt>
      <trkpt lat="43.22892" lon="6.14505">
        <ele>94.5</ele>
        <time>2021-07-11T10:34:36Z</time>
      </trkpt>
      <trkpt lat="43.22875" lon="6.14465">
        <ele>95.7</ele>
        <time>2021-07-11T10:34:45Z</time>
      </trkpt>
      <trkpt lat="43.22874" lon="6.1446">
        <ele>95.9</ele>
        <time>2021-07-11T10:34:46Z</time>
      </trkpt>
      <trkpt lat="43.22864" lon="6.14417">
        <ele>97</ele>
        <time>2021-07-11T10:34:55Z</time>
      </trkpt>
      <trkpt lat="43.22862" lon="6.14412">
        <ele>97.2</ele>
        <time>2021-07-11T10:34:56Z</time>
      </trkpt>
      <trkpt lat="43.22836" lon="6.1437">
        <ele>98.3</ele>
        <time>2021-07-11T10:35:06Z</time>
      </trkpt>
      <trkpt lat="43.22815" lon="6.1435">
        <ele>98.9</ele>
        <time>2021-07-11T10:35:12Z</time>
      </trkpt>
      <trkpt lat="43.22803" lon="6.14343">
        <ele>99</ele>
        <time>2021-07-11T10:35:15Z</time>
      </trkpt>
      <trkpt lat="43.22799" lon="6.14341">
        <ele>99.1</ele>
        <time>2021-07-11T10:35:16Z</time>
      </trkpt>
      <trkpt lat="43.22778" lon="6.14329">
        <ele>99.3</ele>
        <time>2021-07-11T10:35:22Z</time>
      </trkpt>
      <trkpt lat="43.2278" lon="6.14311">
        <ele>99.4</ele>
        <time>2021-07-11T10:35:26Z</time>
      </trkpt>
      <trkpt lat="43.22781" lon="6.14262">
        <ele>96.9</ele>
        <time>2021-07-11T10:35:36Z</time>
      </trkpt>
      <trkpt lat="43.22781" lon="6.14241">
        <ele>92.3</ele>
        <time>2021-07-11T10:35:40Z</time>
      </trkpt>
      <trkpt lat="43.22781" lon="6.14233">
        <ele>90.6</ele>
        <time>2021-07-11T10:35:45Z</time>
      </trkpt>
    </trkseg>
  </trk>
</gpx>